<?xml version="1.0" encoding="UTF-8" standalone="no" ?>
<gpx xmlns="http://www.topografix.com/GPX/1/1" xmlns:xsi="http://www.w3.org/2001/XMLSchema-instance" xsi:schemaLocation="http://www.topografix.com/GPX/1/1 http://www.topografix.com/GPX/1/1/gpx.xsd" version="1.1" creator="VisuGPX - https://www.visugpx.com">
  <metadata>
    <name>DROMOISE 2022</name>
  </metadata>
  <trk>
    <name><![CDATA[Dromoise Intégrale_138km_2342 D+]]></name>
    <extensions>
      <line xmlns="http://www.topografix.com/GPX/gpx_style/0/2">
        <color>0000FF</color>
        <width>4</width>
      </line>
    </extensions>
    <trkseg>
      <trkpt lat="44.75113" lon="5.37602">
        <ele>415</ele>
        <time>2022-09-06T19:35:14Z</time>
      </trkpt>
      <trkpt lat="44.75071" lon="5.37655">
        <ele>415</ele>
        <time>2022-09-06T19:35:24Z</time>
      </trkpt>
      <trkpt lat="44.74898" lon="5.37944">
        <ele>406</ele>
        <time>2022-09-06T19:36:12Z</time>
      </trkpt>
      <trkpt lat="44.74885" lon="5.37951">
        <ele>406</ele>
        <time>2022-09-06T19:36:14Z</time>
      </trkpt>
      <trkpt lat="44.74871" lon="5.37948">
        <ele>405</ele>
        <time>2022-09-06T19:36:17Z</time>
      </trkpt>
      <trkpt lat="44.74857" lon="5.3794">
        <ele>404</ele>
        <time>2022-09-06T19:36:19Z</time>
      </trkpt>
      <trkpt lat="44.74851" lon="5.37925">
        <ele>404</ele>
        <time>2022-09-06T19:36:22Z</time>
      </trkpt>
      <trkpt lat="44.74841" lon="5.37917">
        <ele>403</ele>
        <time>2022-09-06T19:36:24Z</time>
      </trkpt>
      <trkpt lat="44.74832" lon="5.37916">
        <ele>403</ele>
        <time>2022-09-06T19:36:25Z</time>
      </trkpt>
      <trkpt lat="44.74818" lon="5.37928">
        <ele>403</ele>
        <time>2022-09-06T19:36:28Z</time>
      </trkpt>
      <trkpt lat="44.74815" lon="5.37936">
        <ele>403</ele>
        <time>2022-09-06T19:36:29Z</time>
      </trkpt>
      <trkpt lat="44.74814" lon="5.3795">
        <ele>403</ele>
        <time>2022-09-06T19:36:31Z</time>
      </trkpt>
      <trkpt lat="44.74826" lon="5.37991">
        <ele>405</ele>
        <time>2022-09-06T19:36:37Z</time>
      </trkpt>
      <trkpt lat="44.74831" lon="5.38055">
        <ele>406</ele>
        <time>2022-09-06T19:36:45Z</time>
      </trkpt>
      <trkpt lat="44.74821" lon="5.38079">
        <ele>407</ele>
        <time>2022-09-06T19:36:48Z</time>
      </trkpt>
      <trkpt lat="44.74645" lon="5.38384">
        <ele>406</ele>
        <time>2022-09-06T19:37:38Z</time>
      </trkpt>
      <trkpt lat="44.74605" lon="5.38438">
        <ele>408</ele>
        <time>2022-09-06T19:37:48Z</time>
      </trkpt>
      <trkpt lat="44.74562" lon="5.38478">
        <ele>409</ele>
        <time>2022-09-06T19:37:57Z</time>
      </trkpt>
      <trkpt lat="44.74499" lon="5.38525">
        <ele>408</ele>
        <time>2022-09-06T19:38:10Z</time>
      </trkpt>
      <trkpt lat="44.74429" lon="5.38554">
        <ele>408</ele>
        <time>2022-09-06T19:38:23Z</time>
      </trkpt>
      <trkpt lat="44.7427" lon="5.38596">
        <ele>410</ele>
        <time>2022-09-06T19:38:52Z</time>
      </trkpt>
      <trkpt lat="44.7403" lon="5.38667">
        <ele>417</ele>
        <time>2022-09-06T19:39:35Z</time>
      </trkpt>
      <trkpt lat="44.73715" lon="5.38838">
        <ele>421</ele>
        <time>2022-09-06T19:40:35Z</time>
      </trkpt>
      <trkpt lat="44.73394" lon="5.39007">
        <ele>423</ele>
        <time>2022-09-06T19:41:36Z</time>
      </trkpt>
      <trkpt lat="44.73165" lon="5.39135">
        <ele>423</ele>
        <time>2022-09-06T19:42:20Z</time>
      </trkpt>
      <trkpt lat="44.73038" lon="5.39201">
        <ele>425</ele>
        <time>2022-09-06T19:42:44Z</time>
      </trkpt>
      <trkpt lat="44.7301" lon="5.39213">
        <ele>426</ele>
        <time>2022-09-06T19:42:49Z</time>
      </trkpt>
      <trkpt lat="44.72986" lon="5.39218">
        <ele>426</ele>
        <time>2022-09-06T19:42:54Z</time>
      </trkpt>
      <trkpt lat="44.72969" lon="5.39217">
        <ele>427</ele>
        <time>2022-09-06T19:42:57Z</time>
      </trkpt>
      <trkpt lat="44.72883" lon="5.39199">
        <ele>426</ele>
        <time>2022-09-06T19:43:12Z</time>
      </trkpt>
      <trkpt lat="44.72862" lon="5.392">
        <ele>425</ele>
        <time>2022-09-06T19:43:16Z</time>
      </trkpt>
      <trkpt lat="44.72846" lon="5.39207">
        <ele>425</ele>
        <time>2022-09-06T19:43:19Z</time>
      </trkpt>
      <trkpt lat="44.7282" lon="5.39231">
        <ele>426</ele>
        <time>2022-09-06T19:43:24Z</time>
      </trkpt>
      <trkpt lat="44.72713" lon="5.39424">
        <ele>429</ele>
        <time>2022-09-06T19:43:55Z</time>
      </trkpt>
      <trkpt lat="44.72703" lon="5.39448">
        <ele>429</ele>
        <time>2022-09-06T19:43:59Z</time>
      </trkpt>
      <trkpt lat="44.72692" lon="5.3951">
        <ele>431</ele>
        <time>2022-09-06T19:44:07Z</time>
      </trkpt>
      <trkpt lat="44.72679" lon="5.3953">
        <ele>432</ele>
        <time>2022-09-06T19:44:10Z</time>
      </trkpt>
      <trkpt lat="44.72654" lon="5.39537">
        <ele>430</ele>
        <time>2022-09-06T19:44:15Z</time>
      </trkpt>
      <trkpt lat="44.72637" lon="5.39558">
        <ele>431</ele>
        <time>2022-09-06T19:44:19Z</time>
      </trkpt>
      <trkpt lat="44.7256" lon="5.39692">
        <ele>429</ele>
        <time>2022-09-06T19:44:41Z</time>
      </trkpt>
      <trkpt lat="44.72533" lon="5.39728">
        <ele>429</ele>
        <time>2022-09-06T19:44:47Z</time>
      </trkpt>
      <trkpt lat="44.72489" lon="5.39767">
        <ele>428</ele>
        <time>2022-09-06T19:44:57Z</time>
      </trkpt>
      <trkpt lat="44.7245" lon="5.39791">
        <ele>428</ele>
        <time>2022-09-06T19:45:04Z</time>
      </trkpt>
      <trkpt lat="44.72398" lon="5.39814">
        <ele>428</ele>
        <time>2022-09-06T19:45:14Z</time>
      </trkpt>
      <trkpt lat="44.72128" lon="5.3988">
        <ele>432</ele>
        <time>2022-09-06T19:46:03Z</time>
      </trkpt>
      <trkpt lat="44.7175" lon="5.40002">
        <ele>439</ele>
        <time>2022-09-06T19:47:12Z</time>
      </trkpt>
      <trkpt lat="44.71693" lon="5.40023">
        <ele>441</ele>
        <time>2022-09-06T19:47:22Z</time>
      </trkpt>
      <trkpt lat="44.71604" lon="5.4005">
        <ele>441</ele>
        <time>2022-09-06T19:47:38Z</time>
      </trkpt>
      <trkpt lat="44.71387" lon="5.40124">
        <ele>442</ele>
        <time>2022-09-06T19:48:18Z</time>
      </trkpt>
      <trkpt lat="44.71328" lon="5.40142">
        <ele>443</ele>
        <time>2022-09-06T19:48:29Z</time>
      </trkpt>
      <trkpt lat="44.71292" lon="5.40156">
        <ele>444</ele>
        <time>2022-09-06T19:48:35Z</time>
      </trkpt>
      <trkpt lat="44.71239" lon="5.4017">
        <ele>445</ele>
        <time>2022-09-06T19:48:45Z</time>
      </trkpt>
      <trkpt lat="44.71217" lon="5.40165">
        <ele>444</ele>
        <time>2022-09-06T19:48:49Z</time>
      </trkpt>
      <trkpt lat="44.71198" lon="5.40181">
        <ele>444</ele>
        <time>2022-09-06T19:48:53Z</time>
      </trkpt>
      <trkpt lat="44.71182" lon="5.40187">
        <ele>444</ele>
        <time>2022-09-06T19:48:56Z</time>
      </trkpt>
      <trkpt lat="44.71117" lon="5.40199">
        <ele>443</ele>
        <time>2022-09-06T19:49:08Z</time>
      </trkpt>
      <trkpt lat="44.71052" lon="5.40194">
        <ele>443</ele>
        <time>2022-09-06T19:49:19Z</time>
      </trkpt>
      <trkpt lat="44.71005" lon="5.40184">
        <ele>443</ele>
        <time>2022-09-06T19:49:28Z</time>
      </trkpt>
      <trkpt lat="44.70931" lon="5.40163">
        <ele>444</ele>
        <time>2022-09-06T19:49:41Z</time>
      </trkpt>
      <trkpt lat="44.7084" lon="5.40123">
        <ele>444</ele>
        <time>2022-09-06T19:49:58Z</time>
      </trkpt>
      <trkpt lat="44.70824" lon="5.40108">
        <ele>443</ele>
        <time>2022-09-06T19:50:01Z</time>
      </trkpt>
      <trkpt lat="44.70816" lon="5.40095">
        <ele>442</ele>
        <time>2022-09-06T19:50:04Z</time>
      </trkpt>
      <trkpt lat="44.708" lon="5.40112">
        <ele>442</ele>
        <time>2022-09-06T19:50:07Z</time>
      </trkpt>
      <trkpt lat="44.70779" lon="5.40144">
        <ele>443</ele>
        <time>2022-09-06T19:50:13Z</time>
      </trkpt>
      <trkpt lat="44.70735" lon="5.40219">
        <ele>451</ele>
        <time>2022-09-06T19:50:25Z</time>
      </trkpt>
      <trkpt lat="44.70725" lon="5.40231">
        <ele>452</ele>
        <time>2022-09-06T19:50:27Z</time>
      </trkpt>
      <trkpt lat="44.70684" lon="5.40266">
        <ele>450</ele>
        <time>2022-09-06T19:50:36Z</time>
      </trkpt>
      <trkpt lat="44.70664" lon="5.40278">
        <ele>448</ele>
        <time>2022-09-06T19:50:40Z</time>
      </trkpt>
      <trkpt lat="44.70651" lon="5.40282">
        <ele>448</ele>
        <time>2022-09-06T19:50:42Z</time>
      </trkpt>
      <trkpt lat="44.70554" lon="5.40292">
        <ele>448</ele>
        <time>2022-09-06T19:50:59Z</time>
      </trkpt>
      <trkpt lat="44.70535" lon="5.40287">
        <ele>448</ele>
        <time>2022-09-06T19:51:03Z</time>
      </trkpt>
      <trkpt lat="44.70476" lon="5.40264">
        <ele>445</ele>
        <time>2022-09-06T19:51:14Z</time>
      </trkpt>
      <trkpt lat="44.70462" lon="5.40261">
        <ele>444</ele>
        <time>2022-09-06T19:51:16Z</time>
      </trkpt>
      <trkpt lat="44.7045" lon="5.40262">
        <ele>444</ele>
        <time>2022-09-06T19:51:18Z</time>
      </trkpt>
      <trkpt lat="44.70439" lon="5.40267">
        <ele>444</ele>
        <time>2022-09-06T19:51:20Z</time>
      </trkpt>
      <trkpt lat="44.70421" lon="5.40285">
        <ele>445</ele>
        <time>2022-09-06T19:51:24Z</time>
      </trkpt>
      <trkpt lat="44.70416" lon="5.40295">
        <ele>446</ele>
        <time>2022-09-06T19:51:26Z</time>
      </trkpt>
      <trkpt lat="44.70406" lon="5.40333">
        <ele>449</ele>
        <time>2022-09-06T19:51:31Z</time>
      </trkpt>
      <trkpt lat="44.70382" lon="5.40442">
        <ele>456</ele>
        <time>2022-09-06T19:51:45Z</time>
      </trkpt>
      <trkpt lat="44.70383" lon="5.40536">
        <ele>460</ele>
        <time>2022-09-06T19:51:57Z</time>
      </trkpt>
      <trkpt lat="44.70374" lon="5.40617">
        <ele>463</ele>
        <time>2022-09-06T19:52:08Z</time>
      </trkpt>
      <trkpt lat="44.70377" lon="5.4068">
        <ele>463</ele>
        <time>2022-09-06T19:52:16Z</time>
      </trkpt>
      <trkpt lat="44.70376" lon="5.4071">
        <ele>463</ele>
        <time>2022-09-06T19:52:19Z</time>
      </trkpt>
      <trkpt lat="44.70362" lon="5.40826">
        <ele>462</ele>
        <time>2022-09-06T19:52:34Z</time>
      </trkpt>
      <trkpt lat="44.70345" lon="5.40884">
        <ele>461</ele>
        <time>2022-09-06T19:52:42Z</time>
      </trkpt>
      <trkpt lat="44.70182" lon="5.41278">
        <ele>468</ele>
        <time>2022-09-06T19:53:40Z</time>
      </trkpt>
      <trkpt lat="44.7015" lon="5.41335">
        <ele>469</ele>
        <time>2022-09-06T19:53:49Z</time>
      </trkpt>
      <trkpt lat="44.69983" lon="5.41596">
        <ele>479</ele>
        <time>2022-09-06T19:54:34Z</time>
      </trkpt>
      <trkpt lat="44.69965" lon="5.41638">
        <ele>481</ele>
        <time>2022-09-06T19:54:40Z</time>
      </trkpt>
      <trkpt lat="44.6993" lon="5.41751">
        <ele>481</ele>
        <time>2022-09-06T19:54:55Z</time>
      </trkpt>
      <trkpt lat="44.69908" lon="5.41801">
        <ele>484</ele>
        <time>2022-09-06T19:55:03Z</time>
      </trkpt>
      <trkpt lat="44.69877" lon="5.41835">
        <ele>485</ele>
        <time>2022-09-06T19:55:10Z</time>
      </trkpt>
      <trkpt lat="44.69708" lon="5.41983">
        <ele>495</ele>
        <time>2022-09-06T19:55:45Z</time>
      </trkpt>
      <trkpt lat="44.69669" lon="5.42026">
        <ele>493</ele>
        <time>2022-09-06T19:55:54Z</time>
      </trkpt>
      <trkpt lat="44.69635" lon="5.42069">
        <ele>496</ele>
        <time>2022-09-06T19:56:02Z</time>
      </trkpt>
      <trkpt lat="44.69612" lon="5.42102">
        <ele>496</ele>
        <time>2022-09-06T19:56:08Z</time>
      </trkpt>
      <trkpt lat="44.69593" lon="5.42135">
        <ele>497</ele>
        <time>2022-09-06T19:56:13Z</time>
      </trkpt>
      <trkpt lat="44.69202" lon="5.42969">
        <ele>521</ele>
        <time>2022-09-06T19:58:20Z</time>
      </trkpt>
      <trkpt lat="44.69198" lon="5.42967">
        <ele>521</ele>
        <time>2022-09-06T19:58:20Z</time>
      </trkpt>
      <trkpt lat="44.69193" lon="5.42968">
        <ele>520</ele>
        <time>2022-09-06T19:58:21Z</time>
      </trkpt>
      <trkpt lat="44.69188" lon="5.42971">
        <ele>520</ele>
        <time>2022-09-06T19:58:22Z</time>
      </trkpt>
      <trkpt lat="44.69185" lon="5.42977">
        <ele>519</ele>
        <time>2022-09-06T19:58:23Z</time>
      </trkpt>
      <trkpt lat="44.69186" lon="5.42991">
        <ele>520</ele>
        <time>2022-09-06T19:58:25Z</time>
      </trkpt>
      <trkpt lat="44.6919" lon="5.42997">
        <ele>521</ele>
        <time>2022-09-06T19:58:26Z</time>
      </trkpt>
      <trkpt lat="44.69176" lon="5.43031">
        <ele>520</ele>
        <time>2022-09-06T19:58:31Z</time>
      </trkpt>
      <trkpt lat="44.69128" lon="5.43133">
        <ele>522</ele>
        <time>2022-09-06T19:58:47Z</time>
      </trkpt>
      <trkpt lat="44.69082" lon="5.43215">
        <ele>525</ele>
        <time>2022-09-06T19:59:00Z</time>
      </trkpt>
      <trkpt lat="44.6906" lon="5.43244">
        <ele>527</ele>
        <time>2022-09-06T19:59:05Z</time>
      </trkpt>
      <trkpt lat="44.69031" lon="5.43269">
        <ele>527</ele>
        <time>2022-09-06T19:59:11Z</time>
      </trkpt>
      <trkpt lat="44.69007" lon="5.43303">
        <ele>528</ele>
        <time>2022-09-06T19:59:17Z</time>
      </trkpt>
      <trkpt lat="44.68848" lon="5.43463">
        <ele>533</ele>
        <time>2022-09-06T19:59:52Z</time>
      </trkpt>
      <trkpt lat="44.68686" lon="5.4362">
        <ele>539</ele>
        <time>2022-09-06T20:00:27Z</time>
      </trkpt>
      <trkpt lat="44.68626" lon="5.43685">
        <ele>538</ele>
        <time>2022-09-06T20:00:41Z</time>
      </trkpt>
      <trkpt lat="44.68585" lon="5.43746">
        <ele>534</ele>
        <time>2022-09-06T20:00:51Z</time>
      </trkpt>
      <trkpt lat="44.68556" lon="5.43797">
        <ele>534</ele>
        <time>2022-09-06T20:00:59Z</time>
      </trkpt>
      <trkpt lat="44.68531" lon="5.43851">
        <ele>533</ele>
        <time>2022-09-06T20:01:08Z</time>
      </trkpt>
      <trkpt lat="44.68507" lon="5.43917">
        <ele>530</ele>
        <time>2022-09-06T20:01:17Z</time>
      </trkpt>
      <trkpt lat="44.68395" lon="5.44299">
        <ele>522</ele>
        <time>2022-09-06T20:02:09Z</time>
      </trkpt>
      <trkpt lat="44.68387" lon="5.4434">
        <ele>521</ele>
        <time>2022-09-06T20:02:15Z</time>
      </trkpt>
      <trkpt lat="44.68381" lon="5.44382">
        <ele>520</ele>
        <time>2022-09-06T20:02:20Z</time>
      </trkpt>
      <trkpt lat="44.68381" lon="5.44415">
        <ele>520</ele>
        <time>2022-09-06T20:02:24Z</time>
      </trkpt>
      <trkpt lat="44.68385" lon="5.44463">
        <ele>520</ele>
        <time>2022-09-06T20:02:30Z</time>
      </trkpt>
      <trkpt lat="44.6843" lon="5.44801">
        <ele>524</ele>
        <time>2022-09-06T20:03:14Z</time>
      </trkpt>
      <trkpt lat="44.68449" lon="5.45134">
        <ele>525</ele>
        <time>2022-09-06T20:03:56Z</time>
      </trkpt>
      <trkpt lat="44.68465" lon="5.45269">
        <ele>525</ele>
        <time>2022-09-06T20:04:13Z</time>
      </trkpt>
      <trkpt lat="44.68474" lon="5.45321">
        <ele>526</ele>
        <time>2022-09-06T20:04:20Z</time>
      </trkpt>
      <trkpt lat="44.68501" lon="5.45435">
        <ele>529</ele>
        <time>2022-09-06T20:04:35Z</time>
      </trkpt>
      <trkpt lat="44.68506" lon="5.45479">
        <ele>530</ele>
        <time>2022-09-06T20:04:41Z</time>
      </trkpt>
      <trkpt lat="44.68512" lon="5.45587">
        <ele>531</ele>
        <time>2022-09-06T20:04:55Z</time>
      </trkpt>
      <trkpt lat="44.68521" lon="5.45648">
        <ele>531</ele>
        <time>2022-09-06T20:05:03Z</time>
      </trkpt>
      <trkpt lat="44.68557" lon="5.45792">
        <ele>533</ele>
        <time>2022-09-06T20:05:22Z</time>
      </trkpt>
      <trkpt lat="44.68577" lon="5.45845">
        <ele>534</ele>
        <time>2022-09-06T20:05:29Z</time>
      </trkpt>
      <trkpt lat="44.68659" lon="5.46034">
        <ele>536</ele>
        <time>2022-09-06T20:05:57Z</time>
      </trkpt>
      <trkpt lat="44.6867" lon="5.46079">
        <ele>537</ele>
        <time>2022-09-06T20:06:03Z</time>
      </trkpt>
      <trkpt lat="44.68718" lon="5.46423">
        <ele>538</ele>
        <time>2022-09-06T20:06:48Z</time>
      </trkpt>
      <trkpt lat="44.68729" lon="5.46469">
        <ele>538</ele>
        <time>2022-09-06T20:06:54Z</time>
      </trkpt>
      <trkpt lat="44.68765" lon="5.46548">
        <ele>538</ele>
        <time>2022-09-06T20:07:06Z</time>
      </trkpt>
      <trkpt lat="44.68907" lon="5.46922">
        <ele>547</ele>
        <time>2022-09-06T20:07:59Z</time>
      </trkpt>
      <trkpt lat="44.6919" lon="5.47653">
        <ele>556</ele>
        <time>2022-09-06T20:09:45Z</time>
      </trkpt>
      <trkpt lat="44.69245" lon="5.47798">
        <ele>560</ele>
        <time>2022-09-06T20:10:06Z</time>
      </trkpt>
      <trkpt lat="44.69263" lon="5.47857">
        <ele>564</ele>
        <time>2022-09-06T20:10:14Z</time>
      </trkpt>
      <trkpt lat="44.69339" lon="5.48139">
        <ele>575</ele>
        <time>2022-09-06T20:10:52Z</time>
      </trkpt>
      <trkpt lat="44.69372" lon="5.48252">
        <ele>576</ele>
        <time>2022-09-06T20:11:07Z</time>
      </trkpt>
      <trkpt lat="44.69409" lon="5.484">
        <ele>573</ele>
        <time>2022-09-06T20:11:27Z</time>
      </trkpt>
      <trkpt lat="44.69421" lon="5.48471">
        <ele>575</ele>
        <time>2022-09-06T20:11:36Z</time>
      </trkpt>
      <trkpt lat="44.69425" lon="5.48545">
        <ele>572</ele>
        <time>2022-09-06T20:11:46Z</time>
      </trkpt>
      <trkpt lat="44.69443" lon="5.48754">
        <ele>567</ele>
        <time>2022-09-06T20:12:12Z</time>
      </trkpt>
      <trkpt lat="44.69446" lon="5.48849">
        <ele>567</ele>
        <time>2022-09-06T20:12:24Z</time>
      </trkpt>
      <trkpt lat="44.69444" lon="5.48925">
        <ele>569</ele>
        <time>2022-09-06T20:12:34Z</time>
      </trkpt>
      <trkpt lat="44.69434" lon="5.48995">
        <ele>570</ele>
        <time>2022-09-06T20:12:43Z</time>
      </trkpt>
      <trkpt lat="44.6942" lon="5.49033">
        <ele>569</ele>
        <time>2022-09-06T20:12:48Z</time>
      </trkpt>
      <trkpt lat="44.69393" lon="5.49064">
        <ele>569</ele>
        <time>2022-09-06T20:12:55Z</time>
      </trkpt>
      <trkpt lat="44.6937" lon="5.49074">
        <ele>568</ele>
        <time>2022-09-06T20:12:59Z</time>
      </trkpt>
      <trkpt lat="44.69356" lon="5.49075">
        <ele>567</ele>
        <time>2022-09-06T20:13:01Z</time>
      </trkpt>
      <trkpt lat="44.693" lon="5.4906">
        <ele>568</ele>
        <time>2022-09-06T20:13:12Z</time>
      </trkpt>
      <trkpt lat="44.69281" lon="5.49058">
        <ele>569</ele>
        <time>2022-09-06T20:13:15Z</time>
      </trkpt>
      <trkpt lat="44.69253" lon="5.49061">
        <ele>571</ele>
        <time>2022-09-06T20:13:20Z</time>
      </trkpt>
      <trkpt lat="44.69242" lon="5.49068">
        <ele>572</ele>
        <time>2022-09-06T20:13:22Z</time>
      </trkpt>
      <trkpt lat="44.69208" lon="5.49111">
        <ele>572</ele>
        <time>2022-09-06T20:13:30Z</time>
      </trkpt>
      <trkpt lat="44.69189" lon="5.49164">
        <ele>566</ele>
        <time>2022-09-06T20:13:38Z</time>
      </trkpt>
      <trkpt lat="44.69183" lon="5.49196">
        <ele>565</ele>
        <time>2022-09-06T20:13:42Z</time>
      </trkpt>
      <trkpt lat="44.69152" lon="5.49429">
        <ele>570</ele>
        <time>2022-09-06T20:14:12Z</time>
      </trkpt>
      <trkpt lat="44.6914" lon="5.49473">
        <ele>570</ele>
        <time>2022-09-06T20:14:18Z</time>
      </trkpt>
      <trkpt lat="44.69081" lon="5.49629">
        <ele>572</ele>
        <time>2022-09-06T20:14:40Z</time>
      </trkpt>
      <trkpt lat="44.69028" lon="5.49796">
        <ele>576</ele>
        <time>2022-09-06T20:15:03Z</time>
      </trkpt>
      <trkpt lat="44.6897" lon="5.49915">
        <ele>579</ele>
        <time>2022-09-06T20:15:22Z</time>
      </trkpt>
      <trkpt lat="44.68911" lon="5.49994">
        <ele>583</ele>
        <time>2022-09-06T20:15:36Z</time>
      </trkpt>
      <trkpt lat="44.68873" lon="5.50057">
        <ele>583</ele>
        <time>2022-09-06T20:15:47Z</time>
      </trkpt>
      <trkpt lat="44.68825" lon="5.50162">
        <ele>586</ele>
        <time>2022-09-06T20:16:02Z</time>
      </trkpt>
      <trkpt lat="44.68793" lon="5.50205">
        <ele>587</ele>
        <time>2022-09-06T20:16:10Z</time>
      </trkpt>
      <trkpt lat="44.68747" lon="5.50275">
        <ele>591</ele>
        <time>2022-09-06T20:16:22Z</time>
      </trkpt>
      <trkpt lat="44.68728" lon="5.50316">
        <ele>596</ele>
        <time>2022-09-06T20:16:28Z</time>
      </trkpt>
      <trkpt lat="44.68712" lon="5.5037">
        <ele>603</ele>
        <time>2022-09-06T20:16:36Z</time>
      </trkpt>
      <trkpt lat="44.68706" lon="5.50405">
        <ele>607</ele>
        <time>2022-09-06T20:16:40Z</time>
      </trkpt>
      <trkpt lat="44.68709" lon="5.50452">
        <ele>610</ele>
        <time>2022-09-06T20:16:46Z</time>
      </trkpt>
      <trkpt lat="44.68727" lon="5.50494">
        <ele>607</ele>
        <time>2022-09-06T20:16:53Z</time>
      </trkpt>
      <trkpt lat="44.68775" lon="5.5056">
        <ele>601</ele>
        <time>2022-09-06T20:17:05Z</time>
      </trkpt>
      <trkpt lat="44.6879" lon="5.50591">
        <ele>600</ele>
        <time>2022-09-06T20:17:09Z</time>
      </trkpt>
      <trkpt lat="44.68794" lon="5.50611">
        <ele>600</ele>
        <time>2022-09-06T20:17:12Z</time>
      </trkpt>
      <trkpt lat="44.6879" lon="5.50681">
        <ele>606</ele>
        <time>2022-09-06T20:17:21Z</time>
      </trkpt>
      <trkpt lat="44.68795" lon="5.50735">
        <ele>606</ele>
        <time>2022-09-06T20:17:28Z</time>
      </trkpt>
      <trkpt lat="44.68808" lon="5.50807">
        <ele>603</ele>
        <time>2022-09-06T20:17:37Z</time>
      </trkpt>
      <trkpt lat="44.68809" lon="5.50861">
        <ele>605</ele>
        <time>2022-09-06T20:17:44Z</time>
      </trkpt>
      <trkpt lat="44.6882" lon="5.50925">
        <ele>607</ele>
        <time>2022-09-06T20:17:52Z</time>
      </trkpt>
      <trkpt lat="44.6883" lon="5.50958">
        <ele>605</ele>
        <time>2022-09-06T20:17:57Z</time>
      </trkpt>
      <trkpt lat="44.68833" lon="5.50977">
        <ele>604</ele>
        <time>2022-09-06T20:17:59Z</time>
      </trkpt>
      <trkpt lat="44.68827" lon="5.51021">
        <ele>604</ele>
        <time>2022-09-06T20:18:05Z</time>
      </trkpt>
      <trkpt lat="44.68782" lon="5.51143">
        <ele>611</ele>
        <time>2022-09-06T20:18:22Z</time>
      </trkpt>
      <trkpt lat="44.68756" lon="5.51187">
        <ele>616</ele>
        <time>2022-09-06T20:18:30Z</time>
      </trkpt>
      <trkpt lat="44.68746" lon="5.51209">
        <ele>616</ele>
        <time>2022-09-06T20:18:33Z</time>
      </trkpt>
      <trkpt lat="44.68712" lon="5.51324">
        <ele>616</ele>
        <time>2022-09-06T20:18:49Z</time>
      </trkpt>
      <trkpt lat="44.68702" lon="5.51378">
        <ele>610</ele>
        <time>2022-09-06T20:18:56Z</time>
      </trkpt>
      <trkpt lat="44.68695" lon="5.51392">
        <ele>609</ele>
        <time>2022-09-06T20:18:58Z</time>
      </trkpt>
      <trkpt lat="44.68682" lon="5.51405">
        <ele>610</ele>
        <time>2022-09-06T20:19:01Z</time>
      </trkpt>
      <trkpt lat="44.68647" lon="5.51429">
        <ele>618</ele>
        <time>2022-09-06T20:19:08Z</time>
      </trkpt>
      <trkpt lat="44.68638" lon="5.51439">
        <ele>620</ele>
        <time>2022-09-06T20:19:10Z</time>
      </trkpt>
      <trkpt lat="44.68615" lon="5.51478">
        <ele>619</ele>
        <time>2022-09-06T20:19:16Z</time>
      </trkpt>
      <trkpt lat="44.68599" lon="5.51529">
        <ele>612</ele>
        <time>2022-09-06T20:19:23Z</time>
      </trkpt>
      <trkpt lat="44.68586" lon="5.51554">
        <ele>609</ele>
        <time>2022-09-06T20:19:27Z</time>
      </trkpt>
      <trkpt lat="44.68571" lon="5.51576">
        <ele>608</ele>
        <time>2022-09-06T20:19:31Z</time>
      </trkpt>
      <trkpt lat="44.68286" lon="5.51939">
        <ele>609</ele>
        <time>2022-09-06T20:20:39Z</time>
      </trkpt>
      <trkpt lat="44.68208" lon="5.52018">
        <ele>614</ele>
        <time>2022-09-06T20:20:56Z</time>
      </trkpt>
      <trkpt lat="44.68109" lon="5.52112">
        <ele>618</ele>
        <time>2022-09-06T20:21:18Z</time>
      </trkpt>
      <trkpt lat="44.681" lon="5.52126">
        <ele>618</ele>
        <time>2022-09-06T20:21:20Z</time>
      </trkpt>
      <trkpt lat="44.68096" lon="5.52141">
        <ele>616</ele>
        <time>2022-09-06T20:21:22Z</time>
      </trkpt>
      <trkpt lat="44.68096" lon="5.52164">
        <ele>613</ele>
        <time>2022-09-06T20:21:25Z</time>
      </trkpt>
      <trkpt lat="44.68101" lon="5.52184">
        <ele>613</ele>
        <time>2022-09-06T20:21:28Z</time>
      </trkpt>
      <trkpt lat="44.68114" lon="5.52218">
        <ele>616</ele>
        <time>2022-09-06T20:21:33Z</time>
      </trkpt>
      <trkpt lat="44.68117" lon="5.52249">
        <ele>619</ele>
        <time>2022-09-06T20:21:36Z</time>
      </trkpt>
      <trkpt lat="44.68115" lon="5.52268">
        <ele>622</ele>
        <time>2022-09-06T20:21:39Z</time>
      </trkpt>
      <trkpt lat="44.68091" lon="5.52332">
        <ele>617</ele>
        <time>2022-09-06T20:21:48Z</time>
      </trkpt>
      <trkpt lat="44.68056" lon="5.52403">
        <ele>621</ele>
        <time>2022-09-06T20:21:59Z</time>
      </trkpt>
      <trkpt lat="44.68045" lon="5.52454">
        <ele>624</ele>
        <time>2022-09-06T20:22:06Z</time>
      </trkpt>
      <trkpt lat="44.68047" lon="5.52498">
        <ele>628</ele>
        <time>2022-09-06T20:22:11Z</time>
      </trkpt>
      <trkpt lat="44.68058" lon="5.52547">
        <ele>631</ele>
        <time>2022-09-06T20:22:18Z</time>
      </trkpt>
      <trkpt lat="44.68061" lon="5.5259">
        <ele>632</ele>
        <time>2022-09-06T20:22:23Z</time>
      </trkpt>
      <trkpt lat="44.68047" lon="5.52621">
        <ele>631</ele>
        <time>2022-09-06T20:22:28Z</time>
      </trkpt>
      <trkpt lat="44.67957" lon="5.52762">
        <ele>635</ele>
        <time>2022-09-06T20:22:52Z</time>
      </trkpt>
      <trkpt lat="44.67914" lon="5.52846">
        <ele>629</ele>
        <time>2022-09-06T20:23:05Z</time>
      </trkpt>
      <trkpt lat="44.67845" lon="5.52943">
        <ele>631</ele>
        <time>2022-09-06T20:23:22Z</time>
      </trkpt>
      <trkpt lat="44.67813" lon="5.53001">
        <ele>634</ele>
        <time>2022-09-06T20:23:32Z</time>
      </trkpt>
      <trkpt lat="44.67761" lon="5.53075">
        <ele>635</ele>
        <time>2022-09-06T20:23:45Z</time>
      </trkpt>
      <trkpt lat="44.67719" lon="5.53121">
        <ele>649</ele>
        <time>2022-09-06T20:23:54Z</time>
      </trkpt>
      <trkpt lat="44.67668" lon="5.53152">
        <ele>640</ele>
        <time>2022-09-06T20:24:04Z</time>
      </trkpt>
      <trkpt lat="44.67629" lon="5.53181">
        <ele>645</ele>
        <time>2022-09-06T20:24:12Z</time>
      </trkpt>
      <trkpt lat="44.67608" lon="5.5321">
        <ele>649</ele>
        <time>2022-09-06T20:24:17Z</time>
      </trkpt>
      <trkpt lat="44.67599" lon="5.53265">
        <ele>651</ele>
        <time>2022-09-06T20:24:24Z</time>
      </trkpt>
      <trkpt lat="44.67531" lon="5.53426">
        <ele>647</ele>
        <time>2022-09-06T20:24:48Z</time>
      </trkpt>
      <trkpt lat="44.67523" lon="5.53495">
        <ele>646</ele>
        <time>2022-09-06T20:24:57Z</time>
      </trkpt>
      <trkpt lat="44.67507" lon="5.53546">
        <ele>660</ele>
        <time>2022-09-06T20:25:04Z</time>
      </trkpt>
      <trkpt lat="44.67473" lon="5.53579">
        <ele>665</ele>
        <time>2022-09-06T20:25:11Z</time>
      </trkpt>
      <trkpt lat="44.67432" lon="5.53605">
        <ele>672</ele>
        <time>2022-09-06T20:25:19Z</time>
      </trkpt>
      <trkpt lat="44.6738" lon="5.53603">
        <ele>664</ele>
        <time>2022-09-06T20:25:29Z</time>
      </trkpt>
      <trkpt lat="44.67332" lon="5.53565">
        <ele>649</ele>
        <time>2022-09-06T20:25:38Z</time>
      </trkpt>
      <trkpt lat="44.67284" lon="5.53534">
        <ele>648</ele>
        <time>2022-09-06T20:25:48Z</time>
      </trkpt>
      <trkpt lat="44.6725" lon="5.53531">
        <ele>648</ele>
        <time>2022-09-06T20:25:54Z</time>
      </trkpt>
      <trkpt lat="44.67231" lon="5.53565">
        <ele>651</ele>
        <time>2022-09-06T20:25:59Z</time>
      </trkpt>
      <trkpt lat="44.67231" lon="5.53625">
        <ele>656</ele>
        <time>2022-09-06T20:26:07Z</time>
      </trkpt>
      <trkpt lat="44.67196" lon="5.53735">
        <ele>662</ele>
        <time>2022-09-06T20:26:22Z</time>
      </trkpt>
      <trkpt lat="44.67146" lon="5.53843">
        <ele>658</ele>
        <time>2022-09-06T20:26:38Z</time>
      </trkpt>
      <trkpt lat="44.67013" lon="5.54025">
        <ele>661</ele>
        <time>2022-09-06T20:27:11Z</time>
      </trkpt>
      <trkpt lat="44.66889" lon="5.54176">
        <ele>671</ele>
        <time>2022-09-06T20:27:41Z</time>
      </trkpt>
      <trkpt lat="44.66824" lon="5.54266">
        <ele>667</ele>
        <time>2022-09-06T20:27:57Z</time>
      </trkpt>
      <trkpt lat="44.66802" lon="5.54323">
        <ele>674</ele>
        <time>2022-09-06T20:28:05Z</time>
      </trkpt>
      <trkpt lat="44.66795" lon="5.54373">
        <ele>675</ele>
        <time>2022-09-06T20:28:12Z</time>
      </trkpt>
      <trkpt lat="44.66829" lon="5.54431">
        <ele>672</ele>
        <time>2022-09-06T20:28:21Z</time>
      </trkpt>
      <trkpt lat="44.66832" lon="5.5445">
        <ele>676</ele>
        <time>2022-09-06T20:28:24Z</time>
      </trkpt>
      <trkpt lat="44.66827" lon="5.54478">
        <ele>683</ele>
        <time>2022-09-06T20:28:27Z</time>
      </trkpt>
      <trkpt lat="44.66805" lon="5.54512">
        <ele>692</ele>
        <time>2022-09-06T20:28:33Z</time>
      </trkpt>
      <trkpt lat="44.6672" lon="5.54589">
        <ele>692</ele>
        <time>2022-09-06T20:28:51Z</time>
      </trkpt>
      <trkpt lat="44.66683" lon="5.5463">
        <ele>701</ele>
        <time>2022-09-06T20:28:59Z</time>
      </trkpt>
      <trkpt lat="44.66666" lon="5.54642">
        <ele>698</ele>
        <time>2022-09-06T20:29:03Z</time>
      </trkpt>
      <trkpt lat="44.66633" lon="5.54649">
        <ele>691</ele>
        <time>2022-09-06T20:29:09Z</time>
      </trkpt>
      <trkpt lat="44.66611" lon="5.54662">
        <ele>687</ele>
        <time>2022-09-06T20:29:13Z</time>
      </trkpt>
      <trkpt lat="44.66599" lon="5.54676">
        <ele>684</ele>
        <time>2022-09-06T20:29:16Z</time>
      </trkpt>
      <trkpt lat="44.66594" lon="5.54688">
        <ele>684</ele>
        <time>2022-09-06T20:29:17Z</time>
      </trkpt>
      <trkpt lat="44.66593" lon="5.54706">
        <ele>684</ele>
        <time>2022-09-06T20:29:20Z</time>
      </trkpt>
      <trkpt lat="44.66597" lon="5.54725">
        <ele>686</ele>
        <time>2022-09-06T20:29:22Z</time>
      </trkpt>
      <trkpt lat="44.66623" lon="5.54786">
        <ele>695</ele>
        <time>2022-09-06T20:29:31Z</time>
      </trkpt>
      <trkpt lat="44.66601" lon="5.54801">
        <ele>693</ele>
        <time>2022-09-06T20:29:36Z</time>
      </trkpt>
      <trkpt lat="44.66589" lon="5.54801">
        <ele>691</ele>
        <time>2022-09-06T20:29:38Z</time>
      </trkpt>
      <trkpt lat="44.66577" lon="5.54793">
        <ele>694</ele>
        <time>2022-09-06T20:29:40Z</time>
      </trkpt>
      <trkpt lat="44.66565" lon="5.54776">
        <ele>702</ele>
        <time>2022-09-06T20:29:43Z</time>
      </trkpt>
      <trkpt lat="44.66554" lon="5.54753">
        <ele>708</ele>
        <time>2022-09-06T20:29:47Z</time>
      </trkpt>
      <trkpt lat="44.66548" lon="5.54724">
        <ele>709</ele>
        <time>2022-09-06T20:29:50Z</time>
      </trkpt>
      <trkpt lat="44.66548" lon="5.54681">
        <ele>703</ele>
        <time>2022-09-06T20:29:56Z</time>
      </trkpt>
      <trkpt lat="44.66543" lon="5.54648">
        <ele>698</ele>
        <time>2022-09-06T20:30:00Z</time>
      </trkpt>
      <trkpt lat="44.66534" lon="5.54623">
        <ele>693</ele>
        <time>2022-09-06T20:30:04Z</time>
      </trkpt>
      <trkpt lat="44.66517" lon="5.54606">
        <ele>690</ele>
        <time>2022-09-06T20:30:07Z</time>
      </trkpt>
      <trkpt lat="44.66485" lon="5.54589">
        <ele>699</ele>
        <time>2022-09-06T20:30:14Z</time>
      </trkpt>
      <trkpt lat="44.66427" lon="5.54584">
        <ele>756</ele>
        <time>2022-09-06T20:30:24Z</time>
      </trkpt>
      <trkpt lat="44.66373" lon="5.54587">
        <ele>797</ele>
        <time>2022-09-06T20:30:33Z</time>
      </trkpt>
      <trkpt lat="44.66337" lon="5.54595">
        <ele>826</ele>
        <time>2022-09-06T20:30:40Z</time>
      </trkpt>
      <trkpt lat="44.66295" lon="5.54621">
        <ele>826</ele>
        <time>2022-09-06T20:30:48Z</time>
      </trkpt>
      <trkpt lat="44.6623" lon="5.54681">
        <ele>847</ele>
        <time>2022-09-06T20:31:02Z</time>
      </trkpt>
      <trkpt lat="44.66166" lon="5.5477">
        <ele>835</ele>
        <time>2022-09-06T20:31:18Z</time>
      </trkpt>
      <trkpt lat="44.66123" lon="5.54852">
        <ele>808</ele>
        <time>2022-09-06T20:31:31Z</time>
      </trkpt>
      <trkpt lat="44.66084" lon="5.54948">
        <ele>800</ele>
        <time>2022-09-06T20:31:45Z</time>
      </trkpt>
      <trkpt lat="44.66066" lon="5.55024">
        <ele>815</ele>
        <time>2022-09-06T20:31:55Z</time>
      </trkpt>
      <trkpt lat="44.66054" lon="5.55114">
        <ele>812</ele>
        <time>2022-09-06T20:32:07Z</time>
      </trkpt>
      <trkpt lat="44.66038" lon="5.55335">
        <ele>816</ele>
        <time>2022-09-06T20:32:35Z</time>
      </trkpt>
      <trkpt lat="44.66035" lon="5.55344">
        <ele>813</ele>
        <time>2022-09-06T20:32:36Z</time>
      </trkpt>
      <trkpt lat="44.66026" lon="5.55355">
        <ele>805</ele>
        <time>2022-09-06T20:32:38Z</time>
      </trkpt>
      <trkpt lat="44.66012" lon="5.55364">
        <ele>793</ele>
        <time>2022-09-06T20:32:41Z</time>
      </trkpt>
      <trkpt lat="44.66002" lon="5.55379">
        <ele>783</ele>
        <time>2022-09-06T20:32:43Z</time>
      </trkpt>
      <trkpt lat="44.65996" lon="5.55408">
        <ele>778</ele>
        <time>2022-09-06T20:32:47Z</time>
      </trkpt>
      <trkpt lat="44.65995" lon="5.55442">
        <ele>781</ele>
        <time>2022-09-06T20:32:52Z</time>
      </trkpt>
      <trkpt lat="44.65988" lon="5.55475">
        <ele>785</ele>
        <time>2022-09-06T20:32:56Z</time>
      </trkpt>
      <trkpt lat="44.65972" lon="5.55527">
        <ele>790</ele>
        <time>2022-09-06T20:33:03Z</time>
      </trkpt>
      <trkpt lat="44.65926" lon="5.55649">
        <ele>778</ele>
        <time>2022-09-06T20:33:21Z</time>
      </trkpt>
      <trkpt lat="44.65906" lon="5.55685">
        <ele>777</ele>
        <time>2022-09-06T20:33:26Z</time>
      </trkpt>
      <trkpt lat="44.65877" lon="5.55718">
        <ele>780</ele>
        <time>2022-09-06T20:33:33Z</time>
      </trkpt>
      <trkpt lat="44.65818" lon="5.55769">
        <ele>775</ele>
        <time>2022-09-06T20:33:45Z</time>
      </trkpt>
      <trkpt lat="44.65799" lon="5.55776">
        <ele>774</ele>
        <time>2022-09-06T20:33:49Z</time>
      </trkpt>
      <trkpt lat="44.65715" lon="5.55789">
        <ele>771</ele>
        <time>2022-09-06T20:34:04Z</time>
      </trkpt>
      <trkpt lat="44.65667" lon="5.55819">
        <ele>775</ele>
        <time>2022-09-06T20:34:13Z</time>
      </trkpt>
      <trkpt lat="44.65643" lon="5.5584">
        <ele>775</ele>
        <time>2022-09-06T20:34:18Z</time>
      </trkpt>
      <trkpt lat="44.65612" lon="5.55862">
        <ele>775</ele>
        <time>2022-09-06T20:34:24Z</time>
      </trkpt>
      <trkpt lat="44.65586" lon="5.55867">
        <ele>774</ele>
        <time>2022-09-06T20:34:29Z</time>
      </trkpt>
      <trkpt lat="44.65557" lon="5.55858">
        <ele>772</ele>
        <time>2022-09-06T20:34:34Z</time>
      </trkpt>
      <trkpt lat="44.65525" lon="5.55872">
        <ele>771</ele>
        <time>2022-09-06T20:34:40Z</time>
      </trkpt>
      <trkpt lat="44.65445" lon="5.55927">
        <ele>773</ele>
        <time>2022-09-06T20:34:56Z</time>
      </trkpt>
      <trkpt lat="44.65387" lon="5.55963">
        <ele>773</ele>
        <time>2022-09-06T20:35:07Z</time>
      </trkpt>
      <trkpt lat="44.65363" lon="5.55988">
        <ele>774</ele>
        <time>2022-09-06T20:35:13Z</time>
      </trkpt>
      <trkpt lat="44.65342" lon="5.56017">
        <ele>775</ele>
        <time>2022-09-06T20:35:18Z</time>
      </trkpt>
      <trkpt lat="44.65324" lon="5.56036">
        <ele>775</ele>
        <time>2022-09-06T20:35:22Z</time>
      </trkpt>
      <trkpt lat="44.65209" lon="5.56086">
        <ele>779</ele>
        <time>2022-09-06T20:35:43Z</time>
      </trkpt>
      <trkpt lat="44.65064" lon="5.5618">
        <ele>786</ele>
        <time>2022-09-06T20:36:12Z</time>
      </trkpt>
      <trkpt lat="44.65046" lon="5.56198">
        <ele>787</ele>
        <time>2022-09-06T20:36:16Z</time>
      </trkpt>
      <trkpt lat="44.6503" lon="5.56219">
        <ele>787</ele>
        <time>2022-09-06T20:36:20Z</time>
      </trkpt>
      <trkpt lat="44.64996" lon="5.56285">
        <ele>790</ele>
        <time>2022-09-06T20:36:30Z</time>
      </trkpt>
      <trkpt lat="44.64986" lon="5.56298">
        <ele>792</ele>
        <time>2022-09-06T20:36:32Z</time>
      </trkpt>
      <trkpt lat="44.64912" lon="5.56376">
        <ele>800</ele>
        <time>2022-09-06T20:36:49Z</time>
      </trkpt>
      <trkpt lat="44.64903" lon="5.56388">
        <ele>800</ele>
        <time>2022-09-06T20:36:51Z</time>
      </trkpt>
      <trkpt lat="44.64849" lon="5.56539">
        <ele>801</ele>
        <time>2022-09-06T20:37:12Z</time>
      </trkpt>
      <trkpt lat="44.64844" lon="5.56546">
        <ele>800</ele>
        <time>2022-09-06T20:37:14Z</time>
      </trkpt>
      <trkpt lat="44.64825" lon="5.56554">
        <ele>799</ele>
        <time>2022-09-06T20:37:17Z</time>
      </trkpt>
      <trkpt lat="44.64819" lon="5.5656">
        <ele>799</ele>
        <time>2022-09-06T20:37:19Z</time>
      </trkpt>
      <trkpt lat="44.64766" lon="5.56641">
        <ele>799</ele>
        <time>2022-09-06T20:37:32Z</time>
      </trkpt>
      <trkpt lat="44.64759" lon="5.56643">
        <ele>798</ele>
        <time>2022-09-06T20:37:34Z</time>
      </trkpt>
      <trkpt lat="44.64753" lon="5.56641">
        <ele>797</ele>
        <time>2022-09-06T20:37:35Z</time>
      </trkpt>
      <trkpt lat="44.6473" lon="5.56606">
        <ele>796</ele>
        <time>2022-09-06T20:37:41Z</time>
      </trkpt>
      <trkpt lat="44.64726" lon="5.56593">
        <ele>796</ele>
        <time>2022-09-06T20:37:43Z</time>
      </trkpt>
      <trkpt lat="44.64724" lon="5.56564">
        <ele>796</ele>
        <time>2022-09-06T20:37:46Z</time>
      </trkpt>
      <trkpt lat="44.647" lon="5.56495">
        <ele>799</ele>
        <time>2022-09-06T20:37:56Z</time>
      </trkpt>
      <trkpt lat="44.64694" lon="5.5647">
        <ele>802</ele>
        <time>2022-09-06T20:37:59Z</time>
      </trkpt>
      <trkpt lat="44.64687" lon="5.56428">
        <ele>806</ele>
        <time>2022-09-06T20:38:05Z</time>
      </trkpt>
      <trkpt lat="44.64686" lon="5.56347">
        <ele>809</ele>
        <time>2022-09-06T20:38:15Z</time>
      </trkpt>
      <trkpt lat="44.64672" lon="5.56161">
        <ele>792</ele>
        <time>2022-09-06T20:38:39Z</time>
      </trkpt>
      <trkpt lat="44.64657" lon="5.56141">
        <ele>794</ele>
        <time>2022-09-06T20:38:42Z</time>
      </trkpt>
      <trkpt lat="44.64647" lon="5.56114">
        <ele>793</ele>
        <time>2022-09-06T20:38:46Z</time>
      </trkpt>
      <trkpt lat="44.6464" lon="5.5611">
        <ele>794</ele>
        <time>2022-09-06T20:38:48Z</time>
      </trkpt>
      <trkpt lat="44.64614" lon="5.56115">
        <ele>797</ele>
        <time>2022-09-06T20:38:52Z</time>
      </trkpt>
      <trkpt lat="44.64594" lon="5.56115">
        <ele>800</ele>
        <time>2022-09-06T20:38:56Z</time>
      </trkpt>
      <trkpt lat="44.64574" lon="5.56111">
        <ele>801</ele>
        <time>2022-09-06T20:39:00Z</time>
      </trkpt>
      <trkpt lat="44.64545" lon="5.56099">
        <ele>802</ele>
        <time>2022-09-06T20:39:05Z</time>
      </trkpt>
      <trkpt lat="44.64523" lon="5.56095">
        <ele>803</ele>
        <time>2022-09-06T20:39:09Z</time>
      </trkpt>
      <trkpt lat="44.64467" lon="5.56092">
        <ele>806</ele>
        <time>2022-09-06T20:39:19Z</time>
      </trkpt>
      <trkpt lat="44.64445" lon="5.56077">
        <ele>804</ele>
        <time>2022-09-06T20:39:23Z</time>
      </trkpt>
      <trkpt lat="44.64416" lon="5.56052">
        <ele>805</ele>
        <time>2022-09-06T20:39:29Z</time>
      </trkpt>
      <trkpt lat="44.64386" lon="5.56019">
        <ele>806</ele>
        <time>2022-09-06T20:39:36Z</time>
      </trkpt>
      <trkpt lat="44.64357" lon="5.55993">
        <ele>806</ele>
        <time>2022-09-06T20:39:42Z</time>
      </trkpt>
      <trkpt lat="44.64276" lon="5.55948">
        <ele>810</ele>
        <time>2022-09-06T20:39:58Z</time>
      </trkpt>
      <trkpt lat="44.64248" lon="5.55942">
        <ele>809</ele>
        <time>2022-09-06T20:40:03Z</time>
      </trkpt>
      <trkpt lat="44.64226" lon="5.55944">
        <ele>811</ele>
        <time>2022-09-06T20:40:07Z</time>
      </trkpt>
      <trkpt lat="44.64197" lon="5.55942">
        <ele>812</ele>
        <time>2022-09-06T20:40:12Z</time>
      </trkpt>
      <trkpt lat="44.64162" lon="5.55934">
        <ele>814</ele>
        <time>2022-09-06T20:40:18Z</time>
      </trkpt>
      <trkpt lat="44.64102" lon="5.55911">
        <ele>815</ele>
        <time>2022-09-06T20:40:29Z</time>
      </trkpt>
      <trkpt lat="44.64072" lon="5.55893">
        <ele>817</ele>
        <time>2022-09-06T20:40:35Z</time>
      </trkpt>
      <trkpt lat="44.6405" lon="5.55874">
        <ele>819</ele>
        <time>2022-09-06T20:40:40Z</time>
      </trkpt>
      <trkpt lat="44.64033" lon="5.55851">
        <ele>819</ele>
        <time>2022-09-06T20:40:44Z</time>
      </trkpt>
      <trkpt lat="44.6401" lon="5.55799">
        <ele>820</ele>
        <time>2022-09-06T20:40:51Z</time>
      </trkpt>
      <trkpt lat="44.63988" lon="5.55768">
        <ele>821</ele>
        <time>2022-09-06T20:40:57Z</time>
      </trkpt>
      <trkpt lat="44.63897" lon="5.55676">
        <ele>825</ele>
        <time>2022-09-06T20:41:17Z</time>
      </trkpt>
      <trkpt lat="44.63881" lon="5.5565">
        <ele>828</ele>
        <time>2022-09-06T20:41:21Z</time>
      </trkpt>
      <trkpt lat="44.63869" lon="5.55625">
        <ele>831</ele>
        <time>2022-09-06T20:41:25Z</time>
      </trkpt>
      <trkpt lat="44.63856" lon="5.55581">
        <ele>836</ele>
        <time>2022-09-06T20:41:31Z</time>
      </trkpt>
      <trkpt lat="44.63836" lon="5.5555">
        <ele>838</ele>
        <time>2022-09-06T20:41:36Z</time>
      </trkpt>
      <trkpt lat="44.63816" lon="5.55536">
        <ele>841</ele>
        <time>2022-09-06T20:41:40Z</time>
      </trkpt>
      <trkpt lat="44.63798" lon="5.55537">
        <ele>842</ele>
        <time>2022-09-06T20:41:44Z</time>
      </trkpt>
      <trkpt lat="44.63775" lon="5.55553">
        <ele>842</ele>
        <time>2022-09-06T20:41:48Z</time>
      </trkpt>
      <trkpt lat="44.63726" lon="5.55569">
        <ele>845</ele>
        <time>2022-09-06T20:41:57Z</time>
      </trkpt>
      <trkpt lat="44.63682" lon="5.55591">
        <ele>847</ele>
        <time>2022-09-06T20:42:05Z</time>
      </trkpt>
      <trkpt lat="44.63655" lon="5.55595">
        <ele>849</ele>
        <time>2022-09-06T20:42:10Z</time>
      </trkpt>
      <trkpt lat="44.63628" lon="5.55592">
        <ele>850</ele>
        <time>2022-09-06T20:42:15Z</time>
      </trkpt>
      <trkpt lat="44.63567" lon="5.55569">
        <ele>856</ele>
        <time>2022-09-06T20:42:26Z</time>
      </trkpt>
      <trkpt lat="44.63463" lon="5.55519">
        <ele>867</ele>
        <time>2022-09-06T20:42:46Z</time>
      </trkpt>
      <trkpt lat="44.63415" lon="5.55483">
        <ele>869</ele>
        <time>2022-09-06T20:42:56Z</time>
      </trkpt>
      <trkpt lat="44.63362" lon="5.55428">
        <ele>881</ele>
        <time>2022-09-06T20:43:07Z</time>
      </trkpt>
      <trkpt lat="44.63344" lon="5.55393">
        <ele>879</ele>
        <time>2022-09-06T20:43:13Z</time>
      </trkpt>
      <trkpt lat="44.63334" lon="5.55334">
        <ele>875</ele>
        <time>2022-09-06T20:43:20Z</time>
      </trkpt>
      <trkpt lat="44.63322" lon="5.55317">
        <ele>878</ele>
        <time>2022-09-06T20:43:23Z</time>
      </trkpt>
      <trkpt lat="44.63304" lon="5.55312">
        <ele>878</ele>
        <time>2022-09-06T20:43:27Z</time>
      </trkpt>
      <trkpt lat="44.63277" lon="5.55315">
        <ele>876</ele>
        <time>2022-09-06T20:43:32Z</time>
      </trkpt>
      <trkpt lat="44.63254" lon="5.55323">
        <ele>874</ele>
        <time>2022-09-06T20:43:36Z</time>
      </trkpt>
      <trkpt lat="44.63173" lon="5.55367">
        <ele>882</ele>
        <time>2022-09-06T20:43:51Z</time>
      </trkpt>
      <trkpt lat="44.63131" lon="5.55383">
        <ele>887</ele>
        <time>2022-09-06T20:43:59Z</time>
      </trkpt>
      <trkpt lat="44.63081" lon="5.55412">
        <ele>887</ele>
        <time>2022-09-06T20:44:09Z</time>
      </trkpt>
      <trkpt lat="44.62978" lon="5.55435">
        <ele>891</ele>
        <time>2022-09-06T20:44:27Z</time>
      </trkpt>
      <trkpt lat="44.62905" lon="5.55423">
        <ele>895</ele>
        <time>2022-09-06T20:44:40Z</time>
      </trkpt>
      <trkpt lat="44.62859" lon="5.55419">
        <ele>898</ele>
        <time>2022-09-06T20:44:48Z</time>
      </trkpt>
      <trkpt lat="44.62823" lon="5.55406">
        <ele>902</ele>
        <time>2022-09-06T20:44:55Z</time>
      </trkpt>
      <trkpt lat="44.62773" lon="5.554">
        <ele>907</ele>
        <time>2022-09-06T20:45:04Z</time>
      </trkpt>
      <trkpt lat="44.6273" lon="5.55388">
        <ele>913</ele>
        <time>2022-09-06T20:45:12Z</time>
      </trkpt>
      <trkpt lat="44.62653" lon="5.55362">
        <ele>921</ele>
        <time>2022-09-06T20:45:26Z</time>
      </trkpt>
      <trkpt lat="44.62641" lon="5.55356">
        <ele>923</ele>
        <time>2022-09-06T20:45:28Z</time>
      </trkpt>
      <trkpt lat="44.62639" lon="5.55352">
        <ele>923</ele>
        <time>2022-09-06T20:45:29Z</time>
      </trkpt>
      <trkpt lat="44.62637" lon="5.55346">
        <ele>924</ele>
        <time>2022-09-06T20:45:30Z</time>
      </trkpt>
      <trkpt lat="44.62644" lon="5.55339">
        <ele>924</ele>
        <time>2022-09-06T20:45:31Z</time>
      </trkpt>
      <trkpt lat="44.62724" lon="5.55319">
        <ele>926</ele>
        <time>2022-09-06T20:45:46Z</time>
      </trkpt>
      <trkpt lat="44.62756" lon="5.55327">
        <ele>923</ele>
        <time>2022-09-06T20:45:51Z</time>
      </trkpt>
      <trkpt lat="44.62777" lon="5.55328">
        <ele>921</ele>
        <time>2022-09-06T20:45:55Z</time>
      </trkpt>
      <trkpt lat="44.62804" lon="5.55305">
        <ele>925</ele>
        <time>2022-09-06T20:46:01Z</time>
      </trkpt>
      <trkpt lat="44.62828" lon="5.5527">
        <ele>932</ele>
        <time>2022-09-06T20:46:07Z</time>
      </trkpt>
      <trkpt lat="44.6288" lon="5.55226">
        <ele>937</ele>
        <time>2022-09-06T20:46:18Z</time>
      </trkpt>
      <trkpt lat="44.62902" lon="5.55193">
        <ele>943</ele>
        <time>2022-09-06T20:46:23Z</time>
      </trkpt>
      <trkpt lat="44.62917" lon="5.55184">
        <ele>942</ele>
        <time>2022-09-06T20:46:26Z</time>
      </trkpt>
      <trkpt lat="44.62953" lon="5.55176">
        <ele>937</ele>
        <time>2022-09-06T20:46:33Z</time>
      </trkpt>
      <trkpt lat="44.62965" lon="5.55157">
        <ele>938</ele>
        <time>2022-09-06T20:46:36Z</time>
      </trkpt>
      <trkpt lat="44.62963" lon="5.55135">
        <ele>941</ele>
        <time>2022-09-06T20:46:39Z</time>
      </trkpt>
      <trkpt lat="44.62952" lon="5.55095">
        <ele>950</ele>
        <time>2022-09-06T20:46:44Z</time>
      </trkpt>
      <trkpt lat="44.62937" lon="5.55015">
        <ele>961</ele>
        <time>2022-09-06T20:46:55Z</time>
      </trkpt>
      <trkpt lat="44.62926" lon="5.54978">
        <ele>968</ele>
        <time>2022-09-06T20:47:00Z</time>
      </trkpt>
      <trkpt lat="44.62921" lon="5.5495">
        <ele>972</ele>
        <time>2022-09-06T20:47:03Z</time>
      </trkpt>
      <trkpt lat="44.62921" lon="5.54907">
        <ele>977</ele>
        <time>2022-09-06T20:47:09Z</time>
      </trkpt>
      <trkpt lat="44.62938" lon="5.5485">
        <ele>980</ele>
        <time>2022-09-06T20:47:17Z</time>
      </trkpt>
      <trkpt lat="44.62945" lon="5.54809">
        <ele>982</ele>
        <time>2022-09-06T20:47:22Z</time>
      </trkpt>
      <trkpt lat="44.62943" lon="5.54774">
        <ele>984</ele>
        <time>2022-09-06T20:47:26Z</time>
      </trkpt>
      <trkpt lat="44.62945" lon="5.54749">
        <ele>985</ele>
        <time>2022-09-06T20:47:30Z</time>
      </trkpt>
      <trkpt lat="44.62956" lon="5.54726">
        <ele>985</ele>
        <time>2022-09-06T20:47:33Z</time>
      </trkpt>
      <trkpt lat="44.62977" lon="5.54699">
        <ele>985</ele>
        <time>2022-09-06T20:47:38Z</time>
      </trkpt>
      <trkpt lat="44.62986" lon="5.54683">
        <ele>986</ele>
        <time>2022-09-06T20:47:41Z</time>
      </trkpt>
      <trkpt lat="44.62998" lon="5.5467">
        <ele>987</ele>
        <time>2022-09-06T20:47:44Z</time>
      </trkpt>
      <trkpt lat="44.63021" lon="5.54665">
        <ele>990</ele>
        <time>2022-09-06T20:47:48Z</time>
      </trkpt>
      <trkpt lat="44.63061" lon="5.54669">
        <ele>995</ele>
        <time>2022-09-06T20:47:55Z</time>
      </trkpt>
      <trkpt lat="44.63097" lon="5.54659">
        <ele>1004</ele>
        <time>2022-09-06T20:48:01Z</time>
      </trkpt>
      <trkpt lat="44.63105" lon="5.54654">
        <ele>1006</ele>
        <time>2022-09-06T20:48:03Z</time>
      </trkpt>
      <trkpt lat="44.63105" lon="5.54637">
        <ele>1009</ele>
        <time>2022-09-06T20:48:05Z</time>
      </trkpt>
      <trkpt lat="44.63094" lon="5.54626">
        <ele>1008</ele>
        <time>2022-09-06T20:48:07Z</time>
      </trkpt>
      <trkpt lat="44.63067" lon="5.5461">
        <ele>1005</ele>
        <time>2022-09-06T20:48:13Z</time>
      </trkpt>
      <trkpt lat="44.63024" lon="5.54567">
        <ele>1007</ele>
        <time>2022-09-06T20:48:22Z</time>
      </trkpt>
      <trkpt lat="44.63008" lon="5.54522">
        <ele>1011</ele>
        <time>2022-09-06T20:48:28Z</time>
      </trkpt>
      <trkpt lat="44.62984" lon="5.54466">
        <ele>1018</ele>
        <time>2022-09-06T20:48:37Z</time>
      </trkpt>
      <trkpt lat="44.62959" lon="5.54424">
        <ele>1022</ele>
        <time>2022-09-06T20:48:44Z</time>
      </trkpt>
      <trkpt lat="44.62943" lon="5.54417">
        <ele>1021</ele>
        <time>2022-09-06T20:48:47Z</time>
      </trkpt>
      <trkpt lat="44.62897" lon="5.54405">
        <ele>1023</ele>
        <time>2022-09-06T20:48:55Z</time>
      </trkpt>
      <trkpt lat="44.62892" lon="5.54394">
        <ele>1024</ele>
        <time>2022-09-06T20:48:57Z</time>
      </trkpt>
      <trkpt lat="44.62893" lon="5.54381">
        <ele>1023</ele>
        <time>2022-09-06T20:48:58Z</time>
      </trkpt>
      <trkpt lat="44.62909" lon="5.54345">
        <ele>1019</ele>
        <time>2022-09-06T20:49:04Z</time>
      </trkpt>
      <trkpt lat="44.62918" lon="5.54336">
        <ele>1018</ele>
        <time>2022-09-06T20:49:06Z</time>
      </trkpt>
      <trkpt lat="44.62935" lon="5.54329">
        <ele>1019</ele>
        <time>2022-09-06T20:49:09Z</time>
      </trkpt>
      <trkpt lat="44.62965" lon="5.54324">
        <ele>1021</ele>
        <time>2022-09-06T20:49:14Z</time>
      </trkpt>
      <trkpt lat="44.62984" lon="5.5431">
        <ele>1022</ele>
        <time>2022-09-06T20:49:18Z</time>
      </trkpt>
      <trkpt lat="44.62986" lon="5.54301">
        <ele>1022</ele>
        <time>2022-09-06T20:49:19Z</time>
      </trkpt>
      <trkpt lat="44.62982" lon="5.54248">
        <ele>1018</ele>
        <time>2022-09-06T20:49:26Z</time>
      </trkpt>
      <trkpt lat="44.62965" lon="5.54196">
        <ele>1015</ele>
        <time>2022-09-06T20:49:33Z</time>
      </trkpt>
      <trkpt lat="44.62952" lon="5.54121">
        <ele>1010</ele>
        <time>2022-09-06T20:49:43Z</time>
      </trkpt>
      <trkpt lat="44.62943" lon="5.54094">
        <ele>1007</ele>
        <time>2022-09-06T20:49:47Z</time>
      </trkpt>
      <trkpt lat="44.62933" lon="5.54073">
        <ele>1003</ele>
        <time>2022-09-06T20:49:50Z</time>
      </trkpt>
      <trkpt lat="44.62927" lon="5.54043">
        <ele>1000</ele>
        <time>2022-09-06T20:49:54Z</time>
      </trkpt>
      <trkpt lat="44.62932" lon="5.54004">
        <ele>999</ele>
        <time>2022-09-06T20:49:59Z</time>
      </trkpt>
      <trkpt lat="44.62939" lon="5.53975">
        <ele>996</ele>
        <time>2022-09-06T20:50:03Z</time>
      </trkpt>
      <trkpt lat="44.62962" lon="5.5392">
        <ele>993</ele>
        <time>2022-09-06T20:50:11Z</time>
      </trkpt>
      <trkpt lat="44.62974" lon="5.53857">
        <ele>987</ele>
        <time>2022-09-06T20:50:19Z</time>
      </trkpt>
      <trkpt lat="44.63002" lon="5.53806">
        <ele>990</ele>
        <time>2022-09-06T20:50:27Z</time>
      </trkpt>
      <trkpt lat="44.63007" lon="5.5374">
        <ele>984</ele>
        <time>2022-09-06T20:50:36Z</time>
      </trkpt>
      <trkpt lat="44.63015" lon="5.53688">
        <ele>978</ele>
        <time>2022-09-06T20:50:42Z</time>
      </trkpt>
      <trkpt lat="44.63028" lon="5.53639">
        <ele>975</ele>
        <time>2022-09-06T20:50:49Z</time>
      </trkpt>
      <trkpt lat="44.63032" lon="5.53602">
        <ele>970</ele>
        <time>2022-09-06T20:50:54Z</time>
      </trkpt>
      <trkpt lat="44.63042" lon="5.53556">
        <ele>966</ele>
        <time>2022-09-06T20:51:00Z</time>
      </trkpt>
      <trkpt lat="44.63054" lon="5.53472">
        <ele>955</ele>
        <time>2022-09-06T20:51:11Z</time>
      </trkpt>
      <trkpt lat="44.63061" lon="5.5345">
        <ele>954</ele>
        <time>2022-09-06T20:51:14Z</time>
      </trkpt>
      <trkpt lat="44.63059" lon="5.53442">
        <ele>951</ele>
        <time>2022-09-06T20:51:15Z</time>
      </trkpt>
      <trkpt lat="44.63052" lon="5.5344">
        <ele>948</ele>
        <time>2022-09-06T20:51:16Z</time>
      </trkpt>
      <trkpt lat="44.63046" lon="5.53448">
        <ele>947</ele>
        <time>2022-09-06T20:51:18Z</time>
      </trkpt>
      <trkpt lat="44.6304" lon="5.53481">
        <ele>951</ele>
        <time>2022-09-06T20:51:22Z</time>
      </trkpt>
      <trkpt lat="44.63029" lon="5.53515">
        <ele>952</ele>
        <time>2022-09-06T20:51:27Z</time>
      </trkpt>
      <trkpt lat="44.63017" lon="5.5354">
        <ele>952</ele>
        <time>2022-09-06T20:51:30Z</time>
      </trkpt>
      <trkpt lat="44.62982" lon="5.53576">
        <ele>946</ele>
        <time>2022-09-06T20:51:38Z</time>
      </trkpt>
      <trkpt lat="44.62941" lon="5.53583">
        <ele>935</ele>
        <time>2022-09-06T20:51:45Z</time>
      </trkpt>
      <trkpt lat="44.62888" lon="5.53611">
        <ele>925</ele>
        <time>2022-09-06T20:51:56Z</time>
      </trkpt>
      <trkpt lat="44.62884" lon="5.53599">
        <ele>921</ele>
        <time>2022-09-06T20:51:57Z</time>
      </trkpt>
      <trkpt lat="44.62911" lon="5.53568">
        <ele>923</ele>
        <time>2022-09-06T20:52:03Z</time>
      </trkpt>
      <trkpt lat="44.62931" lon="5.53516">
        <ele>917</ele>
        <time>2022-09-06T20:52:11Z</time>
      </trkpt>
      <trkpt lat="44.62941" lon="5.53507">
        <ele>918</ele>
        <time>2022-09-06T20:52:13Z</time>
      </trkpt>
      <trkpt lat="44.62963" lon="5.53496">
        <ele>923</ele>
        <time>2022-09-06T20:52:17Z</time>
      </trkpt>
      <trkpt lat="44.62967" lon="5.53489">
        <ele>923</ele>
        <time>2022-09-06T20:52:18Z</time>
      </trkpt>
      <trkpt lat="44.62971" lon="5.53463">
        <ele>920</ele>
        <time>2022-09-06T20:52:22Z</time>
      </trkpt>
      <trkpt lat="44.62973" lon="5.53374">
        <ele>905</ele>
        <time>2022-09-06T20:52:33Z</time>
      </trkpt>
      <trkpt lat="44.62979" lon="5.53337">
        <ele>900</ele>
        <time>2022-09-06T20:52:38Z</time>
      </trkpt>
      <trkpt lat="44.62991" lon="5.53311">
        <ele>899</ele>
        <time>2022-09-06T20:52:42Z</time>
      </trkpt>
      <trkpt lat="44.62999" lon="5.53284">
        <ele>898</ele>
        <time>2022-09-06T20:52:45Z</time>
      </trkpt>
      <trkpt lat="44.63001" lon="5.5322">
        <ele>888</ele>
        <time>2022-09-06T20:52:53Z</time>
      </trkpt>
      <trkpt lat="44.63012" lon="5.53199">
        <ele>887</ele>
        <time>2022-09-06T20:52:57Z</time>
      </trkpt>
      <trkpt lat="44.63056" lon="5.53159">
        <ele>887</ele>
        <time>2022-09-06T20:53:06Z</time>
      </trkpt>
      <trkpt lat="44.63064" lon="5.53127">
        <ele>883</ele>
        <time>2022-09-06T20:53:10Z</time>
      </trkpt>
      <trkpt lat="44.631" lon="5.53081">
        <ele>879</ele>
        <time>2022-09-06T20:53:19Z</time>
      </trkpt>
      <trkpt lat="44.63118" lon="5.53067">
        <ele>879</ele>
        <time>2022-09-06T20:53:23Z</time>
      </trkpt>
      <trkpt lat="44.63129" lon="5.53063">
        <ele>879</ele>
        <time>2022-09-06T20:53:25Z</time>
      </trkpt>
      <trkpt lat="44.63134" lon="5.53053">
        <ele>878</ele>
        <time>2022-09-06T20:53:26Z</time>
      </trkpt>
      <trkpt lat="44.63132" lon="5.53043">
        <ele>875</ele>
        <time>2022-09-06T20:53:28Z</time>
      </trkpt>
      <trkpt lat="44.63127" lon="5.53039">
        <ele>874</ele>
        <time>2022-09-06T20:53:29Z</time>
      </trkpt>
      <trkpt lat="44.63082" lon="5.53047">
        <ele>870</ele>
        <time>2022-09-06T20:53:37Z</time>
      </trkpt>
      <trkpt lat="44.63057" lon="5.53059">
        <ele>868</ele>
        <time>2022-09-06T20:53:41Z</time>
      </trkpt>
      <trkpt lat="44.6303" lon="5.53076">
        <ele>868</ele>
        <time>2022-09-06T20:53:47Z</time>
      </trkpt>
      <trkpt lat="44.63018" lon="5.53076">
        <ele>866</ele>
        <time>2022-09-06T20:53:49Z</time>
      </trkpt>
      <trkpt lat="44.63015" lon="5.53067">
        <ele>863</ele>
        <time>2022-09-06T20:53:50Z</time>
      </trkpt>
      <trkpt lat="44.63033" lon="5.53042">
        <ele>861</ele>
        <time>2022-09-06T20:53:55Z</time>
      </trkpt>
      <trkpt lat="44.63043" lon="5.53012">
        <ele>857</ele>
        <time>2022-09-06T20:53:59Z</time>
      </trkpt>
      <trkpt lat="44.63091" lon="5.52945">
        <ele>853</ele>
        <time>2022-09-06T20:54:11Z</time>
      </trkpt>
      <trkpt lat="44.63101" lon="5.52924">
        <ele>852</ele>
        <time>2022-09-06T20:54:14Z</time>
      </trkpt>
      <trkpt lat="44.63101" lon="5.52915">
        <ele>851</ele>
        <time>2022-09-06T20:54:15Z</time>
      </trkpt>
      <trkpt lat="44.63097" lon="5.52908">
        <ele>849</ele>
        <time>2022-09-06T20:54:16Z</time>
      </trkpt>
      <trkpt lat="44.63089" lon="5.52909">
        <ele>848</ele>
        <time>2022-09-06T20:54:18Z</time>
      </trkpt>
      <trkpt lat="44.6307" lon="5.52925">
        <ele>846</ele>
        <time>2022-09-06T20:54:22Z</time>
      </trkpt>
      <trkpt lat="44.63059" lon="5.52929">
        <ele>846</ele>
        <time>2022-09-06T20:54:24Z</time>
      </trkpt>
      <trkpt lat="44.63034" lon="5.52922">
        <ele>841</ele>
        <time>2022-09-06T20:54:28Z</time>
      </trkpt>
      <trkpt lat="44.63016" lon="5.52929">
        <ele>840</ele>
        <time>2022-09-06T20:54:32Z</time>
      </trkpt>
      <trkpt lat="44.63008" lon="5.52935">
        <ele>840</ele>
        <time>2022-09-06T20:54:33Z</time>
      </trkpt>
      <trkpt lat="44.63001" lon="5.52935">
        <ele>839</ele>
        <time>2022-09-06T20:54:34Z</time>
      </trkpt>
      <trkpt lat="44.62998" lon="5.52924">
        <ele>837</ele>
        <time>2022-09-06T20:54:36Z</time>
      </trkpt>
      <trkpt lat="44.63" lon="5.52892">
        <ele>834</ele>
        <time>2022-09-06T20:54:40Z</time>
      </trkpt>
      <trkpt lat="44.62993" lon="5.52876">
        <ele>832</ele>
        <time>2022-09-06T20:54:42Z</time>
      </trkpt>
      <trkpt lat="44.6298" lon="5.52857">
        <ele>829</ele>
        <time>2022-09-06T20:54:46Z</time>
      </trkpt>
      <trkpt lat="44.62971" lon="5.52825">
        <ele>826</ele>
        <time>2022-09-06T20:54:50Z</time>
      </trkpt>
      <trkpt lat="44.62971" lon="5.52796">
        <ele>824</ele>
        <time>2022-09-06T20:54:54Z</time>
      </trkpt>
      <trkpt lat="44.62984" lon="5.52753">
        <ele>821</ele>
        <time>2022-09-06T20:55:00Z</time>
      </trkpt>
      <trkpt lat="44.62998" lon="5.52724">
        <ele>822</ele>
        <time>2022-09-06T20:55:04Z</time>
      </trkpt>
      <trkpt lat="44.62997" lon="5.52713">
        <ele>822</ele>
        <time>2022-09-06T20:55:05Z</time>
      </trkpt>
      <trkpt lat="44.62978" lon="5.52689">
        <ele>820</ele>
        <time>2022-09-06T20:55:10Z</time>
      </trkpt>
      <trkpt lat="44.62964" lon="5.52666">
        <ele>819</ele>
        <time>2022-09-06T20:55:14Z</time>
      </trkpt>
      <trkpt lat="44.62953" lon="5.52602">
        <ele>823</ele>
        <time>2022-09-06T20:55:22Z</time>
      </trkpt>
      <trkpt lat="44.62928" lon="5.52505">
        <ele>824</ele>
        <time>2022-09-06T20:55:35Z</time>
      </trkpt>
      <trkpt lat="44.6292" lon="5.52485">
        <ele>823</ele>
        <time>2022-09-06T20:55:38Z</time>
      </trkpt>
      <trkpt lat="44.62876" lon="5.52434">
        <ele>822</ele>
        <time>2022-09-06T20:55:48Z</time>
      </trkpt>
      <trkpt lat="44.62875" lon="5.5245">
        <ele>820</ele>
        <time>2022-09-06T20:55:50Z</time>
      </trkpt>
      <trkpt lat="44.62879" lon="5.52472">
        <ele>819</ele>
        <time>2022-09-06T20:55:53Z</time>
      </trkpt>
      <trkpt lat="44.62921" lon="5.52564">
        <ele>818</ele>
        <time>2022-09-06T20:56:07Z</time>
      </trkpt>
      <trkpt lat="44.62879" lon="5.52472">
        <ele>819</ele>
        <time>2022-09-06T20:56:21Z</time>
      </trkpt>
      <trkpt lat="44.62875" lon="5.5245">
        <ele>820</ele>
        <time>2022-09-06T20:56:24Z</time>
      </trkpt>
      <trkpt lat="44.62876" lon="5.52434">
        <ele>822</ele>
        <time>2022-09-06T20:56:26Z</time>
      </trkpt>
      <trkpt lat="44.62867" lon="5.52419">
        <ele>822</ele>
        <time>2022-09-06T20:56:28Z</time>
      </trkpt>
      <trkpt lat="44.62856" lon="5.5241">
        <ele>821</ele>
        <time>2022-09-06T20:56:31Z</time>
      </trkpt>
      <trkpt lat="44.62842" lon="5.52406">
        <ele>819</ele>
        <time>2022-09-06T20:56:33Z</time>
      </trkpt>
      <trkpt lat="44.62771" lon="5.52356">
        <ele>816</ele>
        <time>2022-09-06T20:56:47Z</time>
      </trkpt>
      <trkpt lat="44.62716" lon="5.52304">
        <ele>813</ele>
        <time>2022-09-06T20:56:59Z</time>
      </trkpt>
      <trkpt lat="44.62651" lon="5.52254">
        <ele>808</ele>
        <time>2022-09-06T20:57:12Z</time>
      </trkpt>
      <trkpt lat="44.62593" lon="5.52219">
        <ele>802</ele>
        <time>2022-09-06T20:57:23Z</time>
      </trkpt>
      <trkpt lat="44.62576" lon="5.52206">
        <ele>800</ele>
        <time>2022-09-06T20:57:27Z</time>
      </trkpt>
      <trkpt lat="44.62565" lon="5.52194">
        <ele>799</ele>
        <time>2022-09-06T20:57:29Z</time>
      </trkpt>
      <trkpt lat="44.62531" lon="5.52125">
        <ele>795</ele>
        <time>2022-09-06T20:57:40Z</time>
      </trkpt>
      <trkpt lat="44.62479" lon="5.52009">
        <ele>789</ele>
        <time>2022-09-06T20:57:57Z</time>
      </trkpt>
      <trkpt lat="44.62469" lon="5.51978">
        <ele>787</ele>
        <time>2022-09-06T20:58:02Z</time>
      </trkpt>
      <trkpt lat="44.62426" lon="5.51813">
        <ele>778</ele>
        <time>2022-09-06T20:58:24Z</time>
      </trkpt>
      <trkpt lat="44.6242" lon="5.51801">
        <ele>777</ele>
        <time>2022-09-06T20:58:26Z</time>
      </trkpt>
      <trkpt lat="44.62349" lon="5.51757">
        <ele>771</ele>
        <time>2022-09-06T20:58:40Z</time>
      </trkpt>
      <trkpt lat="44.62334" lon="5.51745">
        <ele>770</ele>
        <time>2022-09-06T20:58:43Z</time>
      </trkpt>
      <trkpt lat="44.62077" lon="5.51331">
        <ele>752</ele>
        <time>2022-09-06T20:59:52Z</time>
      </trkpt>
      <trkpt lat="44.62057" lon="5.51291">
        <ele>749</ele>
        <time>2022-09-06T20:59:58Z</time>
      </trkpt>
      <trkpt lat="44.61818" lon="5.50496">
        <ele>727</ele>
        <time>2022-09-06T21:01:48Z</time>
      </trkpt>
      <trkpt lat="44.61805" lon="5.50466">
        <ele>726</ele>
        <time>2022-09-06T21:01:52Z</time>
      </trkpt>
      <trkpt lat="44.61752" lon="5.50382">
        <ele>724</ele>
        <time>2022-09-06T21:02:06Z</time>
      </trkpt>
      <trkpt lat="44.61743" lon="5.50361">
        <ele>724</ele>
        <time>2022-09-06T21:02:09Z</time>
      </trkpt>
      <trkpt lat="44.61641" lon="5.4989">
        <ele>715</ele>
        <time>2022-09-06T21:03:12Z</time>
      </trkpt>
      <trkpt lat="44.61627" lon="5.49844">
        <ele>713</ele>
        <time>2022-09-06T21:03:18Z</time>
      </trkpt>
      <trkpt lat="44.616" lon="5.49797">
        <ele>712</ele>
        <time>2022-09-06T21:03:26Z</time>
      </trkpt>
      <trkpt lat="44.61567" lon="5.49725">
        <ele>713</ele>
        <time>2022-09-06T21:03:37Z</time>
      </trkpt>
      <trkpt lat="44.61539" lon="5.49622">
        <ele>712</ele>
        <time>2022-09-06T21:03:51Z</time>
      </trkpt>
      <trkpt lat="44.61512" lon="5.49547">
        <ele>713</ele>
        <time>2022-09-06T21:04:01Z</time>
      </trkpt>
      <trkpt lat="44.61465" lon="5.4945">
        <ele>716</ele>
        <time>2022-09-06T21:04:16Z</time>
      </trkpt>
      <trkpt lat="44.61459" lon="5.49386">
        <ele>718</ele>
        <time>2022-09-06T21:04:24Z</time>
      </trkpt>
      <trkpt lat="44.61444" lon="5.49313">
        <ele>715</ele>
        <time>2022-09-06T21:04:34Z</time>
      </trkpt>
      <trkpt lat="44.61414" lon="5.49229">
        <ele>708</ele>
        <time>2022-09-06T21:04:46Z</time>
      </trkpt>
      <trkpt lat="44.61387" lon="5.49102">
        <ele>710</ele>
        <time>2022-09-06T21:05:03Z</time>
      </trkpt>
      <trkpt lat="44.61375" lon="5.49011">
        <ele>707</ele>
        <time>2022-09-06T21:05:14Z</time>
      </trkpt>
      <trkpt lat="44.6131" lon="5.48875">
        <ele>700</ele>
        <time>2022-09-06T21:05:35Z</time>
      </trkpt>
      <trkpt lat="44.61289" lon="5.4881">
        <ele>699</ele>
        <time>2022-09-06T21:05:44Z</time>
      </trkpt>
      <trkpt lat="44.61272" lon="5.48783">
        <ele>697</ele>
        <time>2022-09-06T21:05:49Z</time>
      </trkpt>
      <trkpt lat="44.61229" lon="5.48735">
        <ele>696</ele>
        <time>2022-09-06T21:05:58Z</time>
      </trkpt>
      <trkpt lat="44.61211" lon="5.48711">
        <ele>696</ele>
        <time>2022-09-06T21:06:03Z</time>
      </trkpt>
      <trkpt lat="44.61204" lon="5.48689">
        <ele>696</ele>
        <time>2022-09-06T21:06:06Z</time>
      </trkpt>
      <trkpt lat="44.61203" lon="5.48618">
        <ele>693</ele>
        <time>2022-09-06T21:06:15Z</time>
      </trkpt>
      <trkpt lat="44.61175" lon="5.48539">
        <ele>687</ele>
        <time>2022-09-06T21:06:26Z</time>
      </trkpt>
      <trkpt lat="44.6114" lon="5.48479">
        <ele>685</ele>
        <time>2022-09-06T21:06:36Z</time>
      </trkpt>
      <trkpt lat="44.61119" lon="5.48454">
        <ele>683</ele>
        <time>2022-09-06T21:06:41Z</time>
      </trkpt>
      <trkpt lat="44.61081" lon="5.48431">
        <ele>680</ele>
        <time>2022-09-06T21:06:48Z</time>
      </trkpt>
      <trkpt lat="44.61058" lon="5.48405">
        <ele>681</ele>
        <time>2022-09-06T21:06:53Z</time>
      </trkpt>
      <trkpt lat="44.61041" lon="5.48362">
        <ele>682</ele>
        <time>2022-09-06T21:07:00Z</time>
      </trkpt>
      <trkpt lat="44.61038" lon="5.48309">
        <ele>681</ele>
        <time>2022-09-06T21:07:06Z</time>
      </trkpt>
      <trkpt lat="44.61057" lon="5.4794">
        <ele>673</ele>
        <time>2022-09-06T21:07:53Z</time>
      </trkpt>
      <trkpt lat="44.61056" lon="5.47903">
        <ele>673</ele>
        <time>2022-09-06T21:07:58Z</time>
      </trkpt>
      <trkpt lat="44.61052" lon="5.47882">
        <ele>674</ele>
        <time>2022-09-06T21:08:01Z</time>
      </trkpt>
      <trkpt lat="44.61042" lon="5.47858">
        <ele>674</ele>
        <time>2022-09-06T21:08:04Z</time>
      </trkpt>
      <trkpt lat="44.61022" lon="5.47826">
        <ele>675</ele>
        <time>2022-09-06T21:08:10Z</time>
      </trkpt>
      <trkpt lat="44.60964" lon="5.47751">
        <ele>675</ele>
        <time>2022-09-06T21:08:24Z</time>
      </trkpt>
      <trkpt lat="44.60942" lon="5.47728">
        <ele>675</ele>
        <time>2022-09-06T21:08:29Z</time>
      </trkpt>
      <trkpt lat="44.60904" lon="5.47703">
        <ele>672</ele>
        <time>2022-09-06T21:08:36Z</time>
      </trkpt>
      <trkpt lat="44.6089" lon="5.4769">
        <ele>672</ele>
        <time>2022-09-06T21:08:39Z</time>
      </trkpt>
      <trkpt lat="44.60851" lon="5.47621">
        <ele>676</ele>
        <time>2022-09-06T21:08:50Z</time>
      </trkpt>
      <trkpt lat="44.60833" lon="5.4761">
        <ele>676</ele>
        <time>2022-09-06T21:08:54Z</time>
      </trkpt>
      <trkpt lat="44.60737" lon="5.47607">
        <ele>674</ele>
        <time>2022-09-06T21:09:11Z</time>
      </trkpt>
      <trkpt lat="44.6072" lon="5.47603">
        <ele>673</ele>
        <time>2022-09-06T21:09:14Z</time>
      </trkpt>
      <trkpt lat="44.60684" lon="5.47586">
        <ele>671</ele>
        <time>2022-09-06T21:09:21Z</time>
      </trkpt>
      <trkpt lat="44.60658" lon="5.47581">
        <ele>670</ele>
        <time>2022-09-06T21:09:25Z</time>
      </trkpt>
      <trkpt lat="44.60635" lon="5.47572">
        <ele>672</ele>
        <time>2022-09-06T21:09:29Z</time>
      </trkpt>
      <trkpt lat="44.60594" lon="5.47543">
        <ele>676</ele>
        <time>2022-09-06T21:09:38Z</time>
      </trkpt>
      <trkpt lat="44.60532" lon="5.47506">
        <ele>671</ele>
        <time>2022-09-06T21:09:50Z</time>
      </trkpt>
      <trkpt lat="44.60523" lon="5.47498">
        <ele>669</ele>
        <time>2022-09-06T21:09:51Z</time>
      </trkpt>
      <trkpt lat="44.60514" lon="5.47487">
        <ele>670</ele>
        <time>2022-09-06T21:09:54Z</time>
      </trkpt>
      <trkpt lat="44.605" lon="5.47459">
        <ele>673</ele>
        <time>2022-09-06T21:09:58Z</time>
      </trkpt>
      <trkpt lat="44.60483" lon="5.47435">
        <ele>676</ele>
        <time>2022-09-06T21:10:02Z</time>
      </trkpt>
      <trkpt lat="44.60461" lon="5.4741">
        <ele>674</ele>
        <time>2022-09-06T21:10:07Z</time>
      </trkpt>
      <trkpt lat="44.60432" lon="5.47385">
        <ele>666</ele>
        <time>2022-09-06T21:10:13Z</time>
      </trkpt>
      <trkpt lat="44.60424" lon="5.47366">
        <ele>663</ele>
        <time>2022-09-06T21:10:16Z</time>
      </trkpt>
      <trkpt lat="44.60425" lon="5.4734">
        <ele>664</ele>
        <time>2022-09-06T21:10:19Z</time>
      </trkpt>
      <trkpt lat="44.60428" lon="5.47329">
        <ele>665</ele>
        <time>2022-09-06T21:10:21Z</time>
      </trkpt>
      <trkpt lat="44.60449" lon="5.47291">
        <ele>672</ele>
        <time>2022-09-06T21:10:27Z</time>
      </trkpt>
      <trkpt lat="44.60452" lon="5.47273">
        <ele>672</ele>
        <time>2022-09-06T21:10:29Z</time>
      </trkpt>
      <trkpt lat="44.60449" lon="5.47255">
        <ele>670</ele>
        <time>2022-09-06T21:10:32Z</time>
      </trkpt>
      <trkpt lat="44.60418" lon="5.47154">
        <ele>659</ele>
        <time>2022-09-06T21:10:46Z</time>
      </trkpt>
      <trkpt lat="44.60389" lon="5.47095">
        <ele>660</ele>
        <time>2022-09-06T21:10:55Z</time>
      </trkpt>
      <trkpt lat="44.60381" lon="5.47073">
        <ele>659</ele>
        <time>2022-09-06T21:10:58Z</time>
      </trkpt>
      <trkpt lat="44.60375" lon="5.47041">
        <ele>659</ele>
        <time>2022-09-06T21:11:02Z</time>
      </trkpt>
      <trkpt lat="44.60372" lon="5.46965">
        <ele>659</ele>
        <time>2022-09-06T21:11:12Z</time>
      </trkpt>
      <trkpt lat="44.60368" lon="5.46929">
        <ele>657</ele>
        <time>2022-09-06T21:11:16Z</time>
      </trkpt>
      <trkpt lat="44.60356" lon="5.46876">
        <ele>657</ele>
        <time>2022-09-06T21:11:23Z</time>
      </trkpt>
      <trkpt lat="44.60327" lon="5.4681">
        <ele>653</ele>
        <time>2022-09-06T21:11:33Z</time>
      </trkpt>
      <trkpt lat="44.60324" lon="5.46798">
        <ele>654</ele>
        <time>2022-09-06T21:11:35Z</time>
      </trkpt>
      <trkpt lat="44.60321" lon="5.46785">
        <ele>655</ele>
        <time>2022-09-06T21:11:36Z</time>
      </trkpt>
      <trkpt lat="44.60321" lon="5.46748">
        <ele>658</ele>
        <time>2022-09-06T21:11:41Z</time>
      </trkpt>
      <trkpt lat="44.60317" lon="5.46712">
        <ele>660</ele>
        <time>2022-09-06T21:11:46Z</time>
      </trkpt>
      <trkpt lat="44.60302" lon="5.46649">
        <ele>660</ele>
        <time>2022-09-06T21:11:54Z</time>
      </trkpt>
      <trkpt lat="44.60288" lon="5.46609">
        <ele>659</ele>
        <time>2022-09-06T21:12:00Z</time>
      </trkpt>
      <trkpt lat="44.60238" lon="5.46501">
        <ele>642</ele>
        <time>2022-09-06T21:12:16Z</time>
      </trkpt>
      <trkpt lat="44.60193" lon="5.46549">
        <ele>638</ele>
        <time>2022-09-06T21:12:26Z</time>
      </trkpt>
      <trkpt lat="44.59854" lon="5.46854">
        <ele>633</ele>
        <time>2022-09-06T21:13:38Z</time>
      </trkpt>
      <trkpt lat="44.59557" lon="5.47116">
        <ele>635</ele>
        <time>2022-09-06T21:14:40Z</time>
      </trkpt>
      <trkpt lat="44.59533" lon="5.47134">
        <ele>636</ele>
        <time>2022-09-06T21:14:45Z</time>
      </trkpt>
      <trkpt lat="44.59469" lon="5.47169">
        <ele>636</ele>
        <time>2022-09-06T21:14:57Z</time>
      </trkpt>
      <trkpt lat="44.59393" lon="5.47262">
        <ele>633</ele>
        <time>2022-09-06T21:15:15Z</time>
      </trkpt>
      <trkpt lat="44.59337" lon="5.47314">
        <ele>634</ele>
        <time>2022-09-06T21:15:27Z</time>
      </trkpt>
      <trkpt lat="44.59049" lon="5.47569">
        <ele>635</ele>
        <time>2022-09-06T21:16:28Z</time>
      </trkpt>
      <trkpt lat="44.5888" lon="5.47714">
        <ele>636</ele>
        <time>2022-09-06T21:17:03Z</time>
      </trkpt>
      <trkpt lat="44.58432" lon="5.48069">
        <ele>638</ele>
        <time>2022-09-06T21:18:35Z</time>
      </trkpt>
      <trkpt lat="44.58346" lon="5.48133">
        <ele>638</ele>
        <time>2022-09-06T21:18:52Z</time>
      </trkpt>
      <trkpt lat="44.58307" lon="5.48158">
        <ele>638</ele>
        <time>2022-09-06T21:19:00Z</time>
      </trkpt>
      <trkpt lat="44.58236" lon="5.48187">
        <ele>639</ele>
        <time>2022-09-06T21:19:13Z</time>
      </trkpt>
      <trkpt lat="44.58211" lon="5.48201">
        <ele>639</ele>
        <time>2022-09-06T21:19:17Z</time>
      </trkpt>
      <trkpt lat="44.58158" lon="5.4824">
        <ele>638</ele>
        <time>2022-09-06T21:19:28Z</time>
      </trkpt>
      <trkpt lat="44.58125" lon="5.48269">
        <ele>639</ele>
        <time>2022-09-06T21:19:35Z</time>
      </trkpt>
      <trkpt lat="44.58086" lon="5.48304">
        <ele>641</ele>
        <time>2022-09-06T21:19:43Z</time>
      </trkpt>
      <trkpt lat="44.57961" lon="5.48449">
        <ele>646</ele>
        <time>2022-09-06T21:20:12Z</time>
      </trkpt>
      <trkpt lat="44.57967" lon="5.48461">
        <ele>648</ele>
        <time>2022-09-06T21:20:14Z</time>
      </trkpt>
      <trkpt lat="44.57965" lon="5.4848">
        <ele>650</ele>
        <time>2022-09-06T21:20:16Z</time>
      </trkpt>
      <trkpt lat="44.57915" lon="5.48558">
        <ele>646</ele>
        <time>2022-09-06T21:20:30Z</time>
      </trkpt>
      <trkpt lat="44.57902" lon="5.48591">
        <ele>646</ele>
        <time>2022-09-06T21:20:34Z</time>
      </trkpt>
      <trkpt lat="44.57909" lon="5.48611">
        <ele>646</ele>
        <time>2022-09-06T21:20:37Z</time>
      </trkpt>
      <trkpt lat="44.57998" lon="5.48675">
        <ele>660</ele>
        <time>2022-09-06T21:20:55Z</time>
      </trkpt>
      <trkpt lat="44.58087" lon="5.48749">
        <ele>666</ele>
        <time>2022-09-06T21:21:14Z</time>
      </trkpt>
      <trkpt lat="44.58104" lon="5.48761">
        <ele>669</ele>
        <time>2022-09-06T21:21:17Z</time>
      </trkpt>
      <trkpt lat="44.58127" lon="5.48773">
        <ele>674</ele>
        <time>2022-09-06T21:21:21Z</time>
      </trkpt>
      <trkpt lat="44.58148" lon="5.48803">
        <ele>672</ele>
        <time>2022-09-06T21:21:27Z</time>
      </trkpt>
      <trkpt lat="44.58165" lon="5.4882">
        <ele>671</ele>
        <time>2022-09-06T21:21:30Z</time>
      </trkpt>
      <trkpt lat="44.58177" lon="5.48839">
        <ele>670</ele>
        <time>2022-09-06T21:21:34Z</time>
      </trkpt>
      <trkpt lat="44.58185" lon="5.48845">
        <ele>672</ele>
        <time>2022-09-06T21:21:35Z</time>
      </trkpt>
      <trkpt lat="44.582" lon="5.48847">
        <ele>678</ele>
        <time>2022-09-06T21:21:38Z</time>
      </trkpt>
      <trkpt lat="44.58208" lon="5.48851">
        <ele>680</ele>
        <time>2022-09-06T21:21:39Z</time>
      </trkpt>
      <trkpt lat="44.58218" lon="5.4888">
        <ele>677</ele>
        <time>2022-09-06T21:21:43Z</time>
      </trkpt>
      <trkpt lat="44.58226" lon="5.48889">
        <ele>677</ele>
        <time>2022-09-06T21:21:45Z</time>
      </trkpt>
      <trkpt lat="44.58254" lon="5.48894">
        <ele>686</ele>
        <time>2022-09-06T21:21:50Z</time>
      </trkpt>
      <trkpt lat="44.58263" lon="5.48898">
        <ele>689</ele>
        <time>2022-09-06T21:21:52Z</time>
      </trkpt>
      <trkpt lat="44.58267" lon="5.48905">
        <ele>688</ele>
        <time>2022-09-06T21:21:53Z</time>
      </trkpt>
      <trkpt lat="44.58267" lon="5.48939">
        <ele>681</ele>
        <time>2022-09-06T21:21:57Z</time>
      </trkpt>
      <trkpt lat="44.58287" lon="5.48963">
        <ele>685</ele>
        <time>2022-09-06T21:22:02Z</time>
      </trkpt>
      <trkpt lat="44.58289" lon="5.48982">
        <ele>682</ele>
        <time>2022-09-06T21:22:04Z</time>
      </trkpt>
      <trkpt lat="44.58293" lon="5.48993">
        <ele>681</ele>
        <time>2022-09-06T21:22:06Z</time>
      </trkpt>
      <trkpt lat="44.58298" lon="5.49">
        <ele>681</ele>
        <time>2022-09-06T21:22:07Z</time>
      </trkpt>
      <trkpt lat="44.58317" lon="5.4901">
        <ele>686</ele>
        <time>2022-09-06T21:22:11Z</time>
      </trkpt>
      <trkpt lat="44.58328" lon="5.49033">
        <ele>683</ele>
        <time>2022-09-06T21:22:14Z</time>
      </trkpt>
      <trkpt lat="44.58334" lon="5.49038">
        <ele>684</ele>
        <time>2022-09-06T21:22:16Z</time>
      </trkpt>
      <trkpt lat="44.58355" lon="5.49035">
        <ele>687</ele>
        <time>2022-09-06T21:22:19Z</time>
      </trkpt>
      <trkpt lat="44.58392" lon="5.49017">
        <ele>696</ele>
        <time>2022-09-06T21:22:26Z</time>
      </trkpt>
      <trkpt lat="44.58453" lon="5.48998">
        <ele>705</ele>
        <time>2022-09-06T21:22:38Z</time>
      </trkpt>
      <trkpt lat="44.58458" lon="5.48991">
        <ele>707</ele>
        <time>2022-09-06T21:22:39Z</time>
      </trkpt>
      <trkpt lat="44.58451" lon="5.48987">
        <ele>709</ele>
        <time>2022-09-06T21:22:40Z</time>
      </trkpt>
      <trkpt lat="44.58429" lon="5.48993">
        <ele>708</ele>
        <time>2022-09-06T21:22:44Z</time>
      </trkpt>
      <trkpt lat="44.58363" lon="5.49001">
        <ele>698</ele>
        <time>2022-09-06T21:22:56Z</time>
      </trkpt>
      <trkpt lat="44.58353" lon="5.48997">
        <ele>698</ele>
        <time>2022-09-06T21:22:58Z</time>
      </trkpt>
      <trkpt lat="44.58342" lon="5.48974">
        <ele>703</ele>
        <time>2022-09-06T21:23:01Z</time>
      </trkpt>
      <trkpt lat="44.5833" lon="5.4896">
        <ele>704</ele>
        <time>2022-09-06T21:23:04Z</time>
      </trkpt>
      <trkpt lat="44.58325" lon="5.4895">
        <ele>704</ele>
        <time>2022-09-06T21:23:06Z</time>
      </trkpt>
      <trkpt lat="44.58322" lon="5.48924">
        <ele>709</ele>
        <time>2022-09-06T21:23:09Z</time>
      </trkpt>
      <trkpt lat="44.58314" lon="5.48906">
        <ele>710</ele>
        <time>2022-09-06T21:23:12Z</time>
      </trkpt>
      <trkpt lat="44.58314" lon="5.48902">
        <ele>711</ele>
        <time>2022-09-06T21:23:12Z</time>
      </trkpt>
      <trkpt lat="44.58318" lon="5.48897">
        <ele>714</ele>
        <time>2022-09-06T21:23:13Z</time>
      </trkpt>
      <trkpt lat="44.58321" lon="5.48897">
        <ele>715</ele>
        <time>2022-09-06T21:23:14Z</time>
      </trkpt>
      <trkpt lat="44.58325" lon="5.48902">
        <ele>716</ele>
        <time>2022-09-06T21:23:15Z</time>
      </trkpt>
      <trkpt lat="44.5833" lon="5.48921">
        <ele>713</ele>
        <time>2022-09-06T21:23:17Z</time>
      </trkpt>
      <trkpt lat="44.58338" lon="5.48935">
        <ele>713</ele>
        <time>2022-09-06T21:23:19Z</time>
      </trkpt>
      <trkpt lat="44.5836" lon="5.4895">
        <ele>713</ele>
        <time>2022-09-06T21:23:24Z</time>
      </trkpt>
      <trkpt lat="44.58369" lon="5.4896">
        <ele>712</ele>
        <time>2022-09-06T21:23:26Z</time>
      </trkpt>
      <trkpt lat="44.58376" lon="5.48963">
        <ele>713</ele>
        <time>2022-09-06T21:23:27Z</time>
      </trkpt>
      <trkpt lat="44.58445" lon="5.48942">
        <ele>729</ele>
        <time>2022-09-06T21:23:40Z</time>
      </trkpt>
      <trkpt lat="44.5846" lon="5.48929">
        <ele>734</ele>
        <time>2022-09-06T21:23:43Z</time>
      </trkpt>
      <trkpt lat="44.58473" lon="5.48922">
        <ele>736</ele>
        <time>2022-09-06T21:23:45Z</time>
      </trkpt>
      <trkpt lat="44.58485" lon="5.48922">
        <ele>736</ele>
        <time>2022-09-06T21:23:47Z</time>
      </trkpt>
      <trkpt lat="44.58499" lon="5.48929">
        <ele>733</ele>
        <time>2022-09-06T21:23:50Z</time>
      </trkpt>
      <trkpt lat="44.58508" lon="5.48928">
        <ele>732</ele>
        <time>2022-09-06T21:23:52Z</time>
      </trkpt>
      <trkpt lat="44.5856" lon="5.48878">
        <ele>746</ele>
        <time>2022-09-06T21:24:03Z</time>
      </trkpt>
      <trkpt lat="44.58603" lon="5.48862">
        <ele>751</ele>
        <time>2022-09-06T21:24:11Z</time>
      </trkpt>
      <trkpt lat="44.58664" lon="5.4887">
        <ele>752</ele>
        <time>2022-09-06T21:24:22Z</time>
      </trkpt>
      <trkpt lat="44.58694" lon="5.4888">
        <ele>753</ele>
        <time>2022-09-06T21:24:27Z</time>
      </trkpt>
      <trkpt lat="44.5877" lon="5.48883">
        <ele>766</ele>
        <time>2022-09-06T21:24:41Z</time>
      </trkpt>
      <trkpt lat="44.58799" lon="5.48891">
        <ele>770</ele>
        <time>2022-09-06T21:24:46Z</time>
      </trkpt>
      <trkpt lat="44.58819" lon="5.489">
        <ele>771</ele>
        <time>2022-09-06T21:24:50Z</time>
      </trkpt>
      <trkpt lat="44.58828" lon="5.48907">
        <ele>771</ele>
        <time>2022-09-06T21:24:52Z</time>
      </trkpt>
      <trkpt lat="44.58842" lon="5.48924">
        <ele>772</ele>
        <time>2022-09-06T21:24:55Z</time>
      </trkpt>
      <trkpt lat="44.58864" lon="5.4896">
        <ele>778</ele>
        <time>2022-09-06T21:25:01Z</time>
      </trkpt>
      <trkpt lat="44.58868" lon="5.48969">
        <ele>779</ele>
        <time>2022-09-06T21:25:02Z</time>
      </trkpt>
      <trkpt lat="44.58867" lon="5.48979">
        <ele>778</ele>
        <time>2022-09-06T21:25:03Z</time>
      </trkpt>
      <trkpt lat="44.58859" lon="5.48993">
        <ele>776</ele>
        <time>2022-09-06T21:25:06Z</time>
      </trkpt>
      <trkpt lat="44.58822" lon="5.48995">
        <ele>767</ele>
        <time>2022-09-06T21:25:12Z</time>
      </trkpt>
      <trkpt lat="44.58812" lon="5.48998">
        <ele>765</ele>
        <time>2022-09-06T21:25:14Z</time>
      </trkpt>
      <trkpt lat="44.58798" lon="5.49009">
        <ele>764</ele>
        <time>2022-09-06T21:25:17Z</time>
      </trkpt>
      <trkpt lat="44.58771" lon="5.49043">
        <ele>765</ele>
        <time>2022-09-06T21:25:23Z</time>
      </trkpt>
      <trkpt lat="44.58747" lon="5.49091">
        <ele>769</ele>
        <time>2022-09-06T21:25:31Z</time>
      </trkpt>
      <trkpt lat="44.58723" lon="5.49171">
        <ele>775</ele>
        <time>2022-09-06T21:25:42Z</time>
      </trkpt>
      <trkpt lat="44.58721" lon="5.49188">
        <ele>775</ele>
        <time>2022-09-06T21:25:44Z</time>
      </trkpt>
      <trkpt lat="44.58739" lon="5.49283">
        <ele>782</ele>
        <time>2022-09-06T21:25:57Z</time>
      </trkpt>
      <trkpt lat="44.58737" lon="5.49339">
        <ele>781</ele>
        <time>2022-09-06T21:26:04Z</time>
      </trkpt>
      <trkpt lat="44.58739" lon="5.49354">
        <ele>779</ele>
        <time>2022-09-06T21:26:06Z</time>
      </trkpt>
      <trkpt lat="44.58743" lon="5.49362">
        <ele>779</ele>
        <time>2022-09-06T21:26:07Z</time>
      </trkpt>
      <trkpt lat="44.58752" lon="5.49369">
        <ele>780</ele>
        <time>2022-09-06T21:26:09Z</time>
      </trkpt>
      <trkpt lat="44.58792" lon="5.49383">
        <ele>788</ele>
        <time>2022-09-06T21:26:16Z</time>
      </trkpt>
      <trkpt lat="44.58813" lon="5.49401">
        <ele>789</ele>
        <time>2022-09-06T21:26:20Z</time>
      </trkpt>
      <trkpt lat="44.58827" lon="5.49405">
        <ele>791</ele>
        <time>2022-09-06T21:26:23Z</time>
      </trkpt>
      <trkpt lat="44.58841" lon="5.49403">
        <ele>796</ele>
        <time>2022-09-06T21:26:25Z</time>
      </trkpt>
      <trkpt lat="44.58845" lon="5.49398">
        <ele>798</ele>
        <time>2022-09-06T21:26:26Z</time>
      </trkpt>
      <trkpt lat="44.58843" lon="5.4939">
        <ele>799</ele>
        <time>2022-09-06T21:26:27Z</time>
      </trkpt>
      <trkpt lat="44.58829" lon="5.4939">
        <ele>795</ele>
        <time>2022-09-06T21:26:30Z</time>
      </trkpt>
      <trkpt lat="44.58819" lon="5.49384">
        <ele>794</ele>
        <time>2022-09-06T21:26:32Z</time>
      </trkpt>
      <trkpt lat="44.58796" lon="5.49357">
        <ele>794</ele>
        <time>2022-09-06T21:26:37Z</time>
      </trkpt>
      <trkpt lat="44.58792" lon="5.49349">
        <ele>794</ele>
        <time>2022-09-06T21:26:38Z</time>
      </trkpt>
      <trkpt lat="44.58791" lon="5.49339">
        <ele>796</ele>
        <time>2022-09-06T21:26:40Z</time>
      </trkpt>
      <trkpt lat="44.58796" lon="5.49325">
        <ele>798</ele>
        <time>2022-09-06T21:26:42Z</time>
      </trkpt>
      <trkpt lat="44.58845" lon="5.49264">
        <ele>810</ele>
        <time>2022-09-06T21:26:53Z</time>
      </trkpt>
      <trkpt lat="44.58852" lon="5.49239">
        <ele>811</ele>
        <time>2022-09-06T21:26:57Z</time>
      </trkpt>
      <trkpt lat="44.58858" lon="5.49231">
        <ele>811</ele>
        <time>2022-09-06T21:26:58Z</time>
      </trkpt>
      <trkpt lat="44.58871" lon="5.49221">
        <ele>813</ele>
        <time>2022-09-06T21:27:01Z</time>
      </trkpt>
      <trkpt lat="44.58894" lon="5.49214">
        <ele>818</ele>
        <time>2022-09-06T21:27:05Z</time>
      </trkpt>
      <trkpt lat="44.58904" lon="5.49208">
        <ele>820</ele>
        <time>2022-09-06T21:27:07Z</time>
      </trkpt>
      <trkpt lat="44.58931" lon="5.49179">
        <ele>820</ele>
        <time>2022-09-06T21:27:13Z</time>
      </trkpt>
      <trkpt lat="44.58942" lon="5.49174">
        <ele>821</ele>
        <time>2022-09-06T21:27:15Z</time>
      </trkpt>
      <trkpt lat="44.58968" lon="5.49168">
        <ele>826</ele>
        <time>2022-09-06T21:27:20Z</time>
      </trkpt>
      <trkpt lat="44.58985" lon="5.49155">
        <ele>827</ele>
        <time>2022-09-06T21:27:23Z</time>
      </trkpt>
      <trkpt lat="44.58991" lon="5.49157">
        <ele>829</ele>
        <time>2022-09-06T21:27:24Z</time>
      </trkpt>
      <trkpt lat="44.58992" lon="5.49163">
        <ele>830</ele>
        <time>2022-09-06T21:27:25Z</time>
      </trkpt>
      <trkpt lat="44.5899" lon="5.49168">
        <ele>831</ele>
        <time>2022-09-06T21:27:26Z</time>
      </trkpt>
      <trkpt lat="44.58965" lon="5.49184">
        <ele>830</ele>
        <time>2022-09-06T21:27:31Z</time>
      </trkpt>
      <trkpt lat="44.58956" lon="5.49194">
        <ele>830</ele>
        <time>2022-09-06T21:27:33Z</time>
      </trkpt>
      <trkpt lat="44.58941" lon="5.49219">
        <ele>833</ele>
        <time>2022-09-06T21:27:37Z</time>
      </trkpt>
      <trkpt lat="44.58907" lon="5.49245">
        <ele>829</ele>
        <time>2022-09-06T21:27:44Z</time>
      </trkpt>
      <trkpt lat="44.58899" lon="5.49259">
        <ele>827</ele>
        <time>2022-09-06T21:27:46Z</time>
      </trkpt>
      <trkpt lat="44.58897" lon="5.49272">
        <ele>827</ele>
        <time>2022-09-06T21:27:48Z</time>
      </trkpt>
      <trkpt lat="44.589" lon="5.49292">
        <ele>828</ele>
        <time>2022-09-06T21:27:50Z</time>
      </trkpt>
      <trkpt lat="44.58928" lon="5.49325">
        <ele>839</ele>
        <time>2022-09-06T21:27:57Z</time>
      </trkpt>
      <trkpt lat="44.58954" lon="5.49367">
        <ele>847</ele>
        <time>2022-09-06T21:28:04Z</time>
      </trkpt>
      <trkpt lat="44.58978" lon="5.49458">
        <ele>850</ele>
        <time>2022-09-06T21:28:16Z</time>
      </trkpt>
      <trkpt lat="44.58988" lon="5.4948">
        <ele>852</ele>
        <time>2022-09-06T21:28:19Z</time>
      </trkpt>
      <trkpt lat="44.59005" lon="5.49538">
        <ele>849</ele>
        <time>2022-09-06T21:28:27Z</time>
      </trkpt>
      <trkpt lat="44.59008" lon="5.49543">
        <ele>849</ele>
        <time>2022-09-06T21:28:28Z</time>
      </trkpt>
      <trkpt lat="44.59017" lon="5.49548">
        <ele>849</ele>
        <time>2022-09-06T21:28:30Z</time>
      </trkpt>
      <trkpt lat="44.59068" lon="5.49548">
        <ele>861</ele>
        <time>2022-09-06T21:28:39Z</time>
      </trkpt>
      <trkpt lat="44.59111" lon="5.49542">
        <ele>871</ele>
        <time>2022-09-06T21:28:47Z</time>
      </trkpt>
      <trkpt lat="44.59158" lon="5.49553">
        <ele>873</ele>
        <time>2022-09-06T21:28:55Z</time>
      </trkpt>
      <trkpt lat="44.59212" lon="5.49552">
        <ele>888</ele>
        <time>2022-09-06T21:29:05Z</time>
      </trkpt>
      <trkpt lat="44.5922" lon="5.49554">
        <ele>890</ele>
        <time>2022-09-06T21:29:06Z</time>
      </trkpt>
      <trkpt lat="44.59239" lon="5.49567">
        <ele>890</ele>
        <time>2022-09-06T21:29:10Z</time>
      </trkpt>
      <trkpt lat="44.59247" lon="5.49588">
        <ele>887</ele>
        <time>2022-09-06T21:29:13Z</time>
      </trkpt>
      <trkpt lat="44.59247" lon="5.49602">
        <ele>887</ele>
        <time>2022-09-06T21:29:15Z</time>
      </trkpt>
      <trkpt lat="44.59228" lon="5.49688">
        <ele>878</ele>
        <time>2022-09-06T21:29:26Z</time>
      </trkpt>
      <trkpt lat="44.59226" lon="5.49735">
        <ele>879</ele>
        <time>2022-09-06T21:29:32Z</time>
      </trkpt>
      <trkpt lat="44.59232" lon="5.49756">
        <ele>882</ele>
        <time>2022-09-06T21:29:35Z</time>
      </trkpt>
      <trkpt lat="44.59257" lon="5.49806">
        <ele>888</ele>
        <time>2022-09-06T21:29:43Z</time>
      </trkpt>
      <trkpt lat="44.59262" lon="5.49822">
        <ele>888</ele>
        <time>2022-09-06T21:29:45Z</time>
      </trkpt>
      <trkpt lat="44.59264" lon="5.49838">
        <ele>888</ele>
        <time>2022-09-06T21:29:47Z</time>
      </trkpt>
      <trkpt lat="44.59263" lon="5.49865">
        <ele>887</ele>
        <time>2022-09-06T21:29:50Z</time>
      </trkpt>
      <trkpt lat="44.59255" lon="5.49903">
        <ele>884</ele>
        <time>2022-09-06T21:29:56Z</time>
      </trkpt>
      <trkpt lat="44.59269" lon="5.49964">
        <ele>885</ele>
        <time>2022-09-06T21:30:04Z</time>
      </trkpt>
      <trkpt lat="44.59273" lon="5.49972">
        <ele>886</ele>
        <time>2022-09-06T21:30:05Z</time>
      </trkpt>
      <trkpt lat="44.59293" lon="5.49995">
        <ele>891</ele>
        <time>2022-09-06T21:30:09Z</time>
      </trkpt>
      <trkpt lat="44.59304" lon="5.50014">
        <ele>892</ele>
        <time>2022-09-06T21:30:13Z</time>
      </trkpt>
      <trkpt lat="44.59317" lon="5.50068">
        <ele>890</ele>
        <time>2022-09-06T21:30:20Z</time>
      </trkpt>
      <trkpt lat="44.59326" lon="5.50088">
        <ele>890</ele>
        <time>2022-09-06T21:30:23Z</time>
      </trkpt>
      <trkpt lat="44.59334" lon="5.50095">
        <ele>891</ele>
        <time>2022-09-06T21:30:24Z</time>
      </trkpt>
      <trkpt lat="44.59343" lon="5.50099">
        <ele>893</ele>
        <time>2022-09-06T21:30:26Z</time>
      </trkpt>
      <trkpt lat="44.59413" lon="5.5011">
        <ele>910</ele>
        <time>2022-09-06T21:30:39Z</time>
      </trkpt>
      <trkpt lat="44.59421" lon="5.50115">
        <ele>912</ele>
        <time>2022-09-06T21:30:40Z</time>
      </trkpt>
      <trkpt lat="44.59423" lon="5.50132">
        <ele>910</ele>
        <time>2022-09-06T21:30:42Z</time>
      </trkpt>
      <trkpt lat="44.59418" lon="5.50151">
        <ele>905</ele>
        <time>2022-09-06T21:30:45Z</time>
      </trkpt>
      <trkpt lat="44.59418" lon="5.50169">
        <ele>902</ele>
        <time>2022-09-06T21:30:47Z</time>
      </trkpt>
      <trkpt lat="44.59423" lon="5.50185">
        <ele>902</ele>
        <time>2022-09-06T21:30:49Z</time>
      </trkpt>
      <trkpt lat="44.59431" lon="5.50193">
        <ele>904</ele>
        <time>2022-09-06T21:30:51Z</time>
      </trkpt>
      <trkpt lat="44.59445" lon="5.50196">
        <ele>910</ele>
        <time>2022-09-06T21:30:54Z</time>
      </trkpt>
      <trkpt lat="44.59452" lon="5.50205">
        <ele>911</ele>
        <time>2022-09-06T21:30:55Z</time>
      </trkpt>
      <trkpt lat="44.59453" lon="5.50215">
        <ele>911</ele>
        <time>2022-09-06T21:30:57Z</time>
      </trkpt>
      <trkpt lat="44.5945" lon="5.50242">
        <ele>906</ele>
        <time>2022-09-06T21:31:00Z</time>
      </trkpt>
      <trkpt lat="44.59467" lon="5.50286">
        <ele>910</ele>
        <time>2022-09-06T21:31:07Z</time>
      </trkpt>
      <trkpt lat="44.59468" lon="5.50373">
        <ele>902</ele>
        <time>2022-09-06T21:31:18Z</time>
      </trkpt>
      <trkpt lat="44.5947" lon="5.50388">
        <ele>901</ele>
        <time>2022-09-06T21:31:19Z</time>
      </trkpt>
      <trkpt lat="44.59477" lon="5.50405">
        <ele>901</ele>
        <time>2022-09-06T21:31:22Z</time>
      </trkpt>
      <trkpt lat="44.59487" lon="5.50419">
        <ele>903</ele>
        <time>2022-09-06T21:31:24Z</time>
      </trkpt>
      <trkpt lat="44.59499" lon="5.50429">
        <ele>905</ele>
        <time>2022-09-06T21:31:27Z</time>
      </trkpt>
      <trkpt lat="44.59515" lon="5.50436">
        <ele>909</ele>
        <time>2022-09-06T21:31:30Z</time>
      </trkpt>
      <trkpt lat="44.59549" lon="5.50445">
        <ele>917</ele>
        <time>2022-09-06T21:31:36Z</time>
      </trkpt>
      <trkpt lat="44.59578" lon="5.50464">
        <ele>922</ele>
        <time>2022-09-06T21:31:42Z</time>
      </trkpt>
      <trkpt lat="44.59603" lon="5.50467">
        <ele>933</ele>
        <time>2022-09-06T21:31:46Z</time>
      </trkpt>
      <trkpt lat="44.59609" lon="5.50472">
        <ele>935</ele>
        <time>2022-09-06T21:31:48Z</time>
      </trkpt>
      <trkpt lat="44.59611" lon="5.50479">
        <ele>935</ele>
        <time>2022-09-06T21:31:48Z</time>
      </trkpt>
      <trkpt lat="44.59609" lon="5.50502">
        <ele>932</ele>
        <time>2022-09-06T21:31:51Z</time>
      </trkpt>
      <trkpt lat="44.59612" lon="5.50529">
        <ele>936</ele>
        <time>2022-09-06T21:31:55Z</time>
      </trkpt>
      <trkpt lat="44.59579" lon="5.50605">
        <ele>925</ele>
        <time>2022-09-06T21:32:06Z</time>
      </trkpt>
      <trkpt lat="44.59576" lon="5.5062">
        <ele>925</ele>
        <time>2022-09-06T21:32:08Z</time>
      </trkpt>
      <trkpt lat="44.59576" lon="5.50651">
        <ele>929</ele>
        <time>2022-09-06T21:32:12Z</time>
      </trkpt>
      <trkpt lat="44.59573" lon="5.50674">
        <ele>930</ele>
        <time>2022-09-06T21:32:15Z</time>
      </trkpt>
      <trkpt lat="44.59557" lon="5.50732">
        <ele>929</ele>
        <time>2022-09-06T21:32:23Z</time>
      </trkpt>
      <trkpt lat="44.59537" lon="5.5078">
        <ele>921</ele>
        <time>2022-09-06T21:32:30Z</time>
      </trkpt>
      <trkpt lat="44.59532" lon="5.50801">
        <ele>919</ele>
        <time>2022-09-06T21:32:33Z</time>
      </trkpt>
      <trkpt lat="44.59534" lon="5.50807">
        <ele>921</ele>
        <time>2022-09-06T21:32:34Z</time>
      </trkpt>
      <trkpt lat="44.59551" lon="5.50825">
        <ele>933</ele>
        <time>2022-09-06T21:32:37Z</time>
      </trkpt>
      <trkpt lat="44.59558" lon="5.50839">
        <ele>938</ele>
        <time>2022-09-06T21:32:40Z</time>
      </trkpt>
      <trkpt lat="44.59562" lon="5.50855">
        <ele>941</ele>
        <time>2022-09-06T21:32:42Z</time>
      </trkpt>
      <trkpt lat="44.59568" lon="5.5091">
        <ele>945</ele>
        <time>2022-09-06T21:32:49Z</time>
      </trkpt>
      <trkpt lat="44.59565" lon="5.50938">
        <ele>940</ele>
        <time>2022-09-06T21:32:52Z</time>
      </trkpt>
      <trkpt lat="44.59545" lon="5.50977">
        <ele>922</ele>
        <time>2022-09-06T21:32:58Z</time>
      </trkpt>
      <trkpt lat="44.59541" lon="5.50991">
        <ele>918</ele>
        <time>2022-09-06T21:33:00Z</time>
      </trkpt>
      <trkpt lat="44.59542" lon="5.50998">
        <ele>918</ele>
        <time>2022-09-06T21:33:01Z</time>
      </trkpt>
      <trkpt lat="44.5955" lon="5.51019">
        <ele>922</ele>
        <time>2022-09-06T21:33:04Z</time>
      </trkpt>
      <trkpt lat="44.59585" lon="5.51032">
        <ele>943</ele>
        <time>2022-09-06T21:33:11Z</time>
      </trkpt>
      <trkpt lat="44.59594" lon="5.51044">
        <ele>945</ele>
        <time>2022-09-06T21:33:13Z</time>
      </trkpt>
      <trkpt lat="44.59603" lon="5.51067">
        <ele>946</ele>
        <time>2022-09-06T21:33:16Z</time>
      </trkpt>
      <trkpt lat="44.59604" lon="5.51083">
        <ele>945</ele>
        <time>2022-09-06T21:33:18Z</time>
      </trkpt>
      <trkpt lat="44.59592" lon="5.51127">
        <ele>942</ele>
        <time>2022-09-06T21:33:24Z</time>
      </trkpt>
      <trkpt lat="44.5959" lon="5.51147">
        <ele>942</ele>
        <time>2022-09-06T21:33:27Z</time>
      </trkpt>
      <trkpt lat="44.59594" lon="5.51179">
        <ele>946</ele>
        <time>2022-09-06T21:33:31Z</time>
      </trkpt>
      <trkpt lat="44.59611" lon="5.51217">
        <ele>954</ele>
        <time>2022-09-06T21:33:37Z</time>
      </trkpt>
      <trkpt lat="44.59606" lon="5.51231">
        <ele>954</ele>
        <time>2022-09-06T21:33:39Z</time>
      </trkpt>
      <trkpt lat="44.59577" lon="5.51248">
        <ele>948</ele>
        <time>2022-09-06T21:33:44Z</time>
      </trkpt>
      <trkpt lat="44.59566" lon="5.51265">
        <ele>948</ele>
        <time>2022-09-06T21:33:47Z</time>
      </trkpt>
      <trkpt lat="44.59557" lon="5.51353">
        <ele>953</ele>
        <time>2022-09-06T21:33:58Z</time>
      </trkpt>
      <trkpt lat="44.59554" lon="5.51423">
        <ele>953</ele>
        <time>2022-09-06T21:34:07Z</time>
      </trkpt>
      <trkpt lat="44.5956" lon="5.51447">
        <ele>954</ele>
        <time>2022-09-06T21:34:10Z</time>
      </trkpt>
      <trkpt lat="44.59567" lon="5.5146">
        <ele>955</ele>
        <time>2022-09-06T21:34:13Z</time>
      </trkpt>
      <trkpt lat="44.59694" lon="5.51617">
        <ele>972</ele>
        <time>2022-09-06T21:34:43Z</time>
      </trkpt>
      <trkpt lat="44.59697" lon="5.51618">
        <ele>972</ele>
        <time>2022-09-06T21:34:43Z</time>
      </trkpt>
      <trkpt lat="44.597" lon="5.51616">
        <ele>973</ele>
        <time>2022-09-06T21:34:44Z</time>
      </trkpt>
      <trkpt lat="44.59702" lon="5.51609">
        <ele>973</ele>
        <time>2022-09-06T21:34:45Z</time>
      </trkpt>
      <trkpt lat="44.59693" lon="5.51548">
        <ele>972</ele>
        <time>2022-09-06T21:34:53Z</time>
      </trkpt>
      <trkpt lat="44.59695" lon="5.51543">
        <ele>972</ele>
        <time>2022-09-06T21:34:53Z</time>
      </trkpt>
      <trkpt lat="44.59701" lon="5.51543">
        <ele>973</ele>
        <time>2022-09-06T21:34:54Z</time>
      </trkpt>
      <trkpt lat="44.59708" lon="5.5158">
        <ele>974</ele>
        <time>2022-09-06T21:34:59Z</time>
      </trkpt>
      <trkpt lat="44.59719" lon="5.51617">
        <ele>976</ele>
        <time>2022-09-06T21:35:04Z</time>
      </trkpt>
      <trkpt lat="44.59764" lon="5.51675">
        <ele>984</ele>
        <time>2022-09-06T21:35:15Z</time>
      </trkpt>
      <trkpt lat="44.59769" lon="5.517">
        <ele>985</ele>
        <time>2022-09-06T21:35:18Z</time>
      </trkpt>
      <trkpt lat="44.59768" lon="5.51783">
        <ele>988</ele>
        <time>2022-09-06T21:35:29Z</time>
      </trkpt>
      <trkpt lat="44.5977" lon="5.51819">
        <ele>989</ele>
        <time>2022-09-06T21:35:34Z</time>
      </trkpt>
      <trkpt lat="44.59795" lon="5.51984">
        <ele>998</ele>
        <time>2022-09-06T21:35:55Z</time>
      </trkpt>
      <trkpt lat="44.59801" lon="5.52013">
        <ele>1000</ele>
        <time>2022-09-06T21:35:59Z</time>
      </trkpt>
      <trkpt lat="44.5983" lon="5.52072">
        <ele>1005</ele>
        <time>2022-09-06T21:36:08Z</time>
      </trkpt>
      <trkpt lat="44.59831" lon="5.52098">
        <ele>1005</ele>
        <time>2022-09-06T21:36:11Z</time>
      </trkpt>
      <trkpt lat="44.59789" lon="5.52301">
        <ele>1011</ele>
        <time>2022-09-06T21:36:38Z</time>
      </trkpt>
      <trkpt lat="44.59787" lon="5.52352">
        <ele>1013</ele>
        <time>2022-09-06T21:36:44Z</time>
      </trkpt>
      <trkpt lat="44.59792" lon="5.52426">
        <ele>1016</ele>
        <time>2022-09-06T21:36:54Z</time>
      </trkpt>
      <trkpt lat="44.59774" lon="5.52569">
        <ele>1022</ele>
        <time>2022-09-06T21:37:12Z</time>
      </trkpt>
      <trkpt lat="44.59764" lon="5.52598">
        <ele>1023</ele>
        <time>2022-09-06T21:37:16Z</time>
      </trkpt>
      <trkpt lat="44.59737" lon="5.52638">
        <ele>1023</ele>
        <time>2022-09-06T21:37:23Z</time>
      </trkpt>
      <trkpt lat="44.59732" lon="5.5265">
        <ele>1023</ele>
        <time>2022-09-06T21:37:25Z</time>
      </trkpt>
      <trkpt lat="44.59691" lon="5.52793">
        <ele>1025</ele>
        <time>2022-09-06T21:37:45Z</time>
      </trkpt>
      <trkpt lat="44.59675" lon="5.52868">
        <ele>1024</ele>
        <time>2022-09-06T21:37:55Z</time>
      </trkpt>
      <trkpt lat="44.5966" lon="5.52967">
        <ele>1022</ele>
        <time>2022-09-06T21:38:07Z</time>
      </trkpt>
      <trkpt lat="44.59634" lon="5.53247">
        <ele>1016</ele>
        <time>2022-09-06T21:38:43Z</time>
      </trkpt>
      <trkpt lat="44.59627" lon="5.53291">
        <ele>1015</ele>
        <time>2022-09-06T21:38:49Z</time>
      </trkpt>
      <trkpt lat="44.59609" lon="5.53344">
        <ele>1013</ele>
        <time>2022-09-06T21:38:56Z</time>
      </trkpt>
      <trkpt lat="44.59502" lon="5.53589">
        <ele>1007</ele>
        <time>2022-09-06T21:39:33Z</time>
      </trkpt>
      <trkpt lat="44.5936" lon="5.53924">
        <ele>997</ele>
        <time>2022-09-06T21:40:22Z</time>
      </trkpt>
      <trkpt lat="44.59323" lon="5.54009">
        <ele>994</ele>
        <time>2022-09-06T21:40:35Z</time>
      </trkpt>
      <trkpt lat="44.59308" lon="5.54034">
        <ele>994</ele>
        <time>2022-09-06T21:40:39Z</time>
      </trkpt>
      <trkpt lat="44.58648" lon="5.54559">
        <ele>967</ele>
        <time>2022-09-06T21:42:54Z</time>
      </trkpt>
      <trkpt lat="44.58627" lon="5.54571">
        <ele>967</ele>
        <time>2022-09-06T21:42:58Z</time>
      </trkpt>
      <trkpt lat="44.58605" lon="5.54577">
        <ele>967</ele>
        <time>2022-09-06T21:43:02Z</time>
      </trkpt>
      <trkpt lat="44.58506" lon="5.54587">
        <ele>966</ele>
        <time>2022-09-06T21:43:19Z</time>
      </trkpt>
      <trkpt lat="44.58452" lon="5.54586">
        <ele>966</ele>
        <time>2022-09-06T21:43:29Z</time>
      </trkpt>
      <trkpt lat="44.58414" lon="5.54607">
        <ele>966</ele>
        <time>2022-09-06T21:43:36Z</time>
      </trkpt>
      <trkpt lat="44.58381" lon="5.54618">
        <ele>965</ele>
        <time>2022-09-06T21:43:42Z</time>
      </trkpt>
      <trkpt lat="44.5837" lon="5.54625">
        <ele>965</ele>
        <time>2022-09-06T21:43:45Z</time>
      </trkpt>
      <trkpt lat="44.58314" lon="5.54682">
        <ele>962</ele>
        <time>2022-09-06T21:43:57Z</time>
      </trkpt>
      <trkpt lat="44.58297" lon="5.54694">
        <ele>962</ele>
        <time>2022-09-06T21:44:00Z</time>
      </trkpt>
      <trkpt lat="44.58252" lon="5.54717">
        <ele>958</ele>
        <time>2022-09-06T21:44:09Z</time>
      </trkpt>
      <trkpt lat="44.58206" lon="5.54747">
        <ele>956</ele>
        <time>2022-09-06T21:44:18Z</time>
      </trkpt>
      <trkpt lat="44.58164" lon="5.54762">
        <ele>955</ele>
        <time>2022-09-06T21:44:25Z</time>
      </trkpt>
      <trkpt lat="44.58138" lon="5.5478">
        <ele>953</ele>
        <time>2022-09-06T21:44:31Z</time>
      </trkpt>
      <trkpt lat="44.58107" lon="5.54794">
        <ele>952</ele>
        <time>2022-09-06T21:44:36Z</time>
      </trkpt>
      <trkpt lat="44.58089" lon="5.54796">
        <ele>951</ele>
        <time>2022-09-06T21:44:40Z</time>
      </trkpt>
      <trkpt lat="44.58023" lon="5.54786">
        <ele>949</ele>
        <time>2022-09-06T21:44:51Z</time>
      </trkpt>
      <trkpt lat="44.58009" lon="5.54788">
        <ele>948</ele>
        <time>2022-09-06T21:44:54Z</time>
      </trkpt>
      <trkpt lat="44.57949" lon="5.54825">
        <ele>943</ele>
        <time>2022-09-06T21:45:06Z</time>
      </trkpt>
      <trkpt lat="44.57894" lon="5.54855">
        <ele>937</ele>
        <time>2022-09-06T21:45:16Z</time>
      </trkpt>
      <trkpt lat="44.57874" lon="5.54869">
        <ele>934</ele>
        <time>2022-09-06T21:45:20Z</time>
      </trkpt>
      <trkpt lat="44.57871" lon="5.54875">
        <ele>934</ele>
        <time>2022-09-06T21:45:21Z</time>
      </trkpt>
      <trkpt lat="44.57871" lon="5.54887">
        <ele>934</ele>
        <time>2022-09-06T21:45:23Z</time>
      </trkpt>
      <trkpt lat="44.57875" lon="5.54898">
        <ele>935</ele>
        <time>2022-09-06T21:45:24Z</time>
      </trkpt>
      <trkpt lat="44.57885" lon="5.54908">
        <ele>936</ele>
        <time>2022-09-06T21:45:26Z</time>
      </trkpt>
      <trkpt lat="44.57937" lon="5.54939">
        <ele>935</ele>
        <time>2022-09-06T21:45:36Z</time>
      </trkpt>
      <trkpt lat="44.57968" lon="5.54953">
        <ele>934</ele>
        <time>2022-09-06T21:45:42Z</time>
      </trkpt>
      <trkpt lat="44.58008" lon="5.5498">
        <ele>932</ele>
        <time>2022-09-06T21:45:50Z</time>
      </trkpt>
      <trkpt lat="44.58031" lon="5.5499">
        <ele>932</ele>
        <time>2022-09-06T21:45:54Z</time>
      </trkpt>
      <trkpt lat="44.58034" lon="5.54995">
        <ele>931</ele>
        <time>2022-09-06T21:45:55Z</time>
      </trkpt>
      <trkpt lat="44.58034" lon="5.55002">
        <ele>930</ele>
        <time>2022-09-06T21:45:56Z</time>
      </trkpt>
      <trkpt lat="44.58028" lon="5.55009">
        <ele>930</ele>
        <time>2022-09-06T21:45:57Z</time>
      </trkpt>
      <trkpt lat="44.57985" lon="5.5501">
        <ele>928</ele>
        <time>2022-09-06T21:46:05Z</time>
      </trkpt>
      <trkpt lat="44.57934" lon="5.55018">
        <ele>925</ele>
        <time>2022-09-06T21:46:14Z</time>
      </trkpt>
      <trkpt lat="44.57915" lon="5.55025">
        <ele>924</ele>
        <time>2022-09-06T21:46:18Z</time>
      </trkpt>
      <trkpt lat="44.57829" lon="5.55073">
        <ele>921</ele>
        <time>2022-09-06T21:46:34Z</time>
      </trkpt>
      <trkpt lat="44.57773" lon="5.55116">
        <ele>915</ele>
        <time>2022-09-06T21:46:46Z</time>
      </trkpt>
      <trkpt lat="44.57746" lon="5.55133">
        <ele>913</ele>
        <time>2022-09-06T21:46:51Z</time>
      </trkpt>
      <trkpt lat="44.57714" lon="5.55146">
        <ele>908</ele>
        <time>2022-09-06T21:46:57Z</time>
      </trkpt>
      <trkpt lat="44.57708" lon="5.55147">
        <ele>908</ele>
        <time>2022-09-06T21:46:58Z</time>
      </trkpt>
      <trkpt lat="44.57679" lon="5.55141">
        <ele>906</ele>
        <time>2022-09-06T21:47:03Z</time>
      </trkpt>
      <trkpt lat="44.57642" lon="5.55138">
        <ele>901</ele>
        <time>2022-09-06T21:47:10Z</time>
      </trkpt>
      <trkpt lat="44.57623" lon="5.55124">
        <ele>896</ele>
        <time>2022-09-06T21:47:13Z</time>
      </trkpt>
      <trkpt lat="44.57617" lon="5.55124">
        <ele>894</ele>
        <time>2022-09-06T21:47:14Z</time>
      </trkpt>
      <trkpt lat="44.57614" lon="5.5513">
        <ele>894</ele>
        <time>2022-09-06T21:47:15Z</time>
      </trkpt>
      <trkpt lat="44.57615" lon="5.55134">
        <ele>895</ele>
        <time>2022-09-06T21:47:16Z</time>
      </trkpt>
      <trkpt lat="44.57623" lon="5.55147">
        <ele>898</ele>
        <time>2022-09-06T21:47:18Z</time>
      </trkpt>
      <trkpt lat="44.57688" lon="5.55218">
        <ele>899</ele>
        <time>2022-09-06T21:47:33Z</time>
      </trkpt>
      <trkpt lat="44.57699" lon="5.55227">
        <ele>899</ele>
        <time>2022-09-06T21:47:35Z</time>
      </trkpt>
      <trkpt lat="44.57718" lon="5.55237">
        <ele>899</ele>
        <time>2022-09-06T21:47:39Z</time>
      </trkpt>
      <trkpt lat="44.57761" lon="5.55247">
        <ele>900</ele>
        <time>2022-09-06T21:47:46Z</time>
      </trkpt>
      <trkpt lat="44.5777" lon="5.55255">
        <ele>899</ele>
        <time>2022-09-06T21:47:48Z</time>
      </trkpt>
      <trkpt lat="44.57774" lon="5.55266">
        <ele>899</ele>
        <time>2022-09-06T21:47:50Z</time>
      </trkpt>
      <trkpt lat="44.57772" lon="5.55277">
        <ele>897</ele>
        <time>2022-09-06T21:47:51Z</time>
      </trkpt>
      <trkpt lat="44.57736" lon="5.55323">
        <ele>892</ele>
        <time>2022-09-06T21:48:00Z</time>
      </trkpt>
      <trkpt lat="44.57733" lon="5.55338">
        <ele>890</ele>
        <time>2022-09-06T21:48:02Z</time>
      </trkpt>
      <trkpt lat="44.57737" lon="5.55352">
        <ele>889</ele>
        <time>2022-09-06T21:48:04Z</time>
      </trkpt>
      <trkpt lat="44.57742" lon="5.55355">
        <ele>889</ele>
        <time>2022-09-06T21:48:05Z</time>
      </trkpt>
      <trkpt lat="44.57752" lon="5.55356">
        <ele>890</ele>
        <time>2022-09-06T21:48:07Z</time>
      </trkpt>
      <trkpt lat="44.5778" lon="5.55342">
        <ele>891</ele>
        <time>2022-09-06T21:48:12Z</time>
      </trkpt>
      <trkpt lat="44.57795" lon="5.55341">
        <ele>891</ele>
        <time>2022-09-06T21:48:15Z</time>
      </trkpt>
      <trkpt lat="44.57807" lon="5.55345">
        <ele>890</ele>
        <time>2022-09-06T21:48:17Z</time>
      </trkpt>
      <trkpt lat="44.57829" lon="5.5536">
        <ele>888</ele>
        <time>2022-09-06T21:48:21Z</time>
      </trkpt>
      <trkpt lat="44.5784" lon="5.55372">
        <ele>887</ele>
        <time>2022-09-06T21:48:24Z</time>
      </trkpt>
      <trkpt lat="44.57861" lon="5.55403">
        <ele>883</ele>
        <time>2022-09-06T21:48:29Z</time>
      </trkpt>
      <trkpt lat="44.57866" lon="5.5542">
        <ele>881</ele>
        <time>2022-09-06T21:48:31Z</time>
      </trkpt>
      <trkpt lat="44.57864" lon="5.55427">
        <ele>880</ele>
        <time>2022-09-06T21:48:32Z</time>
      </trkpt>
      <trkpt lat="44.5786" lon="5.55429">
        <ele>880</ele>
        <time>2022-09-06T21:48:33Z</time>
      </trkpt>
      <trkpt lat="44.57836" lon="5.55416">
        <ele>883</ele>
        <time>2022-09-06T21:48:38Z</time>
      </trkpt>
      <trkpt lat="44.57812" lon="5.5542">
        <ele>883</ele>
        <time>2022-09-06T21:48:42Z</time>
      </trkpt>
      <trkpt lat="44.57781" lon="5.5545">
        <ele>879</ele>
        <time>2022-09-06T21:48:49Z</time>
      </trkpt>
      <trkpt lat="44.57756" lon="5.55468">
        <ele>876</ele>
        <time>2022-09-06T21:48:54Z</time>
      </trkpt>
      <trkpt lat="44.57705" lon="5.55488">
        <ele>871</ele>
        <time>2022-09-06T21:49:03Z</time>
      </trkpt>
      <trkpt lat="44.57668" lon="5.55489">
        <ele>870</ele>
        <time>2022-09-06T21:49:10Z</time>
      </trkpt>
      <trkpt lat="44.57642" lon="5.55503">
        <ele>866</ele>
        <time>2022-09-06T21:49:15Z</time>
      </trkpt>
      <trkpt lat="44.57633" lon="5.55503">
        <ele>865</ele>
        <time>2022-09-06T21:49:16Z</time>
      </trkpt>
      <trkpt lat="44.57618" lon="5.55495">
        <ele>864</ele>
        <time>2022-09-06T21:49:19Z</time>
      </trkpt>
      <trkpt lat="44.57596" lon="5.55474">
        <ele>864</ele>
        <time>2022-09-06T21:49:24Z</time>
      </trkpt>
      <trkpt lat="44.57565" lon="5.55439">
        <ele>862</ele>
        <time>2022-09-06T21:49:31Z</time>
      </trkpt>
      <trkpt lat="44.57554" lon="5.55435">
        <ele>860</ele>
        <time>2022-09-06T21:49:33Z</time>
      </trkpt>
      <trkpt lat="44.5754" lon="5.55434">
        <ele>856</ele>
        <time>2022-09-06T21:49:35Z</time>
      </trkpt>
      <trkpt lat="44.5753" lon="5.55427">
        <ele>855</ele>
        <time>2022-09-06T21:49:37Z</time>
      </trkpt>
      <trkpt lat="44.57518" lon="5.55406">
        <ele>854</ele>
        <time>2022-09-06T21:49:41Z</time>
      </trkpt>
      <trkpt lat="44.5749" lon="5.55368">
        <ele>851</ele>
        <time>2022-09-06T21:49:48Z</time>
      </trkpt>
      <trkpt lat="44.57479" lon="5.55342">
        <ele>850</ele>
        <time>2022-09-06T21:49:52Z</time>
      </trkpt>
      <trkpt lat="44.57476" lon="5.55339">
        <ele>849</ele>
        <time>2022-09-06T21:49:52Z</time>
      </trkpt>
      <trkpt lat="44.5747" lon="5.55339">
        <ele>846</ele>
        <time>2022-09-06T21:49:53Z</time>
      </trkpt>
      <trkpt lat="44.57468" lon="5.55344">
        <ele>844</ele>
        <time>2022-09-06T21:49:54Z</time>
      </trkpt>
      <trkpt lat="44.5747" lon="5.5535">
        <ele>844</ele>
        <time>2022-09-06T21:49:55Z</time>
      </trkpt>
      <trkpt lat="44.57488" lon="5.55385">
        <ele>848</ele>
        <time>2022-09-06T21:50:00Z</time>
      </trkpt>
      <trkpt lat="44.575" lon="5.55416">
        <ele>848</ele>
        <time>2022-09-06T21:50:05Z</time>
      </trkpt>
      <trkpt lat="44.57503" lon="5.55471">
        <ele>844</ele>
        <time>2022-09-06T21:50:12Z</time>
      </trkpt>
      <trkpt lat="44.57501" lon="5.55509">
        <ele>841</ele>
        <time>2022-09-06T21:50:17Z</time>
      </trkpt>
      <trkpt lat="44.57505" lon="5.55523">
        <ele>840</ele>
        <time>2022-09-06T21:50:19Z</time>
      </trkpt>
      <trkpt lat="44.57518" lon="5.55541">
        <ele>842</ele>
        <time>2022-09-06T21:50:22Z</time>
      </trkpt>
      <trkpt lat="44.57521" lon="5.55581">
        <ele>839</ele>
        <time>2022-09-06T21:50:27Z</time>
      </trkpt>
      <trkpt lat="44.57534" lon="5.55612">
        <ele>837</ele>
        <time>2022-09-06T21:50:31Z</time>
      </trkpt>
      <trkpt lat="44.57547" lon="5.55628">
        <ele>837</ele>
        <time>2022-09-06T21:50:35Z</time>
      </trkpt>
      <trkpt lat="44.57575" lon="5.55646">
        <ele>838</ele>
        <time>2022-09-06T21:50:40Z</time>
      </trkpt>
      <trkpt lat="44.57606" lon="5.55658">
        <ele>839</ele>
        <time>2022-09-06T21:50:46Z</time>
      </trkpt>
      <trkpt lat="44.5761" lon="5.55662">
        <ele>839</ele>
        <time>2022-09-06T21:50:47Z</time>
      </trkpt>
      <trkpt lat="44.57613" lon="5.55674">
        <ele>837</ele>
        <time>2022-09-06T21:50:48Z</time>
      </trkpt>
      <trkpt lat="44.5761" lon="5.55705">
        <ele>832</ele>
        <time>2022-09-06T21:50:52Z</time>
      </trkpt>
      <trkpt lat="44.57612" lon="5.55726">
        <ele>829</ele>
        <time>2022-09-06T21:50:55Z</time>
      </trkpt>
      <trkpt lat="44.57609" lon="5.55736">
        <ele>827</ele>
        <time>2022-09-06T21:50:56Z</time>
      </trkpt>
      <trkpt lat="44.57603" lon="5.55738">
        <ele>827</ele>
        <time>2022-09-06T21:50:57Z</time>
      </trkpt>
      <trkpt lat="44.57597" lon="5.55733">
        <ele>827</ele>
        <time>2022-09-06T21:50:59Z</time>
      </trkpt>
      <trkpt lat="44.57589" lon="5.55695">
        <ele>832</ele>
        <time>2022-09-06T21:51:04Z</time>
      </trkpt>
      <trkpt lat="44.57583" lon="5.55685">
        <ele>833</ele>
        <time>2022-09-06T21:51:05Z</time>
      </trkpt>
      <trkpt lat="44.57556" lon="5.55679">
        <ele>831</ele>
        <time>2022-09-06T21:51:10Z</time>
      </trkpt>
      <trkpt lat="44.57502" lon="5.55662">
        <ele>826</ele>
        <time>2022-09-06T21:51:20Z</time>
      </trkpt>
      <trkpt lat="44.57459" lon="5.55635">
        <ele>813</ele>
        <time>2022-09-06T21:51:28Z</time>
      </trkpt>
      <trkpt lat="44.57445" lon="5.55623">
        <ele>809</ele>
        <time>2022-09-06T21:51:31Z</time>
      </trkpt>
      <trkpt lat="44.57436" lon="5.55608">
        <ele>807</ele>
        <time>2022-09-06T21:51:34Z</time>
      </trkpt>
      <trkpt lat="44.57436" lon="5.55585">
        <ele>809</ele>
        <time>2022-09-06T21:51:37Z</time>
      </trkpt>
      <trkpt lat="44.57441" lon="5.55576">
        <ele>811</ele>
        <time>2022-09-06T21:51:38Z</time>
      </trkpt>
      <trkpt lat="44.57454" lon="5.55569">
        <ele>817</ele>
        <time>2022-09-06T21:51:41Z</time>
      </trkpt>
      <trkpt lat="44.5746" lon="5.55554">
        <ele>820</ele>
        <time>2022-09-06T21:51:43Z</time>
      </trkpt>
      <trkpt lat="44.57443" lon="5.5551">
        <ele>814</ele>
        <time>2022-09-06T21:51:49Z</time>
      </trkpt>
      <trkpt lat="44.57436" lon="5.55476">
        <ele>814</ele>
        <time>2022-09-06T21:51:54Z</time>
      </trkpt>
      <trkpt lat="44.57415" lon="5.55425">
        <ele>810</ele>
        <time>2022-09-06T21:52:01Z</time>
      </trkpt>
      <trkpt lat="44.57409" lon="5.55375">
        <ele>813</ele>
        <time>2022-09-06T21:52:07Z</time>
      </trkpt>
      <trkpt lat="44.57394" lon="5.55322">
        <ele>812</ele>
        <time>2022-09-06T21:52:15Z</time>
      </trkpt>
      <trkpt lat="44.57396" lon="5.55289">
        <ele>814</ele>
        <time>2022-09-06T21:52:19Z</time>
      </trkpt>
      <trkpt lat="44.57393" lon="5.55271">
        <ele>814</ele>
        <time>2022-09-06T21:52:21Z</time>
      </trkpt>
      <trkpt lat="44.5739" lon="5.55264">
        <ele>814</ele>
        <time>2022-09-06T21:52:22Z</time>
      </trkpt>
      <trkpt lat="44.57377" lon="5.55249">
        <ele>811</ele>
        <time>2022-09-06T21:52:25Z</time>
      </trkpt>
      <trkpt lat="44.57371" lon="5.55225">
        <ele>811</ele>
        <time>2022-09-06T21:52:28Z</time>
      </trkpt>
      <trkpt lat="44.57367" lon="5.55218">
        <ele>811</ele>
        <time>2022-09-06T21:52:30Z</time>
      </trkpt>
      <trkpt lat="44.57364" lon="5.55215">
        <ele>810</ele>
        <time>2022-09-06T21:52:30Z</time>
      </trkpt>
      <trkpt lat="44.57358" lon="5.55217">
        <ele>809</ele>
        <time>2022-09-06T21:52:31Z</time>
      </trkpt>
      <trkpt lat="44.57359" lon="5.55294">
        <ele>802</ele>
        <time>2022-09-06T21:52:41Z</time>
      </trkpt>
      <trkpt lat="44.57365" lon="5.55332">
        <ele>801</ele>
        <time>2022-09-06T21:52:46Z</time>
      </trkpt>
      <trkpt lat="44.57376" lon="5.55358">
        <ele>802</ele>
        <time>2022-09-06T21:52:50Z</time>
      </trkpt>
      <trkpt lat="44.5738" lon="5.55381">
        <ele>802</ele>
        <time>2022-09-06T21:52:53Z</time>
      </trkpt>
      <trkpt lat="44.5738" lon="5.55474">
        <ele>792</ele>
        <time>2022-09-06T21:53:05Z</time>
      </trkpt>
      <trkpt lat="44.57384" lon="5.55515">
        <ele>790</ele>
        <time>2022-09-06T21:53:10Z</time>
      </trkpt>
      <trkpt lat="44.57381" lon="5.5552">
        <ele>789</ele>
        <time>2022-09-06T21:53:11Z</time>
      </trkpt>
      <trkpt lat="44.57375" lon="5.55519">
        <ele>787</ele>
        <time>2022-09-06T21:53:12Z</time>
      </trkpt>
      <trkpt lat="44.57363" lon="5.55437">
        <ele>790</ele>
        <time>2022-09-06T21:53:22Z</time>
      </trkpt>
      <trkpt lat="44.5736" lon="5.5543">
        <ele>789</ele>
        <time>2022-09-06T21:53:23Z</time>
      </trkpt>
      <trkpt lat="44.57356" lon="5.55427">
        <ele>788</ele>
        <time>2022-09-06T21:53:24Z</time>
      </trkpt>
      <trkpt lat="44.57353" lon="5.55428">
        <ele>787</ele>
        <time>2022-09-06T21:53:25Z</time>
      </trkpt>
      <trkpt lat="44.5735" lon="5.55437">
        <ele>785</ele>
        <time>2022-09-06T21:53:26Z</time>
      </trkpt>
      <trkpt lat="44.57353" lon="5.55469">
        <ele>783</ele>
        <time>2022-09-06T21:53:30Z</time>
      </trkpt>
      <trkpt lat="44.5735" lon="5.5555">
        <ele>777</ele>
        <time>2022-09-06T21:53:40Z</time>
      </trkpt>
      <trkpt lat="44.57352" lon="5.5567">
        <ele>771</ele>
        <time>2022-09-06T21:53:56Z</time>
      </trkpt>
      <trkpt lat="44.57339" lon="5.55743">
        <ele>761</ele>
        <time>2022-09-06T21:54:05Z</time>
      </trkpt>
      <trkpt lat="44.57322" lon="5.55816">
        <ele>755</ele>
        <time>2022-09-06T21:54:15Z</time>
      </trkpt>
      <trkpt lat="44.5731" lon="5.55857">
        <ele>752</ele>
        <time>2022-09-06T21:54:21Z</time>
      </trkpt>
      <trkpt lat="44.57276" lon="5.55834">
        <ele>750</ele>
        <time>2022-09-06T21:54:27Z</time>
      </trkpt>
      <trkpt lat="44.57268" lon="5.55831">
        <ele>750</ele>
        <time>2022-09-06T21:54:29Z</time>
      </trkpt>
      <trkpt lat="44.57257" lon="5.55829">
        <ele>749</ele>
        <time>2022-09-06T21:54:31Z</time>
      </trkpt>
      <trkpt lat="44.57227" lon="5.55831">
        <ele>747</ele>
        <time>2022-09-06T21:54:36Z</time>
      </trkpt>
      <trkpt lat="44.57213" lon="5.55828">
        <ele>746</ele>
        <time>2022-09-06T21:54:39Z</time>
      </trkpt>
      <trkpt lat="44.57105" lon="5.55772">
        <ele>744</ele>
        <time>2022-09-06T21:54:59Z</time>
      </trkpt>
      <trkpt lat="44.57093" lon="5.55769">
        <ele>743</ele>
        <time>2022-09-06T21:55:01Z</time>
      </trkpt>
      <trkpt lat="44.57057" lon="5.55768">
        <ele>741</ele>
        <time>2022-09-06T21:55:08Z</time>
      </trkpt>
      <trkpt lat="44.57032" lon="5.55763">
        <ele>741</ele>
        <time>2022-09-06T21:55:12Z</time>
      </trkpt>
      <trkpt lat="44.5703" lon="5.55745">
        <ele>741</ele>
        <time>2022-09-06T21:55:14Z</time>
      </trkpt>
      <trkpt lat="44.57021" lon="5.55716">
        <ele>742</ele>
        <time>2022-09-06T21:55:18Z</time>
      </trkpt>
      <trkpt lat="44.57014" lon="5.55701">
        <ele>742</ele>
        <time>2022-09-06T21:55:21Z</time>
      </trkpt>
      <trkpt lat="44.56989" lon="5.55663">
        <ele>740</ele>
        <time>2022-09-06T21:55:27Z</time>
      </trkpt>
      <trkpt lat="44.56965" lon="5.55606">
        <ele>740</ele>
        <time>2022-09-06T21:55:36Z</time>
      </trkpt>
      <trkpt lat="44.56684" lon="5.54752">
        <ele>727</ele>
        <time>2022-09-06T21:57:35Z</time>
      </trkpt>
      <trkpt lat="44.56674" lon="5.54733">
        <ele>727</ele>
        <time>2022-09-06T21:57:38Z</time>
      </trkpt>
      <trkpt lat="44.56652" lon="5.54702">
        <ele>727</ele>
        <time>2022-09-06T21:57:43Z</time>
      </trkpt>
      <trkpt lat="44.56349" lon="5.54296">
        <ele>719</ele>
        <time>2022-09-06T21:58:58Z</time>
      </trkpt>
      <trkpt lat="44.56334" lon="5.5428">
        <ele>722</ele>
        <time>2022-09-06T21:59:01Z</time>
      </trkpt>
      <trkpt lat="44.56311" lon="5.54267">
        <ele>722</ele>
        <time>2022-09-06T21:59:06Z</time>
      </trkpt>
      <trkpt lat="44.56261" lon="5.54252">
        <ele>719</ele>
        <time>2022-09-06T21:59:15Z</time>
      </trkpt>
      <trkpt lat="44.56239" lon="5.54248">
        <ele>717</ele>
        <time>2022-09-06T21:59:19Z</time>
      </trkpt>
      <trkpt lat="44.5618" lon="5.5425">
        <ele>710</ele>
        <time>2022-09-06T21:59:29Z</time>
      </trkpt>
      <trkpt lat="44.56155" lon="5.54248">
        <ele>709</ele>
        <time>2022-09-06T21:59:34Z</time>
      </trkpt>
      <trkpt lat="44.5593" lon="5.54111">
        <ele>706</ele>
        <time>2022-09-06T22:00:17Z</time>
      </trkpt>
      <trkpt lat="44.55918" lon="5.54105">
        <ele>706</ele>
        <time>2022-09-06T22:00:20Z</time>
      </trkpt>
      <trkpt lat="44.55901" lon="5.54102">
        <ele>706</ele>
        <time>2022-09-06T22:00:23Z</time>
      </trkpt>
      <trkpt lat="44.55871" lon="5.54105">
        <ele>706</ele>
        <time>2022-09-06T22:00:28Z</time>
      </trkpt>
      <trkpt lat="44.55854" lon="5.54113">
        <ele>705</ele>
        <time>2022-09-06T22:00:31Z</time>
      </trkpt>
      <trkpt lat="44.5572" lon="5.54198">
        <ele>704</ele>
        <time>2022-09-06T22:00:57Z</time>
      </trkpt>
      <trkpt lat="44.55701" lon="5.54205">
        <ele>704</ele>
        <time>2022-09-06T22:01:01Z</time>
      </trkpt>
      <trkpt lat="44.55684" lon="5.54206">
        <ele>705</ele>
        <time>2022-09-06T22:01:04Z</time>
      </trkpt>
      <trkpt lat="44.55666" lon="5.542">
        <ele>706</ele>
        <time>2022-09-06T22:01:07Z</time>
      </trkpt>
      <trkpt lat="44.55645" lon="5.54186">
        <ele>705</ele>
        <time>2022-09-06T22:01:11Z</time>
      </trkpt>
      <trkpt lat="44.55342" lon="5.53918">
        <ele>699</ele>
        <time>2022-09-06T22:02:15Z</time>
      </trkpt>
      <trkpt lat="44.55283" lon="5.53882">
        <ele>703</ele>
        <time>2022-09-06T22:02:27Z</time>
      </trkpt>
      <trkpt lat="44.5498" lon="5.53736">
        <ele>689</ele>
        <time>2022-09-06T22:03:24Z</time>
      </trkpt>
      <trkpt lat="44.54964" lon="5.53716">
        <ele>688</ele>
        <time>2022-09-06T22:03:27Z</time>
      </trkpt>
      <trkpt lat="44.54959" lon="5.53703">
        <ele>688</ele>
        <time>2022-09-06T22:03:29Z</time>
      </trkpt>
      <trkpt lat="44.54953" lon="5.53678">
        <ele>688</ele>
        <time>2022-09-06T22:03:33Z</time>
      </trkpt>
      <trkpt lat="44.54953" lon="5.53664">
        <ele>688</ele>
        <time>2022-09-06T22:03:34Z</time>
      </trkpt>
      <trkpt lat="44.54935" lon="5.53662">
        <ele>685</ele>
        <time>2022-09-06T22:03:38Z</time>
      </trkpt>
      <trkpt lat="44.54927" lon="5.5368">
        <ele>684</ele>
        <time>2022-09-06T22:03:40Z</time>
      </trkpt>
      <trkpt lat="44.54921" lon="5.53722">
        <ele>683</ele>
        <time>2022-09-06T22:03:46Z</time>
      </trkpt>
      <trkpt lat="44.54885" lon="5.53863">
        <ele>695</ele>
        <time>2022-09-06T22:04:05Z</time>
      </trkpt>
      <trkpt lat="44.54869" lon="5.53913">
        <ele>700</ele>
        <time>2022-09-06T22:04:12Z</time>
      </trkpt>
      <trkpt lat="44.54853" lon="5.53945">
        <ele>702</ele>
        <time>2022-09-06T22:04:17Z</time>
      </trkpt>
      <trkpt lat="44.54784" lon="5.54064">
        <ele>707</ele>
        <time>2022-09-06T22:04:36Z</time>
      </trkpt>
      <trkpt lat="44.54702" lon="5.5419">
        <ele>706</ele>
        <time>2022-09-06T22:04:58Z</time>
      </trkpt>
      <trkpt lat="44.54679" lon="5.5423">
        <ele>709</ele>
        <time>2022-09-06T22:05:04Z</time>
      </trkpt>
      <trkpt lat="44.54656" lon="5.5426">
        <ele>711</ele>
        <time>2022-09-06T22:05:10Z</time>
      </trkpt>
      <trkpt lat="44.54635" lon="5.54277">
        <ele>714</ele>
        <time>2022-09-06T22:05:14Z</time>
      </trkpt>
      <trkpt lat="44.5461" lon="5.54286">
        <ele>712</ele>
        <time>2022-09-06T22:05:19Z</time>
      </trkpt>
      <trkpt lat="44.54547" lon="5.54304">
        <ele>713</ele>
        <time>2022-09-06T22:05:30Z</time>
      </trkpt>
      <trkpt lat="44.54488" lon="5.54313">
        <ele>716</ele>
        <time>2022-09-06T22:05:41Z</time>
      </trkpt>
      <trkpt lat="44.54422" lon="5.54336">
        <ele>708</ele>
        <time>2022-09-06T22:05:53Z</time>
      </trkpt>
      <trkpt lat="44.54366" lon="5.54377">
        <ele>721</ele>
        <time>2022-09-06T22:06:04Z</time>
      </trkpt>
      <trkpt lat="44.54337" lon="5.5439">
        <ele>718</ele>
        <time>2022-09-06T22:06:09Z</time>
      </trkpt>
      <trkpt lat="44.54282" lon="5.54424">
        <ele>715</ele>
        <time>2022-09-06T22:06:20Z</time>
      </trkpt>
      <trkpt lat="44.54229" lon="5.54462">
        <ele>721</ele>
        <time>2022-09-06T22:06:31Z</time>
      </trkpt>
      <trkpt lat="44.541" lon="5.54536">
        <ele>716</ele>
        <time>2022-09-06T22:06:56Z</time>
      </trkpt>
      <trkpt lat="44.5407" lon="5.54557">
        <ele>715</ele>
        <time>2022-09-06T22:07:02Z</time>
      </trkpt>
      <trkpt lat="44.54048" lon="5.54581">
        <ele>714</ele>
        <time>2022-09-06T22:07:06Z</time>
      </trkpt>
      <trkpt lat="44.54029" lon="5.54618">
        <ele>717</ele>
        <time>2022-09-06T22:07:12Z</time>
      </trkpt>
      <trkpt lat="44.53958" lon="5.54793">
        <ele>727</ele>
        <time>2022-09-06T22:07:38Z</time>
      </trkpt>
      <trkpt lat="44.53908" lon="5.54898">
        <ele>725</ele>
        <time>2022-09-06T22:07:54Z</time>
      </trkpt>
      <trkpt lat="44.53869" lon="5.54971">
        <ele>726</ele>
        <time>2022-09-06T22:08:05Z</time>
      </trkpt>
      <trkpt lat="44.53857" lon="5.55006">
        <ele>723</ele>
        <time>2022-09-06T22:08:10Z</time>
      </trkpt>
      <trkpt lat="44.53849" lon="5.55061">
        <ele>722</ele>
        <time>2022-09-06T22:08:17Z</time>
      </trkpt>
      <trkpt lat="44.53844" lon="5.55158">
        <ele>725</ele>
        <time>2022-09-06T22:08:30Z</time>
      </trkpt>
      <trkpt lat="44.53837" lon="5.55225">
        <ele>728</ele>
        <time>2022-09-06T22:08:38Z</time>
      </trkpt>
      <trkpt lat="44.5383" lon="5.55255">
        <ele>729</ele>
        <time>2022-09-06T22:08:42Z</time>
      </trkpt>
      <trkpt lat="44.5379" lon="5.55343">
        <ele>736</ele>
        <time>2022-09-06T22:08:56Z</time>
      </trkpt>
      <trkpt lat="44.53772" lon="5.55404">
        <ele>734</ele>
        <time>2022-09-06T22:09:04Z</time>
      </trkpt>
      <trkpt lat="44.53759" lon="5.55467">
        <ele>731</ele>
        <time>2022-09-06T22:09:12Z</time>
      </trkpt>
      <trkpt lat="44.53754" lon="5.55519">
        <ele>730</ele>
        <time>2022-09-06T22:09:19Z</time>
      </trkpt>
      <trkpt lat="44.53759" lon="5.55622">
        <ele>736</ele>
        <time>2022-09-06T22:09:32Z</time>
      </trkpt>
      <trkpt lat="44.53749" lon="5.55657">
        <ele>733</ele>
        <time>2022-09-06T22:09:37Z</time>
      </trkpt>
      <trkpt lat="44.53693" lon="5.55743">
        <ele>734</ele>
        <time>2022-09-06T22:09:52Z</time>
      </trkpt>
      <trkpt lat="44.53682" lon="5.55773">
        <ele>737</ele>
        <time>2022-09-06T22:09:56Z</time>
      </trkpt>
      <trkpt lat="44.53667" lon="5.558">
        <ele>736</ele>
        <time>2022-09-06T22:10:00Z</time>
      </trkpt>
      <trkpt lat="44.53575" lon="5.55906">
        <ele>738</ele>
        <time>2022-09-06T22:10:21Z</time>
      </trkpt>
      <trkpt lat="44.53524" lon="5.55952">
        <ele>740</ele>
        <time>2022-09-06T22:10:32Z</time>
      </trkpt>
      <trkpt lat="44.53459" lon="5.5603">
        <ele>744</ele>
        <time>2022-09-06T22:10:47Z</time>
      </trkpt>
      <trkpt lat="44.53441" lon="5.5606">
        <ele>744</ele>
        <time>2022-09-06T22:10:52Z</time>
      </trkpt>
      <trkpt lat="44.53411" lon="5.56085">
        <ele>740</ele>
        <time>2022-09-06T22:10:59Z</time>
      </trkpt>
      <trkpt lat="44.53155" lon="5.56208">
        <ele>753</ele>
        <time>2022-09-06T22:11:47Z</time>
      </trkpt>
      <trkpt lat="44.53126" lon="5.56239">
        <ele>754</ele>
        <time>2022-09-06T22:11:53Z</time>
      </trkpt>
      <trkpt lat="44.53097" lon="5.563">
        <ele>753</ele>
        <time>2022-09-06T22:12:03Z</time>
      </trkpt>
      <trkpt lat="44.53071" lon="5.56333">
        <ele>748</ele>
        <time>2022-09-06T22:12:09Z</time>
      </trkpt>
      <trkpt lat="44.52987" lon="5.56393">
        <ele>760</ele>
        <time>2022-09-06T22:12:26Z</time>
      </trkpt>
      <trkpt lat="44.52956" lon="5.5642">
        <ele>758</ele>
        <time>2022-09-06T22:12:32Z</time>
      </trkpt>
      <trkpt lat="44.52938" lon="5.56454">
        <ele>756</ele>
        <time>2022-09-06T22:12:37Z</time>
      </trkpt>
      <trkpt lat="44.52894" lon="5.56595">
        <ele>755</ele>
        <time>2022-09-06T22:12:57Z</time>
      </trkpt>
      <trkpt lat="44.52876" lon="5.56634">
        <ele>758</ele>
        <time>2022-09-06T22:13:03Z</time>
      </trkpt>
      <trkpt lat="44.52839" lon="5.56672">
        <ele>752</ele>
        <time>2022-09-06T22:13:11Z</time>
      </trkpt>
      <trkpt lat="44.52797" lon="5.56705">
        <ele>753</ele>
        <time>2022-09-06T22:13:20Z</time>
      </trkpt>
      <trkpt lat="44.52739" lon="5.56743">
        <ele>749</ele>
        <time>2022-09-06T22:13:31Z</time>
      </trkpt>
      <trkpt lat="44.52716" lon="5.56765">
        <ele>750</ele>
        <time>2022-09-06T22:13:36Z</time>
      </trkpt>
      <trkpt lat="44.52694" lon="5.56798">
        <ele>752</ele>
        <time>2022-09-06T22:13:42Z</time>
      </trkpt>
      <trkpt lat="44.52671" lon="5.56845">
        <ele>752</ele>
        <time>2022-09-06T22:13:49Z</time>
      </trkpt>
      <trkpt lat="44.52628" lon="5.56972">
        <ele>760</ele>
        <time>2022-09-06T22:14:07Z</time>
      </trkpt>
      <trkpt lat="44.52612" lon="5.57005">
        <ele>761</ele>
        <time>2022-09-06T22:14:12Z</time>
      </trkpt>
      <trkpt lat="44.52585" lon="5.57032">
        <ele>759</ele>
        <time>2022-09-06T22:14:18Z</time>
      </trkpt>
      <trkpt lat="44.52545" lon="5.57057">
        <ele>759</ele>
        <time>2022-09-06T22:14:25Z</time>
      </trkpt>
      <trkpt lat="44.52525" lon="5.57076">
        <ele>758</ele>
        <time>2022-09-06T22:14:30Z</time>
      </trkpt>
      <trkpt lat="44.52513" lon="5.57101">
        <ele>758</ele>
        <time>2022-09-06T22:14:34Z</time>
      </trkpt>
      <trkpt lat="44.52493" lon="5.57197">
        <ele>760</ele>
        <time>2022-09-06T22:14:46Z</time>
      </trkpt>
      <trkpt lat="44.52486" lon="5.57221">
        <ele>760</ele>
        <time>2022-09-06T22:14:50Z</time>
      </trkpt>
      <trkpt lat="44.52477" lon="5.57236">
        <ele>760</ele>
        <time>2022-09-06T22:14:52Z</time>
      </trkpt>
      <trkpt lat="44.52389" lon="5.57291">
        <ele>760</ele>
        <time>2022-09-06T22:15:09Z</time>
      </trkpt>
      <trkpt lat="44.52363" lon="5.57312">
        <ele>760</ele>
        <time>2022-09-06T22:15:14Z</time>
      </trkpt>
      <trkpt lat="44.52305" lon="5.57385">
        <ele>768</ele>
        <time>2022-09-06T22:15:28Z</time>
      </trkpt>
      <trkpt lat="44.52291" lon="5.57392">
        <ele>769</ele>
        <time>2022-09-06T22:15:31Z</time>
      </trkpt>
      <trkpt lat="44.52267" lon="5.57399">
        <ele>769</ele>
        <time>2022-09-06T22:15:35Z</time>
      </trkpt>
      <trkpt lat="44.52206" lon="5.57408">
        <ele>770</ele>
        <time>2022-09-06T22:15:46Z</time>
      </trkpt>
      <trkpt lat="44.52164" lon="5.57409">
        <ele>771</ele>
        <time>2022-09-06T22:15:54Z</time>
      </trkpt>
      <trkpt lat="44.52126" lon="5.57405">
        <ele>769</ele>
        <time>2022-09-06T22:16:01Z</time>
      </trkpt>
      <trkpt lat="44.52099" lon="5.57407">
        <ele>768</ele>
        <time>2022-09-06T22:16:05Z</time>
      </trkpt>
      <trkpt lat="44.52053" lon="5.5742">
        <ele>769</ele>
        <time>2022-09-06T22:16:14Z</time>
      </trkpt>
      <trkpt lat="44.52023" lon="5.57424">
        <ele>769</ele>
        <time>2022-09-06T22:16:19Z</time>
      </trkpt>
      <trkpt lat="44.51993" lon="5.57424">
        <ele>769</ele>
        <time>2022-09-06T22:16:24Z</time>
      </trkpt>
      <trkpt lat="44.51957" lon="5.57418">
        <ele>770</ele>
        <time>2022-09-06T22:16:31Z</time>
      </trkpt>
      <trkpt lat="44.51877" lon="5.57392">
        <ele>769</ele>
        <time>2022-09-06T22:16:45Z</time>
      </trkpt>
      <trkpt lat="44.51845" lon="5.57389">
        <ele>770</ele>
        <time>2022-09-06T22:16:51Z</time>
      </trkpt>
      <trkpt lat="44.51823" lon="5.57393">
        <ele>771</ele>
        <time>2022-09-06T22:16:55Z</time>
      </trkpt>
      <trkpt lat="44.51753" lon="5.57417">
        <ele>772</ele>
        <time>2022-09-06T22:17:08Z</time>
      </trkpt>
      <trkpt lat="44.51661" lon="5.57439">
        <ele>782</ele>
        <time>2022-09-06T22:17:25Z</time>
      </trkpt>
      <trkpt lat="44.51628" lon="5.57445">
        <ele>783</ele>
        <time>2022-09-06T22:17:30Z</time>
      </trkpt>
      <trkpt lat="44.51541" lon="5.57453">
        <ele>788</ele>
        <time>2022-09-06T22:17:46Z</time>
      </trkpt>
      <trkpt lat="44.5146" lon="5.57437">
        <ele>783</ele>
        <time>2022-09-06T22:18:01Z</time>
      </trkpt>
      <trkpt lat="44.51347" lon="5.57425">
        <ele>780</ele>
        <time>2022-09-06T22:18:21Z</time>
      </trkpt>
      <trkpt lat="44.51281" lon="5.57423">
        <ele>778</ele>
        <time>2022-09-06T22:18:32Z</time>
      </trkpt>
      <trkpt lat="44.51256" lon="5.57428">
        <ele>778</ele>
        <time>2022-09-06T22:18:37Z</time>
      </trkpt>
      <trkpt lat="44.51239" lon="5.57436">
        <ele>779</ele>
        <time>2022-09-06T22:18:40Z</time>
      </trkpt>
      <trkpt lat="44.51174" lon="5.57494">
        <ele>784</ele>
        <time>2022-09-06T22:18:54Z</time>
      </trkpt>
      <trkpt lat="44.51141" lon="5.5751">
        <ele>787</ele>
        <time>2022-09-06T22:19:00Z</time>
      </trkpt>
      <trkpt lat="44.51109" lon="5.5752">
        <ele>791</ele>
        <time>2022-09-06T22:19:06Z</time>
      </trkpt>
      <trkpt lat="44.51055" lon="5.57529">
        <ele>796</ele>
        <time>2022-09-06T22:19:16Z</time>
      </trkpt>
      <trkpt lat="44.51016" lon="5.57533">
        <ele>797</ele>
        <time>2022-09-06T22:19:22Z</time>
      </trkpt>
      <trkpt lat="44.50969" lon="5.57527">
        <ele>797</ele>
        <time>2022-09-06T22:19:31Z</time>
      </trkpt>
      <trkpt lat="44.50882" lon="5.5749">
        <ele>789</ele>
        <time>2022-09-06T22:19:47Z</time>
      </trkpt>
      <trkpt lat="44.50803" lon="5.57487">
        <ele>788</ele>
        <time>2022-09-06T22:20:01Z</time>
      </trkpt>
      <trkpt lat="44.50774" lon="5.57489">
        <ele>786</ele>
        <time>2022-09-06T22:20:06Z</time>
      </trkpt>
      <trkpt lat="44.50749" lon="5.57501">
        <ele>786</ele>
        <time>2022-09-06T22:20:11Z</time>
      </trkpt>
      <trkpt lat="44.50702" lon="5.57543">
        <ele>792</ele>
        <time>2022-09-06T22:20:21Z</time>
      </trkpt>
      <trkpt lat="44.5067" lon="5.57564">
        <ele>792</ele>
        <time>2022-09-06T22:20:27Z</time>
      </trkpt>
      <trkpt lat="44.50626" lon="5.57581">
        <ele>790</ele>
        <time>2022-09-06T22:20:35Z</time>
      </trkpt>
      <trkpt lat="44.50568" lon="5.57487">
        <ele>786</ele>
        <time>2022-09-06T22:20:51Z</time>
      </trkpt>
      <trkpt lat="44.50565" lon="5.57476">
        <ele>787</ele>
        <time>2022-09-06T22:20:53Z</time>
      </trkpt>
      <trkpt lat="44.50567" lon="5.57457">
        <ele>788</ele>
        <time>2022-09-06T22:20:55Z</time>
      </trkpt>
      <trkpt lat="44.506" lon="5.57376">
        <ele>789</ele>
        <time>2022-09-06T22:21:07Z</time>
      </trkpt>
      <trkpt lat="44.50603" lon="5.57356">
        <ele>791</ele>
        <time>2022-09-06T22:21:09Z</time>
      </trkpt>
      <trkpt lat="44.50582" lon="5.57284">
        <ele>797</ele>
        <time>2022-09-06T22:21:19Z</time>
      </trkpt>
      <trkpt lat="44.50564" lon="5.57249">
        <ele>802</ele>
        <time>2022-09-06T22:21:25Z</time>
      </trkpt>
      <trkpt lat="44.50542" lon="5.57216">
        <ele>802</ele>
        <time>2022-09-06T22:21:31Z</time>
      </trkpt>
      <trkpt lat="44.50526" lon="5.57176">
        <ele>800</ele>
        <time>2022-09-06T22:21:36Z</time>
      </trkpt>
      <trkpt lat="44.50515" lon="5.57131">
        <ele>799</ele>
        <time>2022-09-06T22:21:42Z</time>
      </trkpt>
      <trkpt lat="44.50499" lon="5.5704">
        <ele>799</ele>
        <time>2022-09-06T22:21:54Z</time>
      </trkpt>
      <trkpt lat="44.50502" lon="5.56972">
        <ele>801</ele>
        <time>2022-09-06T22:22:03Z</time>
      </trkpt>
      <trkpt lat="44.50522" lon="5.56794">
        <ele>810</ele>
        <time>2022-09-06T22:22:26Z</time>
      </trkpt>
      <trkpt lat="44.50531" lon="5.56647">
        <ele>813</ele>
        <time>2022-09-06T22:22:45Z</time>
      </trkpt>
      <trkpt lat="44.50526" lon="5.5648">
        <ele>812</ele>
        <time>2022-09-06T22:23:06Z</time>
      </trkpt>
      <trkpt lat="44.50546" lon="5.56437">
        <ele>813</ele>
        <time>2022-09-06T22:23:12Z</time>
      </trkpt>
      <trkpt lat="44.50592" lon="5.56376">
        <ele>819</ele>
        <time>2022-09-06T22:23:24Z</time>
      </trkpt>
      <trkpt lat="44.506" lon="5.56358">
        <ele>820</ele>
        <time>2022-09-06T22:23:26Z</time>
      </trkpt>
      <trkpt lat="44.50602" lon="5.56341">
        <ele>821</ele>
        <time>2022-09-06T22:23:28Z</time>
      </trkpt>
      <trkpt lat="44.50599" lon="5.56332">
        <ele>821</ele>
        <time>2022-09-06T22:23:30Z</time>
      </trkpt>
      <trkpt lat="44.50594" lon="5.56326">
        <ele>822</ele>
        <time>2022-09-06T22:23:31Z</time>
      </trkpt>
      <trkpt lat="44.50587" lon="5.56318">
        <ele>824</ele>
        <time>2022-09-06T22:23:32Z</time>
      </trkpt>
      <trkpt lat="44.50581" lon="5.56316">
        <ele>824</ele>
        <time>2022-09-06T22:23:34Z</time>
      </trkpt>
      <trkpt lat="44.50574" lon="5.56317">
        <ele>823</ele>
        <time>2022-09-06T22:23:35Z</time>
      </trkpt>
      <trkpt lat="44.50548" lon="5.56346">
        <ele>817</ele>
        <time>2022-09-06T22:23:41Z</time>
      </trkpt>
      <trkpt lat="44.50541" lon="5.5635">
        <ele>817</ele>
        <time>2022-09-06T22:23:42Z</time>
      </trkpt>
      <trkpt lat="44.5053" lon="5.56351">
        <ele>816</ele>
        <time>2022-09-06T22:23:44Z</time>
      </trkpt>
      <trkpt lat="44.5052" lon="5.56339">
        <ele>816</ele>
        <time>2022-09-06T22:23:46Z</time>
      </trkpt>
      <trkpt lat="44.50459" lon="5.56118">
        <ele>838</ele>
        <time>2022-09-06T22:24:16Z</time>
      </trkpt>
      <trkpt lat="44.50446" lon="5.56011">
        <ele>844</ele>
        <time>2022-09-06T22:24:30Z</time>
      </trkpt>
      <trkpt lat="44.50449" lon="5.55949">
        <ele>848</ele>
        <time>2022-09-06T22:24:38Z</time>
      </trkpt>
      <trkpt lat="44.5049" lon="5.55685">
        <ele>863</ele>
        <time>2022-09-06T22:25:12Z</time>
      </trkpt>
      <trkpt lat="44.50497" lon="5.55621">
        <ele>866</ele>
        <time>2022-09-06T22:25:21Z</time>
      </trkpt>
      <trkpt lat="44.50497" lon="5.55578">
        <ele>867</ele>
        <time>2022-09-06T22:25:26Z</time>
      </trkpt>
      <trkpt lat="44.50483" lon="5.55449">
        <ele>876</ele>
        <time>2022-09-06T22:25:43Z</time>
      </trkpt>
      <trkpt lat="44.50473" lon="5.55411">
        <ele>878</ele>
        <time>2022-09-06T22:25:48Z</time>
      </trkpt>
      <trkpt lat="44.50452" lon="5.55362">
        <ele>879</ele>
        <time>2022-09-06T22:25:55Z</time>
      </trkpt>
      <trkpt lat="44.5044" lon="5.55327">
        <ele>880</ele>
        <time>2022-09-06T22:26:00Z</time>
      </trkpt>
      <trkpt lat="44.50432" lon="5.5529">
        <ele>884</ele>
        <time>2022-09-06T22:26:05Z</time>
      </trkpt>
      <trkpt lat="44.50428" lon="5.55258">
        <ele>888</ele>
        <time>2022-09-06T22:26:09Z</time>
      </trkpt>
      <trkpt lat="44.50421" lon="5.55235">
        <ele>889</ele>
        <time>2022-09-06T22:26:12Z</time>
      </trkpt>
      <trkpt lat="44.50392" lon="5.55202">
        <ele>888</ele>
        <time>2022-09-06T22:26:19Z</time>
      </trkpt>
      <trkpt lat="44.50364" lon="5.55149">
        <ele>893</ele>
        <time>2022-09-06T22:26:27Z</time>
      </trkpt>
      <trkpt lat="44.50327" lon="5.55096">
        <ele>895</ele>
        <time>2022-09-06T22:26:37Z</time>
      </trkpt>
      <trkpt lat="44.5031" lon="5.55065">
        <ele>896</ele>
        <time>2022-09-06T22:26:41Z</time>
      </trkpt>
      <trkpt lat="44.50297" lon="5.55031">
        <ele>897</ele>
        <time>2022-09-06T22:26:46Z</time>
      </trkpt>
      <trkpt lat="44.5029" lon="5.54993">
        <ele>900</ele>
        <time>2022-09-06T22:26:51Z</time>
      </trkpt>
      <trkpt lat="44.50287" lon="5.54934">
        <ele>904</ele>
        <time>2022-09-06T22:26:59Z</time>
      </trkpt>
      <trkpt lat="44.50284" lon="5.54915">
        <ele>905</ele>
        <time>2022-09-06T22:27:01Z</time>
      </trkpt>
      <trkpt lat="44.50264" lon="5.54839">
        <ele>908</ele>
        <time>2022-09-06T22:27:12Z</time>
      </trkpt>
      <trkpt lat="44.5025" lon="5.54732">
        <ele>916</ele>
        <time>2022-09-06T22:27:25Z</time>
      </trkpt>
      <trkpt lat="44.50248" lon="5.54657">
        <ele>921</ele>
        <time>2022-09-06T22:27:35Z</time>
      </trkpt>
      <trkpt lat="44.5025" lon="5.54623">
        <ele>924</ele>
        <time>2022-09-06T22:27:39Z</time>
      </trkpt>
      <trkpt lat="44.50253" lon="5.5461">
        <ele>925</ele>
        <time>2022-09-06T22:27:41Z</time>
      </trkpt>
      <trkpt lat="44.50258" lon="5.54601">
        <ele>927</ele>
        <time>2022-09-06T22:27:42Z</time>
      </trkpt>
      <trkpt lat="44.50263" lon="5.54597">
        <ele>928</ele>
        <time>2022-09-06T22:27:43Z</time>
      </trkpt>
      <trkpt lat="44.50269" lon="5.54597">
        <ele>929</ele>
        <time>2022-09-06T22:27:45Z</time>
      </trkpt>
      <trkpt lat="44.50276" lon="5.54611">
        <ele>929</ele>
        <time>2022-09-06T22:27:47Z</time>
      </trkpt>
      <trkpt lat="44.50277" lon="5.54652">
        <ele>927</ele>
        <time>2022-09-06T22:27:52Z</time>
      </trkpt>
      <trkpt lat="44.50273" lon="5.54708">
        <ele>923</ele>
        <time>2022-09-06T22:27:59Z</time>
      </trkpt>
      <trkpt lat="44.50277" lon="5.54726">
        <ele>923</ele>
        <time>2022-09-06T22:28:01Z</time>
      </trkpt>
      <trkpt lat="44.50283" lon="5.54732">
        <ele>924</ele>
        <time>2022-09-06T22:28:03Z</time>
      </trkpt>
      <trkpt lat="44.50307" lon="5.54738">
        <ele>929</ele>
        <time>2022-09-06T22:28:07Z</time>
      </trkpt>
      <trkpt lat="44.50316" lon="5.54743">
        <ele>931</ele>
        <time>2022-09-06T22:28:09Z</time>
      </trkpt>
      <trkpt lat="44.50341" lon="5.5477">
        <ele>935</ele>
        <time>2022-09-06T22:28:14Z</time>
      </trkpt>
      <trkpt lat="44.50362" lon="5.54808">
        <ele>939</ele>
        <time>2022-09-06T22:28:21Z</time>
      </trkpt>
      <trkpt lat="44.50376" lon="5.54848">
        <ele>940</ele>
        <time>2022-09-06T22:28:26Z</time>
      </trkpt>
      <trkpt lat="44.50383" lon="5.54859">
        <ele>941</ele>
        <time>2022-09-06T22:28:28Z</time>
      </trkpt>
      <trkpt lat="44.50409" lon="5.54887">
        <ele>946</ele>
        <time>2022-09-06T22:28:34Z</time>
      </trkpt>
      <trkpt lat="44.50422" lon="5.5491">
        <ele>946</ele>
        <time>2022-09-06T22:28:38Z</time>
      </trkpt>
      <trkpt lat="44.50442" lon="5.54972">
        <ele>944</ele>
        <time>2022-09-06T22:28:46Z</time>
      </trkpt>
      <trkpt lat="44.50446" lon="5.54974">
        <ele>946</ele>
        <time>2022-09-06T22:28:47Z</time>
      </trkpt>
      <trkpt lat="44.5045" lon="5.54971">
        <ele>948</ele>
        <time>2022-09-06T22:28:48Z</time>
      </trkpt>
      <trkpt lat="44.50452" lon="5.54965">
        <ele>949</ele>
        <time>2022-09-06T22:28:49Z</time>
      </trkpt>
      <trkpt lat="44.50451" lon="5.54957">
        <ele>950</ele>
        <time>2022-09-06T22:28:50Z</time>
      </trkpt>
      <trkpt lat="44.50434" lon="5.54893">
        <ele>954</ele>
        <time>2022-09-06T22:28:58Z</time>
      </trkpt>
      <trkpt lat="44.50424" lon="5.54838">
        <ele>960</ele>
        <time>2022-09-06T22:29:06Z</time>
      </trkpt>
      <trkpt lat="44.50422" lon="5.54772">
        <ele>963</ele>
        <time>2022-09-06T22:29:14Z</time>
      </trkpt>
      <trkpt lat="44.50428" lon="5.54692">
        <ele>968</ele>
        <time>2022-09-06T22:29:24Z</time>
      </trkpt>
      <trkpt lat="44.50424" lon="5.54648">
        <ele>968</ele>
        <time>2022-09-06T22:29:30Z</time>
      </trkpt>
      <trkpt lat="44.50426" lon="5.54618">
        <ele>969</ele>
        <time>2022-09-06T22:29:34Z</time>
      </trkpt>
      <trkpt lat="44.5044" lon="5.5457">
        <ele>974</ele>
        <time>2022-09-06T22:29:40Z</time>
      </trkpt>
      <trkpt lat="44.50448" lon="5.54483">
        <ele>975</ele>
        <time>2022-09-06T22:29:51Z</time>
      </trkpt>
      <trkpt lat="44.50459" lon="5.54433">
        <ele>976</ele>
        <time>2022-09-06T22:29:58Z</time>
      </trkpt>
      <trkpt lat="44.50475" lon="5.54381">
        <ele>979</ele>
        <time>2022-09-06T22:30:05Z</time>
      </trkpt>
      <trkpt lat="44.50507" lon="5.54318">
        <ele>988</ele>
        <time>2022-09-06T22:30:15Z</time>
      </trkpt>
      <trkpt lat="44.50521" lon="5.54284">
        <ele>993</ele>
        <time>2022-09-06T22:30:20Z</time>
      </trkpt>
      <trkpt lat="44.50552" lon="5.54173">
        <ele>1002</ele>
        <time>2022-09-06T22:30:35Z</time>
      </trkpt>
      <trkpt lat="44.5056" lon="5.54132">
        <ele>1004</ele>
        <time>2022-09-06T22:30:40Z</time>
      </trkpt>
      <trkpt lat="44.50565" lon="5.54067">
        <ele>1005</ele>
        <time>2022-09-06T22:30:49Z</time>
      </trkpt>
      <trkpt lat="44.50565" lon="5.54027">
        <ele>1006</ele>
        <time>2022-09-06T22:30:54Z</time>
      </trkpt>
      <trkpt lat="44.50557" lon="5.53953">
        <ele>1005</ele>
        <time>2022-09-06T22:31:03Z</time>
      </trkpt>
      <trkpt lat="44.50556" lon="5.53916">
        <ele>1005</ele>
        <time>2022-09-06T22:31:08Z</time>
      </trkpt>
      <trkpt lat="44.5056" lon="5.53879">
        <ele>1008</ele>
        <time>2022-09-06T22:31:13Z</time>
      </trkpt>
      <trkpt lat="44.50576" lon="5.5381">
        <ele>1014</ele>
        <time>2022-09-06T22:31:22Z</time>
      </trkpt>
      <trkpt lat="44.50577" lon="5.53792">
        <ele>1015</ele>
        <time>2022-09-06T22:31:24Z</time>
      </trkpt>
      <trkpt lat="44.50575" lon="5.53775">
        <ele>1015</ele>
        <time>2022-09-06T22:31:26Z</time>
      </trkpt>
      <trkpt lat="44.50555" lon="5.53695">
        <ele>1013</ele>
        <time>2022-09-06T22:31:37Z</time>
      </trkpt>
      <trkpt lat="44.50554" lon="5.53626">
        <ele>1015</ele>
        <time>2022-09-06T22:31:46Z</time>
      </trkpt>
      <trkpt lat="44.5056" lon="5.53595">
        <ele>1017</ele>
        <time>2022-09-06T22:31:50Z</time>
      </trkpt>
      <trkpt lat="44.5059" lon="5.53535">
        <ele>1026</ele>
        <time>2022-09-06T22:31:59Z</time>
      </trkpt>
      <trkpt lat="44.50597" lon="5.53509">
        <ele>1029</ele>
        <time>2022-09-06T22:32:03Z</time>
      </trkpt>
      <trkpt lat="44.50598" lon="5.53495">
        <ele>1030</ele>
        <time>2022-09-06T22:32:05Z</time>
      </trkpt>
      <trkpt lat="44.50592" lon="5.53453">
        <ele>1033</ele>
        <time>2022-09-06T22:32:10Z</time>
      </trkpt>
      <trkpt lat="44.50579" lon="5.53411">
        <ele>1035</ele>
        <time>2022-09-06T22:32:16Z</time>
      </trkpt>
      <trkpt lat="44.50565" lon="5.53387">
        <ele>1036</ele>
        <time>2022-09-06T22:32:20Z</time>
      </trkpt>
      <trkpt lat="44.50536" lon="5.53363">
        <ele>1034</ele>
        <time>2022-09-06T22:32:26Z</time>
      </trkpt>
      <trkpt lat="44.50528" lon="5.53353">
        <ele>1033</ele>
        <time>2022-09-06T22:32:28Z</time>
      </trkpt>
      <trkpt lat="44.50517" lon="5.5333">
        <ele>1034</ele>
        <time>2022-09-06T22:32:31Z</time>
      </trkpt>
      <trkpt lat="44.50507" lon="5.53292">
        <ele>1039</ele>
        <time>2022-09-06T22:32:36Z</time>
      </trkpt>
      <trkpt lat="44.50495" lon="5.53271">
        <ele>1040</ele>
        <time>2022-09-06T22:32:40Z</time>
      </trkpt>
      <trkpt lat="44.50492" lon="5.53259">
        <ele>1041</ele>
        <time>2022-09-06T22:32:41Z</time>
      </trkpt>
      <trkpt lat="44.50491" lon="5.53245">
        <ele>1043</ele>
        <time>2022-09-06T22:32:43Z</time>
      </trkpt>
      <trkpt lat="44.50505" lon="5.53188">
        <ele>1052</ele>
        <time>2022-09-06T22:32:51Z</time>
      </trkpt>
      <trkpt lat="44.50506" lon="5.53172">
        <ele>1054</ele>
        <time>2022-09-06T22:32:53Z</time>
      </trkpt>
      <trkpt lat="44.50502" lon="5.53141">
        <ele>1053</ele>
        <time>2022-09-06T22:32:57Z</time>
      </trkpt>
      <trkpt lat="44.50487" lon="5.53101">
        <ele>1050</ele>
        <time>2022-09-06T22:33:03Z</time>
      </trkpt>
      <trkpt lat="44.50484" lon="5.53073">
        <ele>1050</ele>
        <time>2022-09-06T22:33:06Z</time>
      </trkpt>
      <trkpt lat="44.50486" lon="5.53059">
        <ele>1051</ele>
        <time>2022-09-06T22:33:08Z</time>
      </trkpt>
      <trkpt lat="44.50507" lon="5.52983">
        <ele>1057</ele>
        <time>2022-09-06T22:33:18Z</time>
      </trkpt>
      <trkpt lat="44.5051" lon="5.52949">
        <ele>1059</ele>
        <time>2022-09-06T22:33:23Z</time>
      </trkpt>
      <trkpt lat="44.50505" lon="5.52916">
        <ele>1059</ele>
        <time>2022-09-06T22:33:27Z</time>
      </trkpt>
      <trkpt lat="44.50487" lon="5.52851">
        <ele>1058</ele>
        <time>2022-09-06T22:33:36Z</time>
      </trkpt>
      <trkpt lat="44.50483" lon="5.52819">
        <ele>1059</ele>
        <time>2022-09-06T22:33:40Z</time>
      </trkpt>
      <trkpt lat="44.50486" lon="5.52787">
        <ele>1059</ele>
        <time>2022-09-06T22:33:44Z</time>
      </trkpt>
      <trkpt lat="44.50499" lon="5.52729">
        <ele>1061</ele>
        <time>2022-09-06T22:33:52Z</time>
      </trkpt>
      <trkpt lat="44.50499" lon="5.52696">
        <ele>1064</ele>
        <time>2022-09-06T22:33:56Z</time>
      </trkpt>
      <trkpt lat="44.50485" lon="5.52605">
        <ele>1069</ele>
        <time>2022-09-06T22:34:08Z</time>
      </trkpt>
      <trkpt lat="44.50473" lon="5.52475">
        <ele>1072</ele>
        <time>2022-09-06T22:34:24Z</time>
      </trkpt>
      <trkpt lat="44.50453" lon="5.5238">
        <ele>1073</ele>
        <time>2022-09-06T22:34:37Z</time>
      </trkpt>
      <trkpt lat="44.50452" lon="5.52345">
        <ele>1074</ele>
        <time>2022-09-06T22:34:41Z</time>
      </trkpt>
      <trkpt lat="44.50467" lon="5.52257">
        <ele>1076</ele>
        <time>2022-09-06T22:34:53Z</time>
      </trkpt>
      <trkpt lat="44.50467" lon="5.52223">
        <ele>1078</ele>
        <time>2022-09-06T22:34:57Z</time>
      </trkpt>
      <trkpt lat="44.50464" lon="5.52207">
        <ele>1079</ele>
        <time>2022-09-06T22:34:59Z</time>
      </trkpt>
      <trkpt lat="44.50438" lon="5.52151">
        <ele>1080</ele>
        <time>2022-09-06T22:35:08Z</time>
      </trkpt>
      <trkpt lat="44.50432" lon="5.52118">
        <ele>1081</ele>
        <time>2022-09-06T22:35:12Z</time>
      </trkpt>
      <trkpt lat="44.50434" lon="5.52083">
        <ele>1083</ele>
        <time>2022-09-06T22:35:17Z</time>
      </trkpt>
      <trkpt lat="44.50444" lon="5.52033">
        <ele>1086</ele>
        <time>2022-09-06T22:35:23Z</time>
      </trkpt>
      <trkpt lat="44.50446" lon="5.51998">
        <ele>1087</ele>
        <time>2022-09-06T22:35:28Z</time>
      </trkpt>
      <trkpt lat="44.50444" lon="5.51982">
        <ele>1088</ele>
        <time>2022-09-06T22:35:30Z</time>
      </trkpt>
      <trkpt lat="44.50423" lon="5.5192">
        <ele>1090</ele>
        <time>2022-09-06T22:35:38Z</time>
      </trkpt>
      <trkpt lat="44.50415" lon="5.51889">
        <ele>1091</ele>
        <time>2022-09-06T22:35:43Z</time>
      </trkpt>
      <trkpt lat="44.50409" lon="5.5186">
        <ele>1091</ele>
        <time>2022-09-06T22:35:46Z</time>
      </trkpt>
      <trkpt lat="44.50409" lon="5.5183">
        <ele>1091</ele>
        <time>2022-09-06T22:35:50Z</time>
      </trkpt>
      <trkpt lat="44.50411" lon="5.51814">
        <ele>1091</ele>
        <time>2022-09-06T22:35:52Z</time>
      </trkpt>
      <trkpt lat="44.50421" lon="5.51782">
        <ele>1092</ele>
        <time>2022-09-06T22:35:57Z</time>
      </trkpt>
      <trkpt lat="44.50467" lon="5.51702">
        <ele>1097</ele>
        <time>2022-09-06T22:36:10Z</time>
      </trkpt>
      <trkpt lat="44.5047" lon="5.51686">
        <ele>1098</ele>
        <time>2022-09-06T22:36:12Z</time>
      </trkpt>
      <trkpt lat="44.50471" lon="5.51652">
        <ele>1099</ele>
        <time>2022-09-06T22:36:16Z</time>
      </trkpt>
      <trkpt lat="44.50459" lon="5.51547">
        <ele>1101</ele>
        <time>2022-09-06T22:36:30Z</time>
      </trkpt>
      <trkpt lat="44.50461" lon="5.51511">
        <ele>1103</ele>
        <time>2022-09-06T22:36:34Z</time>
      </trkpt>
      <trkpt lat="44.5047" lon="5.51459">
        <ele>1106</ele>
        <time>2022-09-06T22:36:41Z</time>
      </trkpt>
      <trkpt lat="44.50463" lon="5.5137">
        <ele>1108</ele>
        <time>2022-09-06T22:36:52Z</time>
      </trkpt>
      <trkpt lat="44.50465" lon="5.51335">
        <ele>1110</ele>
        <time>2022-09-06T22:36:57Z</time>
      </trkpt>
      <trkpt lat="44.5047" lon="5.51319">
        <ele>1110</ele>
        <time>2022-09-06T22:36:59Z</time>
      </trkpt>
      <trkpt lat="44.50485" lon="5.51289">
        <ele>1111</ele>
        <time>2022-09-06T22:37:04Z</time>
      </trkpt>
      <trkpt lat="44.50504" lon="5.51264">
        <ele>1113</ele>
        <time>2022-09-06T22:37:08Z</time>
      </trkpt>
      <trkpt lat="44.50526" lon="5.51244">
        <ele>1115</ele>
        <time>2022-09-06T22:37:13Z</time>
      </trkpt>
      <trkpt lat="44.50588" lon="5.51201">
        <ele>1118</ele>
        <time>2022-09-06T22:37:25Z</time>
      </trkpt>
      <trkpt lat="44.50608" lon="5.51179">
        <ele>1119</ele>
        <time>2022-09-06T22:37:30Z</time>
      </trkpt>
      <trkpt lat="44.50623" lon="5.51153">
        <ele>1120</ele>
        <time>2022-09-06T22:37:34Z</time>
      </trkpt>
      <trkpt lat="44.50673" lon="5.51045">
        <ele>1123</ele>
        <time>2022-09-06T22:37:50Z</time>
      </trkpt>
      <trkpt lat="44.50724" lon="5.50983">
        <ele>1122</ele>
        <time>2022-09-06T22:38:02Z</time>
      </trkpt>
      <trkpt lat="44.50737" lon="5.50944">
        <ele>1120</ele>
        <time>2022-09-06T22:38:08Z</time>
      </trkpt>
      <trkpt lat="44.50831" lon="5.5059">
        <ele>1108</ele>
        <time>2022-09-06T22:38:56Z</time>
      </trkpt>
      <trkpt lat="44.50839" lon="5.50494">
        <ele>1106</ele>
        <time>2022-09-06T22:39:08Z</time>
      </trkpt>
      <trkpt lat="44.50841" lon="5.50481">
        <ele>1105</ele>
        <time>2022-09-06T22:39:10Z</time>
      </trkpt>
      <trkpt lat="44.50846" lon="5.50469">
        <ele>1105</ele>
        <time>2022-09-06T22:39:12Z</time>
      </trkpt>
      <trkpt lat="44.50893" lon="5.504">
        <ele>1103</ele>
        <time>2022-09-06T22:39:24Z</time>
      </trkpt>
      <trkpt lat="44.50913" lon="5.50389">
        <ele>1103</ele>
        <time>2022-09-06T22:39:28Z</time>
      </trkpt>
      <trkpt lat="44.50954" lon="5.50382">
        <ele>1105</ele>
        <time>2022-09-06T22:39:35Z</time>
      </trkpt>
      <trkpt lat="44.50964" lon="5.50377">
        <ele>1105</ele>
        <time>2022-09-06T22:39:37Z</time>
      </trkpt>
      <trkpt lat="44.50982" lon="5.5036">
        <ele>1104</ele>
        <time>2022-09-06T22:39:41Z</time>
      </trkpt>
      <trkpt lat="44.51015" lon="5.50317">
        <ele>1103</ele>
        <time>2022-09-06T22:39:49Z</time>
      </trkpt>
      <trkpt lat="44.51034" lon="5.50277">
        <ele>1101</ele>
        <time>2022-09-06T22:39:55Z</time>
      </trkpt>
      <trkpt lat="44.51037" lon="5.50261">
        <ele>1100</ele>
        <time>2022-09-06T22:39:57Z</time>
      </trkpt>
      <trkpt lat="44.51037" lon="5.50197">
        <ele>1097</ele>
        <time>2022-09-06T22:40:05Z</time>
      </trkpt>
      <trkpt lat="44.51039" lon="5.50182">
        <ele>1097</ele>
        <time>2022-09-06T22:40:07Z</time>
      </trkpt>
      <trkpt lat="44.51059" lon="5.50109">
        <ele>1094</ele>
        <time>2022-09-06T22:40:17Z</time>
      </trkpt>
      <trkpt lat="44.51065" lon="5.50099">
        <ele>1095</ele>
        <time>2022-09-06T22:40:18Z</time>
      </trkpt>
      <trkpt lat="44.51074" lon="5.50094">
        <ele>1095</ele>
        <time>2022-09-06T22:40:20Z</time>
      </trkpt>
      <trkpt lat="44.51082" lon="5.50093">
        <ele>1097</ele>
        <time>2022-09-06T22:40:22Z</time>
      </trkpt>
      <trkpt lat="44.51117" lon="5.50104">
        <ele>1098</ele>
        <time>2022-09-06T22:40:28Z</time>
      </trkpt>
      <trkpt lat="44.51134" lon="5.50098">
        <ele>1098</ele>
        <time>2022-09-06T22:40:31Z</time>
      </trkpt>
      <trkpt lat="44.51148" lon="5.50082">
        <ele>1097</ele>
        <time>2022-09-06T22:40:34Z</time>
      </trkpt>
      <trkpt lat="44.51165" lon="5.50025">
        <ele>1094</ele>
        <time>2022-09-06T22:40:42Z</time>
      </trkpt>
      <trkpt lat="44.51171" lon="5.50016">
        <ele>1094</ele>
        <time>2022-09-06T22:40:44Z</time>
      </trkpt>
      <trkpt lat="44.51193" lon="5.49995">
        <ele>1094</ele>
        <time>2022-09-06T22:40:48Z</time>
      </trkpt>
      <trkpt lat="44.51199" lon="5.49986">
        <ele>1093</ele>
        <time>2022-09-06T22:40:50Z</time>
      </trkpt>
      <trkpt lat="44.51207" lon="5.49964">
        <ele>1092</ele>
        <time>2022-09-06T22:40:53Z</time>
      </trkpt>
      <trkpt lat="44.51274" lon="5.49708">
        <ele>1087</ele>
        <time>2022-09-06T22:41:28Z</time>
      </trkpt>
      <trkpt lat="44.51286" lon="5.49665">
        <ele>1088</ele>
        <time>2022-09-06T22:41:34Z</time>
      </trkpt>
      <trkpt lat="44.51301" lon="5.49623">
        <ele>1088</ele>
        <time>2022-09-06T22:41:40Z</time>
      </trkpt>
      <trkpt lat="44.5131" lon="5.49579">
        <ele>1088</ele>
        <time>2022-09-06T22:41:45Z</time>
      </trkpt>
      <trkpt lat="44.51308" lon="5.49522">
        <ele>1086</ele>
        <time>2022-09-06T22:41:53Z</time>
      </trkpt>
      <trkpt lat="44.51309" lon="5.49463">
        <ele>1086</ele>
        <time>2022-09-06T22:42:00Z</time>
      </trkpt>
      <trkpt lat="44.51306" lon="5.49433">
        <ele>1085</ele>
        <time>2022-09-06T22:42:04Z</time>
      </trkpt>
      <trkpt lat="44.51301" lon="5.49403">
        <ele>1084</ele>
        <time>2022-09-06T22:42:08Z</time>
      </trkpt>
      <trkpt lat="44.51278" lon="5.49317">
        <ele>1077</ele>
        <time>2022-09-06T22:42:20Z</time>
      </trkpt>
      <trkpt lat="44.51279" lon="5.49304">
        <ele>1076</ele>
        <time>2022-09-06T22:42:21Z</time>
      </trkpt>
      <trkpt lat="44.51282" lon="5.49294">
        <ele>1076</ele>
        <time>2022-09-06T22:42:23Z</time>
      </trkpt>
      <trkpt lat="44.51288" lon="5.49289">
        <ele>1076</ele>
        <time>2022-09-06T22:42:24Z</time>
      </trkpt>
      <trkpt lat="44.51296" lon="5.49288">
        <ele>1077</ele>
        <time>2022-09-06T22:42:25Z</time>
      </trkpt>
      <trkpt lat="44.51333" lon="5.49295">
        <ele>1082</ele>
        <time>2022-09-06T22:42:32Z</time>
      </trkpt>
      <trkpt lat="44.51343" lon="5.49293">
        <ele>1082</ele>
        <time>2022-09-06T22:42:34Z</time>
      </trkpt>
      <trkpt lat="44.51362" lon="5.49282">
        <ele>1083</ele>
        <time>2022-09-06T22:42:37Z</time>
      </trkpt>
      <trkpt lat="44.51386" lon="5.49259">
        <ele>1082</ele>
        <time>2022-09-06T22:42:42Z</time>
      </trkpt>
      <trkpt lat="44.51399" lon="5.49243">
        <ele>1082</ele>
        <time>2022-09-06T22:42:46Z</time>
      </trkpt>
      <trkpt lat="44.51402" lon="5.49233">
        <ele>1082</ele>
        <time>2022-09-06T22:42:47Z</time>
      </trkpt>
      <trkpt lat="44.51404" lon="5.49208">
        <ele>1082</ele>
        <time>2022-09-06T22:42:50Z</time>
      </trkpt>
      <trkpt lat="44.51402" lon="5.4918">
        <ele>1081</ele>
        <time>2022-09-06T22:42:54Z</time>
      </trkpt>
      <trkpt lat="44.51371" lon="5.49081">
        <ele>1079</ele>
        <time>2022-09-06T22:43:07Z</time>
      </trkpt>
      <trkpt lat="44.51341" lon="5.4902">
        <ele>1077</ele>
        <time>2022-09-06T22:43:17Z</time>
      </trkpt>
      <trkpt lat="44.5131" lon="5.48969">
        <ele>1075</ele>
        <time>2022-09-06T22:43:25Z</time>
      </trkpt>
      <trkpt lat="44.51298" lon="5.48941">
        <ele>1075</ele>
        <time>2022-09-06T22:43:29Z</time>
      </trkpt>
      <trkpt lat="44.51243" lon="5.48732">
        <ele>1074</ele>
        <time>2022-09-06T22:43:58Z</time>
      </trkpt>
      <trkpt lat="44.51228" lon="5.4869">
        <ele>1073</ele>
        <time>2022-09-06T22:44:04Z</time>
      </trkpt>
      <trkpt lat="44.51196" lon="5.48616">
        <ele>1070</ele>
        <time>2022-09-06T22:44:15Z</time>
      </trkpt>
      <trkpt lat="44.51167" lon="5.48524">
        <ele>1066</ele>
        <time>2022-09-06T22:44:27Z</time>
      </trkpt>
      <trkpt lat="44.5116" lon="5.48498">
        <ele>1064</ele>
        <time>2022-09-06T22:44:31Z</time>
      </trkpt>
      <trkpt lat="44.51159" lon="5.48473">
        <ele>1062</ele>
        <time>2022-09-06T22:44:34Z</time>
      </trkpt>
      <trkpt lat="44.51162" lon="5.48462">
        <ele>1062</ele>
        <time>2022-09-06T22:44:36Z</time>
      </trkpt>
      <trkpt lat="44.51168" lon="5.48453">
        <ele>1062</ele>
        <time>2022-09-06T22:44:37Z</time>
      </trkpt>
      <trkpt lat="44.51193" lon="5.48432">
        <ele>1062</ele>
        <time>2022-09-06T22:44:42Z</time>
      </trkpt>
      <trkpt lat="44.51214" lon="5.48426">
        <ele>1063</ele>
        <time>2022-09-06T22:44:46Z</time>
      </trkpt>
      <trkpt lat="44.51271" lon="5.48418">
        <ele>1066</ele>
        <time>2022-09-06T22:44:56Z</time>
      </trkpt>
      <trkpt lat="44.51293" lon="5.48404">
        <ele>1066</ele>
        <time>2022-09-06T22:45:01Z</time>
      </trkpt>
      <trkpt lat="44.51323" lon="5.48373">
        <ele>1065</ele>
        <time>2022-09-06T22:45:07Z</time>
      </trkpt>
      <trkpt lat="44.51405" lon="5.4828">
        <ele>1064</ele>
        <time>2022-09-06T22:45:26Z</time>
      </trkpt>
      <trkpt lat="44.51419" lon="5.48258">
        <ele>1064</ele>
        <time>2022-09-06T22:45:30Z</time>
      </trkpt>
      <trkpt lat="44.51442" lon="5.48203">
        <ele>1062</ele>
        <time>2022-09-06T22:45:38Z</time>
      </trkpt>
      <trkpt lat="44.51448" lon="5.48162">
        <ele>1061</ele>
        <time>2022-09-06T22:45:43Z</time>
      </trkpt>
      <trkpt lat="44.5144" lon="5.48098">
        <ele>1060</ele>
        <time>2022-09-06T22:45:51Z</time>
      </trkpt>
      <trkpt lat="44.51435" lon="5.48091">
        <ele>1060</ele>
        <time>2022-09-06T22:45:53Z</time>
      </trkpt>
      <trkpt lat="44.51423" lon="5.48087">
        <ele>1059</ele>
        <time>2022-09-06T22:45:55Z</time>
      </trkpt>
      <trkpt lat="44.51249" lon="5.48073">
        <ele>1053</ele>
        <time>2022-09-06T22:46:26Z</time>
      </trkpt>
      <trkpt lat="44.50939" lon="5.4804">
        <ele>1041</ele>
        <time>2022-09-06T22:47:21Z</time>
      </trkpt>
      <trkpt lat="44.50919" lon="5.48039">
        <ele>1042</ele>
        <time>2022-09-06T22:47:25Z</time>
      </trkpt>
      <trkpt lat="44.50898" lon="5.48043">
        <ele>1043</ele>
        <time>2022-09-06T22:47:29Z</time>
      </trkpt>
      <trkpt lat="44.50877" lon="5.48053">
        <ele>1045</ele>
        <time>2022-09-06T22:47:33Z</time>
      </trkpt>
      <trkpt lat="44.5085" lon="5.48072">
        <ele>1045</ele>
        <time>2022-09-06T22:47:38Z</time>
      </trkpt>
      <trkpt lat="44.50794" lon="5.48147">
        <ele>1046</ele>
        <time>2022-09-06T22:47:52Z</time>
      </trkpt>
      <trkpt lat="44.50746" lon="5.48185">
        <ele>1047</ele>
        <time>2022-09-06T22:48:02Z</time>
      </trkpt>
      <trkpt lat="44.50729" lon="5.48203">
        <ele>1050</ele>
        <time>2022-09-06T22:48:05Z</time>
      </trkpt>
      <trkpt lat="44.50605" lon="5.48379">
        <ele>1050</ele>
        <time>2022-09-06T22:48:37Z</time>
      </trkpt>
      <trkpt lat="44.50555" lon="5.4842">
        <ele>1052</ele>
        <time>2022-09-06T22:48:47Z</time>
      </trkpt>
      <trkpt lat="44.50475" lon="5.48477">
        <ele>1057</ele>
        <time>2022-09-06T22:49:03Z</time>
      </trkpt>
      <trkpt lat="44.50415" lon="5.48525">
        <ele>1059</ele>
        <time>2022-09-06T22:49:15Z</time>
      </trkpt>
      <trkpt lat="44.50362" lon="5.48574">
        <ele>1058</ele>
        <time>2022-09-06T22:49:27Z</time>
      </trkpt>
      <trkpt lat="44.50339" lon="5.48587">
        <ele>1059</ele>
        <time>2022-09-06T22:49:31Z</time>
      </trkpt>
      <trkpt lat="44.50326" lon="5.4859">
        <ele>1059</ele>
        <time>2022-09-06T22:49:33Z</time>
      </trkpt>
      <trkpt lat="44.50285" lon="5.48589">
        <ele>1059</ele>
        <time>2022-09-06T22:49:41Z</time>
      </trkpt>
      <trkpt lat="44.50259" lon="5.48583">
        <ele>1060</ele>
        <time>2022-09-06T22:49:45Z</time>
      </trkpt>
      <trkpt lat="44.50224" lon="5.48566">
        <ele>1056</ele>
        <time>2022-09-06T22:49:52Z</time>
      </trkpt>
      <trkpt lat="44.50214" lon="5.48556">
        <ele>1055</ele>
        <time>2022-09-06T22:49:54Z</time>
      </trkpt>
      <trkpt lat="44.50206" lon="5.48542">
        <ele>1055</ele>
        <time>2022-09-06T22:49:56Z</time>
      </trkpt>
      <trkpt lat="44.50201" lon="5.48527">
        <ele>1055</ele>
        <time>2022-09-06T22:49:58Z</time>
      </trkpt>
      <trkpt lat="44.50194" lon="5.48491">
        <ele>1058</ele>
        <time>2022-09-06T22:50:03Z</time>
      </trkpt>
      <trkpt lat="44.50186" lon="5.48387">
        <ele>1065</ele>
        <time>2022-09-06T22:50:16Z</time>
      </trkpt>
      <trkpt lat="44.50188" lon="5.48242">
        <ele>1077</ele>
        <time>2022-09-06T22:50:35Z</time>
      </trkpt>
      <trkpt lat="44.50173" lon="5.48178">
        <ele>1078</ele>
        <time>2022-09-06T22:50:43Z</time>
      </trkpt>
      <trkpt lat="44.50174" lon="5.48131">
        <ele>1082</ele>
        <time>2022-09-06T22:50:49Z</time>
      </trkpt>
      <trkpt lat="44.50171" lon="5.48116">
        <ele>1082</ele>
        <time>2022-09-06T22:50:51Z</time>
      </trkpt>
      <trkpt lat="44.50153" lon="5.48079">
        <ele>1076</ele>
        <time>2022-09-06T22:50:57Z</time>
      </trkpt>
      <trkpt lat="44.50149" lon="5.48051">
        <ele>1072</ele>
        <time>2022-09-06T22:51:01Z</time>
      </trkpt>
      <trkpt lat="44.50151" lon="5.48037">
        <ele>1072</ele>
        <time>2022-09-06T22:51:02Z</time>
      </trkpt>
      <trkpt lat="44.50172" lon="5.47978">
        <ele>1081</ele>
        <time>2022-09-06T22:51:11Z</time>
      </trkpt>
      <trkpt lat="44.50175" lon="5.47962">
        <ele>1081</ele>
        <time>2022-09-06T22:51:13Z</time>
      </trkpt>
      <trkpt lat="44.50169" lon="5.47864">
        <ele>1070</ele>
        <time>2022-09-06T22:51:25Z</time>
      </trkpt>
      <trkpt lat="44.50172" lon="5.4785">
        <ele>1070</ele>
        <time>2022-09-06T22:51:27Z</time>
      </trkpt>
      <trkpt lat="44.50179" lon="5.47837">
        <ele>1072</ele>
        <time>2022-09-06T22:51:29Z</time>
      </trkpt>
      <trkpt lat="44.5021" lon="5.47791">
        <ele>1078</ele>
        <time>2022-09-06T22:51:37Z</time>
      </trkpt>
      <trkpt lat="44.50235" lon="5.47722">
        <ele>1073</ele>
        <time>2022-09-06T22:51:47Z</time>
      </trkpt>
      <trkpt lat="44.50248" lon="5.47698">
        <ele>1072</ele>
        <time>2022-09-06T22:51:51Z</time>
      </trkpt>
      <trkpt lat="44.50257" lon="5.4769">
        <ele>1072</ele>
        <time>2022-09-06T22:51:53Z</time>
      </trkpt>
      <trkpt lat="44.50298" lon="5.47671">
        <ele>1076</ele>
        <time>2022-09-06T22:52:01Z</time>
      </trkpt>
      <trkpt lat="44.50345" lon="5.47634">
        <ele>1083</ele>
        <time>2022-09-06T22:52:10Z</time>
      </trkpt>
      <trkpt lat="44.50352" lon="5.47627">
        <ele>1084</ele>
        <time>2022-09-06T22:52:12Z</time>
      </trkpt>
      <trkpt lat="44.50356" lon="5.47617">
        <ele>1085</ele>
        <time>2022-09-06T22:52:13Z</time>
      </trkpt>
      <trkpt lat="44.50357" lon="5.47606">
        <ele>1084</ele>
        <time>2022-09-06T22:52:15Z</time>
      </trkpt>
      <trkpt lat="44.50355" lon="5.47594">
        <ele>1082</ele>
        <time>2022-09-06T22:52:16Z</time>
      </trkpt>
      <trkpt lat="44.50343" lon="5.47577">
        <ele>1078</ele>
        <time>2022-09-06T22:52:19Z</time>
      </trkpt>
      <trkpt lat="44.50298" lon="5.4755">
        <ele>1067</ele>
        <time>2022-09-06T22:52:28Z</time>
      </trkpt>
      <trkpt lat="44.50272" lon="5.47525">
        <ele>1059</ele>
        <time>2022-09-06T22:52:33Z</time>
      </trkpt>
      <trkpt lat="44.50261" lon="5.47503">
        <ele>1056</ele>
        <time>2022-09-06T22:52:37Z</time>
      </trkpt>
      <trkpt lat="44.50258" lon="5.4749">
        <ele>1056</ele>
        <time>2022-09-06T22:52:39Z</time>
      </trkpt>
      <trkpt lat="44.50254" lon="5.47461">
        <ele>1056</ele>
        <time>2022-09-06T22:52:42Z</time>
      </trkpt>
      <trkpt lat="44.50255" lon="5.47402">
        <ele>1060</ele>
        <time>2022-09-06T22:52:50Z</time>
      </trkpt>
      <trkpt lat="44.50252" lon="5.47372">
        <ele>1058</ele>
        <time>2022-09-06T22:52:54Z</time>
      </trkpt>
      <trkpt lat="44.5022" lon="5.47271">
        <ele>1056</ele>
        <time>2022-09-06T22:53:08Z</time>
      </trkpt>
      <trkpt lat="44.50214" lon="5.47238">
        <ele>1058</ele>
        <time>2022-09-06T22:53:12Z</time>
      </trkpt>
      <trkpt lat="44.50221" lon="5.47136">
        <ele>1052</ele>
        <time>2022-09-06T22:53:25Z</time>
      </trkpt>
      <trkpt lat="44.50237" lon="5.47033">
        <ele>1050</ele>
        <time>2022-09-06T22:53:38Z</time>
      </trkpt>
      <trkpt lat="44.5025" lon="5.46981">
        <ele>1047</ele>
        <time>2022-09-06T22:53:45Z</time>
      </trkpt>
      <trkpt lat="44.50277" lon="5.46902">
        <ele>1045</ele>
        <time>2022-09-06T22:53:57Z</time>
      </trkpt>
      <trkpt lat="44.50334" lon="5.46753">
        <ele>1032</ele>
        <time>2022-09-06T22:54:18Z</time>
      </trkpt>
      <trkpt lat="44.50345" lon="5.46718">
        <ele>1031</ele>
        <time>2022-09-06T22:54:23Z</time>
      </trkpt>
      <trkpt lat="44.50353" lon="5.4668">
        <ele>1031</ele>
        <time>2022-09-06T22:54:28Z</time>
      </trkpt>
      <trkpt lat="44.50383" lon="5.46493">
        <ele>1026</ele>
        <time>2022-09-06T22:54:52Z</time>
      </trkpt>
      <trkpt lat="44.50412" lon="5.46415">
        <ele>1018</ele>
        <time>2022-09-06T22:55:03Z</time>
      </trkpt>
      <trkpt lat="44.50422" lon="5.46382">
        <ele>1013</ele>
        <time>2022-09-06T22:55:08Z</time>
      </trkpt>
      <trkpt lat="44.50429" lon="5.46346">
        <ele>1011</ele>
        <time>2022-09-06T22:55:13Z</time>
      </trkpt>
      <trkpt lat="44.50436" lon="5.46278">
        <ele>1011</ele>
        <time>2022-09-06T22:55:21Z</time>
      </trkpt>
      <trkpt lat="44.5044" lon="5.46265">
        <ele>1010</ele>
        <time>2022-09-06T22:55:23Z</time>
      </trkpt>
      <trkpt lat="44.50443" lon="5.46263">
        <ele>1009</ele>
        <time>2022-09-06T22:55:24Z</time>
      </trkpt>
      <trkpt lat="44.50447" lon="5.46264">
        <ele>1006</ele>
        <time>2022-09-06T22:55:24Z</time>
      </trkpt>
      <trkpt lat="44.50449" lon="5.46269">
        <ele>1005</ele>
        <time>2022-09-06T22:55:25Z</time>
      </trkpt>
      <trkpt lat="44.50444" lon="5.4637">
        <ele>1002</ele>
        <time>2022-09-06T22:55:38Z</time>
      </trkpt>
      <trkpt lat="44.5044" lon="5.46401">
        <ele>1003</ele>
        <time>2022-09-06T22:55:42Z</time>
      </trkpt>
      <trkpt lat="44.50424" lon="5.4648">
        <ele>1005</ele>
        <time>2022-09-06T22:55:52Z</time>
      </trkpt>
      <trkpt lat="44.50422" lon="5.46508">
        <ele>1004</ele>
        <time>2022-09-06T22:55:56Z</time>
      </trkpt>
      <trkpt lat="44.50433" lon="5.46578">
        <ele>997</ele>
        <time>2022-09-06T22:56:05Z</time>
      </trkpt>
      <trkpt lat="44.50435" lon="5.46623">
        <ele>994</ele>
        <time>2022-09-06T22:56:11Z</time>
      </trkpt>
      <trkpt lat="44.5043" lon="5.46741">
        <ele>990</ele>
        <time>2022-09-06T22:56:26Z</time>
      </trkpt>
      <trkpt lat="44.50416" lon="5.46838">
        <ele>988</ele>
        <time>2022-09-06T22:56:38Z</time>
      </trkpt>
      <trkpt lat="44.5042" lon="5.46849">
        <ele>987</ele>
        <time>2022-09-06T22:56:40Z</time>
      </trkpt>
      <trkpt lat="44.50423" lon="5.4685">
        <ele>986</ele>
        <time>2022-09-06T22:56:41Z</time>
      </trkpt>
      <trkpt lat="44.50427" lon="5.46847">
        <ele>985</ele>
        <time>2022-09-06T22:56:41Z</time>
      </trkpt>
      <trkpt lat="44.50437" lon="5.46786">
        <ele>985</ele>
        <time>2022-09-06T22:56:49Z</time>
      </trkpt>
      <trkpt lat="44.50477" lon="5.46642">
        <ele>974</ele>
        <time>2022-09-06T22:57:09Z</time>
      </trkpt>
      <trkpt lat="44.50502" lon="5.4657">
        <ele>967</ele>
        <time>2022-09-06T22:57:19Z</time>
      </trkpt>
      <trkpt lat="44.50505" lon="5.46509">
        <ele>967</ele>
        <time>2022-09-06T22:57:27Z</time>
      </trkpt>
      <trkpt lat="44.5051" lon="5.46478">
        <ele>965</ele>
        <time>2022-09-06T22:57:31Z</time>
      </trkpt>
      <trkpt lat="44.50569" lon="5.46277">
        <ele>947</ele>
        <time>2022-09-06T22:57:58Z</time>
      </trkpt>
      <trkpt lat="44.5058" lon="5.46215">
        <ele>943</ele>
        <time>2022-09-06T22:58:07Z</time>
      </trkpt>
      <trkpt lat="44.50578" lon="5.46174">
        <ele>945</ele>
        <time>2022-09-06T22:58:12Z</time>
      </trkpt>
      <trkpt lat="44.50583" lon="5.46151">
        <ele>943</ele>
        <time>2022-09-06T22:58:15Z</time>
      </trkpt>
      <trkpt lat="44.5059" lon="5.46143">
        <ele>941</ele>
        <time>2022-09-06T22:58:16Z</time>
      </trkpt>
      <trkpt lat="44.50615" lon="5.46132">
        <ele>931</ele>
        <time>2022-09-06T22:58:21Z</time>
      </trkpt>
      <trkpt lat="44.50623" lon="5.46126">
        <ele>928</ele>
        <time>2022-09-06T22:58:23Z</time>
      </trkpt>
      <trkpt lat="44.5063" lon="5.46117">
        <ele>926</ele>
        <time>2022-09-06T22:58:24Z</time>
      </trkpt>
      <trkpt lat="44.5064" lon="5.46091">
        <ele>923</ele>
        <time>2022-09-06T22:58:28Z</time>
      </trkpt>
      <trkpt lat="44.5065" lon="5.46033">
        <ele>923</ele>
        <time>2022-09-06T22:58:36Z</time>
      </trkpt>
      <trkpt lat="44.50644" lon="5.45971">
        <ele>928</ele>
        <time>2022-09-06T22:58:44Z</time>
      </trkpt>
      <trkpt lat="44.50644" lon="5.45939">
        <ele>928</ele>
        <time>2022-09-06T22:58:48Z</time>
      </trkpt>
      <trkpt lat="44.50652" lon="5.45908">
        <ele>925</ele>
        <time>2022-09-06T22:58:52Z</time>
      </trkpt>
      <trkpt lat="44.50676" lon="5.45849">
        <ele>924</ele>
        <time>2022-09-06T22:59:01Z</time>
      </trkpt>
      <trkpt lat="44.50692" lon="5.45764">
        <ele>921</ele>
        <time>2022-09-06T22:59:12Z</time>
      </trkpt>
      <trkpt lat="44.50708" lon="5.45722">
        <ele>912</ele>
        <time>2022-09-06T22:59:18Z</time>
      </trkpt>
      <trkpt lat="44.50713" lon="5.45692">
        <ele>909</ele>
        <time>2022-09-06T22:59:22Z</time>
      </trkpt>
      <trkpt lat="44.50716" lon="5.45643">
        <ele>909</ele>
        <time>2022-09-06T22:59:28Z</time>
      </trkpt>
      <trkpt lat="44.50722" lon="5.4561">
        <ele>907</ele>
        <time>2022-09-06T22:59:32Z</time>
      </trkpt>
      <trkpt lat="44.50735" lon="5.4558">
        <ele>902</ele>
        <time>2022-09-06T22:59:37Z</time>
      </trkpt>
      <trkpt lat="44.5077" lon="5.45512">
        <ele>897</ele>
        <time>2022-09-06T22:59:47Z</time>
      </trkpt>
      <trkpt lat="44.50777" lon="5.45506">
        <ele>895</ele>
        <time>2022-09-06T22:59:49Z</time>
      </trkpt>
      <trkpt lat="44.50781" lon="5.45507">
        <ele>894</ele>
        <time>2022-09-06T22:59:49Z</time>
      </trkpt>
      <trkpt lat="44.50783" lon="5.45512">
        <ele>893</ele>
        <time>2022-09-06T22:59:50Z</time>
      </trkpt>
      <trkpt lat="44.50781" lon="5.4553">
        <ele>891</ele>
        <time>2022-09-06T22:59:53Z</time>
      </trkpt>
      <trkpt lat="44.50768" lon="5.45564">
        <ele>892</ele>
        <time>2022-09-06T22:59:57Z</time>
      </trkpt>
      <trkpt lat="44.50761" lon="5.45591">
        <ele>891</ele>
        <time>2022-09-06T23:00:01Z</time>
      </trkpt>
      <trkpt lat="44.50755" lon="5.45665">
        <ele>889</ele>
        <time>2022-09-06T23:00:10Z</time>
      </trkpt>
      <trkpt lat="44.50754" lon="5.45832">
        <ele>888</ele>
        <time>2022-09-06T23:00:32Z</time>
      </trkpt>
      <trkpt lat="44.50746" lon="5.4589">
        <ele>888</ele>
        <time>2022-09-06T23:00:39Z</time>
      </trkpt>
      <trkpt lat="44.50748" lon="5.45896">
        <ele>887</ele>
        <time>2022-09-06T23:00:40Z</time>
      </trkpt>
      <trkpt lat="44.50752" lon="5.45898">
        <ele>886</ele>
        <time>2022-09-06T23:00:41Z</time>
      </trkpt>
      <trkpt lat="44.50757" lon="5.45895">
        <ele>886</ele>
        <time>2022-09-06T23:00:42Z</time>
      </trkpt>
      <trkpt lat="44.50761" lon="5.45888">
        <ele>887</ele>
        <time>2022-09-06T23:00:43Z</time>
      </trkpt>
      <trkpt lat="44.50766" lon="5.45868">
        <ele>887</ele>
        <time>2022-09-06T23:00:46Z</time>
      </trkpt>
      <trkpt lat="44.50792" lon="5.4572">
        <ele>877</ele>
        <time>2022-09-06T23:01:05Z</time>
      </trkpt>
      <trkpt lat="44.50816" lon="5.45668">
        <ele>868</ele>
        <time>2022-09-06T23:01:13Z</time>
      </trkpt>
      <trkpt lat="44.50832" lon="5.45625">
        <ele>866</ele>
        <time>2022-09-06T23:01:19Z</time>
      </trkpt>
      <trkpt lat="44.5087" lon="5.45566">
        <ele>862</ele>
        <time>2022-09-06T23:01:29Z</time>
      </trkpt>
      <trkpt lat="44.50901" lon="5.45487">
        <ele>857</ele>
        <time>2022-09-06T23:01:40Z</time>
      </trkpt>
      <trkpt lat="44.50904" lon="5.45461">
        <ele>855</ele>
        <time>2022-09-06T23:01:44Z</time>
      </trkpt>
      <trkpt lat="44.50904" lon="5.45419">
        <ele>853</ele>
        <time>2022-09-06T23:01:49Z</time>
      </trkpt>
      <trkpt lat="44.50892" lon="5.45347">
        <ele>854</ele>
        <time>2022-09-06T23:01:59Z</time>
      </trkpt>
      <trkpt lat="44.50894" lon="5.45332">
        <ele>853</ele>
        <time>2022-09-06T23:02:00Z</time>
      </trkpt>
      <trkpt lat="44.50903" lon="5.45306">
        <ele>850</ele>
        <time>2022-09-06T23:02:04Z</time>
      </trkpt>
      <trkpt lat="44.50922" lon="5.45269">
        <ele>846</ele>
        <time>2022-09-06T23:02:10Z</time>
      </trkpt>
      <trkpt lat="44.50927" lon="5.45242">
        <ele>845</ele>
        <time>2022-09-06T23:02:13Z</time>
      </trkpt>
      <trkpt lat="44.50923" lon="5.45216">
        <ele>843</ele>
        <time>2022-09-06T23:02:17Z</time>
      </trkpt>
      <trkpt lat="44.50886" lon="5.45153">
        <ele>847</ele>
        <time>2022-09-06T23:02:27Z</time>
      </trkpt>
      <trkpt lat="44.50881" lon="5.45134">
        <ele>849</ele>
        <time>2022-09-06T23:02:30Z</time>
      </trkpt>
      <trkpt lat="44.50887" lon="5.45121">
        <ele>847</ele>
        <time>2022-09-06T23:02:32Z</time>
      </trkpt>
      <trkpt lat="44.50906" lon="5.45105">
        <ele>841</ele>
        <time>2022-09-06T23:02:36Z</time>
      </trkpt>
      <trkpt lat="44.50919" lon="5.45073">
        <ele>838</ele>
        <time>2022-09-06T23:02:40Z</time>
      </trkpt>
      <trkpt lat="44.50924" lon="5.45048">
        <ele>838</ele>
        <time>2022-09-06T23:02:44Z</time>
      </trkpt>
      <trkpt lat="44.50919" lon="5.44997">
        <ele>837</ele>
        <time>2022-09-06T23:02:50Z</time>
      </trkpt>
      <trkpt lat="44.50921" lon="5.44985">
        <ele>836</ele>
        <time>2022-09-06T23:02:52Z</time>
      </trkpt>
      <trkpt lat="44.50937" lon="5.44946">
        <ele>830</ele>
        <time>2022-09-06T23:02:57Z</time>
      </trkpt>
      <trkpt lat="44.50937" lon="5.44936">
        <ele>829</ele>
        <time>2022-09-06T23:02:59Z</time>
      </trkpt>
      <trkpt lat="44.50934" lon="5.44926">
        <ele>828</ele>
        <time>2022-09-06T23:03:00Z</time>
      </trkpt>
      <trkpt lat="44.50922" lon="5.44912">
        <ele>826</ele>
        <time>2022-09-06T23:03:03Z</time>
      </trkpt>
      <trkpt lat="44.50899" lon="5.4491">
        <ele>832</ele>
        <time>2022-09-06T23:03:07Z</time>
      </trkpt>
      <trkpt lat="44.50892" lon="5.44906">
        <ele>835</ele>
        <time>2022-09-06T23:03:08Z</time>
      </trkpt>
      <trkpt lat="44.50887" lon="5.44899">
        <ele>836</ele>
        <time>2022-09-06T23:03:10Z</time>
      </trkpt>
      <trkpt lat="44.5088" lon="5.4483">
        <ele>828</ele>
        <time>2022-09-06T23:03:18Z</time>
      </trkpt>
      <trkpt lat="44.50876" lon="5.44819">
        <ele>828</ele>
        <time>2022-09-06T23:03:20Z</time>
      </trkpt>
      <trkpt lat="44.50857" lon="5.44791">
        <ele>830</ele>
        <time>2022-09-06T23:03:25Z</time>
      </trkpt>
      <trkpt lat="44.50853" lon="5.44779">
        <ele>829</ele>
        <time>2022-09-06T23:03:27Z</time>
      </trkpt>
      <trkpt lat="44.50851" lon="5.44766">
        <ele>827</ele>
        <time>2022-09-06T23:03:28Z</time>
      </trkpt>
      <trkpt lat="44.50855" lon="5.44712">
        <ele>822</ele>
        <time>2022-09-06T23:03:35Z</time>
      </trkpt>
      <trkpt lat="44.50844" lon="5.44628">
        <ele>819</ele>
        <time>2022-09-06T23:03:46Z</time>
      </trkpt>
      <trkpt lat="44.50848" lon="5.44571">
        <ele>814</ele>
        <time>2022-09-06T23:03:53Z</time>
      </trkpt>
      <trkpt lat="44.50822" lon="5.4448">
        <ele>809</ele>
        <time>2022-09-06T23:04:06Z</time>
      </trkpt>
      <trkpt lat="44.50804" lon="5.44441">
        <ele>808</ele>
        <time>2022-09-06T23:04:12Z</time>
      </trkpt>
      <trkpt lat="44.5079" lon="5.44416">
        <ele>807</ele>
        <time>2022-09-06T23:04:16Z</time>
      </trkpt>
      <trkpt lat="44.50772" lon="5.44395">
        <ele>806</ele>
        <time>2022-09-06T23:04:20Z</time>
      </trkpt>
      <trkpt lat="44.50701" lon="5.44329">
        <ele>799</ele>
        <time>2022-09-06T23:04:35Z</time>
      </trkpt>
      <trkpt lat="44.50657" lon="5.44296">
        <ele>799</ele>
        <time>2022-09-06T23:04:44Z</time>
      </trkpt>
      <trkpt lat="44.50596" lon="5.44206">
        <ele>790</ele>
        <time>2022-09-06T23:05:00Z</time>
      </trkpt>
      <trkpt lat="44.50578" lon="5.44156">
        <ele>781</ele>
        <time>2022-09-06T23:05:07Z</time>
      </trkpt>
      <trkpt lat="44.50572" lon="5.44147">
        <ele>780</ele>
        <time>2022-09-06T23:05:08Z</time>
      </trkpt>
      <trkpt lat="44.50565" lon="5.44142">
        <ele>779</ele>
        <time>2022-09-06T23:05:10Z</time>
      </trkpt>
      <trkpt lat="44.50547" lon="5.44137">
        <ele>778</ele>
        <time>2022-09-06T23:05:13Z</time>
      </trkpt>
      <trkpt lat="44.50424" lon="5.44117">
        <ele>776</ele>
        <time>2022-09-06T23:05:35Z</time>
      </trkpt>
      <trkpt lat="44.50402" lon="5.44111">
        <ele>774</ele>
        <time>2022-09-06T23:05:39Z</time>
      </trkpt>
      <trkpt lat="44.50325" lon="5.44063">
        <ele>767</ele>
        <time>2022-09-06T23:05:54Z</time>
      </trkpt>
      <trkpt lat="44.5031" lon="5.44058">
        <ele>766</ele>
        <time>2022-09-06T23:05:57Z</time>
      </trkpt>
      <trkpt lat="44.50295" lon="5.44064">
        <ele>765</ele>
        <time>2022-09-06T23:05:59Z</time>
      </trkpt>
      <trkpt lat="44.50335" lon="5.43991">
        <ele>764</ele>
        <time>2022-09-06T23:06:11Z</time>
      </trkpt>
      <trkpt lat="44.50421" lon="5.4385">
        <ele>772</ele>
        <time>2022-09-06T23:06:35Z</time>
      </trkpt>
      <trkpt lat="44.5045" lon="5.43826">
        <ele>773</ele>
        <time>2022-09-06T23:06:41Z</time>
      </trkpt>
      <trkpt lat="44.50554" lon="5.43818">
        <ele>771</ele>
        <time>2022-09-06T23:06:59Z</time>
      </trkpt>
      <trkpt lat="44.50575" lon="5.4382">
        <ele>771</ele>
        <time>2022-09-06T23:07:03Z</time>
      </trkpt>
      <trkpt lat="44.50671" lon="5.43849">
        <ele>773</ele>
        <time>2022-09-06T23:07:20Z</time>
      </trkpt>
      <trkpt lat="44.50719" lon="5.43848">
        <ele>773</ele>
        <time>2022-09-06T23:07:29Z</time>
      </trkpt>
      <trkpt lat="44.50754" lon="5.43839">
        <ele>773</ele>
        <time>2022-09-06T23:07:35Z</time>
      </trkpt>
      <trkpt lat="44.50815" lon="5.43806">
        <ele>776</ele>
        <time>2022-09-06T23:07:47Z</time>
      </trkpt>
      <trkpt lat="44.50838" lon="5.43796">
        <ele>777</ele>
        <time>2022-09-06T23:07:51Z</time>
      </trkpt>
      <trkpt lat="44.50898" lon="5.43783">
        <ele>777</ele>
        <time>2022-09-06T23:08:02Z</time>
      </trkpt>
      <trkpt lat="44.50971" lon="5.43777">
        <ele>777</ele>
        <time>2022-09-06T23:08:15Z</time>
      </trkpt>
      <trkpt lat="44.51004" lon="5.43766">
        <ele>778</ele>
        <time>2022-09-06T23:08:21Z</time>
      </trkpt>
      <trkpt lat="44.51024" lon="5.43749">
        <ele>779</ele>
        <time>2022-09-06T23:08:25Z</time>
      </trkpt>
      <trkpt lat="44.5104" lon="5.43723">
        <ele>781</ele>
        <time>2022-09-06T23:08:30Z</time>
      </trkpt>
      <trkpt lat="44.51049" lon="5.43693">
        <ele>783</ele>
        <time>2022-09-06T23:08:34Z</time>
      </trkpt>
      <trkpt lat="44.51068" lon="5.43595">
        <ele>789</ele>
        <time>2022-09-06T23:08:47Z</time>
      </trkpt>
      <trkpt lat="44.51093" lon="5.43523">
        <ele>796</ele>
        <time>2022-09-06T23:08:57Z</time>
      </trkpt>
      <trkpt lat="44.51109" lon="5.43493">
        <ele>798</ele>
        <time>2022-09-06T23:09:01Z</time>
      </trkpt>
      <trkpt lat="44.51154" lon="5.43441">
        <ele>797</ele>
        <time>2022-09-06T23:09:12Z</time>
      </trkpt>
      <trkpt lat="44.51188" lon="5.43408">
        <ele>797</ele>
        <time>2022-09-06T23:09:19Z</time>
      </trkpt>
      <trkpt lat="44.51251" lon="5.43359">
        <ele>796</ele>
        <time>2022-09-06T23:09:32Z</time>
      </trkpt>
      <trkpt lat="44.51391" lon="5.43321">
        <ele>794</ele>
        <time>2022-09-06T23:09:57Z</time>
      </trkpt>
      <trkpt lat="44.51409" lon="5.43313">
        <ele>795</ele>
        <time>2022-09-06T23:10:01Z</time>
      </trkpt>
      <trkpt lat="44.51446" lon="5.43286">
        <ele>800</ele>
        <time>2022-09-06T23:10:08Z</time>
      </trkpt>
      <trkpt lat="44.51519" lon="5.43246">
        <ele>801</ele>
        <time>2022-09-06T23:10:22Z</time>
      </trkpt>
      <trkpt lat="44.51549" lon="5.43225">
        <ele>801</ele>
        <time>2022-09-06T23:10:28Z</time>
      </trkpt>
      <trkpt lat="44.51571" lon="5.43205">
        <ele>801</ele>
        <time>2022-09-06T23:10:33Z</time>
      </trkpt>
      <trkpt lat="44.51589" lon="5.43195">
        <ele>800</ele>
        <time>2022-09-06T23:10:36Z</time>
      </trkpt>
      <trkpt lat="44.51606" lon="5.43196">
        <ele>801</ele>
        <time>2022-09-06T23:10:39Z</time>
      </trkpt>
      <trkpt lat="44.51621" lon="5.43201">
        <ele>801</ele>
        <time>2022-09-06T23:10:42Z</time>
      </trkpt>
      <trkpt lat="44.5169" lon="5.43232">
        <ele>802</ele>
        <time>2022-09-06T23:10:55Z</time>
      </trkpt>
      <trkpt lat="44.51736" lon="5.43247">
        <ele>802</ele>
        <time>2022-09-06T23:11:03Z</time>
      </trkpt>
      <trkpt lat="44.51792" lon="5.43252">
        <ele>804</ele>
        <time>2022-09-06T23:11:13Z</time>
      </trkpt>
      <trkpt lat="44.51819" lon="5.43259">
        <ele>805</ele>
        <time>2022-09-06T23:11:18Z</time>
      </trkpt>
      <trkpt lat="44.51868" lon="5.43278">
        <ele>805</ele>
        <time>2022-09-06T23:11:27Z</time>
      </trkpt>
      <trkpt lat="44.51895" lon="5.43279">
        <ele>805</ele>
        <time>2022-09-06T23:11:32Z</time>
      </trkpt>
      <trkpt lat="44.51913" lon="5.43269">
        <ele>807</ele>
        <time>2022-09-06T23:11:35Z</time>
      </trkpt>
      <trkpt lat="44.51951" lon="5.43239">
        <ele>810</ele>
        <time>2022-09-06T23:11:43Z</time>
      </trkpt>
      <trkpt lat="44.52002" lon="5.43208">
        <ele>814</ele>
        <time>2022-09-06T23:11:53Z</time>
      </trkpt>
      <trkpt lat="44.52226" lon="5.43089">
        <ele>815</ele>
        <time>2022-09-06T23:12:36Z</time>
      </trkpt>
      <trkpt lat="44.52296" lon="5.43059">
        <ele>821</ele>
        <time>2022-09-06T23:12:49Z</time>
      </trkpt>
      <trkpt lat="44.52335" lon="5.43047">
        <ele>823</ele>
        <time>2022-09-06T23:12:56Z</time>
      </trkpt>
      <trkpt lat="44.52363" lon="5.43045">
        <ele>825</ele>
        <time>2022-09-06T23:13:01Z</time>
      </trkpt>
      <trkpt lat="44.52409" lon="5.43057">
        <ele>823</ele>
        <time>2022-09-06T23:13:09Z</time>
      </trkpt>
      <trkpt lat="44.52427" lon="5.43065">
        <ele>823</ele>
        <time>2022-09-06T23:13:12Z</time>
      </trkpt>
      <trkpt lat="44.5247" lon="5.43092">
        <ele>821</ele>
        <time>2022-09-06T23:13:21Z</time>
      </trkpt>
      <trkpt lat="44.52508" lon="5.43112">
        <ele>823</ele>
        <time>2022-09-06T23:13:28Z</time>
      </trkpt>
      <trkpt lat="44.5261" lon="5.43155">
        <ele>825</ele>
        <time>2022-09-06T23:13:47Z</time>
      </trkpt>
      <trkpt lat="44.5268" lon="5.43176">
        <ele>829</ele>
        <time>2022-09-06T23:14:00Z</time>
      </trkpt>
      <trkpt lat="44.52705" lon="5.43186">
        <ele>831</ele>
        <time>2022-09-06T23:14:04Z</time>
      </trkpt>
      <trkpt lat="44.52747" lon="5.4321">
        <ele>830</ele>
        <time>2022-09-06T23:14:12Z</time>
      </trkpt>
      <trkpt lat="44.52777" lon="5.43219">
        <ele>830</ele>
        <time>2022-09-06T23:14:18Z</time>
      </trkpt>
      <trkpt lat="44.52852" lon="5.43229">
        <ele>832</ele>
        <time>2022-09-06T23:14:31Z</time>
      </trkpt>
      <trkpt lat="44.52904" lon="5.43226">
        <ele>832</ele>
        <time>2022-09-06T23:14:41Z</time>
      </trkpt>
      <trkpt lat="44.5299" lon="5.43212">
        <ele>834</ele>
        <time>2022-09-06T23:14:56Z</time>
      </trkpt>
      <trkpt lat="44.53047" lon="5.43194">
        <ele>837</ele>
        <time>2022-09-06T23:15:06Z</time>
      </trkpt>
      <trkpt lat="44.53136" lon="5.43177">
        <ele>836</ele>
        <time>2022-09-06T23:15:22Z</time>
      </trkpt>
      <trkpt lat="44.53248" lon="5.43125">
        <ele>835</ele>
        <time>2022-09-06T23:15:43Z</time>
      </trkpt>
      <trkpt lat="44.53268" lon="5.43114">
        <ele>836</ele>
        <time>2022-09-06T23:15:47Z</time>
      </trkpt>
      <trkpt lat="44.53309" lon="5.43085">
        <ele>836</ele>
        <time>2022-09-06T23:15:55Z</time>
      </trkpt>
      <trkpt lat="44.53406" lon="5.42969">
        <ele>847</ele>
        <time>2022-09-06T23:16:18Z</time>
      </trkpt>
      <trkpt lat="44.53453" lon="5.42925">
        <ele>851</ele>
        <time>2022-09-06T23:16:28Z</time>
      </trkpt>
      <trkpt lat="44.53477" lon="5.42906">
        <ele>851</ele>
        <time>2022-09-06T23:16:33Z</time>
      </trkpt>
      <trkpt lat="44.53509" lon="5.42889">
        <ele>852</ele>
        <time>2022-09-06T23:16:39Z</time>
      </trkpt>
      <trkpt lat="44.53545" lon="5.42885">
        <ele>849</ele>
        <time>2022-09-06T23:16:46Z</time>
      </trkpt>
      <trkpt lat="44.53569" lon="5.42877">
        <ele>849</ele>
        <time>2022-09-06T23:16:50Z</time>
      </trkpt>
      <trkpt lat="44.53651" lon="5.42837">
        <ele>852</ele>
        <time>2022-09-06T23:17:05Z</time>
      </trkpt>
      <trkpt lat="44.53717" lon="5.42811">
        <ele>854</ele>
        <time>2022-09-06T23:17:18Z</time>
      </trkpt>
      <trkpt lat="44.5375" lon="5.42779">
        <ele>854</ele>
        <time>2022-09-06T23:17:25Z</time>
      </trkpt>
      <trkpt lat="44.53756" lon="5.42777">
        <ele>854</ele>
        <time>2022-09-06T23:17:26Z</time>
      </trkpt>
      <trkpt lat="44.53763" lon="5.42779">
        <ele>855</ele>
        <time>2022-09-06T23:17:27Z</time>
      </trkpt>
      <trkpt lat="44.53779" lon="5.4279">
        <ele>854</ele>
        <time>2022-09-06T23:17:30Z</time>
      </trkpt>
      <trkpt lat="44.53794" lon="5.4279">
        <ele>855</ele>
        <time>2022-09-06T23:17:33Z</time>
      </trkpt>
      <trkpt lat="44.53801" lon="5.4278">
        <ele>857</ele>
        <time>2022-09-06T23:17:35Z</time>
      </trkpt>
      <trkpt lat="44.53826" lon="5.42696">
        <ele>861</ele>
        <time>2022-09-06T23:17:46Z</time>
      </trkpt>
      <trkpt lat="44.5384" lon="5.4266">
        <ele>861</ele>
        <time>2022-09-06T23:17:51Z</time>
      </trkpt>
      <trkpt lat="44.53852" lon="5.42641">
        <ele>862</ele>
        <time>2022-09-06T23:17:55Z</time>
      </trkpt>
      <trkpt lat="44.53865" lon="5.42629">
        <ele>863</ele>
        <time>2022-09-06T23:17:57Z</time>
      </trkpt>
      <trkpt lat="44.53892" lon="5.42617">
        <ele>864</ele>
        <time>2022-09-06T23:18:02Z</time>
      </trkpt>
      <trkpt lat="44.53909" lon="5.42613">
        <ele>865</ele>
        <time>2022-09-06T23:18:06Z</time>
      </trkpt>
      <trkpt lat="44.53927" lon="5.4261">
        <ele>866</ele>
        <time>2022-09-06T23:18:09Z</time>
      </trkpt>
      <trkpt lat="44.53962" lon="5.42611">
        <ele>869</ele>
        <time>2022-09-06T23:18:15Z</time>
      </trkpt>
      <trkpt lat="44.53986" lon="5.42609">
        <ele>870</ele>
        <time>2022-09-06T23:18:19Z</time>
      </trkpt>
      <trkpt lat="44.54064" lon="5.42593">
        <ele>875</ele>
        <time>2022-09-06T23:18:33Z</time>
      </trkpt>
      <trkpt lat="44.54087" lon="5.42583">
        <ele>877</ele>
        <time>2022-09-06T23:18:38Z</time>
      </trkpt>
      <trkpt lat="44.54124" lon="5.4256">
        <ele>879</ele>
        <time>2022-09-06T23:18:45Z</time>
      </trkpt>
      <trkpt lat="44.54197" lon="5.42507">
        <ele>880</ele>
        <time>2022-09-06T23:18:59Z</time>
      </trkpt>
      <trkpt lat="44.54254" lon="5.4247">
        <ele>886</ele>
        <time>2022-09-06T23:19:11Z</time>
      </trkpt>
      <trkpt lat="44.5429" lon="5.42436">
        <ele>887</ele>
        <time>2022-09-06T23:19:18Z</time>
      </trkpt>
      <trkpt lat="44.5432" lon="5.42397">
        <ele>889</ele>
        <time>2022-09-06T23:19:26Z</time>
      </trkpt>
      <trkpt lat="44.54333" lon="5.42352">
        <ele>889</ele>
        <time>2022-09-06T23:19:32Z</time>
      </trkpt>
      <trkpt lat="44.5436" lon="5.42305">
        <ele>899</ele>
        <time>2022-09-06T23:19:39Z</time>
      </trkpt>
      <trkpt lat="44.54366" lon="5.42289">
        <ele>901</ele>
        <time>2022-09-06T23:19:42Z</time>
      </trkpt>
      <trkpt lat="44.54385" lon="5.4219">
        <ele>901</ele>
        <time>2022-09-06T23:19:55Z</time>
      </trkpt>
      <trkpt lat="44.54394" lon="5.42171">
        <ele>900</ele>
        <time>2022-09-06T23:19:58Z</time>
      </trkpt>
      <trkpt lat="44.54411" lon="5.42147">
        <ele>902</ele>
        <time>2022-09-06T23:20:02Z</time>
      </trkpt>
      <trkpt lat="44.54418" lon="5.42128">
        <ele>903</ele>
        <time>2022-09-06T23:20:05Z</time>
      </trkpt>
      <trkpt lat="44.54421" lon="5.42098">
        <ele>902</ele>
        <time>2022-09-06T23:20:08Z</time>
      </trkpt>
      <trkpt lat="44.54415" lon="5.42021">
        <ele>902</ele>
        <time>2022-09-06T23:20:18Z</time>
      </trkpt>
      <trkpt lat="44.54417" lon="5.41999">
        <ele>903</ele>
        <time>2022-09-06T23:20:21Z</time>
      </trkpt>
      <trkpt lat="44.54424" lon="5.41977">
        <ele>905</ele>
        <time>2022-09-06T23:20:24Z</time>
      </trkpt>
      <trkpt lat="44.54439" lon="5.41949">
        <ele>911</ele>
        <time>2022-09-06T23:20:29Z</time>
      </trkpt>
      <trkpt lat="44.54448" lon="5.41924">
        <ele>914</ele>
        <time>2022-09-06T23:20:32Z</time>
      </trkpt>
      <trkpt lat="44.54456" lon="5.41835">
        <ele>913</ele>
        <time>2022-09-06T23:20:43Z</time>
      </trkpt>
      <trkpt lat="44.54461" lon="5.41807">
        <ele>913</ele>
        <time>2022-09-06T23:20:47Z</time>
      </trkpt>
      <trkpt lat="44.54469" lon="5.41776">
        <ele>912</ele>
        <time>2022-09-06T23:20:51Z</time>
      </trkpt>
      <trkpt lat="44.54479" lon="5.41762">
        <ele>912</ele>
        <time>2022-09-06T23:20:54Z</time>
      </trkpt>
      <trkpt lat="44.54543" lon="5.4173">
        <ele>920</ele>
        <time>2022-09-06T23:21:06Z</time>
      </trkpt>
      <trkpt lat="44.54647" lon="5.41655">
        <ele>927</ele>
        <time>2022-09-06T23:21:27Z</time>
      </trkpt>
      <trkpt lat="44.54712" lon="5.41613">
        <ele>932</ele>
        <time>2022-09-06T23:21:39Z</time>
      </trkpt>
      <trkpt lat="44.54754" lon="5.41579">
        <ele>933</ele>
        <time>2022-09-06T23:21:48Z</time>
      </trkpt>
      <trkpt lat="44.54772" lon="5.41569">
        <ele>933</ele>
        <time>2022-09-06T23:21:52Z</time>
      </trkpt>
      <trkpt lat="44.54794" lon="5.41566">
        <ele>935</ele>
        <time>2022-09-06T23:21:55Z</time>
      </trkpt>
      <trkpt lat="44.54904" lon="5.41568">
        <ele>944</ele>
        <time>2022-09-06T23:22:15Z</time>
      </trkpt>
      <trkpt lat="44.55002" lon="5.41565">
        <ele>951</ele>
        <time>2022-09-06T23:22:32Z</time>
      </trkpt>
      <trkpt lat="44.55036" lon="5.41558">
        <ele>955</ele>
        <time>2022-09-06T23:22:39Z</time>
      </trkpt>
      <trkpt lat="44.55068" lon="5.41545">
        <ele>957</ele>
        <time>2022-09-06T23:22:45Z</time>
      </trkpt>
      <trkpt lat="44.5509" lon="5.41526">
        <ele>958</ele>
        <time>2022-09-06T23:22:49Z</time>
      </trkpt>
      <trkpt lat="44.55097" lon="5.41515">
        <ele>958</ele>
        <time>2022-09-06T23:22:51Z</time>
      </trkpt>
      <trkpt lat="44.55108" lon="5.41488">
        <ele>959</ele>
        <time>2022-09-06T23:22:55Z</time>
      </trkpt>
      <trkpt lat="44.55134" lon="5.41406">
        <ele>963</ele>
        <time>2022-09-06T23:23:06Z</time>
      </trkpt>
      <trkpt lat="44.55152" lon="5.4137">
        <ele>965</ele>
        <time>2022-09-06T23:23:12Z</time>
      </trkpt>
      <trkpt lat="44.55172" lon="5.41346">
        <ele>965</ele>
        <time>2022-09-06T23:23:17Z</time>
      </trkpt>
      <trkpt lat="44.55187" lon="5.41333">
        <ele>965</ele>
        <time>2022-09-06T23:23:20Z</time>
      </trkpt>
      <trkpt lat="44.55371" lon="5.41231">
        <ele>959</ele>
        <time>2022-09-06T23:23:55Z</time>
      </trkpt>
      <trkpt lat="44.55401" lon="5.41217">
        <ele>959</ele>
        <time>2022-09-06T23:24:01Z</time>
      </trkpt>
      <trkpt lat="44.55413" lon="5.41214">
        <ele>959</ele>
        <time>2022-09-06T23:24:03Z</time>
      </trkpt>
      <trkpt lat="44.55438" lon="5.41216">
        <ele>958</ele>
        <time>2022-09-06T23:24:07Z</time>
      </trkpt>
      <trkpt lat="44.55452" lon="5.41224">
        <ele>958</ele>
        <time>2022-09-06T23:24:10Z</time>
      </trkpt>
      <trkpt lat="44.55498" lon="5.4126">
        <ele>956</ele>
        <time>2022-09-06T23:24:19Z</time>
      </trkpt>
      <trkpt lat="44.55526" lon="5.41264">
        <ele>957</ele>
        <time>2022-09-06T23:24:24Z</time>
      </trkpt>
      <trkpt lat="44.55539" lon="5.4126">
        <ele>957</ele>
        <time>2022-09-06T23:24:27Z</time>
      </trkpt>
      <trkpt lat="44.55564" lon="5.41245">
        <ele>956</ele>
        <time>2022-09-06T23:24:31Z</time>
      </trkpt>
      <trkpt lat="44.5558" lon="5.41226">
        <ele>955</ele>
        <time>2022-09-06T23:24:35Z</time>
      </trkpt>
      <trkpt lat="44.55608" lon="5.41174">
        <ele>952</ele>
        <time>2022-09-06T23:24:43Z</time>
      </trkpt>
      <trkpt lat="44.5562" lon="5.41157">
        <ele>951</ele>
        <time>2022-09-06T23:24:46Z</time>
      </trkpt>
      <trkpt lat="44.55689" lon="5.41108">
        <ele>945</ele>
        <time>2022-09-06T23:25:00Z</time>
      </trkpt>
      <trkpt lat="44.55704" lon="5.411">
        <ele>943</ele>
        <time>2022-09-06T23:25:03Z</time>
      </trkpt>
      <trkpt lat="44.55716" lon="5.41098">
        <ele>942</ele>
        <time>2022-09-06T23:25:05Z</time>
      </trkpt>
      <trkpt lat="44.55733" lon="5.41098">
        <ele>941</ele>
        <time>2022-09-06T23:25:08Z</time>
      </trkpt>
      <trkpt lat="44.55776" lon="5.41105">
        <ele>944</ele>
        <time>2022-09-06T23:25:16Z</time>
      </trkpt>
      <trkpt lat="44.55787" lon="5.41103">
        <ele>945</ele>
        <time>2022-09-06T23:25:18Z</time>
      </trkpt>
      <trkpt lat="44.55796" lon="5.41095">
        <ele>945</ele>
        <time>2022-09-06T23:25:20Z</time>
      </trkpt>
      <trkpt lat="44.55803" lon="5.41083">
        <ele>945</ele>
        <time>2022-09-06T23:25:22Z</time>
      </trkpt>
      <trkpt lat="44.55821" lon="5.40994">
        <ele>938</ele>
        <time>2022-09-06T23:25:33Z</time>
      </trkpt>
      <trkpt lat="44.55825" lon="5.40966">
        <ele>935</ele>
        <time>2022-09-06T23:25:37Z</time>
      </trkpt>
      <trkpt lat="44.55826" lon="5.40936">
        <ele>931</ele>
        <time>2022-09-06T23:25:41Z</time>
      </trkpt>
      <trkpt lat="44.55821" lon="5.40875">
        <ele>922</ele>
        <time>2022-09-06T23:25:49Z</time>
      </trkpt>
      <trkpt lat="44.55828" lon="5.40846">
        <ele>919</ele>
        <time>2022-09-06T23:25:53Z</time>
      </trkpt>
      <trkpt lat="44.55902" lon="5.40763">
        <ele>913</ele>
        <time>2022-09-06T23:26:09Z</time>
      </trkpt>
      <trkpt lat="44.55928" lon="5.40752">
        <ele>911</ele>
        <time>2022-09-06T23:26:14Z</time>
      </trkpt>
      <trkpt lat="44.55944" lon="5.40751">
        <ele>911</ele>
        <time>2022-09-06T23:26:17Z</time>
      </trkpt>
      <trkpt lat="44.5599" lon="5.40757">
        <ele>911</ele>
        <time>2022-09-06T23:26:25Z</time>
      </trkpt>
      <trkpt lat="44.56111" lon="5.40765">
        <ele>904</ele>
        <time>2022-09-06T23:26:47Z</time>
      </trkpt>
      <trkpt lat="44.56216" lon="5.4079">
        <ele>902</ele>
        <time>2022-09-06T23:27:06Z</time>
      </trkpt>
      <trkpt lat="44.56258" lon="5.40793">
        <ele>900</ele>
        <time>2022-09-06T23:27:13Z</time>
      </trkpt>
      <trkpt lat="44.56274" lon="5.40797">
        <ele>900</ele>
        <time>2022-09-06T23:27:16Z</time>
      </trkpt>
      <trkpt lat="44.5638" lon="5.40845">
        <ele>898</ele>
        <time>2022-09-06T23:27:36Z</time>
      </trkpt>
      <trkpt lat="44.56391" lon="5.40846">
        <ele>897</ele>
        <time>2022-09-06T23:27:38Z</time>
      </trkpt>
      <trkpt lat="44.564" lon="5.40843">
        <ele>894</ele>
        <time>2022-09-06T23:27:40Z</time>
      </trkpt>
      <trkpt lat="44.56415" lon="5.4082">
        <ele>893</ele>
        <time>2022-09-06T23:27:44Z</time>
      </trkpt>
      <trkpt lat="44.56469" lon="5.40792">
        <ele>899</ele>
        <time>2022-09-06T23:27:54Z</time>
      </trkpt>
      <trkpt lat="44.56491" lon="5.40789">
        <ele>900</ele>
        <time>2022-09-06T23:27:58Z</time>
      </trkpt>
      <trkpt lat="44.56505" lon="5.40789">
        <ele>900</ele>
        <time>2022-09-06T23:28:00Z</time>
      </trkpt>
      <trkpt lat="44.56564" lon="5.40811">
        <ele>895</ele>
        <time>2022-09-06T23:28:11Z</time>
      </trkpt>
      <trkpt lat="44.56583" lon="5.40809">
        <ele>896</ele>
        <time>2022-09-06T23:28:15Z</time>
      </trkpt>
      <trkpt lat="44.56625" lon="5.40799">
        <ele>898</ele>
        <time>2022-09-06T23:28:22Z</time>
      </trkpt>
      <trkpt lat="44.56659" lon="5.40795">
        <ele>899</ele>
        <time>2022-09-06T23:28:28Z</time>
      </trkpt>
      <trkpt lat="44.56702" lon="5.40785">
        <ele>900</ele>
        <time>2022-09-06T23:28:36Z</time>
      </trkpt>
      <trkpt lat="44.56755" lon="5.40782">
        <ele>899</ele>
        <time>2022-09-06T23:28:45Z</time>
      </trkpt>
      <trkpt lat="44.56802" lon="5.40789">
        <ele>898</ele>
        <time>2022-09-06T23:28:54Z</time>
      </trkpt>
      <trkpt lat="44.56848" lon="5.4081">
        <ele>889</ele>
        <time>2022-09-06T23:29:02Z</time>
      </trkpt>
      <trkpt lat="44.56863" lon="5.40812">
        <ele>886</ele>
        <time>2022-09-06T23:29:05Z</time>
      </trkpt>
      <trkpt lat="44.56875" lon="5.40809">
        <ele>885</ele>
        <time>2022-09-06T23:29:07Z</time>
      </trkpt>
      <trkpt lat="44.56886" lon="5.40799">
        <ele>886</ele>
        <time>2022-09-06T23:29:10Z</time>
      </trkpt>
      <trkpt lat="44.56901" lon="5.40778">
        <ele>888</ele>
        <time>2022-09-06T23:29:13Z</time>
      </trkpt>
      <trkpt lat="44.56921" lon="5.4073">
        <ele>898</ele>
        <time>2022-09-06T23:29:20Z</time>
      </trkpt>
      <trkpt lat="44.56936" lon="5.40719">
        <ele>900</ele>
        <time>2022-09-06T23:29:23Z</time>
      </trkpt>
      <trkpt lat="44.56973" lon="5.40711">
        <ele>896</ele>
        <time>2022-09-06T23:29:30Z</time>
      </trkpt>
      <trkpt lat="44.56988" lon="5.40714">
        <ele>892</ele>
        <time>2022-09-06T23:29:33Z</time>
      </trkpt>
      <trkpt lat="44.57" lon="5.4072">
        <ele>889</ele>
        <time>2022-09-06T23:29:35Z</time>
      </trkpt>
      <trkpt lat="44.57017" lon="5.40736">
        <ele>883</ele>
        <time>2022-09-06T23:29:39Z</time>
      </trkpt>
      <trkpt lat="44.57064" lon="5.40749">
        <ele>879</ele>
        <time>2022-09-06T23:29:47Z</time>
      </trkpt>
      <trkpt lat="44.5708" lon="5.40749">
        <ele>879</ele>
        <time>2022-09-06T23:29:50Z</time>
      </trkpt>
      <trkpt lat="44.57086" lon="5.40742">
        <ele>879</ele>
        <time>2022-09-06T23:29:51Z</time>
      </trkpt>
      <trkpt lat="44.57088" lon="5.40732">
        <ele>880</ele>
        <time>2022-09-06T23:29:53Z</time>
      </trkpt>
      <trkpt lat="44.57072" lon="5.40681">
        <ele>885</ele>
        <time>2022-09-06T23:30:00Z</time>
      </trkpt>
      <trkpt lat="44.57038" lon="5.40634">
        <ele>894</ele>
        <time>2022-09-06T23:30:08Z</time>
      </trkpt>
      <trkpt lat="44.57013" lon="5.40558">
        <ele>898</ele>
        <time>2022-09-06T23:30:19Z</time>
      </trkpt>
      <trkpt lat="44.56997" lon="5.40529">
        <ele>898</ele>
        <time>2022-09-06T23:30:24Z</time>
      </trkpt>
      <trkpt lat="44.56955" lon="5.40476">
        <ele>900</ele>
        <time>2022-09-06T23:30:34Z</time>
      </trkpt>
      <trkpt lat="44.56911" lon="5.40471">
        <ele>904</ele>
        <time>2022-09-06T23:30:41Z</time>
      </trkpt>
      <trkpt lat="44.56902" lon="5.40467">
        <ele>904</ele>
        <time>2022-09-06T23:30:43Z</time>
      </trkpt>
      <trkpt lat="44.56898" lon="5.40461">
        <ele>903</ele>
        <time>2022-09-06T23:30:44Z</time>
      </trkpt>
      <trkpt lat="44.56899" lon="5.40435">
        <ele>898</ele>
        <time>2022-09-06T23:30:47Z</time>
      </trkpt>
      <trkpt lat="44.56905" lon="5.40421">
        <ele>895</ele>
        <time>2022-09-06T23:30:50Z</time>
      </trkpt>
      <trkpt lat="44.56914" lon="5.40408">
        <ele>895</ele>
        <time>2022-09-06T23:30:52Z</time>
      </trkpt>
      <trkpt lat="44.56932" lon="5.40398">
        <ele>897</ele>
        <time>2022-09-06T23:30:55Z</time>
      </trkpt>
      <trkpt lat="44.56968" lon="5.40386">
        <ele>901</ele>
        <time>2022-09-06T23:31:02Z</time>
      </trkpt>
      <trkpt lat="44.57007" lon="5.4038">
        <ele>905</ele>
        <time>2022-09-06T23:31:09Z</time>
      </trkpt>
      <trkpt lat="44.57032" lon="5.40393">
        <ele>905</ele>
        <time>2022-09-06T23:31:14Z</time>
      </trkpt>
      <trkpt lat="44.57085" lon="5.40443">
        <ele>903</ele>
        <time>2022-09-06T23:31:25Z</time>
      </trkpt>
      <trkpt lat="44.57094" lon="5.40445">
        <ele>904</ele>
        <time>2022-09-06T23:31:27Z</time>
      </trkpt>
      <trkpt lat="44.57114" lon="5.40444">
        <ele>906</ele>
        <time>2022-09-06T23:31:30Z</time>
      </trkpt>
      <trkpt lat="44.57188" lon="5.40411">
        <ele>911</ele>
        <time>2022-09-06T23:31:44Z</time>
      </trkpt>
      <trkpt lat="44.57201" lon="5.404">
        <ele>911</ele>
        <time>2022-09-06T23:31:47Z</time>
      </trkpt>
      <trkpt lat="44.57219" lon="5.40372">
        <ele>911</ele>
        <time>2022-09-06T23:31:51Z</time>
      </trkpt>
      <trkpt lat="44.57321" lon="5.40199">
        <ele>911</ele>
        <time>2022-09-06T23:32:20Z</time>
      </trkpt>
      <trkpt lat="44.57376" lon="5.40145">
        <ele>909</ele>
        <time>2022-09-06T23:32:32Z</time>
      </trkpt>
      <trkpt lat="44.57402" lon="5.40138">
        <ele>905</ele>
        <time>2022-09-06T23:32:37Z</time>
      </trkpt>
      <trkpt lat="44.5751" lon="5.40121">
        <ele>901</ele>
        <time>2022-09-06T23:32:56Z</time>
      </trkpt>
      <trkpt lat="44.576" lon="5.40077">
        <ele>901</ele>
        <time>2022-09-06T23:33:13Z</time>
      </trkpt>
      <trkpt lat="44.5765" lon="5.40076">
        <ele>898</ele>
        <time>2022-09-06T23:33:22Z</time>
      </trkpt>
      <trkpt lat="44.57679" lon="5.40063">
        <ele>897</ele>
        <time>2022-09-06T23:33:27Z</time>
      </trkpt>
      <trkpt lat="44.57704" lon="5.40037">
        <ele>897</ele>
        <time>2022-09-06T23:33:33Z</time>
      </trkpt>
      <trkpt lat="44.57716" lon="5.39996">
        <ele>898</ele>
        <time>2022-09-06T23:33:38Z</time>
      </trkpt>
      <trkpt lat="44.57744" lon="5.39954">
        <ele>896</ele>
        <time>2022-09-06T23:33:46Z</time>
      </trkpt>
      <trkpt lat="44.57798" lon="5.39894">
        <ele>892</ele>
        <time>2022-09-06T23:33:58Z</time>
      </trkpt>
      <trkpt lat="44.57854" lon="5.39848">
        <ele>886</ele>
        <time>2022-09-06T23:34:09Z</time>
      </trkpt>
      <trkpt lat="44.57888" lon="5.39839">
        <ele>882</ele>
        <time>2022-09-06T23:34:16Z</time>
      </trkpt>
      <trkpt lat="44.57902" lon="5.39848">
        <ele>880</ele>
        <time>2022-09-06T23:34:18Z</time>
      </trkpt>
      <trkpt lat="44.57958" lon="5.39923">
        <ele>872</ele>
        <time>2022-09-06T23:34:32Z</time>
      </trkpt>
      <trkpt lat="44.57975" lon="5.39929">
        <ele>870</ele>
        <time>2022-09-06T23:34:35Z</time>
      </trkpt>
      <trkpt lat="44.57988" lon="5.39918">
        <ele>869</ele>
        <time>2022-09-06T23:34:38Z</time>
      </trkpt>
      <trkpt lat="44.57989" lon="5.39907">
        <ele>869</ele>
        <time>2022-09-06T23:34:39Z</time>
      </trkpt>
      <trkpt lat="44.57982" lon="5.3985">
        <ele>871</ele>
        <time>2022-09-06T23:34:47Z</time>
      </trkpt>
      <trkpt lat="44.57981" lon="5.3983">
        <ele>871</ele>
        <time>2022-09-06T23:34:49Z</time>
      </trkpt>
      <trkpt lat="44.57984" lon="5.39819">
        <ele>871</ele>
        <time>2022-09-06T23:34:51Z</time>
      </trkpt>
      <trkpt lat="44.57989" lon="5.3981">
        <ele>870</ele>
        <time>2022-09-06T23:34:52Z</time>
      </trkpt>
      <trkpt lat="44.58007" lon="5.39792">
        <ele>868</ele>
        <time>2022-09-06T23:34:56Z</time>
      </trkpt>
      <trkpt lat="44.58019" lon="5.39785">
        <ele>867</ele>
        <time>2022-09-06T23:34:58Z</time>
      </trkpt>
      <trkpt lat="44.58028" lon="5.39785">
        <ele>866</ele>
        <time>2022-09-06T23:35:00Z</time>
      </trkpt>
      <trkpt lat="44.58036" lon="5.39791">
        <ele>865</ele>
        <time>2022-09-06T23:35:02Z</time>
      </trkpt>
      <trkpt lat="44.58043" lon="5.39815">
        <ele>863</ele>
        <time>2022-09-06T23:35:05Z</time>
      </trkpt>
      <trkpt lat="44.58059" lon="5.39916">
        <ele>858</ele>
        <time>2022-09-06T23:35:18Z</time>
      </trkpt>
      <trkpt lat="44.58061" lon="5.39989">
        <ele>858</ele>
        <time>2022-09-06T23:35:27Z</time>
      </trkpt>
      <trkpt lat="44.58064" lon="5.4">
        <ele>858</ele>
        <time>2022-09-06T23:35:29Z</time>
      </trkpt>
      <trkpt lat="44.581" lon="5.40032">
        <ele>855</ele>
        <time>2022-09-06T23:35:36Z</time>
      </trkpt>
      <trkpt lat="44.58154" lon="5.4009">
        <ele>851</ele>
        <time>2022-09-06T23:35:48Z</time>
      </trkpt>
      <trkpt lat="44.58203" lon="5.40152">
        <ele>846</ele>
        <time>2022-09-06T23:36:00Z</time>
      </trkpt>
      <trkpt lat="44.5821" lon="5.40146">
        <ele>843</ele>
        <time>2022-09-06T23:36:02Z</time>
      </trkpt>
      <trkpt lat="44.5821" lon="5.40139">
        <ele>842</ele>
        <time>2022-09-06T23:36:02Z</time>
      </trkpt>
      <trkpt lat="44.58207" lon="5.40129">
        <ele>842</ele>
        <time>2022-09-06T23:36:04Z</time>
      </trkpt>
      <trkpt lat="44.58191" lon="5.40106">
        <ele>844</ele>
        <time>2022-09-06T23:36:08Z</time>
      </trkpt>
      <trkpt lat="44.58181" lon="5.40083">
        <ele>844</ele>
        <time>2022-09-06T23:36:11Z</time>
      </trkpt>
      <trkpt lat="44.58179" lon="5.40066">
        <ele>843</ele>
        <time>2022-09-06T23:36:14Z</time>
      </trkpt>
      <trkpt lat="44.58181" lon="5.40057">
        <ele>842</ele>
        <time>2022-09-06T23:36:15Z</time>
      </trkpt>
      <trkpt lat="44.58188" lon="5.40053">
        <ele>841</ele>
        <time>2022-09-06T23:36:16Z</time>
      </trkpt>
      <trkpt lat="44.58194" lon="5.40054">
        <ele>840</ele>
        <time>2022-09-06T23:36:17Z</time>
      </trkpt>
      <trkpt lat="44.58254" lon="5.40162">
        <ele>831</ele>
        <time>2022-09-06T23:36:34Z</time>
      </trkpt>
      <trkpt lat="44.58308" lon="5.40233">
        <ele>825</ele>
        <time>2022-09-06T23:36:48Z</time>
      </trkpt>
      <trkpt lat="44.58374" lon="5.40341">
        <ele>818</ele>
        <time>2022-09-06T23:37:06Z</time>
      </trkpt>
      <trkpt lat="44.58403" lon="5.40453">
        <ele>808</ele>
        <time>2022-09-06T23:37:21Z</time>
      </trkpt>
      <trkpt lat="44.58402" lon="5.40466">
        <ele>807</ele>
        <time>2022-09-06T23:37:22Z</time>
      </trkpt>
      <trkpt lat="44.58372" lon="5.40521">
        <ele>809</ele>
        <time>2022-09-06T23:37:31Z</time>
      </trkpt>
      <trkpt lat="44.58374" lon="5.4053">
        <ele>808</ele>
        <time>2022-09-06T23:37:32Z</time>
      </trkpt>
      <trkpt lat="44.58381" lon="5.40531">
        <ele>807</ele>
        <time>2022-09-06T23:37:34Z</time>
      </trkpt>
      <trkpt lat="44.58388" lon="5.40525">
        <ele>806</ele>
        <time>2022-09-06T23:37:35Z</time>
      </trkpt>
      <trkpt lat="44.58424" lon="5.40466">
        <ele>802</ele>
        <time>2022-09-06T23:37:45Z</time>
      </trkpt>
      <trkpt lat="44.58454" lon="5.40436">
        <ele>797</ele>
        <time>2022-09-06T23:37:52Z</time>
      </trkpt>
      <trkpt lat="44.58464" lon="5.40433">
        <ele>795</ele>
        <time>2022-09-06T23:37:53Z</time>
      </trkpt>
      <trkpt lat="44.58472" lon="5.40434">
        <ele>794</ele>
        <time>2022-09-06T23:37:55Z</time>
      </trkpt>
      <trkpt lat="44.58479" lon="5.40441">
        <ele>792</ele>
        <time>2022-09-06T23:37:56Z</time>
      </trkpt>
      <trkpt lat="44.58481" lon="5.40451">
        <ele>791</ele>
        <time>2022-09-06T23:37:58Z</time>
      </trkpt>
      <trkpt lat="44.58479" lon="5.40468">
        <ele>790</ele>
        <time>2022-09-06T23:38:00Z</time>
      </trkpt>
      <trkpt lat="44.58468" lon="5.40493">
        <ele>791</ele>
        <time>2022-09-06T23:38:04Z</time>
      </trkpt>
      <trkpt lat="44.58443" lon="5.40536">
        <ele>793</ele>
        <time>2022-09-06T23:38:11Z</time>
      </trkpt>
      <trkpt lat="44.58442" lon="5.40545">
        <ele>793</ele>
        <time>2022-09-06T23:38:12Z</time>
      </trkpt>
      <trkpt lat="44.58446" lon="5.40552">
        <ele>791</ele>
        <time>2022-09-06T23:38:13Z</time>
      </trkpt>
      <trkpt lat="44.58456" lon="5.40554">
        <ele>789</ele>
        <time>2022-09-06T23:38:15Z</time>
      </trkpt>
      <trkpt lat="44.58498" lon="5.40522">
        <ele>783</ele>
        <time>2022-09-06T23:38:23Z</time>
      </trkpt>
      <trkpt lat="44.58507" lon="5.40521">
        <ele>783</ele>
        <time>2022-09-06T23:38:25Z</time>
      </trkpt>
      <trkpt lat="44.5851" lon="5.40525">
        <ele>783</ele>
        <time>2022-09-06T23:38:26Z</time>
      </trkpt>
      <trkpt lat="44.58513" lon="5.40536">
        <ele>782</ele>
        <time>2022-09-06T23:38:27Z</time>
      </trkpt>
      <trkpt lat="44.58495" lon="5.40652">
        <ele>774</ele>
        <time>2022-09-06T23:38:42Z</time>
      </trkpt>
      <trkpt lat="44.58497" lon="5.4066">
        <ele>772</ele>
        <time>2022-09-06T23:38:43Z</time>
      </trkpt>
      <trkpt lat="44.58503" lon="5.40662">
        <ele>771</ele>
        <time>2022-09-06T23:38:44Z</time>
      </trkpt>
      <trkpt lat="44.5851" lon="5.40661">
        <ele>771</ele>
        <time>2022-09-06T23:38:45Z</time>
      </trkpt>
      <trkpt lat="44.58533" lon="5.40599">
        <ele>776</ele>
        <time>2022-09-06T23:38:54Z</time>
      </trkpt>
      <trkpt lat="44.58542" lon="5.40592">
        <ele>777</ele>
        <time>2022-09-06T23:38:56Z</time>
      </trkpt>
      <trkpt lat="44.5855" lon="5.40593">
        <ele>777</ele>
        <time>2022-09-06T23:38:58Z</time>
      </trkpt>
      <trkpt lat="44.58554" lon="5.406">
        <ele>776</ele>
        <time>2022-09-06T23:38:59Z</time>
      </trkpt>
      <trkpt lat="44.58552" lon="5.40614">
        <ele>775</ele>
        <time>2022-09-06T23:39:01Z</time>
      </trkpt>
      <trkpt lat="44.58524" lon="5.40711">
        <ele>769</ele>
        <time>2022-09-06T23:39:14Z</time>
      </trkpt>
      <trkpt lat="44.58527" lon="5.40723">
        <ele>768</ele>
        <time>2022-09-06T23:39:15Z</time>
      </trkpt>
      <trkpt lat="44.58535" lon="5.40732">
        <ele>767</ele>
        <time>2022-09-06T23:39:17Z</time>
      </trkpt>
      <trkpt lat="44.58545" lon="5.40737">
        <ele>766</ele>
        <time>2022-09-06T23:39:19Z</time>
      </trkpt>
      <trkpt lat="44.58578" lon="5.40738">
        <ele>764</ele>
        <time>2022-09-06T23:39:25Z</time>
      </trkpt>
      <trkpt lat="44.58586" lon="5.40744">
        <ele>764</ele>
        <time>2022-09-06T23:39:27Z</time>
      </trkpt>
      <trkpt lat="44.5869" lon="5.40955">
        <ele>756</ele>
        <time>2022-09-06T23:39:59Z</time>
      </trkpt>
      <trkpt lat="44.58712" lon="5.40984">
        <ele>756</ele>
        <time>2022-09-06T23:40:04Z</time>
      </trkpt>
      <trkpt lat="44.58712" lon="5.40995">
        <ele>753</ele>
        <time>2022-09-06T23:40:06Z</time>
      </trkpt>
      <trkpt lat="44.58706" lon="5.41">
        <ele>750</ele>
        <time>2022-09-06T23:40:07Z</time>
      </trkpt>
      <trkpt lat="44.587" lon="5.40996">
        <ele>749</ele>
        <time>2022-09-06T23:40:08Z</time>
      </trkpt>
      <trkpt lat="44.58676" lon="5.40964">
        <ele>749</ele>
        <time>2022-09-06T23:40:14Z</time>
      </trkpt>
      <trkpt lat="44.58665" lon="5.4096">
        <ele>746</ele>
        <time>2022-09-06T23:40:16Z</time>
      </trkpt>
      <trkpt lat="44.58658" lon="5.40964">
        <ele>745</ele>
        <time>2022-09-06T23:40:18Z</time>
      </trkpt>
      <trkpt lat="44.58656" lon="5.40972">
        <ele>743</ele>
        <time>2022-09-06T23:40:19Z</time>
      </trkpt>
      <trkpt lat="44.58665" lon="5.4099">
        <ele>740</ele>
        <time>2022-09-06T23:40:21Z</time>
      </trkpt>
      <trkpt lat="44.58702" lon="5.41034">
        <ele>742</ele>
        <time>2022-09-06T23:40:30Z</time>
      </trkpt>
      <trkpt lat="44.58766" lon="5.411">
        <ele>738</ele>
        <time>2022-09-06T23:40:44Z</time>
      </trkpt>
      <trkpt lat="44.58806" lon="5.41135">
        <ele>738</ele>
        <time>2022-09-06T23:40:53Z</time>
      </trkpt>
      <trkpt lat="44.58821" lon="5.41154">
        <ele>735</ele>
        <time>2022-09-06T23:40:56Z</time>
      </trkpt>
      <trkpt lat="44.58838" lon="5.41186">
        <ele>731</ele>
        <time>2022-09-06T23:41:01Z</time>
      </trkpt>
      <trkpt lat="44.58859" lon="5.41216">
        <ele>730</ele>
        <time>2022-09-06T23:41:07Z</time>
      </trkpt>
      <trkpt lat="44.58869" lon="5.41229">
        <ele>729</ele>
        <time>2022-09-06T23:41:09Z</time>
      </trkpt>
      <trkpt lat="44.58888" lon="5.41247">
        <ele>728</ele>
        <time>2022-09-06T23:41:13Z</time>
      </trkpt>
      <trkpt lat="44.58888" lon="5.41256">
        <ele>726</ele>
        <time>2022-09-06T23:41:14Z</time>
      </trkpt>
      <trkpt lat="44.5888" lon="5.4126">
        <ele>723</ele>
        <time>2022-09-06T23:41:16Z</time>
      </trkpt>
      <trkpt lat="44.58856" lon="5.41238">
        <ele>724</ele>
        <time>2022-09-06T23:41:21Z</time>
      </trkpt>
      <trkpt lat="44.58837" lon="5.41233">
        <ele>720</ele>
        <time>2022-09-06T23:41:24Z</time>
      </trkpt>
      <trkpt lat="44.58817" lon="5.41243">
        <ele>716</ele>
        <time>2022-09-06T23:41:28Z</time>
      </trkpt>
      <trkpt lat="44.58801" lon="5.4126">
        <ele>713</ele>
        <time>2022-09-06T23:41:32Z</time>
      </trkpt>
      <trkpt lat="44.58764" lon="5.41267">
        <ele>711</ele>
        <time>2022-09-06T23:41:38Z</time>
      </trkpt>
      <trkpt lat="44.58763" lon="5.41279">
        <ele>710</ele>
        <time>2022-09-06T23:41:40Z</time>
      </trkpt>
      <trkpt lat="44.58769" lon="5.41289">
        <ele>709</ele>
        <time>2022-09-06T23:41:41Z</time>
      </trkpt>
      <trkpt lat="44.58817" lon="5.41329">
        <ele>706</ele>
        <time>2022-09-06T23:41:51Z</time>
      </trkpt>
      <trkpt lat="44.58886" lon="5.41396">
        <ele>700</ele>
        <time>2022-09-06T23:42:06Z</time>
      </trkpt>
      <trkpt lat="44.58898" lon="5.41403">
        <ele>699</ele>
        <time>2022-09-06T23:42:09Z</time>
      </trkpt>
      <trkpt lat="44.58962" lon="5.41421">
        <ele>700</ele>
        <time>2022-09-06T23:42:20Z</time>
      </trkpt>
      <trkpt lat="44.58989" lon="5.41434">
        <ele>699</ele>
        <time>2022-09-06T23:42:25Z</time>
      </trkpt>
      <trkpt lat="44.59073" lon="5.41495">
        <ele>694</ele>
        <time>2022-09-06T23:42:42Z</time>
      </trkpt>
      <trkpt lat="44.59102" lon="5.41512">
        <ele>695</ele>
        <time>2022-09-06T23:42:48Z</time>
      </trkpt>
      <trkpt lat="44.59108" lon="5.41523">
        <ele>695</ele>
        <time>2022-09-06T23:42:49Z</time>
      </trkpt>
      <trkpt lat="44.59108" lon="5.41534">
        <ele>693</ele>
        <time>2022-09-06T23:42:51Z</time>
      </trkpt>
      <trkpt lat="44.59102" lon="5.41545">
        <ele>691</ele>
        <time>2022-09-06T23:42:53Z</time>
      </trkpt>
      <trkpt lat="44.59055" lon="5.41577">
        <ele>683</ele>
        <time>2022-09-06T23:43:02Z</time>
      </trkpt>
      <trkpt lat="44.59041" lon="5.41589">
        <ele>682</ele>
        <time>2022-09-06T23:43:05Z</time>
      </trkpt>
      <trkpt lat="44.59035" lon="5.416">
        <ele>681</ele>
        <time>2022-09-06T23:43:07Z</time>
      </trkpt>
      <trkpt lat="44.59037" lon="5.41613">
        <ele>680</ele>
        <time>2022-09-06T23:43:08Z</time>
      </trkpt>
      <trkpt lat="44.59047" lon="5.41625">
        <ele>680</ele>
        <time>2022-09-06T23:43:11Z</time>
      </trkpt>
      <trkpt lat="44.59227" lon="5.41801">
        <ele>664</ele>
        <time>2022-09-06T23:43:50Z</time>
      </trkpt>
      <trkpt lat="44.59273" lon="5.41828">
        <ele>661</ele>
        <time>2022-09-06T23:43:58Z</time>
      </trkpt>
      <trkpt lat="44.5948" lon="5.41932">
        <ele>648</ele>
        <time>2022-09-06T23:44:38Z</time>
      </trkpt>
      <trkpt lat="44.59524" lon="5.41971">
        <ele>645</ele>
        <time>2022-09-06T23:44:47Z</time>
      </trkpt>
      <trkpt lat="44.59605" lon="5.42062">
        <ele>639</ele>
        <time>2022-09-06T23:45:05Z</time>
      </trkpt>
      <trkpt lat="44.59659" lon="5.4209">
        <ele>635</ele>
        <time>2022-09-06T23:45:16Z</time>
      </trkpt>
      <trkpt lat="44.59737" lon="5.42114">
        <ele>632</ele>
        <time>2022-09-06T23:45:30Z</time>
      </trkpt>
      <trkpt lat="44.59867" lon="5.42131">
        <ele>627</ele>
        <time>2022-09-06T23:45:53Z</time>
      </trkpt>
      <trkpt lat="44.59935" lon="5.42151">
        <ele>624</ele>
        <time>2022-09-06T23:46:05Z</time>
      </trkpt>
      <trkpt lat="44.60018" lon="5.42182">
        <ele>621</ele>
        <time>2022-09-06T23:46:21Z</time>
      </trkpt>
      <trkpt lat="44.60166" lon="5.4222">
        <ele>613</ele>
        <time>2022-09-06T23:46:47Z</time>
      </trkpt>
      <trkpt lat="44.60215" lon="5.42222">
        <ele>611</ele>
        <time>2022-09-06T23:46:56Z</time>
      </trkpt>
      <trkpt lat="44.60263" lon="5.4222">
        <ele>609</ele>
        <time>2022-09-06T23:47:05Z</time>
      </trkpt>
      <trkpt lat="44.60333" lon="5.4221">
        <ele>607</ele>
        <time>2022-09-06T23:47:17Z</time>
      </trkpt>
      <trkpt lat="44.60391" lon="5.42221">
        <ele>608</ele>
        <time>2022-09-06T23:47:28Z</time>
      </trkpt>
      <trkpt lat="44.60455" lon="5.42263">
        <ele>612</ele>
        <time>2022-09-06T23:47:40Z</time>
      </trkpt>
      <trkpt lat="44.60504" lon="5.42315">
        <ele>609</ele>
        <time>2022-09-06T23:47:51Z</time>
      </trkpt>
      <trkpt lat="44.60559" lon="5.4239">
        <ele>606</ele>
        <time>2022-09-06T23:48:05Z</time>
      </trkpt>
      <trkpt lat="44.60589" lon="5.4244">
        <ele>603</ele>
        <time>2022-09-06T23:48:13Z</time>
      </trkpt>
      <trkpt lat="44.60607" lon="5.42483">
        <ele>601</ele>
        <time>2022-09-06T23:48:19Z</time>
      </trkpt>
      <trkpt lat="44.60636" lon="5.42566">
        <ele>599</ele>
        <time>2022-09-06T23:48:31Z</time>
      </trkpt>
      <trkpt lat="44.60684" lon="5.42637">
        <ele>596</ele>
        <time>2022-09-06T23:48:43Z</time>
      </trkpt>
      <trkpt lat="44.60749" lon="5.42711">
        <ele>592</ele>
        <time>2022-09-06T23:48:58Z</time>
      </trkpt>
      <trkpt lat="44.60861" lon="5.42818">
        <ele>587</ele>
        <time>2022-09-06T23:49:22Z</time>
      </trkpt>
      <trkpt lat="44.61071" lon="5.42992">
        <ele>579</ele>
        <time>2022-09-06T23:50:06Z</time>
      </trkpt>
      <trkpt lat="44.61223" lon="5.43106">
        <ele>572</ele>
        <time>2022-09-06T23:50:37Z</time>
      </trkpt>
      <trkpt lat="44.61327" lon="5.43225">
        <ele>569</ele>
        <time>2022-09-06T23:51:00Z</time>
      </trkpt>
      <trkpt lat="44.61426" lon="5.43327">
        <ele>564</ele>
        <time>2022-09-06T23:51:22Z</time>
      </trkpt>
      <trkpt lat="44.61522" lon="5.43403">
        <ele>562</ele>
        <time>2022-09-06T23:51:42Z</time>
      </trkpt>
      <trkpt lat="44.61762" lon="5.43576">
        <ele>560</ele>
        <time>2022-09-06T23:52:30Z</time>
      </trkpt>
      <trkpt lat="44.62268" lon="5.43934">
        <ele>541</ele>
        <time>2022-09-06T23:54:11Z</time>
      </trkpt>
      <trkpt lat="44.62279" lon="5.43945">
        <ele>540</ele>
        <time>2022-09-06T23:54:13Z</time>
      </trkpt>
      <trkpt lat="44.62044" lon="5.44201">
        <ele>542</ele>
        <time>2022-09-06T23:55:06Z</time>
      </trkpt>
      <trkpt lat="44.61914" lon="5.44333">
        <ele>544</ele>
        <time>2022-09-06T23:55:34Z</time>
      </trkpt>
      <trkpt lat="44.61892" lon="5.44374">
        <ele>543</ele>
        <time>2022-09-06T23:55:41Z</time>
      </trkpt>
      <trkpt lat="44.61882" lon="5.4441">
        <ele>542</ele>
        <time>2022-09-06T23:55:46Z</time>
      </trkpt>
      <trkpt lat="44.61876" lon="5.44464">
        <ele>542</ele>
        <time>2022-09-06T23:55:53Z</time>
      </trkpt>
      <trkpt lat="44.61858" lon="5.44528">
        <ele>543</ele>
        <time>2022-09-06T23:56:02Z</time>
      </trkpt>
      <trkpt lat="44.61688" lon="5.44935">
        <ele>556</ele>
        <time>2022-09-06T23:57:01Z</time>
      </trkpt>
      <trkpt lat="44.61674" lon="5.44924">
        <ele>556</ele>
        <time>2022-09-06T23:57:04Z</time>
      </trkpt>
      <trkpt lat="44.61672" lon="5.44918">
        <ele>556</ele>
        <time>2022-09-06T23:57:05Z</time>
      </trkpt>
      <trkpt lat="44.61674" lon="5.44924">
        <ele>556</ele>
        <time>2022-09-06T23:57:06Z</time>
      </trkpt>
      <trkpt lat="44.61688" lon="5.44935">
        <ele>556</ele>
        <time>2022-09-06T23:57:09Z</time>
      </trkpt>
      <trkpt lat="44.61616" lon="5.45105">
        <ele>562</ele>
        <time>2022-09-06T23:57:34Z</time>
      </trkpt>
      <trkpt lat="44.61624" lon="5.45106">
        <ele>562</ele>
        <time>2022-09-06T23:57:35Z</time>
      </trkpt>
      <trkpt lat="44.61669" lon="5.45086">
        <ele>563</ele>
        <time>2022-09-06T23:57:44Z</time>
      </trkpt>
      <trkpt lat="44.61786" lon="5.45021">
        <ele>560</ele>
        <time>2022-09-06T23:58:06Z</time>
      </trkpt>
      <trkpt lat="44.61865" lon="5.44972">
        <ele>557</ele>
        <time>2022-09-06T23:58:21Z</time>
      </trkpt>
      <trkpt lat="44.61947" lon="5.44891">
        <ele>553</ele>
        <time>2022-09-06T23:58:39Z</time>
      </trkpt>
      <trkpt lat="44.62012" lon="5.4482">
        <ele>551</ele>
        <time>2022-09-06T23:58:54Z</time>
      </trkpt>
      <trkpt lat="44.62144" lon="5.44649">
        <ele>548</ele>
        <time>2022-09-06T23:59:26Z</time>
      </trkpt>
      <trkpt lat="44.62213" lon="5.44535">
        <ele>547</ele>
        <time>2022-09-06T23:59:45Z</time>
      </trkpt>
      <trkpt lat="44.62287" lon="5.44449">
        <ele>544</ele>
        <time>2022-09-07T00:00:02Z</time>
      </trkpt>
      <trkpt lat="44.62435" lon="5.44388">
        <ele>547</ele>
        <time>2022-09-07T00:00:29Z</time>
      </trkpt>
      <trkpt lat="44.62468" lon="5.44357">
        <ele>546</ele>
        <time>2022-09-07T00:00:36Z</time>
      </trkpt>
      <trkpt lat="44.62515" lon="5.44297">
        <ele>541</ele>
        <time>2022-09-07T00:00:48Z</time>
      </trkpt>
      <trkpt lat="44.62584" lon="5.44268">
        <ele>541</ele>
        <time>2022-09-07T00:01:00Z</time>
      </trkpt>
      <trkpt lat="44.62671" lon="5.44236">
        <ele>540</ele>
        <time>2022-09-07T00:01:16Z</time>
      </trkpt>
      <trkpt lat="44.62739" lon="5.44205">
        <ele>541</ele>
        <time>2022-09-07T00:01:29Z</time>
      </trkpt>
      <trkpt lat="44.62758" lon="5.44191">
        <ele>541</ele>
        <time>2022-09-07T00:01:33Z</time>
      </trkpt>
      <trkpt lat="44.62796" lon="5.44138">
        <ele>538</ele>
        <time>2022-09-07T00:01:42Z</time>
      </trkpt>
      <trkpt lat="44.6281" lon="5.44124">
        <ele>537</ele>
        <time>2022-09-07T00:01:46Z</time>
      </trkpt>
      <trkpt lat="44.62833" lon="5.44114">
        <ele>538</ele>
        <time>2022-09-07T00:01:50Z</time>
      </trkpt>
      <trkpt lat="44.62873" lon="5.4411">
        <ele>540</ele>
        <time>2022-09-07T00:01:57Z</time>
      </trkpt>
      <trkpt lat="44.62888" lon="5.44104">
        <ele>541</ele>
        <time>2022-09-07T00:02:00Z</time>
      </trkpt>
      <trkpt lat="44.62908" lon="5.44092">
        <ele>541</ele>
        <time>2022-09-07T00:02:04Z</time>
      </trkpt>
      <trkpt lat="44.62965" lon="5.44027">
        <ele>538</ele>
        <time>2022-09-07T00:02:17Z</time>
      </trkpt>
      <trkpt lat="44.62983" lon="5.44013">
        <ele>539</ele>
        <time>2022-09-07T00:02:20Z</time>
      </trkpt>
      <trkpt lat="44.63266" lon="5.43877">
        <ele>532</ele>
        <time>2022-09-07T00:03:14Z</time>
      </trkpt>
      <trkpt lat="44.63358" lon="5.43836">
        <ele>531</ele>
        <time>2022-09-07T00:03:31Z</time>
      </trkpt>
      <trkpt lat="44.6338" lon="5.43832">
        <ele>530</ele>
        <time>2022-09-07T00:03:35Z</time>
      </trkpt>
      <trkpt lat="44.63443" lon="5.43828">
        <ele>531</ele>
        <time>2022-09-07T00:03:46Z</time>
      </trkpt>
      <trkpt lat="44.63919" lon="5.43773">
        <ele>546</ele>
        <time>2022-09-07T00:05:11Z</time>
      </trkpt>
      <trkpt lat="44.63951" lon="5.43763">
        <ele>547</ele>
        <time>2022-09-07T00:05:17Z</time>
      </trkpt>
      <trkpt lat="44.63966" lon="5.43752">
        <ele>547</ele>
        <time>2022-09-07T00:05:20Z</time>
      </trkpt>
      <trkpt lat="44.63981" lon="5.43748">
        <ele>547</ele>
        <time>2022-09-07T00:05:22Z</time>
      </trkpt>
      <trkpt lat="44.64003" lon="5.43759">
        <ele>549</ele>
        <time>2022-09-07T00:05:27Z</time>
      </trkpt>
      <trkpt lat="44.6402" lon="5.43759">
        <ele>549</ele>
        <time>2022-09-07T00:05:30Z</time>
      </trkpt>
      <trkpt lat="44.64051" lon="5.4375">
        <ele>548</ele>
        <time>2022-09-07T00:05:35Z</time>
      </trkpt>
      <trkpt lat="44.64234" lon="5.43642">
        <ele>550</ele>
        <time>2022-09-07T00:06:11Z</time>
      </trkpt>
      <trkpt lat="44.64279" lon="5.43588">
        <ele>552</ele>
        <time>2022-09-07T00:06:21Z</time>
      </trkpt>
      <trkpt lat="44.64334" lon="5.43516">
        <ele>548</ele>
        <time>2022-09-07T00:06:34Z</time>
      </trkpt>
      <trkpt lat="44.64361" lon="5.43511">
        <ele>547</ele>
        <time>2022-09-07T00:06:39Z</time>
      </trkpt>
      <trkpt lat="44.64398" lon="5.43518">
        <ele>549</ele>
        <time>2022-09-07T00:06:46Z</time>
      </trkpt>
      <trkpt lat="44.64431" lon="5.43558">
        <ele>554</ele>
        <time>2022-09-07T00:06:54Z</time>
      </trkpt>
      <trkpt lat="44.64519" lon="5.43633">
        <ele>556</ele>
        <time>2022-09-07T00:07:12Z</time>
      </trkpt>
      <trkpt lat="44.64546" lon="5.43703">
        <ele>561</ele>
        <time>2022-09-07T00:07:22Z</time>
      </trkpt>
      <trkpt lat="44.64564" lon="5.43762">
        <ele>563</ele>
        <time>2022-09-07T00:07:30Z</time>
      </trkpt>
      <trkpt lat="44.64578" lon="5.43837">
        <ele>563</ele>
        <time>2022-09-07T00:07:40Z</time>
      </trkpt>
      <trkpt lat="44.64578" lon="5.43947">
        <ele>570</ele>
        <time>2022-09-07T00:07:54Z</time>
      </trkpt>
      <trkpt lat="44.64584" lon="5.44008">
        <ele>570</ele>
        <time>2022-09-07T00:08:02Z</time>
      </trkpt>
      <trkpt lat="44.64584" lon="5.44099">
        <ele>568</ele>
        <time>2022-09-07T00:08:13Z</time>
      </trkpt>
      <trkpt lat="44.64601" lon="5.4417">
        <ele>567</ele>
        <time>2022-09-07T00:08:23Z</time>
      </trkpt>
      <trkpt lat="44.64703" lon="5.44329">
        <ele>567</ele>
        <time>2022-09-07T00:08:50Z</time>
      </trkpt>
      <trkpt lat="44.64738" lon="5.44353">
        <ele>567</ele>
        <time>2022-09-07T00:08:57Z</time>
      </trkpt>
      <trkpt lat="44.64785" lon="5.44369">
        <ele>564</ele>
        <time>2022-09-07T00:09:05Z</time>
      </trkpt>
      <trkpt lat="44.64815" lon="5.44402">
        <ele>563</ele>
        <time>2022-09-07T00:09:12Z</time>
      </trkpt>
      <trkpt lat="44.64833" lon="5.44444">
        <ele>561</ele>
        <time>2022-09-07T00:09:18Z</time>
      </trkpt>
      <trkpt lat="44.64833" lon="5.44498">
        <ele>564</ele>
        <time>2022-09-07T00:09:25Z</time>
      </trkpt>
      <trkpt lat="44.64815" lon="5.44622">
        <ele>569</ele>
        <time>2022-09-07T00:09:41Z</time>
      </trkpt>
      <trkpt lat="44.64813" lon="5.44674">
        <ele>569</ele>
        <time>2022-09-07T00:09:48Z</time>
      </trkpt>
      <trkpt lat="44.64813" lon="5.44765">
        <ele>568</ele>
        <time>2022-09-07T00:09:59Z</time>
      </trkpt>
      <trkpt lat="44.64821" lon="5.44847">
        <ele>566</ele>
        <time>2022-09-07T00:10:10Z</time>
      </trkpt>
      <trkpt lat="44.64915" lon="5.45164">
        <ele>568</ele>
        <time>2022-09-07T00:10:53Z</time>
      </trkpt>
      <trkpt lat="44.64941" lon="5.45192">
        <ele>570</ele>
        <time>2022-09-07T00:10:59Z</time>
      </trkpt>
      <trkpt lat="44.65038" lon="5.45284">
        <ele>574</ele>
        <time>2022-09-07T00:11:20Z</time>
      </trkpt>
      <trkpt lat="44.65077" lon="5.45314">
        <ele>574</ele>
        <time>2022-09-07T00:11:28Z</time>
      </trkpt>
      <trkpt lat="44.65088" lon="5.45352">
        <ele>575</ele>
        <time>2022-09-07T00:11:33Z</time>
      </trkpt>
      <trkpt lat="44.65088" lon="5.45415">
        <ele>577</ele>
        <time>2022-09-07T00:11:41Z</time>
      </trkpt>
      <trkpt lat="44.6507" lon="5.45633">
        <ele>586</ele>
        <time>2022-09-07T00:12:09Z</time>
      </trkpt>
      <trkpt lat="44.65064" lon="5.45659">
        <ele>587</ele>
        <time>2022-09-07T00:12:12Z</time>
      </trkpt>
      <trkpt lat="44.65056" lon="5.45681">
        <ele>588</ele>
        <time>2022-09-07T00:12:15Z</time>
      </trkpt>
      <trkpt lat="44.65195" lon="5.46053">
        <ele>594</ele>
        <time>2022-09-07T00:13:09Z</time>
      </trkpt>
      <trkpt lat="44.65189" lon="5.46088">
        <ele>595</ele>
        <time>2022-09-07T00:13:13Z</time>
      </trkpt>
      <trkpt lat="44.65167" lon="5.46153">
        <ele>598</ele>
        <time>2022-09-07T00:13:22Z</time>
      </trkpt>
      <trkpt lat="44.65147" lon="5.46238">
        <ele>606</ele>
        <time>2022-09-07T00:13:34Z</time>
      </trkpt>
      <trkpt lat="44.65144" lon="5.46264">
        <ele>607</ele>
        <time>2022-09-07T00:13:37Z</time>
      </trkpt>
      <trkpt lat="44.65148" lon="5.46288">
        <ele>607</ele>
        <time>2022-09-07T00:13:40Z</time>
      </trkpt>
      <trkpt lat="44.65191" lon="5.46398">
        <ele>613</ele>
        <time>2022-09-07T00:13:56Z</time>
      </trkpt>
      <trkpt lat="44.65262" lon="5.46498">
        <ele>616</ele>
        <time>2022-09-07T00:14:14Z</time>
      </trkpt>
      <trkpt lat="44.6528" lon="5.46541">
        <ele>620</ele>
        <time>2022-09-07T00:14:20Z</time>
      </trkpt>
      <trkpt lat="44.65329" lon="5.46756">
        <ele>633</ele>
        <time>2022-09-07T00:14:49Z</time>
      </trkpt>
      <trkpt lat="44.65339" lon="5.46774">
        <ele>635</ele>
        <time>2022-09-07T00:14:52Z</time>
      </trkpt>
      <trkpt lat="44.65364" lon="5.46782">
        <ele>635</ele>
        <time>2022-09-07T00:14:56Z</time>
      </trkpt>
      <trkpt lat="44.65787" lon="5.46761">
        <ele>609</ele>
        <time>2022-09-07T00:16:11Z</time>
      </trkpt>
      <trkpt lat="44.65808" lon="5.46767">
        <ele>608</ele>
        <time>2022-09-07T00:16:15Z</time>
      </trkpt>
      <trkpt lat="44.65903" lon="5.46818">
        <ele>604</ele>
        <time>2022-09-07T00:16:33Z</time>
      </trkpt>
      <trkpt lat="44.65908" lon="5.4678">
        <ele>603</ele>
        <time>2022-09-07T00:16:38Z</time>
      </trkpt>
      <trkpt lat="44.65916" lon="5.46744">
        <ele>602</ele>
        <time>2022-09-07T00:16:43Z</time>
      </trkpt>
      <trkpt lat="44.65943" lon="5.4666">
        <ele>601</ele>
        <time>2022-09-07T00:16:55Z</time>
      </trkpt>
      <trkpt lat="44.65956" lon="5.46636">
        <ele>601</ele>
        <time>2022-09-07T00:16:58Z</time>
      </trkpt>
      <trkpt lat="44.65973" lon="5.46615">
        <ele>600</ele>
        <time>2022-09-07T00:17:02Z</time>
      </trkpt>
      <trkpt lat="44.66018" lon="5.46577">
        <ele>595</ele>
        <time>2022-09-07T00:17:12Z</time>
      </trkpt>
      <trkpt lat="44.66063" lon="5.46549">
        <ele>592</ele>
        <time>2022-09-07T00:17:21Z</time>
      </trkpt>
      <trkpt lat="44.66113" lon="5.46557">
        <ele>589</ele>
        <time>2022-09-07T00:17:30Z</time>
      </trkpt>
      <trkpt lat="44.66143" lon="5.46553">
        <ele>588</ele>
        <time>2022-09-07T00:17:35Z</time>
      </trkpt>
      <trkpt lat="44.66168" lon="5.46541">
        <ele>587</ele>
        <time>2022-09-07T00:17:40Z</time>
      </trkpt>
      <trkpt lat="44.66211" lon="5.46503">
        <ele>585</ele>
        <time>2022-09-07T00:17:49Z</time>
      </trkpt>
      <trkpt lat="44.66308" lon="5.46377">
        <ele>579</ele>
        <time>2022-09-07T00:18:12Z</time>
      </trkpt>
      <trkpt lat="44.66383" lon="5.46322">
        <ele>581</ele>
        <time>2022-09-07T00:18:27Z</time>
      </trkpt>
      <trkpt lat="44.66377" lon="5.46278">
        <ele>582</ele>
        <time>2022-09-07T00:18:33Z</time>
      </trkpt>
      <trkpt lat="44.6638" lon="5.4622">
        <ele>584</ele>
        <time>2022-09-07T00:18:40Z</time>
      </trkpt>
      <trkpt lat="44.66377" lon="5.46072">
        <ele>583</ele>
        <time>2022-09-07T00:18:59Z</time>
      </trkpt>
      <trkpt lat="44.66374" lon="5.46026">
        <ele>580</ele>
        <time>2022-09-07T00:19:05Z</time>
      </trkpt>
      <trkpt lat="44.6638" lon="5.45981">
        <ele>578</ele>
        <time>2022-09-07T00:19:11Z</time>
      </trkpt>
      <trkpt lat="44.66446" lon="5.45668">
        <ele>569</ele>
        <time>2022-09-07T00:19:52Z</time>
      </trkpt>
      <trkpt lat="44.66476" lon="5.4559">
        <ele>571</ele>
        <time>2022-09-07T00:20:03Z</time>
      </trkpt>
      <trkpt lat="44.66497" lon="5.45518">
        <ele>568</ele>
        <time>2022-09-07T00:20:13Z</time>
      </trkpt>
      <trkpt lat="44.66508" lon="5.45448">
        <ele>567</ele>
        <time>2022-09-07T00:20:22Z</time>
      </trkpt>
      <trkpt lat="44.66506" lon="5.45365">
        <ele>562</ele>
        <time>2022-09-07T00:20:33Z</time>
      </trkpt>
      <trkpt lat="44.66476" lon="5.45227">
        <ele>553</ele>
        <time>2022-09-07T00:20:51Z</time>
      </trkpt>
      <trkpt lat="44.66469" lon="5.45106">
        <ele>553</ele>
        <time>2022-09-07T00:21:06Z</time>
      </trkpt>
      <trkpt lat="44.66464" lon="5.4508">
        <ele>554</ele>
        <time>2022-09-07T00:21:10Z</time>
      </trkpt>
      <trkpt lat="44.66456" lon="5.45062">
        <ele>553</ele>
        <time>2022-09-07T00:21:12Z</time>
      </trkpt>
      <trkpt lat="44.66389" lon="5.45001">
        <ele>552</ele>
        <time>2022-09-07T00:21:26Z</time>
      </trkpt>
      <trkpt lat="44.66377" lon="5.44984">
        <ele>554</ele>
        <time>2022-09-07T00:21:30Z</time>
      </trkpt>
      <trkpt lat="44.66366" lon="5.44961">
        <ele>555</ele>
        <time>2022-09-07T00:21:33Z</time>
      </trkpt>
      <trkpt lat="44.66336" lon="5.44858">
        <ele>556</ele>
        <time>2022-09-07T00:21:47Z</time>
      </trkpt>
      <trkpt lat="44.66307" lon="5.44719">
        <ele>555</ele>
        <time>2022-09-07T00:22:05Z</time>
      </trkpt>
      <trkpt lat="44.66242" lon="5.44507">
        <ele>544</ele>
        <time>2022-09-07T00:22:35Z</time>
      </trkpt>
      <trkpt lat="44.66243" lon="5.44478">
        <ele>542</ele>
        <time>2022-09-07T00:22:38Z</time>
      </trkpt>
      <trkpt lat="44.66267" lon="5.44371">
        <ele>538</ele>
        <time>2022-09-07T00:22:53Z</time>
      </trkpt>
      <trkpt lat="44.66278" lon="5.44307">
        <ele>535</ele>
        <time>2022-09-07T00:23:01Z</time>
      </trkpt>
      <trkpt lat="44.66292" lon="5.43802">
        <ele>527</ele>
        <time>2022-09-07T00:24:05Z</time>
      </trkpt>
      <trkpt lat="44.66297" lon="5.43756">
        <ele>525</ele>
        <time>2022-09-07T00:24:11Z</time>
      </trkpt>
      <trkpt lat="44.66317" lon="5.43683">
        <ele>520</ele>
        <time>2022-09-07T00:24:21Z</time>
      </trkpt>
      <trkpt lat="44.66375" lon="5.4257">
        <ele>498</ele>
        <time>2022-09-07T00:26:42Z</time>
      </trkpt>
      <trkpt lat="44.66156" lon="5.42361">
        <ele>499</ele>
        <time>2022-09-07T00:27:29Z</time>
      </trkpt>
      <trkpt lat="44.66138" lon="5.42341">
        <ele>500</ele>
        <time>2022-09-07T00:27:33Z</time>
      </trkpt>
      <trkpt lat="44.66116" lon="5.42299">
        <ele>501</ele>
        <time>2022-09-07T00:27:40Z</time>
      </trkpt>
      <trkpt lat="44.66071" lon="5.4218">
        <ele>503</ele>
        <time>2022-09-07T00:27:57Z</time>
      </trkpt>
      <trkpt lat="44.66029" lon="5.42097">
        <ele>502</ele>
        <time>2022-09-07T00:28:10Z</time>
      </trkpt>
      <trkpt lat="44.66016" lon="5.42079">
        <ele>501</ele>
        <time>2022-09-07T00:28:13Z</time>
      </trkpt>
      <trkpt lat="44.65971" lon="5.4205">
        <ele>501</ele>
        <time>2022-09-07T00:28:22Z</time>
      </trkpt>
      <trkpt lat="44.65956" lon="5.42045">
        <ele>501</ele>
        <time>2022-09-07T00:28:24Z</time>
      </trkpt>
      <trkpt lat="44.65923" lon="5.42039">
        <ele>502</ele>
        <time>2022-09-07T00:28:30Z</time>
      </trkpt>
      <trkpt lat="44.65911" lon="5.42034">
        <ele>502</ele>
        <time>2022-09-07T00:28:33Z</time>
      </trkpt>
      <trkpt lat="44.65901" lon="5.42025">
        <ele>503</ele>
        <time>2022-09-07T00:28:35Z</time>
      </trkpt>
      <trkpt lat="44.65892" lon="5.42">
        <ele>502</ele>
        <time>2022-09-07T00:28:38Z</time>
      </trkpt>
      <trkpt lat="44.65897" lon="5.41885">
        <ele>494</ele>
        <time>2022-09-07T00:28:53Z</time>
      </trkpt>
      <trkpt lat="44.65894" lon="5.41868">
        <ele>493</ele>
        <time>2022-09-07T00:28:55Z</time>
      </trkpt>
      <trkpt lat="44.65775" lon="5.4167">
        <ele>489</ele>
        <time>2022-09-07T00:29:28Z</time>
      </trkpt>
      <trkpt lat="44.65638" lon="5.41432">
        <ele>492</ele>
        <time>2022-09-07T00:30:07Z</time>
      </trkpt>
      <trkpt lat="44.6559" lon="5.41324">
        <ele>495</ele>
        <time>2022-09-07T00:30:23Z</time>
      </trkpt>
      <trkpt lat="44.65543" lon="5.41239">
        <ele>498</ele>
        <time>2022-09-07T00:30:36Z</time>
      </trkpt>
      <trkpt lat="44.65538" lon="5.41222">
        <ele>499</ele>
        <time>2022-09-07T00:30:39Z</time>
      </trkpt>
      <trkpt lat="44.65543" lon="5.41218">
        <ele>498</ele>
        <time>2022-09-07T00:30:40Z</time>
      </trkpt>
      <trkpt lat="44.65546" lon="5.4121">
        <ele>498</ele>
        <time>2022-09-07T00:30:41Z</time>
      </trkpt>
      <trkpt lat="44.65546" lon="5.41202">
        <ele>498</ele>
        <time>2022-09-07T00:30:42Z</time>
      </trkpt>
      <trkpt lat="44.65542" lon="5.41194">
        <ele>498</ele>
        <time>2022-09-07T00:30:43Z</time>
      </trkpt>
      <trkpt lat="44.65532" lon="5.41191">
        <ele>499</ele>
        <time>2022-09-07T00:30:45Z</time>
      </trkpt>
      <trkpt lat="44.65526" lon="5.41195">
        <ele>499</ele>
        <time>2022-09-07T00:30:46Z</time>
      </trkpt>
      <trkpt lat="44.65523" lon="5.41203">
        <ele>499</ele>
        <time>2022-09-07T00:30:47Z</time>
      </trkpt>
      <trkpt lat="44.65501" lon="5.41221">
        <ele>500</ele>
        <time>2022-09-07T00:30:52Z</time>
      </trkpt>
      <trkpt lat="44.65204" lon="5.41364">
        <ele>515</ele>
        <time>2022-09-07T00:31:48Z</time>
      </trkpt>
      <trkpt lat="44.65175" lon="5.41386">
        <ele>516</ele>
        <time>2022-09-07T00:31:53Z</time>
      </trkpt>
      <trkpt lat="44.65142" lon="5.4142">
        <ele>518</ele>
        <time>2022-09-07T00:32:01Z</time>
      </trkpt>
      <trkpt lat="44.65105" lon="5.41466">
        <ele>518</ele>
        <time>2022-09-07T00:32:09Z</time>
      </trkpt>
      <trkpt lat="44.65089" lon="5.41414">
        <ele>519</ele>
        <time>2022-09-07T00:32:17Z</time>
      </trkpt>
      <trkpt lat="44.65066" lon="5.41367">
        <ele>519</ele>
        <time>2022-09-07T00:32:24Z</time>
      </trkpt>
      <trkpt lat="44.65011" lon="5.41306">
        <ele>522</ele>
        <time>2022-09-07T00:32:36Z</time>
      </trkpt>
      <trkpt lat="44.64998" lon="5.41286">
        <ele>523</ele>
        <time>2022-09-07T00:32:40Z</time>
      </trkpt>
      <trkpt lat="44.64992" lon="5.41267">
        <ele>523</ele>
        <time>2022-09-07T00:32:42Z</time>
      </trkpt>
      <trkpt lat="44.64992" lon="5.41223">
        <ele>522</ele>
        <time>2022-09-07T00:32:48Z</time>
      </trkpt>
      <trkpt lat="44.6498" lon="5.41172">
        <ele>524</ele>
        <time>2022-09-07T00:32:55Z</time>
      </trkpt>
      <trkpt lat="44.64965" lon="5.41124">
        <ele>526</ele>
        <time>2022-09-07T00:33:01Z</time>
      </trkpt>
      <trkpt lat="44.64901" lon="5.41039">
        <ele>537</ele>
        <time>2022-09-07T00:33:17Z</time>
      </trkpt>
      <trkpt lat="44.64881" lon="5.41004">
        <ele>540</ele>
        <time>2022-09-07T00:33:23Z</time>
      </trkpt>
      <trkpt lat="44.64876" lon="5.40972">
        <ele>540</ele>
        <time>2022-09-07T00:33:27Z</time>
      </trkpt>
      <trkpt lat="44.64879" lon="5.40934">
        <ele>539</ele>
        <time>2022-09-07T00:33:32Z</time>
      </trkpt>
      <trkpt lat="44.64877" lon="5.40893">
        <ele>539</ele>
        <time>2022-09-07T00:33:37Z</time>
      </trkpt>
      <trkpt lat="44.6487" lon="5.40862">
        <ele>541</ele>
        <time>2022-09-07T00:33:41Z</time>
      </trkpt>
      <trkpt lat="44.64857" lon="5.40824">
        <ele>545</ele>
        <time>2022-09-07T00:33:46Z</time>
      </trkpt>
      <trkpt lat="44.64848" lon="5.40805">
        <ele>546</ele>
        <time>2022-09-07T00:33:49Z</time>
      </trkpt>
      <trkpt lat="44.64826" lon="5.4077">
        <ele>551</ele>
        <time>2022-09-07T00:33:55Z</time>
      </trkpt>
      <trkpt lat="44.6482" lon="5.40751">
        <ele>553</ele>
        <time>2022-09-07T00:33:58Z</time>
      </trkpt>
      <trkpt lat="44.64818" lon="5.40713">
        <ele>552</ele>
        <time>2022-09-07T00:34:03Z</time>
      </trkpt>
      <trkpt lat="44.64814" lon="5.40708">
        <ele>553</ele>
        <time>2022-09-07T00:34:04Z</time>
      </trkpt>
      <trkpt lat="44.64809" lon="5.40712">
        <ele>555</ele>
        <time>2022-09-07T00:34:05Z</time>
      </trkpt>
      <trkpt lat="44.64808" lon="5.40743">
        <ele>557</ele>
        <time>2022-09-07T00:34:09Z</time>
      </trkpt>
      <trkpt lat="44.64799" lon="5.40822">
        <ele>561</ele>
        <time>2022-09-07T00:34:19Z</time>
      </trkpt>
      <trkpt lat="44.64792" lon="5.40851">
        <ele>562</ele>
        <time>2022-09-07T00:34:23Z</time>
      </trkpt>
      <trkpt lat="44.64777" lon="5.40873">
        <ele>565</ele>
        <time>2022-09-07T00:34:26Z</time>
      </trkpt>
      <trkpt lat="44.64725" lon="5.40905">
        <ele>577</ele>
        <time>2022-09-07T00:34:37Z</time>
      </trkpt>
      <trkpt lat="44.6471" lon="5.40927">
        <ele>582</ele>
        <time>2022-09-07T00:34:40Z</time>
      </trkpt>
      <trkpt lat="44.64703" lon="5.40928">
        <ele>584</ele>
        <time>2022-09-07T00:34:42Z</time>
      </trkpt>
      <trkpt lat="44.647" lon="5.40925">
        <ele>585</ele>
        <time>2022-09-07T00:34:42Z</time>
      </trkpt>
      <trkpt lat="44.647" lon="5.40914">
        <ele>584</ele>
        <time>2022-09-07T00:34:44Z</time>
      </trkpt>
      <trkpt lat="44.64703" lon="5.40905">
        <ele>584</ele>
        <time>2022-09-07T00:34:45Z</time>
      </trkpt>
      <trkpt lat="44.64742" lon="5.40865">
        <ele>575</ele>
        <time>2022-09-07T00:34:54Z</time>
      </trkpt>
      <trkpt lat="44.64748" lon="5.40854">
        <ele>575</ele>
        <time>2022-09-07T00:34:55Z</time>
      </trkpt>
      <trkpt lat="44.64752" lon="5.40827">
        <ele>576</ele>
        <time>2022-09-07T00:34:59Z</time>
      </trkpt>
      <trkpt lat="44.64753" lon="5.40752">
        <ele>579</ele>
        <time>2022-09-07T00:35:08Z</time>
      </trkpt>
      <trkpt lat="44.6475" lon="5.40722">
        <ele>577</ele>
        <time>2022-09-07T00:35:12Z</time>
      </trkpt>
      <trkpt lat="44.64744" lon="5.40704">
        <ele>575</ele>
        <time>2022-09-07T00:35:15Z</time>
      </trkpt>
      <trkpt lat="44.64736" lon="5.40697">
        <ele>575</ele>
        <time>2022-09-07T00:35:16Z</time>
      </trkpt>
      <trkpt lat="44.64725" lon="5.40698">
        <ele>577</ele>
        <time>2022-09-07T00:35:18Z</time>
      </trkpt>
      <trkpt lat="44.64704" lon="5.40707">
        <ele>581</ele>
        <time>2022-09-07T00:35:22Z</time>
      </trkpt>
      <trkpt lat="44.64675" lon="5.4073">
        <ele>588</ele>
        <time>2022-09-07T00:35:28Z</time>
      </trkpt>
      <trkpt lat="44.64644" lon="5.40761">
        <ele>594</ele>
        <time>2022-09-07T00:35:35Z</time>
      </trkpt>
      <trkpt lat="44.64612" lon="5.40783">
        <ele>598</ele>
        <time>2022-09-07T00:35:41Z</time>
      </trkpt>
      <trkpt lat="44.64599" lon="5.40785">
        <ele>598</ele>
        <time>2022-09-07T00:35:44Z</time>
      </trkpt>
      <trkpt lat="44.64587" lon="5.40781">
        <ele>598</ele>
        <time>2022-09-07T00:35:46Z</time>
      </trkpt>
      <trkpt lat="44.64571" lon="5.4075">
        <ele>595</ele>
        <time>2022-09-07T00:35:51Z</time>
      </trkpt>
      <trkpt lat="44.64554" lon="5.40724">
        <ele>598</ele>
        <time>2022-09-07T00:35:55Z</time>
      </trkpt>
      <trkpt lat="44.6455" lon="5.40707">
        <ele>599</ele>
        <time>2022-09-07T00:35:57Z</time>
      </trkpt>
      <trkpt lat="44.6456" lon="5.40675">
        <ele>598</ele>
        <time>2022-09-07T00:36:02Z</time>
      </trkpt>
      <trkpt lat="44.64563" lon="5.40653">
        <ele>598</ele>
        <time>2022-09-07T00:36:05Z</time>
      </trkpt>
      <trkpt lat="44.64564" lon="5.40615">
        <ele>598</ele>
        <time>2022-09-07T00:36:09Z</time>
      </trkpt>
      <trkpt lat="44.64555" lon="5.40573">
        <ele>602</ele>
        <time>2022-09-07T00:36:15Z</time>
      </trkpt>
      <trkpt lat="44.64547" lon="5.40549">
        <ele>604</ele>
        <time>2022-09-07T00:36:18Z</time>
      </trkpt>
      <trkpt lat="44.64546" lon="5.40532">
        <ele>604</ele>
        <time>2022-09-07T00:36:20Z</time>
      </trkpt>
      <trkpt lat="44.64567" lon="5.40492">
        <ele>600</ele>
        <time>2022-09-07T00:36:27Z</time>
      </trkpt>
      <trkpt lat="44.64572" lon="5.40476">
        <ele>600</ele>
        <time>2022-09-07T00:36:29Z</time>
      </trkpt>
      <trkpt lat="44.64571" lon="5.40445">
        <ele>603</ele>
        <time>2022-09-07T00:36:33Z</time>
      </trkpt>
      <trkpt lat="44.64575" lon="5.40433">
        <ele>603</ele>
        <time>2022-09-07T00:36:35Z</time>
      </trkpt>
      <trkpt lat="44.64596" lon="5.40409">
        <ele>601</ele>
        <time>2022-09-07T00:36:39Z</time>
      </trkpt>
      <trkpt lat="44.64618" lon="5.4036">
        <ele>601</ele>
        <time>2022-09-07T00:36:47Z</time>
      </trkpt>
      <trkpt lat="44.64613" lon="5.40314">
        <ele>608</ele>
        <time>2022-09-07T00:36:53Z</time>
      </trkpt>
      <trkpt lat="44.64616" lon="5.4029">
        <ele>611</ele>
        <time>2022-09-07T00:36:56Z</time>
      </trkpt>
      <trkpt lat="44.6464" lon="5.40247">
        <ele>612</ele>
        <time>2022-09-07T00:37:03Z</time>
      </trkpt>
      <trkpt lat="44.64654" lon="5.40237">
        <ele>611</ele>
        <time>2022-09-07T00:37:05Z</time>
      </trkpt>
      <trkpt lat="44.64699" lon="5.40194">
        <ele>615</ele>
        <time>2022-09-07T00:37:15Z</time>
      </trkpt>
      <trkpt lat="44.6473" lon="5.40182">
        <ele>615</ele>
        <time>2022-09-07T00:37:21Z</time>
      </trkpt>
      <trkpt lat="44.64746" lon="5.40164">
        <ele>618</ele>
        <time>2022-09-07T00:37:24Z</time>
      </trkpt>
      <trkpt lat="44.64788" lon="5.40143">
        <ele>620</ele>
        <time>2022-09-07T00:37:32Z</time>
      </trkpt>
      <trkpt lat="44.6482" lon="5.40132">
        <ele>619</ele>
        <time>2022-09-07T00:37:38Z</time>
      </trkpt>
      <trkpt lat="44.64834" lon="5.4012">
        <ele>620</ele>
        <time>2022-09-07T00:37:41Z</time>
      </trkpt>
      <trkpt lat="44.64847" lon="5.401">
        <ele>621</ele>
        <time>2022-09-07T00:37:45Z</time>
      </trkpt>
      <trkpt lat="44.64854" lon="5.40081">
        <ele>622</ele>
        <time>2022-09-07T00:37:47Z</time>
      </trkpt>
      <trkpt lat="44.64855" lon="5.40063">
        <ele>623</ele>
        <time>2022-09-07T00:37:50Z</time>
      </trkpt>
      <trkpt lat="44.64849" lon="5.40037">
        <ele>628</ele>
        <time>2022-09-07T00:37:53Z</time>
      </trkpt>
      <trkpt lat="44.64867" lon="5.39989">
        <ele>624</ele>
        <time>2022-09-07T00:38:00Z</time>
      </trkpt>
      <trkpt lat="44.64867" lon="5.39973">
        <ele>623</ele>
        <time>2022-09-07T00:38:02Z</time>
      </trkpt>
      <trkpt lat="44.6486" lon="5.39955">
        <ele>624</ele>
        <time>2022-09-07T00:38:05Z</time>
      </trkpt>
      <trkpt lat="44.64823" lon="5.3991">
        <ele>633</ele>
        <time>2022-09-07T00:38:13Z</time>
      </trkpt>
      <trkpt lat="44.64804" lon="5.39881">
        <ele>636</ele>
        <time>2022-09-07T00:38:18Z</time>
      </trkpt>
      <trkpt lat="44.64754" lon="5.39815">
        <ele>646</ele>
        <time>2022-09-07T00:38:30Z</time>
      </trkpt>
      <trkpt lat="44.64745" lon="5.398">
        <ele>647</ele>
        <time>2022-09-07T00:38:33Z</time>
      </trkpt>
      <trkpt lat="44.6473" lon="5.39749">
        <ele>644</ele>
        <time>2022-09-07T00:38:40Z</time>
      </trkpt>
      <trkpt lat="44.6472" lon="5.39727">
        <ele>642</ele>
        <time>2022-09-07T00:38:43Z</time>
      </trkpt>
      <trkpt lat="44.64713" lon="5.39718">
        <ele>642</ele>
        <time>2022-09-07T00:38:45Z</time>
      </trkpt>
      <trkpt lat="44.64703" lon="5.39717">
        <ele>644</ele>
        <time>2022-09-07T00:38:47Z</time>
      </trkpt>
      <trkpt lat="44.64681" lon="5.39728">
        <ele>650</ele>
        <time>2022-09-07T00:38:51Z</time>
      </trkpt>
      <trkpt lat="44.64669" lon="5.39729">
        <ele>653</ele>
        <time>2022-09-07T00:38:53Z</time>
      </trkpt>
      <trkpt lat="44.64643" lon="5.39719">
        <ele>655</ele>
        <time>2022-09-07T00:38:58Z</time>
      </trkpt>
      <trkpt lat="44.64619" lon="5.39723">
        <ele>659</ele>
        <time>2022-09-07T00:39:02Z</time>
      </trkpt>
      <trkpt lat="44.64574" lon="5.39699">
        <ele>663</ele>
        <time>2022-09-07T00:39:11Z</time>
      </trkpt>
      <trkpt lat="44.64559" lon="5.39686">
        <ele>664</ele>
        <time>2022-09-07T00:39:14Z</time>
      </trkpt>
      <trkpt lat="44.64554" lon="5.39678">
        <ele>665</ele>
        <time>2022-09-07T00:39:15Z</time>
      </trkpt>
      <trkpt lat="44.64557" lon="5.39663">
        <ele>664</ele>
        <time>2022-09-07T00:39:17Z</time>
      </trkpt>
      <trkpt lat="44.64561" lon="5.39659">
        <ele>663</ele>
        <time>2022-09-07T00:39:18Z</time>
      </trkpt>
      <trkpt lat="44.64577" lon="5.39656">
        <ele>661</ele>
        <time>2022-09-07T00:39:21Z</time>
      </trkpt>
      <trkpt lat="44.64592" lon="5.39649">
        <ele>659</ele>
        <time>2022-09-07T00:39:24Z</time>
      </trkpt>
      <trkpt lat="44.64615" lon="5.39645">
        <ele>655</ele>
        <time>2022-09-07T00:39:28Z</time>
      </trkpt>
      <trkpt lat="44.64625" lon="5.39639">
        <ele>653</ele>
        <time>2022-09-07T00:39:30Z</time>
      </trkpt>
      <trkpt lat="44.64631" lon="5.39626">
        <ele>653</ele>
        <time>2022-09-07T00:39:32Z</time>
      </trkpt>
      <trkpt lat="44.64635" lon="5.39563">
        <ele>653</ele>
        <time>2022-09-07T00:39:40Z</time>
      </trkpt>
      <trkpt lat="44.64632" lon="5.39545">
        <ele>654</ele>
        <time>2022-09-07T00:39:42Z</time>
      </trkpt>
      <trkpt lat="44.64613" lon="5.3952">
        <ele>659</ele>
        <time>2022-09-07T00:39:47Z</time>
      </trkpt>
      <trkpt lat="44.64571" lon="5.39487">
        <ele>669</ele>
        <time>2022-09-07T00:39:55Z</time>
      </trkpt>
      <trkpt lat="44.64558" lon="5.39461">
        <ele>674</ele>
        <time>2022-09-07T00:39:59Z</time>
      </trkpt>
      <trkpt lat="44.64557" lon="5.3945">
        <ele>675</ele>
        <time>2022-09-07T00:40:01Z</time>
      </trkpt>
      <trkpt lat="44.64561" lon="5.39443">
        <ele>675</ele>
        <time>2022-09-07T00:40:02Z</time>
      </trkpt>
      <trkpt lat="44.64588" lon="5.39438">
        <ele>672</ele>
        <time>2022-09-07T00:40:07Z</time>
      </trkpt>
      <trkpt lat="44.64656" lon="5.39374">
        <ele>668</ele>
        <time>2022-09-07T00:40:21Z</time>
      </trkpt>
      <trkpt lat="44.64664" lon="5.39359">
        <ele>669</ele>
        <time>2022-09-07T00:40:24Z</time>
      </trkpt>
      <trkpt lat="44.64669" lon="5.3934">
        <ele>672</ele>
        <time>2022-09-07T00:40:26Z</time>
      </trkpt>
      <trkpt lat="44.64668" lon="5.39315">
        <ele>674</ele>
        <time>2022-09-07T00:40:29Z</time>
      </trkpt>
      <trkpt lat="44.64659" lon="5.39286">
        <ele>677</ele>
        <time>2022-09-07T00:40:33Z</time>
      </trkpt>
      <trkpt lat="44.64659" lon="5.39258">
        <ele>679</ele>
        <time>2022-09-07T00:40:37Z</time>
      </trkpt>
      <trkpt lat="44.64669" lon="5.39228">
        <ele>677</ele>
        <time>2022-09-07T00:40:41Z</time>
      </trkpt>
      <trkpt lat="44.64649" lon="5.39195">
        <ele>679</ele>
        <time>2022-09-07T00:40:46Z</time>
      </trkpt>
      <trkpt lat="44.64635" lon="5.39152">
        <ele>675</ele>
        <time>2022-09-07T00:40:52Z</time>
      </trkpt>
      <trkpt lat="44.64619" lon="5.39139">
        <ele>674</ele>
        <time>2022-09-07T00:40:56Z</time>
      </trkpt>
      <trkpt lat="44.64599" lon="5.39136">
        <ele>674</ele>
        <time>2022-09-07T00:40:59Z</time>
      </trkpt>
      <trkpt lat="44.6454" lon="5.39146">
        <ele>684</ele>
        <time>2022-09-07T00:41:10Z</time>
      </trkpt>
      <trkpt lat="44.64518" lon="5.39142">
        <ele>685</ele>
        <time>2022-09-07T00:41:14Z</time>
      </trkpt>
      <trkpt lat="44.64478" lon="5.39148">
        <ele>693</ele>
        <time>2022-09-07T00:41:21Z</time>
      </trkpt>
      <trkpt lat="44.64465" lon="5.39139">
        <ele>693</ele>
        <time>2022-09-07T00:41:24Z</time>
      </trkpt>
      <trkpt lat="44.64452" lon="5.3912">
        <ele>692</ele>
        <time>2022-09-07T00:41:27Z</time>
      </trkpt>
      <trkpt lat="44.64438" lon="5.39085">
        <ele>690</ele>
        <time>2022-09-07T00:41:32Z</time>
      </trkpt>
      <trkpt lat="44.64421" lon="5.39059">
        <ele>691</ele>
        <time>2022-09-07T00:41:36Z</time>
      </trkpt>
      <trkpt lat="44.6439" lon="5.39031">
        <ele>696</ele>
        <time>2022-09-07T00:41:43Z</time>
      </trkpt>
      <trkpt lat="44.64377" lon="5.39008">
        <ele>697</ele>
        <time>2022-09-07T00:41:47Z</time>
      </trkpt>
      <trkpt lat="44.64367" lon="5.3897">
        <ele>696</ele>
        <time>2022-09-07T00:41:52Z</time>
      </trkpt>
      <trkpt lat="44.64288" lon="5.38842">
        <ele>714</ele>
        <time>2022-09-07T00:42:13Z</time>
      </trkpt>
      <trkpt lat="44.64279" lon="5.38816">
        <ele>719</ele>
        <time>2022-09-07T00:42:17Z</time>
      </trkpt>
      <trkpt lat="44.64316" lon="5.38749">
        <ele>719</ele>
        <time>2022-09-07T00:42:28Z</time>
      </trkpt>
      <trkpt lat="44.64349" lon="5.38726">
        <ele>721</ele>
        <time>2022-09-07T00:42:34Z</time>
      </trkpt>
      <trkpt lat="44.64367" lon="5.38727">
        <ele>721</ele>
        <time>2022-09-07T00:42:38Z</time>
      </trkpt>
      <trkpt lat="44.64386" lon="5.38751">
        <ele>714</ele>
        <time>2022-09-07T00:42:42Z</time>
      </trkpt>
      <trkpt lat="44.64479" lon="5.38754">
        <ele>718</ele>
        <time>2022-09-07T00:42:59Z</time>
      </trkpt>
      <trkpt lat="44.64505" lon="5.38764">
        <ele>716</ele>
        <time>2022-09-07T00:43:03Z</time>
      </trkpt>
      <trkpt lat="44.64529" lon="5.38764">
        <ele>714</ele>
        <time>2022-09-07T00:43:08Z</time>
      </trkpt>
      <trkpt lat="44.64561" lon="5.38746">
        <ele>717</ele>
        <time>2022-09-07T00:43:14Z</time>
      </trkpt>
      <trkpt lat="44.64589" lon="5.38722">
        <ele>714</ele>
        <time>2022-09-07T00:43:20Z</time>
      </trkpt>
      <trkpt lat="44.64598" lon="5.38701">
        <ele>711</ele>
        <time>2022-09-07T00:43:23Z</time>
      </trkpt>
      <trkpt lat="44.64597" lon="5.38681">
        <ele>711</ele>
        <time>2022-09-07T00:43:25Z</time>
      </trkpt>
      <trkpt lat="44.64591" lon="5.38664">
        <ele>713</ele>
        <time>2022-09-07T00:43:28Z</time>
      </trkpt>
      <trkpt lat="44.64558" lon="5.38649">
        <ele>719</ele>
        <time>2022-09-07T00:43:34Z</time>
      </trkpt>
      <trkpt lat="44.64537" lon="5.38627">
        <ele>721</ele>
        <time>2022-09-07T00:43:39Z</time>
      </trkpt>
      <trkpt lat="44.64523" lon="5.38619">
        <ele>723</ele>
        <time>2022-09-07T00:43:41Z</time>
      </trkpt>
      <trkpt lat="44.64495" lon="5.38622">
        <ele>730</ele>
        <time>2022-09-07T00:43:46Z</time>
      </trkpt>
      <trkpt lat="44.64474" lon="5.38609">
        <ele>732</ele>
        <time>2022-09-07T00:43:50Z</time>
      </trkpt>
      <trkpt lat="44.6446" lon="5.38604">
        <ele>735</ele>
        <time>2022-09-07T00:43:53Z</time>
      </trkpt>
      <trkpt lat="44.64453" lon="5.38596">
        <ele>737</ele>
        <time>2022-09-07T00:43:54Z</time>
      </trkpt>
      <trkpt lat="44.64449" lon="5.38582">
        <ele>738</ele>
        <time>2022-09-07T00:43:56Z</time>
      </trkpt>
      <trkpt lat="44.64449" lon="5.38558">
        <ele>738</ele>
        <time>2022-09-07T00:43:59Z</time>
      </trkpt>
      <trkpt lat="44.64437" lon="5.38485">
        <ele>742</ele>
        <time>2022-09-07T00:44:09Z</time>
      </trkpt>
      <trkpt lat="44.64434" lon="5.38452">
        <ele>744</ele>
        <time>2022-09-07T00:44:13Z</time>
      </trkpt>
      <trkpt lat="44.64427" lon="5.38437">
        <ele>747</ele>
        <time>2022-09-07T00:44:15Z</time>
      </trkpt>
      <trkpt lat="44.64423" lon="5.38421">
        <ele>749</ele>
        <time>2022-09-07T00:44:18Z</time>
      </trkpt>
      <trkpt lat="44.64426" lon="5.38406">
        <ele>749</ele>
        <time>2022-09-07T00:44:19Z</time>
      </trkpt>
      <trkpt lat="44.64442" lon="5.38379">
        <ele>744</ele>
        <time>2022-09-07T00:44:24Z</time>
      </trkpt>
      <trkpt lat="44.64447" lon="5.38364">
        <ele>743</ele>
        <time>2022-09-07T00:44:26Z</time>
      </trkpt>
      <trkpt lat="44.64445" lon="5.38335">
        <ele>746</ele>
        <time>2022-09-07T00:44:30Z</time>
      </trkpt>
      <trkpt lat="44.6444" lon="5.38309">
        <ele>753</ele>
        <time>2022-09-07T00:44:33Z</time>
      </trkpt>
      <trkpt lat="44.64426" lon="5.38265">
        <ele>768</ele>
        <time>2022-09-07T00:44:39Z</time>
      </trkpt>
      <trkpt lat="44.64424" lon="5.38248">
        <ele>772</ele>
        <time>2022-09-07T00:44:41Z</time>
      </trkpt>
      <trkpt lat="44.64428" lon="5.38235">
        <ele>775</ele>
        <time>2022-09-07T00:44:43Z</time>
      </trkpt>
      <trkpt lat="44.64447" lon="5.38234">
        <ele>768</ele>
        <time>2022-09-07T00:44:47Z</time>
      </trkpt>
      <trkpt lat="44.64453" lon="5.38224">
        <ele>770</ele>
        <time>2022-09-07T00:44:48Z</time>
      </trkpt>
      <trkpt lat="44.64455" lon="5.38214">
        <ele>773</ele>
        <time>2022-09-07T00:44:50Z</time>
      </trkpt>
      <trkpt lat="44.6446" lon="5.3821">
        <ele>773</ele>
        <time>2022-09-07T00:44:51Z</time>
      </trkpt>
      <trkpt lat="44.64466" lon="5.38213">
        <ele>770</ele>
        <time>2022-09-07T00:44:52Z</time>
      </trkpt>
      <trkpt lat="44.64475" lon="5.38213">
        <ele>766</ele>
        <time>2022-09-07T00:44:53Z</time>
      </trkpt>
      <trkpt lat="44.64484" lon="5.38199">
        <ele>769</ele>
        <time>2022-09-07T00:44:56Z</time>
      </trkpt>
      <trkpt lat="44.64492" lon="5.38197">
        <ele>768</ele>
        <time>2022-09-07T00:44:57Z</time>
      </trkpt>
      <trkpt lat="44.64503" lon="5.382">
        <ele>764</ele>
        <time>2022-09-07T00:44:59Z</time>
      </trkpt>
      <trkpt lat="44.64533" lon="5.38194">
        <ele>765</ele>
        <time>2022-09-07T00:45:05Z</time>
      </trkpt>
      <trkpt lat="44.64542" lon="5.38198">
        <ele>763</ele>
        <time>2022-09-07T00:45:06Z</time>
      </trkpt>
      <trkpt lat="44.6455" lon="5.38198">
        <ele>763</ele>
        <time>2022-09-07T00:45:08Z</time>
      </trkpt>
      <trkpt lat="44.64559" lon="5.38188">
        <ele>767</ele>
        <time>2022-09-07T00:45:10Z</time>
      </trkpt>
      <trkpt lat="44.64575" lon="5.38184">
        <ele>769</ele>
        <time>2022-09-07T00:45:13Z</time>
      </trkpt>
      <trkpt lat="44.64592" lon="5.38202">
        <ele>760</ele>
        <time>2022-09-07T00:45:16Z</time>
      </trkpt>
      <trkpt lat="44.64605" lon="5.38209">
        <ele>758</ele>
        <time>2022-09-07T00:45:19Z</time>
      </trkpt>
      <trkpt lat="44.64617" lon="5.38228">
        <ele>750</ele>
        <time>2022-09-07T00:45:22Z</time>
      </trkpt>
      <trkpt lat="44.64639" lon="5.38236">
        <ele>750</ele>
        <time>2022-09-07T00:45:26Z</time>
      </trkpt>
      <trkpt lat="44.64653" lon="5.38231">
        <ele>754</ele>
        <time>2022-09-07T00:45:29Z</time>
      </trkpt>
      <trkpt lat="44.64676" lon="5.3819">
        <ele>768</ele>
        <time>2022-09-07T00:45:35Z</time>
      </trkpt>
      <trkpt lat="44.64695" lon="5.38164">
        <ele>772</ele>
        <time>2022-09-07T00:45:40Z</time>
      </trkpt>
      <trkpt lat="44.6472" lon="5.38158">
        <ele>768</ele>
        <time>2022-09-07T00:45:45Z</time>
      </trkpt>
      <trkpt lat="44.64734" lon="5.38152">
        <ele>765</ele>
        <time>2022-09-07T00:45:47Z</time>
      </trkpt>
      <trkpt lat="44.64737" lon="5.3814">
        <ele>765</ele>
        <time>2022-09-07T00:45:49Z</time>
      </trkpt>
      <trkpt lat="44.64734" lon="5.38123">
        <ele>766</ele>
        <time>2022-09-07T00:45:51Z</time>
      </trkpt>
      <trkpt lat="44.64711" lon="5.38087">
        <ele>775</ele>
        <time>2022-09-07T00:45:57Z</time>
      </trkpt>
      <trkpt lat="44.64683" lon="5.37975">
        <ele>786</ele>
        <time>2022-09-07T00:46:12Z</time>
      </trkpt>
      <trkpt lat="44.64686" lon="5.37954">
        <ele>786</ele>
        <time>2022-09-07T00:46:15Z</time>
      </trkpt>
      <trkpt lat="44.64694" lon="5.37932">
        <ele>783</ele>
        <time>2022-09-07T00:46:18Z</time>
      </trkpt>
      <trkpt lat="44.64685" lon="5.37894">
        <ele>790</ele>
        <time>2022-09-07T00:46:23Z</time>
      </trkpt>
      <trkpt lat="44.64685" lon="5.37871">
        <ele>793</ele>
        <time>2022-09-07T00:46:26Z</time>
      </trkpt>
      <trkpt lat="44.64693" lon="5.37837">
        <ele>794</ele>
        <time>2022-09-07T00:46:30Z</time>
      </trkpt>
      <trkpt lat="44.64747" lon="5.37741">
        <ele>791</ele>
        <time>2022-09-07T00:46:46Z</time>
      </trkpt>
      <trkpt lat="44.64754" lon="5.37725">
        <ele>792</ele>
        <time>2022-09-07T00:46:48Z</time>
      </trkpt>
      <trkpt lat="44.64753" lon="5.3768">
        <ele>802</ele>
        <time>2022-09-07T00:46:54Z</time>
      </trkpt>
      <trkpt lat="44.64765" lon="5.37649">
        <ele>803</ele>
        <time>2022-09-07T00:46:58Z</time>
      </trkpt>
      <trkpt lat="44.64802" lon="5.37593">
        <ele>798</ele>
        <time>2022-09-07T00:47:08Z</time>
      </trkpt>
      <trkpt lat="44.6481" lon="5.37546">
        <ele>798</ele>
        <time>2022-09-07T00:47:14Z</time>
      </trkpt>
      <trkpt lat="44.64807" lon="5.37525">
        <ele>800</ele>
        <time>2022-09-07T00:47:17Z</time>
      </trkpt>
      <trkpt lat="44.64773" lon="5.37454">
        <ele>815</ele>
        <time>2022-09-07T00:47:28Z</time>
      </trkpt>
      <trkpt lat="44.64756" lon="5.37406">
        <ele>820</ele>
        <time>2022-09-07T00:47:35Z</time>
      </trkpt>
      <trkpt lat="44.64748" lon="5.37376">
        <ele>822</ele>
        <time>2022-09-07T00:47:39Z</time>
      </trkpt>
      <trkpt lat="44.64754" lon="5.37296">
        <ele>816</ele>
        <time>2022-09-07T00:47:49Z</time>
      </trkpt>
      <trkpt lat="44.64752" lon="5.37279">
        <ele>816</ele>
        <time>2022-09-07T00:47:51Z</time>
      </trkpt>
      <trkpt lat="44.64749" lon="5.37269">
        <ele>817</ele>
        <time>2022-09-07T00:47:52Z</time>
      </trkpt>
      <trkpt lat="44.64733" lon="5.37253">
        <ele>825</ele>
        <time>2022-09-07T00:47:56Z</time>
      </trkpt>
      <trkpt lat="44.64725" lon="5.37238">
        <ele>831</ele>
        <time>2022-09-07T00:47:58Z</time>
      </trkpt>
      <trkpt lat="44.64724" lon="5.37218">
        <ele>834</ele>
        <time>2022-09-07T00:48:01Z</time>
      </trkpt>
      <trkpt lat="44.64738" lon="5.3718">
        <ele>832</ele>
        <time>2022-09-07T00:48:06Z</time>
      </trkpt>
      <trkpt lat="44.64794" lon="5.37085">
        <ele>831</ele>
        <time>2022-09-07T00:48:22Z</time>
      </trkpt>
      <trkpt lat="44.64806" lon="5.37059">
        <ele>828</ele>
        <time>2022-09-07T00:48:26Z</time>
      </trkpt>
      <trkpt lat="44.6481" lon="5.37035">
        <ele>827</ele>
        <time>2022-09-07T00:48:29Z</time>
      </trkpt>
      <trkpt lat="44.64803" lon="5.37007">
        <ele>833</ele>
        <time>2022-09-07T00:48:33Z</time>
      </trkpt>
      <trkpt lat="44.64786" lon="5.36965">
        <ele>845</ele>
        <time>2022-09-07T00:48:39Z</time>
      </trkpt>
      <trkpt lat="44.64784" lon="5.3694">
        <ele>849</ele>
        <time>2022-09-07T00:48:42Z</time>
      </trkpt>
      <trkpt lat="44.64796" lon="5.36909">
        <ele>847</ele>
        <time>2022-09-07T00:48:46Z</time>
      </trkpt>
      <trkpt lat="44.64816" lon="5.36881">
        <ele>845</ele>
        <time>2022-09-07T00:48:51Z</time>
      </trkpt>
      <trkpt lat="44.6482" lon="5.36866">
        <ele>847</ele>
        <time>2022-09-07T00:48:53Z</time>
      </trkpt>
      <trkpt lat="44.64828" lon="5.36849">
        <ele>848</ele>
        <time>2022-09-07T00:48:56Z</time>
      </trkpt>
      <trkpt lat="44.64847" lon="5.36837">
        <ele>844</ele>
        <time>2022-09-07T00:49:00Z</time>
      </trkpt>
      <trkpt lat="44.64861" lon="5.3682">
        <ele>844</ele>
        <time>2022-09-07T00:49:03Z</time>
      </trkpt>
      <trkpt lat="44.64869" lon="5.36802">
        <ele>846</ele>
        <time>2022-09-07T00:49:06Z</time>
      </trkpt>
      <trkpt lat="44.64878" lon="5.36793">
        <ele>846</ele>
        <time>2022-09-07T00:49:08Z</time>
      </trkpt>
      <trkpt lat="44.64925" lon="5.36724">
        <ele>843</ele>
        <time>2022-09-07T00:49:20Z</time>
      </trkpt>
      <trkpt lat="44.64937" lon="5.36676">
        <ele>845</ele>
        <time>2022-09-07T00:49:26Z</time>
      </trkpt>
      <trkpt lat="44.64943" lon="5.3666">
        <ele>843</ele>
        <time>2022-09-07T00:49:29Z</time>
      </trkpt>
      <trkpt lat="44.64953" lon="5.36643">
        <ele>838</ele>
        <time>2022-09-07T00:49:31Z</time>
      </trkpt>
      <trkpt lat="44.64957" lon="5.36624">
        <ele>835</ele>
        <time>2022-09-07T00:49:34Z</time>
      </trkpt>
      <trkpt lat="44.64957" lon="5.36609">
        <ele>834</ele>
        <time>2022-09-07T00:49:36Z</time>
      </trkpt>
      <trkpt lat="44.64952" lon="5.36586">
        <ele>835</ele>
        <time>2022-09-07T00:49:39Z</time>
      </trkpt>
      <trkpt lat="44.64937" lon="5.36535">
        <ele>833</ele>
        <time>2022-09-07T00:49:46Z</time>
      </trkpt>
      <trkpt lat="44.64928" lon="5.36514">
        <ele>832</ele>
        <time>2022-09-07T00:49:49Z</time>
      </trkpt>
      <trkpt lat="44.64906" lon="5.36483">
        <ele>840</ele>
        <time>2022-09-07T00:49:54Z</time>
      </trkpt>
      <trkpt lat="44.64903" lon="5.36471">
        <ele>842</ele>
        <time>2022-09-07T00:49:56Z</time>
      </trkpt>
      <trkpt lat="44.64904" lon="5.36462">
        <ele>841</ele>
        <time>2022-09-07T00:49:57Z</time>
      </trkpt>
      <trkpt lat="44.64939" lon="5.36404">
        <ele>828</ele>
        <time>2022-09-07T00:50:07Z</time>
      </trkpt>
      <trkpt lat="44.64982" lon="5.36324">
        <ele>816</ele>
        <time>2022-09-07T00:50:19Z</time>
      </trkpt>
      <trkpt lat="44.64995" lon="5.3629">
        <ele>814</ele>
        <time>2022-09-07T00:50:24Z</time>
      </trkpt>
      <trkpt lat="44.65015" lon="5.3622">
        <ele>811</ele>
        <time>2022-09-07T00:50:34Z</time>
      </trkpt>
      <trkpt lat="44.6502" lon="5.36211">
        <ele>810</ele>
        <time>2022-09-07T00:50:35Z</time>
      </trkpt>
      <trkpt lat="44.65028" lon="5.36204">
        <ele>807</ele>
        <time>2022-09-07T00:50:37Z</time>
      </trkpt>
      <trkpt lat="44.65048" lon="5.36192">
        <ele>800</ele>
        <time>2022-09-07T00:50:41Z</time>
      </trkpt>
      <trkpt lat="44.65054" lon="5.36185">
        <ele>798</ele>
        <time>2022-09-07T00:50:42Z</time>
      </trkpt>
      <trkpt lat="44.65058" lon="5.36174">
        <ele>797</ele>
        <time>2022-09-07T00:50:44Z</time>
      </trkpt>
      <trkpt lat="44.65059" lon="5.36161">
        <ele>797</ele>
        <time>2022-09-07T00:50:46Z</time>
      </trkpt>
      <trkpt lat="44.65056" lon="5.36149">
        <ele>798</ele>
        <time>2022-09-07T00:50:47Z</time>
      </trkpt>
      <trkpt lat="44.65041" lon="5.36119">
        <ele>803</ele>
        <time>2022-09-07T00:50:52Z</time>
      </trkpt>
      <trkpt lat="44.65038" lon="5.36097">
        <ele>804</ele>
        <time>2022-09-07T00:50:55Z</time>
      </trkpt>
      <trkpt lat="44.65038" lon="5.36074">
        <ele>804</ele>
        <time>2022-09-07T00:50:58Z</time>
      </trkpt>
      <trkpt lat="44.65046" lon="5.3603">
        <ele>802</ele>
        <time>2022-09-07T00:51:03Z</time>
      </trkpt>
      <trkpt lat="44.6505" lon="5.35986">
        <ele>802</ele>
        <time>2022-09-07T00:51:09Z</time>
      </trkpt>
      <trkpt lat="44.65061" lon="5.35961">
        <ele>799</ele>
        <time>2022-09-07T00:51:13Z</time>
      </trkpt>
      <trkpt lat="44.65096" lon="5.35917">
        <ele>791</ele>
        <time>2022-09-07T00:51:21Z</time>
      </trkpt>
      <trkpt lat="44.65105" lon="5.35909">
        <ele>790</ele>
        <time>2022-09-07T00:51:23Z</time>
      </trkpt>
      <trkpt lat="44.65121" lon="5.35905">
        <ele>787</ele>
        <time>2022-09-07T00:51:26Z</time>
      </trkpt>
      <trkpt lat="44.65148" lon="5.35915">
        <ele>781</ele>
        <time>2022-09-07T00:51:31Z</time>
      </trkpt>
      <trkpt lat="44.65158" lon="5.35921">
        <ele>778</ele>
        <time>2022-09-07T00:51:33Z</time>
      </trkpt>
      <trkpt lat="44.65166" lon="5.35932">
        <ele>775</ele>
        <time>2022-09-07T00:51:35Z</time>
      </trkpt>
      <trkpt lat="44.65171" lon="5.35946">
        <ele>772</ele>
        <time>2022-09-07T00:51:37Z</time>
      </trkpt>
      <trkpt lat="44.65169" lon="5.35967">
        <ele>769</ele>
        <time>2022-09-07T00:51:39Z</time>
      </trkpt>
      <trkpt lat="44.65163" lon="5.35973">
        <ele>769</ele>
        <time>2022-09-07T00:51:41Z</time>
      </trkpt>
      <trkpt lat="44.65155" lon="5.35975">
        <ele>771</ele>
        <time>2022-09-07T00:51:42Z</time>
      </trkpt>
      <trkpt lat="44.65148" lon="5.35973">
        <ele>773</ele>
        <time>2022-09-07T00:51:43Z</time>
      </trkpt>
      <trkpt lat="44.6514" lon="5.35963">
        <ele>776</ele>
        <time>2022-09-07T00:51:45Z</time>
      </trkpt>
      <trkpt lat="44.65132" lon="5.3596">
        <ele>778</ele>
        <time>2022-09-07T00:51:47Z</time>
      </trkpt>
      <trkpt lat="44.65123" lon="5.35961">
        <ele>780</ele>
        <time>2022-09-07T00:51:48Z</time>
      </trkpt>
      <trkpt lat="44.65109" lon="5.35971">
        <ele>782</ele>
        <time>2022-09-07T00:51:51Z</time>
      </trkpt>
      <trkpt lat="44.651" lon="5.35979">
        <ele>783</ele>
        <time>2022-09-07T00:51:53Z</time>
      </trkpt>
      <trkpt lat="44.65096" lon="5.3599">
        <ele>783</ele>
        <time>2022-09-07T00:51:55Z</time>
      </trkpt>
      <trkpt lat="44.65095" lon="5.36004">
        <ele>782</ele>
        <time>2022-09-07T00:51:56Z</time>
      </trkpt>
      <trkpt lat="44.65108" lon="5.36062">
        <ele>777</ele>
        <time>2022-09-07T00:52:04Z</time>
      </trkpt>
      <trkpt lat="44.65136" lon="5.36102">
        <ele>768</ele>
        <time>2022-09-07T00:52:11Z</time>
      </trkpt>
      <trkpt lat="44.65151" lon="5.36144">
        <ele>765</ele>
        <time>2022-09-07T00:52:17Z</time>
      </trkpt>
      <trkpt lat="44.65166" lon="5.36206">
        <ele>757</ele>
        <time>2022-09-07T00:52:25Z</time>
      </trkpt>
      <trkpt lat="44.65167" lon="5.36219">
        <ele>756</ele>
        <time>2022-09-07T00:52:27Z</time>
      </trkpt>
      <trkpt lat="44.65165" lon="5.36229">
        <ele>756</ele>
        <time>2022-09-07T00:52:28Z</time>
      </trkpt>
      <trkpt lat="44.65152" lon="5.36254">
        <ele>758</ele>
        <time>2022-09-07T00:52:32Z</time>
      </trkpt>
      <trkpt lat="44.65134" lon="5.36274">
        <ele>761</ele>
        <time>2022-09-07T00:52:36Z</time>
      </trkpt>
      <trkpt lat="44.65127" lon="5.36288">
        <ele>762</ele>
        <time>2022-09-07T00:52:39Z</time>
      </trkpt>
      <trkpt lat="44.65116" lon="5.36372">
        <ele>758</ele>
        <time>2022-09-07T00:52:49Z</time>
      </trkpt>
      <trkpt lat="44.65116" lon="5.36389">
        <ele>758</ele>
        <time>2022-09-07T00:52:51Z</time>
      </trkpt>
      <trkpt lat="44.65119" lon="5.36402">
        <ele>756</ele>
        <time>2022-09-07T00:52:53Z</time>
      </trkpt>
      <trkpt lat="44.65126" lon="5.3641">
        <ele>753</ele>
        <time>2022-09-07T00:52:55Z</time>
      </trkpt>
      <trkpt lat="44.65145" lon="5.36423">
        <ele>745</ele>
        <time>2022-09-07T00:52:59Z</time>
      </trkpt>
      <trkpt lat="44.6515" lon="5.36432">
        <ele>744</ele>
        <time>2022-09-07T00:53:00Z</time>
      </trkpt>
      <trkpt lat="44.65153" lon="5.36446">
        <ele>743</ele>
        <time>2022-09-07T00:53:02Z</time>
      </trkpt>
      <trkpt lat="44.65153" lon="5.36469">
        <ele>743</ele>
        <time>2022-09-07T00:53:05Z</time>
      </trkpt>
      <trkpt lat="44.65162" lon="5.36515">
        <ele>739</ele>
        <time>2022-09-07T00:53:11Z</time>
      </trkpt>
      <trkpt lat="44.65165" lon="5.36554">
        <ele>737</ele>
        <time>2022-09-07T00:53:16Z</time>
      </trkpt>
      <trkpt lat="44.65168" lon="5.3656">
        <ele>735</ele>
        <time>2022-09-07T00:53:17Z</time>
      </trkpt>
      <trkpt lat="44.65172" lon="5.36562">
        <ele>734</ele>
        <time>2022-09-07T00:53:17Z</time>
      </trkpt>
      <trkpt lat="44.65175" lon="5.3656">
        <ele>733</ele>
        <time>2022-09-07T00:53:18Z</time>
      </trkpt>
      <trkpt lat="44.65175" lon="5.36522">
        <ele>735</ele>
        <time>2022-09-07T00:53:23Z</time>
      </trkpt>
      <trkpt lat="44.65181" lon="5.36502">
        <ele>734</ele>
        <time>2022-09-07T00:53:26Z</time>
      </trkpt>
      <trkpt lat="44.65195" lon="5.36418">
        <ele>729</ele>
        <time>2022-09-07T00:53:37Z</time>
      </trkpt>
      <trkpt lat="44.65186" lon="5.36371">
        <ele>733</ele>
        <time>2022-09-07T00:53:43Z</time>
      </trkpt>
      <trkpt lat="44.65198" lon="5.36328">
        <ele>731</ele>
        <time>2022-09-07T00:53:49Z</time>
      </trkpt>
      <trkpt lat="44.6522" lon="5.36299">
        <ele>730</ele>
        <time>2022-09-07T00:53:54Z</time>
      </trkpt>
      <trkpt lat="44.65229" lon="5.36292">
        <ele>728</ele>
        <time>2022-09-07T00:53:56Z</time>
      </trkpt>
      <trkpt lat="44.65252" lon="5.3629">
        <ele>722</ele>
        <time>2022-09-07T00:54:00Z</time>
      </trkpt>
      <trkpt lat="44.65285" lon="5.36274">
        <ele>714</ele>
        <time>2022-09-07T00:54:06Z</time>
      </trkpt>
      <trkpt lat="44.65307" lon="5.36271">
        <ele>708</ele>
        <time>2022-09-07T00:54:10Z</time>
      </trkpt>
      <trkpt lat="44.65316" lon="5.36266">
        <ele>706</ele>
        <time>2022-09-07T00:54:12Z</time>
      </trkpt>
      <trkpt lat="44.65322" lon="5.36259">
        <ele>705</ele>
        <time>2022-09-07T00:54:13Z</time>
      </trkpt>
      <trkpt lat="44.65325" lon="5.36253">
        <ele>704</ele>
        <time>2022-09-07T00:54:14Z</time>
      </trkpt>
      <trkpt lat="44.65326" lon="5.36242">
        <ele>705</ele>
        <time>2022-09-07T00:54:15Z</time>
      </trkpt>
      <trkpt lat="44.65313" lon="5.36193">
        <ele>710</ele>
        <time>2022-09-07T00:54:22Z</time>
      </trkpt>
      <trkpt lat="44.65312" lon="5.36186">
        <ele>711</ele>
        <time>2022-09-07T00:54:23Z</time>
      </trkpt>
      <trkpt lat="44.65314" lon="5.36182">
        <ele>710</ele>
        <time>2022-09-07T00:54:24Z</time>
      </trkpt>
      <trkpt lat="44.6532" lon="5.36183">
        <ele>708</ele>
        <time>2022-09-07T00:54:25Z</time>
      </trkpt>
      <trkpt lat="44.65335" lon="5.36232">
        <ele>702</ele>
        <time>2022-09-07T00:54:31Z</time>
      </trkpt>
      <trkpt lat="44.6535" lon="5.36256">
        <ele>694</ele>
        <time>2022-09-07T00:54:35Z</time>
      </trkpt>
      <trkpt lat="44.65358" lon="5.3628">
        <ele>689</ele>
        <time>2022-09-07T00:54:39Z</time>
      </trkpt>
      <trkpt lat="44.65358" lon="5.36293">
        <ele>688</ele>
        <time>2022-09-07T00:54:40Z</time>
      </trkpt>
      <trkpt lat="44.65353" lon="5.363">
        <ele>690</ele>
        <time>2022-09-07T00:54:42Z</time>
      </trkpt>
      <trkpt lat="44.65346" lon="5.36307">
        <ele>692</ele>
        <time>2022-09-07T00:54:43Z</time>
      </trkpt>
      <trkpt lat="44.65335" lon="5.36309">
        <ele>696</ele>
        <time>2022-09-07T00:54:45Z</time>
      </trkpt>
      <trkpt lat="44.65322" lon="5.36319">
        <ele>699</ele>
        <time>2022-09-07T00:54:48Z</time>
      </trkpt>
      <trkpt lat="44.65313" lon="5.36331">
        <ele>700</ele>
        <time>2022-09-07T00:54:50Z</time>
      </trkpt>
      <trkpt lat="44.65307" lon="5.36361">
        <ele>700</ele>
        <time>2022-09-07T00:54:54Z</time>
      </trkpt>
      <trkpt lat="44.65311" lon="5.36385">
        <ele>697</ele>
        <time>2022-09-07T00:54:57Z</time>
      </trkpt>
      <trkpt lat="44.65325" lon="5.36421">
        <ele>690</ele>
        <time>2022-09-07T00:55:02Z</time>
      </trkpt>
      <trkpt lat="44.65317" lon="5.3646">
        <ele>692</ele>
        <time>2022-09-07T00:55:07Z</time>
      </trkpt>
      <trkpt lat="44.65318" lon="5.36471">
        <ele>692</ele>
        <time>2022-09-07T00:55:09Z</time>
      </trkpt>
      <trkpt lat="44.65329" lon="5.3651">
        <ele>687</ele>
        <time>2022-09-07T00:55:14Z</time>
      </trkpt>
      <trkpt lat="44.65331" lon="5.36568">
        <ele>681</ele>
        <time>2022-09-07T00:55:21Z</time>
      </trkpt>
      <trkpt lat="44.65333" lon="5.36578">
        <ele>680</ele>
        <time>2022-09-07T00:55:23Z</time>
      </trkpt>
      <trkpt lat="44.65337" lon="5.36582">
        <ele>678</ele>
        <time>2022-09-07T00:55:24Z</time>
      </trkpt>
      <trkpt lat="44.65341" lon="5.36582">
        <ele>677</ele>
        <time>2022-09-07T00:55:24Z</time>
      </trkpt>
      <trkpt lat="44.65344" lon="5.36579">
        <ele>677</ele>
        <time>2022-09-07T00:55:25Z</time>
      </trkpt>
      <trkpt lat="44.65341" lon="5.36554">
        <ele>680</ele>
        <time>2022-09-07T00:55:28Z</time>
      </trkpt>
      <trkpt lat="44.65345" lon="5.36531">
        <ele>681</ele>
        <time>2022-09-07T00:55:31Z</time>
      </trkpt>
      <trkpt lat="44.65389" lon="5.36475">
        <ele>670</ele>
        <time>2022-09-07T00:55:42Z</time>
      </trkpt>
      <trkpt lat="44.65393" lon="5.36465">
        <ele>668</ele>
        <time>2022-09-07T00:55:43Z</time>
      </trkpt>
      <trkpt lat="44.6539" lon="5.36443">
        <ele>669</ele>
        <time>2022-09-07T00:55:46Z</time>
      </trkpt>
      <trkpt lat="44.65381" lon="5.36423">
        <ele>672</ele>
        <time>2022-09-07T00:55:49Z</time>
      </trkpt>
      <trkpt lat="44.65382" lon="5.36417">
        <ele>671</ele>
        <time>2022-09-07T00:55:50Z</time>
      </trkpt>
      <trkpt lat="44.65385" lon="5.36415">
        <ele>670</ele>
        <time>2022-09-07T00:55:50Z</time>
      </trkpt>
      <trkpt lat="44.65389" lon="5.36417">
        <ele>669</ele>
        <time>2022-09-07T00:55:51Z</time>
      </trkpt>
      <trkpt lat="44.65404" lon="5.36446">
        <ele>664</ele>
        <time>2022-09-07T00:55:56Z</time>
      </trkpt>
      <trkpt lat="44.65421" lon="5.365">
        <ele>660</ele>
        <time>2022-09-07T00:56:03Z</time>
      </trkpt>
      <trkpt lat="44.65412" lon="5.36547">
        <ele>660</ele>
        <time>2022-09-07T00:56:09Z</time>
      </trkpt>
      <trkpt lat="44.65414" lon="5.36566">
        <ele>659</ele>
        <time>2022-09-07T00:56:12Z</time>
      </trkpt>
      <trkpt lat="44.65419" lon="5.3657">
        <ele>657</ele>
        <time>2022-09-07T00:56:13Z</time>
      </trkpt>
      <trkpt lat="44.65428" lon="5.36568">
        <ele>655</ele>
        <time>2022-09-07T00:56:14Z</time>
      </trkpt>
      <trkpt lat="44.65432" lon="5.36561">
        <ele>654</ele>
        <time>2022-09-07T00:56:16Z</time>
      </trkpt>
      <trkpt lat="44.65444" lon="5.3651">
        <ele>651</ele>
        <time>2022-09-07T00:56:22Z</time>
      </trkpt>
      <trkpt lat="44.65434" lon="5.36441">
        <ele>652</ele>
        <time>2022-09-07T00:56:31Z</time>
      </trkpt>
      <trkpt lat="44.65436" lon="5.36435">
        <ele>651</ele>
        <time>2022-09-07T00:56:32Z</time>
      </trkpt>
      <trkpt lat="44.65439" lon="5.36434">
        <ele>650</ele>
        <time>2022-09-07T00:56:33Z</time>
      </trkpt>
      <trkpt lat="44.65442" lon="5.36437">
        <ele>649</ele>
        <time>2022-09-07T00:56:33Z</time>
      </trkpt>
      <trkpt lat="44.65447" lon="5.36463">
        <ele>648</ele>
        <time>2022-09-07T00:56:37Z</time>
      </trkpt>
      <trkpt lat="44.65453" lon="5.36479">
        <ele>646</ele>
        <time>2022-09-07T00:56:39Z</time>
      </trkpt>
      <trkpt lat="44.65461" lon="5.36495">
        <ele>644</ele>
        <time>2022-09-07T00:56:42Z</time>
      </trkpt>
      <trkpt lat="44.65478" lon="5.36517">
        <ele>638</ele>
        <time>2022-09-07T00:56:46Z</time>
      </trkpt>
      <trkpt lat="44.65483" lon="5.36529">
        <ele>637</ele>
        <time>2022-09-07T00:56:47Z</time>
      </trkpt>
      <trkpt lat="44.65495" lon="5.36599">
        <ele>634</ele>
        <time>2022-09-07T00:56:57Z</time>
      </trkpt>
      <trkpt lat="44.65491" lon="5.36633">
        <ele>631</ele>
        <time>2022-09-07T00:57:01Z</time>
      </trkpt>
      <trkpt lat="44.65493" lon="5.36639">
        <ele>630</ele>
        <time>2022-09-07T00:57:02Z</time>
      </trkpt>
      <trkpt lat="44.65497" lon="5.3664">
        <ele>629</ele>
        <time>2022-09-07T00:57:02Z</time>
      </trkpt>
      <trkpt lat="44.65505" lon="5.36634">
        <ele>628</ele>
        <time>2022-09-07T00:57:04Z</time>
      </trkpt>
      <trkpt lat="44.65512" lon="5.36615">
        <ele>628</ele>
        <time>2022-09-07T00:57:07Z</time>
      </trkpt>
      <trkpt lat="44.65506" lon="5.36566">
        <ele>631</ele>
        <time>2022-09-07T00:57:13Z</time>
      </trkpt>
      <trkpt lat="44.65509" lon="5.36519">
        <ele>627</ele>
        <time>2022-09-07T00:57:19Z</time>
      </trkpt>
      <trkpt lat="44.65501" lon="5.3646">
        <ele>625</ele>
        <time>2022-09-07T00:57:27Z</time>
      </trkpt>
      <trkpt lat="44.65502" lon="5.36379">
        <ele>623</ele>
        <time>2022-09-07T00:57:37Z</time>
      </trkpt>
      <trkpt lat="44.65503" lon="5.36366">
        <ele>623</ele>
        <time>2022-09-07T00:57:39Z</time>
      </trkpt>
      <trkpt lat="44.65506" lon="5.36359">
        <ele>623</ele>
        <time>2022-09-07T00:57:40Z</time>
      </trkpt>
      <trkpt lat="44.65512" lon="5.36353">
        <ele>622</ele>
        <time>2022-09-07T00:57:41Z</time>
      </trkpt>
      <trkpt lat="44.6552" lon="5.3635">
        <ele>621</ele>
        <time>2022-09-07T00:57:42Z</time>
      </trkpt>
      <trkpt lat="44.65538" lon="5.36357">
        <ele>618</ele>
        <time>2022-09-07T00:57:46Z</time>
      </trkpt>
      <trkpt lat="44.65548" lon="5.36357">
        <ele>616</ele>
        <time>2022-09-07T00:57:47Z</time>
      </trkpt>
      <trkpt lat="44.65575" lon="5.3635">
        <ele>612</ele>
        <time>2022-09-07T00:57:52Z</time>
      </trkpt>
      <trkpt lat="44.65598" lon="5.36348">
        <ele>609</ele>
        <time>2022-09-07T00:57:56Z</time>
      </trkpt>
      <trkpt lat="44.65633" lon="5.36337">
        <ele>607</ele>
        <time>2022-09-07T00:58:03Z</time>
      </trkpt>
      <trkpt lat="44.65704" lon="5.3634">
        <ele>602</ele>
        <time>2022-09-07T00:58:15Z</time>
      </trkpt>
      <trkpt lat="44.65721" lon="5.36349">
        <ele>600</ele>
        <time>2022-09-07T00:58:19Z</time>
      </trkpt>
      <trkpt lat="44.65729" lon="5.3636">
        <ele>598</ele>
        <time>2022-09-07T00:58:21Z</time>
      </trkpt>
      <trkpt lat="44.65739" lon="5.36404">
        <ele>594</ele>
        <time>2022-09-07T00:58:27Z</time>
      </trkpt>
      <trkpt lat="44.65738" lon="5.36505">
        <ele>589</ele>
        <time>2022-09-07T00:58:39Z</time>
      </trkpt>
      <trkpt lat="44.65749" lon="5.36585">
        <ele>585</ele>
        <time>2022-09-07T00:58:50Z</time>
      </trkpt>
      <trkpt lat="44.65755" lon="5.36606">
        <ele>584</ele>
        <time>2022-09-07T00:58:53Z</time>
      </trkpt>
      <trkpt lat="44.65761" lon="5.36618">
        <ele>583</ele>
        <time>2022-09-07T00:58:54Z</time>
      </trkpt>
      <trkpt lat="44.65793" lon="5.36651">
        <ele>581</ele>
        <time>2022-09-07T00:59:01Z</time>
      </trkpt>
      <trkpt lat="44.65837" lon="5.36719">
        <ele>580</ele>
        <time>2022-09-07T00:59:13Z</time>
      </trkpt>
      <trkpt lat="44.65845" lon="5.36723">
        <ele>580</ele>
        <time>2022-09-07T00:59:15Z</time>
      </trkpt>
      <trkpt lat="44.65852" lon="5.3672">
        <ele>580</ele>
        <time>2022-09-07T00:59:16Z</time>
      </trkpt>
      <trkpt lat="44.65874" lon="5.367">
        <ele>580</ele>
        <time>2022-09-07T00:59:21Z</time>
      </trkpt>
      <trkpt lat="44.65885" lon="5.36695">
        <ele>580</ele>
        <time>2022-09-07T00:59:23Z</time>
      </trkpt>
      <trkpt lat="44.65895" lon="5.36696">
        <ele>580</ele>
        <time>2022-09-07T00:59:24Z</time>
      </trkpt>
      <trkpt lat="44.65898" lon="5.36702">
        <ele>581</ele>
        <time>2022-09-07T00:59:25Z</time>
      </trkpt>
      <trkpt lat="44.65912" lon="5.36778">
        <ele>581</ele>
        <time>2022-09-07T00:59:35Z</time>
      </trkpt>
      <trkpt lat="44.65917" lon="5.36794">
        <ele>580</ele>
        <time>2022-09-07T00:59:37Z</time>
      </trkpt>
      <trkpt lat="44.65927" lon="5.36811">
        <ele>582</ele>
        <time>2022-09-07T00:59:40Z</time>
      </trkpt>
      <trkpt lat="44.65944" lon="5.36872">
        <ele>578</ele>
        <time>2022-09-07T00:59:49Z</time>
      </trkpt>
      <trkpt lat="44.65964" lon="5.36907">
        <ele>576</ele>
        <time>2022-09-07T00:59:54Z</time>
      </trkpt>
      <trkpt lat="44.65981" lon="5.3696">
        <ele>574</ele>
        <time>2022-09-07T01:00:02Z</time>
      </trkpt>
      <trkpt lat="44.65986" lon="5.36988">
        <ele>572</ele>
        <time>2022-09-07T01:00:05Z</time>
      </trkpt>
      <trkpt lat="44.65987" lon="5.37042">
        <ele>570</ele>
        <time>2022-09-07T01:00:12Z</time>
      </trkpt>
      <trkpt lat="44.66006" lon="5.37104">
        <ele>568</ele>
        <time>2022-09-07T01:00:21Z</time>
      </trkpt>
      <trkpt lat="44.66044" lon="5.3726">
        <ele>558</ele>
        <time>2022-09-07T01:00:41Z</time>
      </trkpt>
      <trkpt lat="44.66054" lon="5.37283">
        <ele>558</ele>
        <time>2022-09-07T01:00:45Z</time>
      </trkpt>
      <trkpt lat="44.6607" lon="5.3731">
        <ele>558</ele>
        <time>2022-09-07T01:00:49Z</time>
      </trkpt>
      <trkpt lat="44.66148" lon="5.37434">
        <ele>555</ele>
        <time>2022-09-07T01:01:10Z</time>
      </trkpt>
      <trkpt lat="44.66177" lon="5.37503">
        <ele>554</ele>
        <time>2022-09-07T01:01:20Z</time>
      </trkpt>
      <trkpt lat="44.66183" lon="5.37536">
        <ele>553</ele>
        <time>2022-09-07T01:01:25Z</time>
      </trkpt>
      <trkpt lat="44.66187" lon="5.37618">
        <ele>550</ele>
        <time>2022-09-07T01:01:35Z</time>
      </trkpt>
      <trkpt lat="44.66204" lon="5.37756">
        <ele>543</ele>
        <time>2022-09-07T01:01:53Z</time>
      </trkpt>
      <trkpt lat="44.6621" lon="5.3778">
        <ele>542</ele>
        <time>2022-09-07T01:01:56Z</time>
      </trkpt>
      <trkpt lat="44.66246" lon="5.37896">
        <ele>535</ele>
        <time>2022-09-07T01:02:12Z</time>
      </trkpt>
      <trkpt lat="44.66262" lon="5.37932">
        <ele>534</ele>
        <time>2022-09-07T01:02:17Z</time>
      </trkpt>
      <trkpt lat="44.66309" lon="5.38009">
        <ele>535</ele>
        <time>2022-09-07T01:02:30Z</time>
      </trkpt>
      <trkpt lat="44.66319" lon="5.38034">
        <ele>535</ele>
        <time>2022-09-07T01:02:34Z</time>
      </trkpt>
      <trkpt lat="44.66347" lon="5.38169">
        <ele>532</ele>
        <time>2022-09-07T01:02:52Z</time>
      </trkpt>
      <trkpt lat="44.66385" lon="5.38307">
        <ele>528</ele>
        <time>2022-09-07T01:03:10Z</time>
      </trkpt>
      <trkpt lat="44.66398" lon="5.38342">
        <ele>528</ele>
        <time>2022-09-07T01:03:15Z</time>
      </trkpt>
      <trkpt lat="44.66713" lon="5.38873">
        <ele>511</ele>
        <time>2022-09-07T01:04:43Z</time>
      </trkpt>
      <trkpt lat="44.66741" lon="5.38907">
        <ele>509</ele>
        <time>2022-09-07T01:04:50Z</time>
      </trkpt>
      <trkpt lat="44.66808" lon="5.38964">
        <ele>506</ele>
        <time>2022-09-07T01:05:03Z</time>
      </trkpt>
      <trkpt lat="44.6685" lon="5.39003">
        <ele>505</ele>
        <time>2022-09-07T01:05:12Z</time>
      </trkpt>
      <trkpt lat="44.66869" lon="5.39024">
        <ele>505</ele>
        <time>2022-09-07T01:05:17Z</time>
      </trkpt>
      <trkpt lat="44.6688" lon="5.39043">
        <ele>504</ele>
        <time>2022-09-07T01:05:20Z</time>
      </trkpt>
      <trkpt lat="44.66913" lon="5.39122">
        <ele>498</ele>
        <time>2022-09-07T01:05:31Z</time>
      </trkpt>
      <trkpt lat="44.6695" lon="5.39181">
        <ele>497</ele>
        <time>2022-09-07T01:05:41Z</time>
      </trkpt>
      <trkpt lat="44.66987" lon="5.39229">
        <ele>496</ele>
        <time>2022-09-07T01:05:50Z</time>
      </trkpt>
      <trkpt lat="44.67016" lon="5.39261">
        <ele>496</ele>
        <time>2022-09-07T01:05:57Z</time>
      </trkpt>
      <trkpt lat="44.67091" lon="5.3933">
        <ele>497</ele>
        <time>2022-09-07T01:06:13Z</time>
      </trkpt>
      <trkpt lat="44.67116" lon="5.39364">
        <ele>498</ele>
        <time>2022-09-07T01:06:19Z</time>
      </trkpt>
      <trkpt lat="44.67129" lon="5.3939">
        <ele>497</ele>
        <time>2022-09-07T01:06:23Z</time>
      </trkpt>
      <trkpt lat="44.67147" lon="5.39446">
        <ele>493</ele>
        <time>2022-09-07T01:06:31Z</time>
      </trkpt>
      <trkpt lat="44.67151" lon="5.39473">
        <ele>490</ele>
        <time>2022-09-07T01:06:34Z</time>
      </trkpt>
      <trkpt lat="44.67159" lon="5.39671">
        <ele>484</ele>
        <time>2022-09-07T01:06:59Z</time>
      </trkpt>
      <trkpt lat="44.6717" lon="5.39712">
        <ele>484</ele>
        <time>2022-09-07T01:07:05Z</time>
      </trkpt>
      <trkpt lat="44.6718" lon="5.39733">
        <ele>484</ele>
        <time>2022-09-07T01:07:08Z</time>
      </trkpt>
      <trkpt lat="44.67276" lon="5.39901">
        <ele>480</ele>
        <time>2022-09-07T01:07:35Z</time>
      </trkpt>
      <trkpt lat="44.67314" lon="5.39958">
        <ele>478</ele>
        <time>2022-09-07T01:07:45Z</time>
      </trkpt>
      <trkpt lat="44.67334" lon="5.39973">
        <ele>476</ele>
        <time>2022-09-07T01:07:49Z</time>
      </trkpt>
      <trkpt lat="44.67354" lon="5.39978">
        <ele>476</ele>
        <time>2022-09-07T01:07:53Z</time>
      </trkpt>
      <trkpt lat="44.67384" lon="5.39967">
        <ele>475</ele>
        <time>2022-09-07T01:07:58Z</time>
      </trkpt>
      <trkpt lat="44.67389" lon="5.39968">
        <ele>475</ele>
        <time>2022-09-07T01:07:59Z</time>
      </trkpt>
      <trkpt lat="44.67396" lon="5.39975">
        <ele>475</ele>
        <time>2022-09-07T01:08:01Z</time>
      </trkpt>
      <trkpt lat="44.676" lon="5.39507">
        <ele>470</ele>
        <time>2022-09-07T01:09:10Z</time>
      </trkpt>
      <trkpt lat="44.6764" lon="5.39448">
        <ele>472</ele>
        <time>2022-09-07T01:09:21Z</time>
      </trkpt>
      <trkpt lat="44.67658" lon="5.39429">
        <ele>472</ele>
        <time>2022-09-07T01:09:25Z</time>
      </trkpt>
      <trkpt lat="44.67699" lon="5.39396">
        <ele>472</ele>
        <time>2022-09-07T01:09:33Z</time>
      </trkpt>
      <trkpt lat="44.67738" lon="5.39375">
        <ele>474</ele>
        <time>2022-09-07T01:09:41Z</time>
      </trkpt>
      <trkpt lat="44.67765" lon="5.39357">
        <ele>474</ele>
        <time>2022-09-07T01:09:46Z</time>
      </trkpt>
      <trkpt lat="44.67868" lon="5.39301">
        <ele>473</ele>
        <time>2022-09-07T01:10:05Z</time>
      </trkpt>
      <trkpt lat="44.67924" lon="5.39278">
        <ele>473</ele>
        <time>2022-09-07T01:10:16Z</time>
      </trkpt>
      <trkpt lat="44.68091" lon="5.39237">
        <ele>470</ele>
        <time>2022-09-07T01:10:46Z</time>
      </trkpt>
      <trkpt lat="44.68497" lon="5.39148">
        <ele>461</ele>
        <time>2022-09-07T01:11:59Z</time>
      </trkpt>
      <trkpt lat="44.68751" lon="5.39106">
        <ele>463</ele>
        <time>2022-09-07T01:12:45Z</time>
      </trkpt>
      <trkpt lat="44.68939" lon="5.39131">
        <ele>459</ele>
        <time>2022-09-07T01:13:18Z</time>
      </trkpt>
      <trkpt lat="44.69379" lon="5.3931">
        <ele>465</ele>
        <time>2022-09-07T01:14:40Z</time>
      </trkpt>
      <trkpt lat="44.69438" lon="5.3934">
        <ele>464</ele>
        <time>2022-09-07T01:14:51Z</time>
      </trkpt>
      <trkpt lat="44.69817" lon="5.39579">
        <ele>460</ele>
        <time>2022-09-07T01:16:05Z</time>
      </trkpt>
      <trkpt lat="44.70072" lon="5.39672">
        <ele>453</ele>
        <time>2022-09-07T01:16:52Z</time>
      </trkpt>
      <trkpt lat="44.70144" lon="5.39694">
        <ele>453</ele>
        <time>2022-09-07T01:17:05Z</time>
      </trkpt>
      <trkpt lat="44.7019" lon="5.39724">
        <ele>452</ele>
        <time>2022-09-07T01:17:14Z</time>
      </trkpt>
      <trkpt lat="44.70377" lon="5.39868">
        <ele>445</ele>
        <time>2022-09-07T01:17:52Z</time>
      </trkpt>
      <trkpt lat="44.70437" lon="5.39895">
        <ele>444</ele>
        <time>2022-09-07T01:18:03Z</time>
      </trkpt>
      <trkpt lat="44.70513" lon="5.39921">
        <ele>444</ele>
        <time>2022-09-07T01:18:17Z</time>
      </trkpt>
      <trkpt lat="44.70578" lon="5.39687">
        <ele>445</ele>
        <time>2022-09-07T01:18:49Z</time>
      </trkpt>
      <trkpt lat="44.70592" lon="5.39647">
        <ele>445</ele>
        <time>2022-09-07T01:18:54Z</time>
      </trkpt>
      <trkpt lat="44.70641" lon="5.39601">
        <ele>444</ele>
        <time>2022-09-07T01:19:05Z</time>
      </trkpt>
      <trkpt lat="44.70931" lon="5.39535">
        <ele>438</ele>
        <time>2022-09-07T01:19:57Z</time>
      </trkpt>
      <trkpt lat="44.71045" lon="5.39515">
        <ele>443</ele>
        <time>2022-09-07T01:20:17Z</time>
      </trkpt>
      <trkpt lat="44.71054" lon="5.39509">
        <ele>444</ele>
        <time>2022-09-07T01:20:19Z</time>
      </trkpt>
      <trkpt lat="44.71144" lon="5.39402">
        <ele>453</ele>
        <time>2022-09-07T01:20:40Z</time>
      </trkpt>
      <trkpt lat="44.71313" lon="5.39194">
        <ele>471</ele>
        <time>2022-09-07T01:21:20Z</time>
      </trkpt>
      <trkpt lat="44.71345" lon="5.39139">
        <ele>468</ele>
        <time>2022-09-07T01:21:29Z</time>
      </trkpt>
      <trkpt lat="44.71508" lon="5.38944">
        <ele>475</ele>
        <time>2022-09-07T01:22:07Z</time>
      </trkpt>
      <trkpt lat="44.71521" lon="5.3891">
        <ele>475</ele>
        <time>2022-09-07T01:22:12Z</time>
      </trkpt>
      <trkpt lat="44.71649" lon="5.38802">
        <ele>482</ele>
        <time>2022-09-07T01:22:39Z</time>
      </trkpt>
      <trkpt lat="44.71706" lon="5.38772">
        <ele>484</ele>
        <time>2022-09-07T01:22:49Z</time>
      </trkpt>
      <trkpt lat="44.71731" lon="5.38774">
        <ele>486</ele>
        <time>2022-09-07T01:22:54Z</time>
      </trkpt>
      <trkpt lat="44.71786" lon="5.38803">
        <ele>490</ele>
        <time>2022-09-07T01:23:04Z</time>
      </trkpt>
      <trkpt lat="44.71826" lon="5.38813">
        <ele>492</ele>
        <time>2022-09-07T01:23:12Z</time>
      </trkpt>
      <trkpt lat="44.71885" lon="5.38821">
        <ele>488</ele>
        <time>2022-09-07T01:23:22Z</time>
      </trkpt>
      <trkpt lat="44.7193" lon="5.38838">
        <ele>482</ele>
        <time>2022-09-07T01:23:30Z</time>
      </trkpt>
      <trkpt lat="44.71934" lon="5.38842">
        <ele>482</ele>
        <time>2022-09-07T01:23:31Z</time>
      </trkpt>
      <trkpt lat="44.72005" lon="5.38849">
        <ele>471</ele>
        <time>2022-09-07T01:23:44Z</time>
      </trkpt>
      <trkpt lat="44.72029" lon="5.38869">
        <ele>470</ele>
        <time>2022-09-07T01:23:49Z</time>
      </trkpt>
      <trkpt lat="44.72051" lon="5.38876">
        <ele>468</ele>
        <time>2022-09-07T01:23:53Z</time>
      </trkpt>
      <trkpt lat="44.72071" lon="5.38876">
        <ele>465</ele>
        <time>2022-09-07T01:23:57Z</time>
      </trkpt>
      <trkpt lat="44.72094" lon="5.38861">
        <ele>462</ele>
        <time>2022-09-07T01:24:01Z</time>
      </trkpt>
      <trkpt lat="44.72113" lon="5.38834">
        <ele>459</ele>
        <time>2022-09-07T01:24:06Z</time>
      </trkpt>
      <trkpt lat="44.72125" lon="5.38804">
        <ele>457</ele>
        <time>2022-09-07T01:24:10Z</time>
      </trkpt>
      <trkpt lat="44.72122" lon="5.3875">
        <ele>457</ele>
        <time>2022-09-07T01:24:17Z</time>
      </trkpt>
      <trkpt lat="44.72128" lon="5.38739">
        <ele>457</ele>
        <time>2022-09-07T01:24:19Z</time>
      </trkpt>
      <trkpt lat="44.72161" lon="5.38728">
        <ele>453</ele>
        <time>2022-09-07T01:24:25Z</time>
      </trkpt>
      <trkpt lat="44.72167" lon="5.38719">
        <ele>453</ele>
        <time>2022-09-07T01:24:26Z</time>
      </trkpt>
      <trkpt lat="44.72168" lon="5.38686">
        <ele>454</ele>
        <time>2022-09-07T01:24:31Z</time>
      </trkpt>
      <trkpt lat="44.72172" lon="5.3868">
        <ele>454</ele>
        <time>2022-09-07T01:24:32Z</time>
      </trkpt>
      <trkpt lat="44.7218" lon="5.38676">
        <ele>453</ele>
        <time>2022-09-07T01:24:33Z</time>
      </trkpt>
      <trkpt lat="44.72187" lon="5.38676">
        <ele>453</ele>
        <time>2022-09-07T01:24:34Z</time>
      </trkpt>
      <trkpt lat="44.72191" lon="5.38688">
        <ele>453</ele>
        <time>2022-09-07T01:24:36Z</time>
      </trkpt>
      <trkpt lat="44.72191" lon="5.387">
        <ele>452</ele>
        <time>2022-09-07T01:24:38Z</time>
      </trkpt>
      <trkpt lat="44.72197" lon="5.38729">
        <ele>452</ele>
        <time>2022-09-07T01:24:41Z</time>
      </trkpt>
      <trkpt lat="44.72204" lon="5.38738">
        <ele>451</ele>
        <time>2022-09-07T01:24:43Z</time>
      </trkpt>
      <trkpt lat="44.72212" lon="5.38743">
        <ele>451</ele>
        <time>2022-09-07T01:24:45Z</time>
      </trkpt>
      <trkpt lat="44.72241" lon="5.38746">
        <ele>449</ele>
        <time>2022-09-07T01:24:50Z</time>
      </trkpt>
      <trkpt lat="44.72252" lon="5.3876">
        <ele>448</ele>
        <time>2022-09-07T01:24:52Z</time>
      </trkpt>
      <trkpt lat="44.72268" lon="5.38774">
        <ele>448</ele>
        <time>2022-09-07T01:24:56Z</time>
      </trkpt>
      <trkpt lat="44.72293" lon="5.3879">
        <ele>446</ele>
        <time>2022-09-07T01:25:01Z</time>
      </trkpt>
      <trkpt lat="44.72318" lon="5.38801">
        <ele>445</ele>
        <time>2022-09-07T01:25:05Z</time>
      </trkpt>
      <trkpt lat="44.72331" lon="5.38796">
        <ele>445</ele>
        <time>2022-09-07T01:25:08Z</time>
      </trkpt>
      <trkpt lat="44.72454" lon="5.38704">
        <ele>447</ele>
        <time>2022-09-07T01:25:32Z</time>
      </trkpt>
      <trkpt lat="44.72465" lon="5.38699">
        <ele>447</ele>
        <time>2022-09-07T01:25:35Z</time>
      </trkpt>
      <trkpt lat="44.72497" lon="5.38781">
        <ele>442</ele>
        <time>2022-09-07T01:25:46Z</time>
      </trkpt>
      <trkpt lat="44.72533" lon="5.38825">
        <ele>438</ele>
        <time>2022-09-07T01:25:55Z</time>
      </trkpt>
      <trkpt lat="44.72576" lon="5.38838">
        <ele>435</ele>
        <time>2022-09-07T01:26:03Z</time>
      </trkpt>
      <trkpt lat="44.72655" lon="5.38815">
        <ele>433</ele>
        <time>2022-09-07T01:26:17Z</time>
      </trkpt>
      <trkpt lat="44.72825" lon="5.38729">
        <ele>422</ele>
        <time>2022-09-07T01:26:49Z</time>
      </trkpt>
      <trkpt lat="44.72939" lon="5.38712">
        <ele>420</ele>
        <time>2022-09-07T01:27:10Z</time>
      </trkpt>
      <trkpt lat="44.7297" lon="5.38628">
        <ele>428</ele>
        <time>2022-09-07T01:27:22Z</time>
      </trkpt>
      <trkpt lat="44.72993" lon="5.38595">
        <ele>431</ele>
        <time>2022-09-07T01:27:27Z</time>
      </trkpt>
      <trkpt lat="44.73048" lon="5.38584">
        <ele>426</ele>
        <time>2022-09-07T01:27:37Z</time>
      </trkpt>
      <trkpt lat="44.73085" lon="5.38555">
        <ele>427</ele>
        <time>2022-09-07T01:27:45Z</time>
      </trkpt>
      <trkpt lat="44.73129" lon="5.3858">
        <ele>422</ele>
        <time>2022-09-07T01:27:53Z</time>
      </trkpt>
      <trkpt lat="44.73148" lon="5.38578">
        <ele>422</ele>
        <time>2022-09-07T01:27:57Z</time>
      </trkpt>
      <trkpt lat="44.732" lon="5.38587">
        <ele>419</ele>
        <time>2022-09-07T01:28:06Z</time>
      </trkpt>
      <trkpt lat="44.73298" lon="5.38572">
        <ele>419</ele>
        <time>2022-09-07T01:28:23Z</time>
      </trkpt>
      <trkpt lat="44.73314" lon="5.38564">
        <ele>420</ele>
        <time>2022-09-07T01:28:27Z</time>
      </trkpt>
      <trkpt lat="44.73322" lon="5.38543">
        <ele>424</ele>
        <time>2022-09-07T01:28:30Z</time>
      </trkpt>
      <trkpt lat="44.73324" lon="5.38521">
        <ele>427</ele>
        <time>2022-09-07T01:28:32Z</time>
      </trkpt>
      <trkpt lat="44.73333" lon="5.38506">
        <ele>429</ele>
        <time>2022-09-07T01:28:35Z</time>
      </trkpt>
      <trkpt lat="44.73384" lon="5.38479">
        <ele>432</ele>
        <time>2022-09-07T01:28:45Z</time>
      </trkpt>
      <trkpt lat="44.73431" lon="5.38435">
        <ele>436</ele>
        <time>2022-09-07T01:28:55Z</time>
      </trkpt>
      <trkpt lat="44.73465" lon="5.38393">
        <ele>441</ele>
        <time>2022-09-07T01:29:03Z</time>
      </trkpt>
      <trkpt lat="44.73516" lon="5.3836">
        <ele>438</ele>
        <time>2022-09-07T01:29:13Z</time>
      </trkpt>
      <trkpt lat="44.73541" lon="5.38333">
        <ele>438</ele>
        <time>2022-09-07T01:29:18Z</time>
      </trkpt>
      <trkpt lat="44.73577" lon="5.38316">
        <ele>431</ele>
        <time>2022-09-07T01:29:25Z</time>
      </trkpt>
      <trkpt lat="44.73603" lon="5.38293">
        <ele>432</ele>
        <time>2022-09-07T01:29:30Z</time>
      </trkpt>
      <trkpt lat="44.73643" lon="5.38245">
        <ele>435</ele>
        <time>2022-09-07T01:29:40Z</time>
      </trkpt>
      <trkpt lat="44.7367" lon="5.38218">
        <ele>438</ele>
        <time>2022-09-07T01:29:46Z</time>
      </trkpt>
      <trkpt lat="44.73703" lon="5.38204">
        <ele>434</ele>
        <time>2022-09-07T01:29:52Z</time>
      </trkpt>
      <trkpt lat="44.73728" lon="5.38173">
        <ele>435</ele>
        <time>2022-09-07T01:29:58Z</time>
      </trkpt>
      <trkpt lat="44.73773" lon="5.38135">
        <ele>431</ele>
        <time>2022-09-07T01:30:07Z</time>
      </trkpt>
      <trkpt lat="44.73799" lon="5.38122">
        <ele>428</ele>
        <time>2022-09-07T01:30:12Z</time>
      </trkpt>
      <trkpt lat="44.73828" lon="5.38113">
        <ele>424</ele>
        <time>2022-09-07T01:30:17Z</time>
      </trkpt>
      <trkpt lat="44.73862" lon="5.38115">
        <ele>422</ele>
        <time>2022-09-07T01:30:23Z</time>
      </trkpt>
      <trkpt lat="44.73912" lon="5.3811">
        <ele>424</ele>
        <time>2022-09-07T01:30:32Z</time>
      </trkpt>
      <trkpt lat="44.73941" lon="5.38111">
        <ele>426</ele>
        <time>2022-09-07T01:30:37Z</time>
      </trkpt>
      <trkpt lat="44.73957" lon="5.38114">
        <ele>426</ele>
        <time>2022-09-07T01:30:40Z</time>
      </trkpt>
      <trkpt lat="44.74054" lon="5.38168">
        <ele>413</ele>
        <time>2022-09-07T01:30:59Z</time>
      </trkpt>
      <trkpt lat="44.74119" lon="5.38192">
        <ele>412</ele>
        <time>2022-09-07T01:31:11Z</time>
      </trkpt>
      <trkpt lat="44.74146" lon="5.38188">
        <ele>412</ele>
        <time>2022-09-07T01:31:16Z</time>
      </trkpt>
      <trkpt lat="44.74207" lon="5.3816">
        <ele>414</ele>
        <time>2022-09-07T01:31:27Z</time>
      </trkpt>
      <trkpt lat="44.74264" lon="5.38145">
        <ele>415</ele>
        <time>2022-09-07T01:31:37Z</time>
      </trkpt>
      <trkpt lat="44.74288" lon="5.38144">
        <ele>415</ele>
        <time>2022-09-07T01:31:42Z</time>
      </trkpt>
      <trkpt lat="44.74348" lon="5.38148">
        <ele>412</ele>
        <time>2022-09-07T01:31:52Z</time>
      </trkpt>
      <trkpt lat="44.74366" lon="5.38145">
        <ele>413</ele>
        <time>2022-09-07T01:31:56Z</time>
      </trkpt>
      <trkpt lat="44.74397" lon="5.38123">
        <ele>416</ele>
        <time>2022-09-07T01:32:02Z</time>
      </trkpt>
      <trkpt lat="44.7444" lon="5.38097">
        <ele>417</ele>
        <time>2022-09-07T01:32:10Z</time>
      </trkpt>
      <trkpt lat="44.74484" lon="5.38093">
        <ele>413</ele>
        <time>2022-09-07T01:32:18Z</time>
      </trkpt>
      <trkpt lat="44.74554" lon="5.38091">
        <ele>410</ele>
        <time>2022-09-07T01:32:30Z</time>
      </trkpt>
      <trkpt lat="44.74573" lon="5.38085">
        <ele>409</ele>
        <time>2022-09-07T01:32:34Z</time>
      </trkpt>
      <trkpt lat="44.74608" lon="5.38057">
        <ele>408</ele>
        <time>2022-09-07T01:32:41Z</time>
      </trkpt>
      <trkpt lat="44.74658" lon="5.37999">
        <ele>407</ele>
        <time>2022-09-07T01:32:52Z</time>
      </trkpt>
      <trkpt lat="44.74668" lon="5.37966">
        <ele>408</ele>
        <time>2022-09-07T01:32:57Z</time>
      </trkpt>
      <trkpt lat="44.74683" lon="5.37885">
        <ele>408</ele>
        <time>2022-09-07T01:33:08Z</time>
      </trkpt>
      <trkpt lat="44.74687" lon="5.37792">
        <ele>407</ele>
        <time>2022-09-07T01:33:19Z</time>
      </trkpt>
      <trkpt lat="44.74691" lon="5.37767">
        <ele>407</ele>
        <time>2022-09-07T01:33:23Z</time>
      </trkpt>
      <trkpt lat="44.747" lon="5.37741">
        <ele>406</ele>
        <time>2022-09-07T01:33:26Z</time>
      </trkpt>
      <trkpt lat="44.74707" lon="5.37702">
        <ele>405</ele>
        <time>2022-09-07T01:33:31Z</time>
      </trkpt>
      <trkpt lat="44.74712" lon="5.37653">
        <ele>404</ele>
        <time>2022-09-07T01:33:38Z</time>
      </trkpt>
      <trkpt lat="44.74722" lon="5.37618">
        <ele>403</ele>
        <time>2022-09-07T01:33:42Z</time>
      </trkpt>
      <trkpt lat="44.74735" lon="5.37602">
        <ele>403</ele>
        <time>2022-09-07T01:33:45Z</time>
      </trkpt>
      <trkpt lat="44.74772" lon="5.37586">
        <ele>402</ele>
        <time>2022-09-07T01:33:52Z</time>
      </trkpt>
      <trkpt lat="44.74789" lon="5.37583">
        <ele>402</ele>
        <time>2022-09-07T01:33:55Z</time>
      </trkpt>
      <trkpt lat="44.74847" lon="5.37607">
        <ele>402</ele>
        <time>2022-09-07T01:34:06Z</time>
      </trkpt>
      <trkpt lat="44.7486" lon="5.37616">
        <ele>402</ele>
        <time>2022-09-07T01:34:09Z</time>
      </trkpt>
      <trkpt lat="44.74847" lon="5.37647">
        <ele>402</ele>
        <time>2022-09-07T01:34:13Z</time>
      </trkpt>
      <trkpt lat="44.7486" lon="5.37616">
        <ele>402</ele>
        <time>2022-09-07T01:34:18Z</time>
      </trkpt>
      <trkpt lat="44.74886" lon="5.37638">
        <ele>403</ele>
        <time>2022-09-07T01:34:23Z</time>
      </trkpt>
      <trkpt lat="44.74897" lon="5.37656">
        <ele>403</ele>
        <time>2022-09-07T01:34:26Z</time>
      </trkpt>
      <trkpt lat="44.74884" lon="5.37699">
        <ele>403</ele>
        <time>2022-09-07T01:34:32Z</time>
      </trkpt>
      <trkpt lat="44.74842" lon="5.37781">
        <ele>401</ele>
        <time>2022-09-07T01:34:45Z</time>
      </trkpt>
      <trkpt lat="44.74827" lon="5.37818">
        <ele>401</ele>
        <time>2022-09-07T01:34:50Z</time>
      </trkpt>
      <trkpt lat="44.74824" lon="5.37846">
        <ele>401</ele>
        <time>2022-09-07T01:34:54Z</time>
      </trkpt>
      <trkpt lat="44.74826" lon="5.37909">
        <ele>403</ele>
        <time>2022-09-07T01:35:02Z</time>
      </trkpt>
      <trkpt lat="44.74823" lon="5.37922">
        <ele>403</ele>
        <time>2022-09-07T01:35:04Z</time>
      </trkpt>
      <trkpt lat="44.74815" lon="5.37936">
        <ele>403</ele>
        <time>2022-09-07T01:35:06Z</time>
      </trkpt>
      <trkpt lat="44.74814" lon="5.3795">
        <ele>403</ele>
        <time>2022-09-07T01:35:08Z</time>
      </trkpt>
      <trkpt lat="44.74815" lon="5.3796">
        <ele>404</ele>
        <time>2022-09-07T01:35:09Z</time>
      </trkpt>
      <trkpt lat="44.7482" lon="5.37969">
        <ele>404</ele>
        <time>2022-09-07T01:35:10Z</time>
      </trkpt>
      <trkpt lat="44.74828" lon="5.37976">
        <ele>404</ele>
        <time>2022-09-07T01:35:12Z</time>
      </trkpt>
      <trkpt lat="44.74841" lon="5.37977">
        <ele>405</ele>
        <time>2022-09-07T01:35:14Z</time>
      </trkpt>
      <trkpt lat="44.74862" lon="5.37958">
        <ele>405</ele>
        <time>2022-09-07T01:35:19Z</time>
      </trkpt>
      <trkpt lat="44.74879" lon="5.37954">
        <ele>405</ele>
        <time>2022-09-07T01:35:22Z</time>
      </trkpt>
      <trkpt lat="44.74898" lon="5.37944">
        <ele>406</ele>
        <time>2022-09-07T01:35:25Z</time>
      </trkpt>
      <trkpt lat="44.75071" lon="5.37655">
        <ele>415</ele>
        <time>2022-09-07T01:36:13Z</time>
      </trkpt>
      <trkpt lat="44.75113" lon="5.37601">
        <ele>416</ele>
        <time>2022-09-07T01:36:23Z</time>
      </trkpt>
      <trkpt lat="44.75106" lon="5.37591">
        <ele>416</ele>
        <time>2022-09-07T01:36:25Z</time>
      </trkpt>
    </trkseg>
  </trk>
</gpx>